<?xml version='1.0' encoding='UTF-8'?><gpx version="1.1" creator="JPX - https://github.com/jenetics/jpx" xmlns="http://www.topografix.com/GPX/1/1"><trk><trkseg><trkpt lat="43.0929724" lon="12.3081103"><ele>283.5</ele><time>2026-04-19T07:28:31.171Z</time></trkpt><trkpt lat="43.0929061" lon="12.3079566"><ele>285.0</ele><time>2026-04-19T07:28:33.2Z</time></trkpt><trkpt lat="43.0928802" lon="12.3078741"><ele>286.5</ele><time>2026-04-19T07:28:34.196Z</time></trkpt><trkpt lat="43.0928602" lon="12.3077683"><ele>288.0</ele><time>2026-04-19T07:28:37.202Z</time></trkpt><trkpt lat="43.0928063" lon="12.307707"><ele>289.5</ele><time>2026-04-19T07:28:39.184Z</time></trkpt><trkpt lat="43.092746" lon="12.3076777"><ele>291.0</ele><time>2026-04-19T07:28:41.195Z</time></trkpt><trkpt lat="43.0926854" lon="12.3076034"><ele>291.0</ele><time>2026-04-19T07:28:44.195Z</time></trkpt><trkpt lat="43.0926587" lon="12.3074379"><ele>291.0</ele><time>2026-04-19T07:28:46.193Z</time></trkpt><trkpt lat="43.0926381" lon="12.3072804"><ele>291.0</ele><time>2026-04-19T07:28:48.19Z</time></trkpt><trkpt lat="43.0926092" lon="12.3071198"><ele>291.0</ele><time>2026-04-19T07:28:50.192Z</time></trkpt><trkpt lat="43.0925929" lon="12.3070291"><ele>291.0</ele><time>2026-04-19T07:28:51.192Z</time></trkpt><trkpt lat="43.0925765" lon="12.3069389"><ele>292.3333333333333</ele><time>2026-04-19T07:28:52.196Z</time></trkpt><trkpt lat="43.0925634" lon="12.3068432"><ele>293.6666666666667</ele><time>2026-04-19T07:28:53.199Z</time></trkpt><trkpt lat="43.0925456" lon="12.3067306"><ele>295.0</ele><time>2026-04-19T07:28:54.229Z</time></trkpt><trkpt lat="43.0925282" lon="12.3066137"><ele>296.33333333333337</ele><time>2026-04-19T07:28:55.202Z</time></trkpt><trkpt lat="43.0925181" lon="12.3064961"><ele>297.6666666666667</ele><time>2026-04-19T07:28:56.203Z</time></trkpt><trkpt lat="43.0925149" lon="12.3063811"><ele>299.0</ele><time>2026-04-19T07:28:57.21Z</time></trkpt><trkpt lat="43.092507" lon="12.3062657"><ele>300.4</ele><time>2026-04-19T07:28:58.218Z</time></trkpt><trkpt lat="43.0924995" lon="12.3061454"><ele>301.79999999999995</ele><time>2026-04-19T07:28:59.207Z</time></trkpt><trkpt lat="43.0924935" lon="12.3060251"><ele>303.20000000000005</ele><time>2026-04-19T07:29:00.253Z</time></trkpt><trkpt lat="43.0924859" lon="12.3058992"><ele>304.6</ele><time>2026-04-19T07:29:01.213Z</time></trkpt><trkpt lat="43.0924799" lon="12.3057691"><ele>306.0</ele><time>2026-04-19T07:29:02.198Z</time></trkpt><trkpt lat="43.0924741" lon="12.3056414"><ele>305.0</ele><time>2026-04-19T07:29:03.202Z</time></trkpt><trkpt lat="43.0924675" lon="12.3055166"><ele>304.0</ele><time>2026-04-19T07:29:04.207Z</time></trkpt><trkpt lat="43.0924576" lon="12.3053891"><ele>303.0</ele><time>2026-04-19T07:29:05.208Z</time></trkpt><trkpt lat="43.0924522" lon="12.3052621"><ele>302.0</ele><time>2026-04-19T07:29:06.206Z</time></trkpt><trkpt lat="43.0924444" lon="12.3051394"><ele>301.0</ele><time>2026-04-19T07:29:07.214Z</time></trkpt><trkpt lat="43.092444" lon="12.3049369"><ele>301.0</ele><time>2026-04-19T07:29:09.212Z</time></trkpt><trkpt lat="43.0924429" lon="12.3048472"><ele>301.0</ele><time>2026-04-19T07:29:10.217Z</time></trkpt><trkpt lat="43.0924324" lon="12.3047502"><ele>301.0</ele><time>2026-04-19T07:29:11.21Z</time></trkpt><trkpt lat="43.092404" lon="12.3046523"><ele>301.0</ele><time>2026-04-19T07:29:12.212Z</time></trkpt><trkpt lat="43.0923582" lon="12.3045568"><ele>301.0</ele><time>2026-04-19T07:29:13.211Z</time></trkpt><trkpt lat="43.0923048" lon="12.304465"><ele>301.0</ele><time>2026-04-19T07:29:14.21Z</time></trkpt><trkpt lat="43.0922516" lon="12.3043778"><ele>299.8333333333333</ele><time>2026-04-19T07:29:15.228Z</time></trkpt><trkpt lat="43.0922034" lon="12.3042915"><ele>298.66666666666663</ele><time>2026-04-19T07:29:16.222Z</time></trkpt><trkpt lat="43.0921595" lon="12.3042129"><ele>297.5</ele><time>2026-04-19T07:29:17.217Z</time></trkpt><trkpt lat="43.0921139" lon="12.3041437"><ele>296.3333333333333</ele><time>2026-04-19T07:29:18.212Z</time></trkpt><trkpt lat="43.0920666" lon="12.3040152"><ele>295.1666666666667</ele><time>2026-04-19T07:29:20.22Z</time></trkpt><trkpt lat="43.0920979" lon="12.3038989"><ele>294.0</ele><time>2026-04-19T07:29:22.212Z</time></trkpt><trkpt lat="43.0921968" lon="12.303858"><ele>294.0</ele><time>2026-04-19T07:29:24.219Z</time></trkpt><trkpt lat="43.0922654" lon="12.3038605"><ele>294.0</ele><time>2026-04-19T07:29:25.214Z</time></trkpt><trkpt lat="43.0923489" lon="12.3038677"><ele>294.0</ele><time>2026-04-19T07:29:26.213Z</time></trkpt><trkpt lat="43.0924469" lon="12.30387"><ele>294.0</ele><time>2026-04-19T07:29:27.213Z</time></trkpt><trkpt lat="43.0925481" lon="12.3038622"><ele>294.0</ele><time>2026-04-19T07:29:28.22Z</time></trkpt><trkpt lat="43.0926551" lon="12.3038505"><ele>291.8</ele><time>2026-04-19T07:29:29.225Z</time></trkpt><trkpt lat="43.0927632" lon="12.3038314"><ele>289.59999999999997</ele><time>2026-04-19T07:29:30.218Z</time></trkpt><trkpt lat="43.0928706" lon="12.303808"><ele>287.4</ele><time>2026-04-19T07:29:31.217Z</time></trkpt><trkpt lat="43.0929795" lon="12.3037859"><ele>285.2</ele><time>2026-04-19T07:29:32.217Z</time></trkpt><trkpt lat="43.0930934" lon="12.3037636"><ele>283.0</ele><time>2026-04-19T07:29:33.218Z</time></trkpt><trkpt lat="43.0932032" lon="12.3037465"><ele>280.4</ele><time>2026-04-19T07:29:34.214Z</time></trkpt><trkpt lat="43.0933102" lon="12.3037309"><ele>277.8</ele><time>2026-04-19T07:29:35.23Z</time></trkpt><trkpt lat="43.0934077" lon="12.3037143"><ele>275.2</ele><time>2026-04-19T07:29:36.216Z</time></trkpt><trkpt lat="43.0935007" lon="12.3036968"><ele>272.6</ele><time>2026-04-19T07:29:37.218Z</time></trkpt><trkpt lat="43.0935985" lon="12.3036766"><ele>270.0</ele><time>2026-04-19T07:29:38.213Z</time></trkpt><trkpt lat="43.0937045" lon="12.3036512"><ele>270.0</ele><time>2026-04-19T07:29:39.232Z</time></trkpt><trkpt lat="43.0938153" lon="12.3036208"><ele>270.0</ele><time>2026-04-19T07:29:40.229Z</time></trkpt><trkpt lat="43.0939266" lon="12.3035856"><ele>270.0</ele><time>2026-04-19T07:29:41.219Z</time></trkpt><trkpt lat="43.0940369" lon="12.3035433"><ele>270.0</ele><time>2026-04-19T07:29:42.225Z</time></trkpt><trkpt lat="43.0941465" lon="12.30349"><ele>269.75</ele><time>2026-04-19T07:29:43.23Z</time></trkpt><trkpt lat="43.0942528" lon="12.3034295"><ele>269.5</ele><time>2026-04-19T07:29:44.222Z</time></trkpt><trkpt lat="43.0943586" lon="12.3033748"><ele>269.25</ele><time>2026-04-19T07:29:45.241Z</time></trkpt><trkpt lat="43.0944632" lon="12.3033193"><ele>269.0</ele><time>2026-04-19T07:29:46.229Z</time></trkpt><trkpt lat="43.0945713" lon="12.3032626"><ele>269.0</ele><time>2026-04-19T07:29:47.24Z</time></trkpt><trkpt lat="43.0946836" lon="12.3032061"><ele>269.0</ele><time>2026-04-19T07:29:48.217Z</time></trkpt><trkpt lat="43.0947998" lon="12.3031532"><ele>269.0</ele><time>2026-04-19T07:29:49.251Z</time></trkpt><trkpt lat="43.0949136" lon="12.3031011"><ele>269.0</ele><time>2026-04-19T07:29:50.218Z</time></trkpt><trkpt lat="43.0950225" lon="12.3030513"><ele>265.2</ele><time>2026-04-19T07:29:51.221Z</time></trkpt><trkpt lat="43.0951304" lon="12.3030016"><ele>261.4</ele><time>2026-04-19T07:29:52.226Z</time></trkpt><trkpt lat="43.0952321" lon="12.3029522"><ele>257.6</ele><time>2026-04-19T07:29:53.228Z</time></trkpt><trkpt lat="43.0953329" lon="12.3029043"><ele>253.8</ele><time>2026-04-19T07:29:54.231Z</time></trkpt><trkpt lat="43.095434" lon="12.3028644"><ele>250.0</ele><time>2026-04-19T07:29:55.229Z</time></trkpt><trkpt lat="43.0955384" lon="12.3028477"><ele>250.0</ele><time>2026-04-19T07:29:56.231Z</time></trkpt><trkpt lat="43.0956415" lon="12.3028494"><ele>250.0</ele><time>2026-04-19T07:29:57.231Z</time></trkpt><trkpt lat="43.095741" lon="12.3028662"><ele>250.0</ele><time>2026-04-19T07:29:58.249Z</time></trkpt><trkpt lat="43.095836" lon="12.3028934"><ele>250.0</ele><time>2026-04-19T07:29:59.233Z</time></trkpt><trkpt lat="43.0959298" lon="12.302932"><ele>250.0</ele><time>2026-04-19T07:30:00.317Z</time></trkpt><trkpt lat="43.0960205" lon="12.3029807"><ele>248.8</ele><time>2026-04-19T07:30:01.229Z</time></trkpt><trkpt lat="43.0961098" lon="12.3030349"><ele>247.6</ele><time>2026-04-19T07:30:02.234Z</time></trkpt><trkpt lat="43.0962019" lon="12.3030894"><ele>246.39999999999998</ele><time>2026-04-19T07:30:03.248Z</time></trkpt><trkpt lat="43.0962888" lon="12.3031368"><ele>245.2</ele><time>2026-04-19T07:30:04.239Z</time></trkpt><trkpt lat="43.0963621" lon="12.3031904"><ele>244.0</ele><time>2026-04-19T07:30:05.248Z</time></trkpt><trkpt lat="43.0964293" lon="12.3032606"><ele>243.66666666666666</ele><time>2026-04-19T07:30:06.234Z</time></trkpt><trkpt lat="43.0964936" lon="12.3033389"><ele>243.33333333333331</ele><time>2026-04-19T07:30:07.239Z</time></trkpt><trkpt lat="43.096548" lon="12.3034171"><ele>243.0</ele><time>2026-04-19T07:30:08.235Z</time></trkpt><trkpt lat="43.096595" lon="12.3034793"><ele>242.66666666666669</ele><time>2026-04-19T07:30:09.241Z</time></trkpt><trkpt lat="43.0967026" lon="12.3035301"><ele>242.33333333333334</ele><time>2026-04-19T07:30:11.242Z</time></trkpt><trkpt lat="43.0967698" lon="12.3035037"><ele>242.0</ele><time>2026-04-19T07:30:12.233Z</time></trkpt><trkpt lat="43.0968503" lon="12.3033818"><ele>242.00000000000003</ele><time>2026-04-19T07:30:14.244Z</time></trkpt><trkpt lat="43.0968677" lon="12.3032862"><ele>242.0</ele><time>2026-04-19T07:30:15.247Z</time></trkpt><trkpt lat="43.0968696" lon="12.3031736"><ele>242.0</ele><time>2026-04-19T07:30:16.266Z</time></trkpt><trkpt lat="43.0968656" lon="12.3030629"><ele>242.0</ele><time>2026-04-19T07:30:17.233Z</time></trkpt><trkpt lat="43.0968666" lon="12.3029486"><ele>242.00000000000003</ele><time>2026-04-19T07:30:18.248Z</time></trkpt><trkpt lat="43.0968692" lon="12.3028338"><ele>242.0</ele><time>2026-04-19T07:30:19.238Z</time></trkpt><trkpt lat="43.0968626" lon="12.3026969"><ele>241.2</ele><time>2026-04-19T07:30:20.283Z</time></trkpt><trkpt lat="43.0968396" lon="12.3025613"><ele>240.39999999999998</ele><time>2026-04-19T07:30:21.248Z</time></trkpt><trkpt lat="43.0968086" lon="12.3024393"><ele>239.60000000000002</ele><time>2026-04-19T07:30:22.255Z</time></trkpt><trkpt lat="43.0967758" lon="12.3023122"><ele>238.8</ele><time>2026-04-19T07:30:23.246Z</time></trkpt><trkpt lat="43.0967454" lon="12.3021805"><ele>238.0</ele><time>2026-04-19T07:30:24.239Z</time></trkpt><trkpt lat="43.0967104" lon="12.3020464"><ele>237.2</ele><time>2026-04-19T07:30:25.243Z</time></trkpt><trkpt lat="43.0966703" lon="12.3019128"><ele>236.4</ele><time>2026-04-19T07:30:26.251Z</time></trkpt><trkpt lat="43.0966357" lon="12.3017798"><ele>235.59999999999997</ele><time>2026-04-19T07:30:27.253Z</time></trkpt><trkpt lat="43.0966068" lon="12.3016514"><ele>234.79999999999998</ele><time>2026-04-19T07:30:28.249Z</time></trkpt><trkpt lat="43.096591" lon="12.3015259"><ele>234.0</ele><time>2026-04-19T07:30:29.247Z</time></trkpt><trkpt lat="43.0965949" lon="12.3013925"><ele>233.83333333333334</ele><time>2026-04-19T07:30:30.25Z</time></trkpt><trkpt lat="43.0966118" lon="12.3012664"><ele>233.66666666666669</ele><time>2026-04-19T07:30:31.254Z</time></trkpt><trkpt lat="43.0966363" lon="12.3011361"><ele>233.5</ele><time>2026-04-19T07:30:32.249Z</time></trkpt><trkpt lat="43.0966679" lon="12.3010212"><ele>233.33333333333334</ele><time>2026-04-19T07:30:33.174Z</time></trkpt><trkpt lat="43.0967039" lon="12.3009291"><ele>233.16666666666669</ele><time>2026-04-19T07:30:34.171Z</time></trkpt><trkpt lat="43.0967465" lon="12.30086"><ele>233.0</ele><time>2026-04-19T07:30:35.167Z</time></trkpt><trkpt lat="43.0968142" lon="12.3008077"><ele>233.0</ele><time>2026-04-19T07:30:36.237Z</time></trkpt><trkpt lat="43.0968944" lon="12.3007592"><ele>233.0</ele><time>2026-04-19T07:30:37.265Z</time></trkpt><trkpt lat="43.0969791" lon="12.3007439"><ele>233.0</ele><time>2026-04-19T07:30:38.256Z</time></trkpt><trkpt lat="43.0970746" lon="12.3007545"><ele>233.0</ele><time>2026-04-19T07:30:39.168Z</time></trkpt><trkpt lat="43.0971737" lon="12.3007861"><ele>233.0</ele><time>2026-04-19T07:30:40.158Z</time></trkpt><trkpt lat="43.0972745" lon="12.3008304"><ele>233.0</ele><time>2026-04-19T07:30:41.162Z</time></trkpt><trkpt lat="43.0973758" lon="12.3008792"><ele>233.0</ele><time>2026-04-19T07:30:42.165Z</time></trkpt><trkpt lat="43.097483" lon="12.300927"><ele>233.0</ele><time>2026-04-19T07:30:43.163Z</time></trkpt><trkpt lat="43.0975893" lon="12.3009743"><ele>233.0</ele><time>2026-04-19T07:30:44.167Z</time></trkpt><trkpt lat="43.097693" lon="12.3010234"><ele>233.0</ele><time>2026-04-19T07:30:45.156Z</time></trkpt><trkpt lat="43.097786" lon="12.3010824"><ele>233.60000000000002</ele><time>2026-04-19T07:30:46.163Z</time></trkpt><trkpt lat="43.0978686" lon="12.3011516"><ele>234.20000000000002</ele><time>2026-04-19T07:30:47.15Z</time></trkpt><trkpt lat="43.0979354" lon="12.3012459"><ele>234.8</ele><time>2026-04-19T07:30:48.16Z</time></trkpt><trkpt lat="43.0979827" lon="12.301351"><ele>235.4</ele><time>2026-04-19T07:30:49.167Z</time></trkpt><trkpt lat="43.0980125" lon="12.3014672"><ele>236.0</ele><time>2026-04-19T07:30:50.173Z</time></trkpt><trkpt lat="43.0980294" lon="12.3015823"><ele>236.14285714285714</ele><time>2026-04-19T07:30:51.146Z</time></trkpt><trkpt lat="43.0980222" lon="12.3016986"><ele>236.28571428571428</ele><time>2026-04-19T07:30:52.15Z</time></trkpt><trkpt lat="43.0980015" lon="12.3018098"><ele>236.42857142857142</ele><time>2026-04-19T07:30:53.15Z</time></trkpt><trkpt lat="43.098002" lon="12.3019089"><ele>236.57142857142856</ele><time>2026-04-19T07:30:54.179Z</time></trkpt><trkpt lat="43.0980231" lon="12.3019984"><ele>236.71428571428572</ele><time>2026-04-19T07:30:55.156Z</time></trkpt><trkpt lat="43.0980694" lon="12.3020681"><ele>236.85714285714283</ele><time>2026-04-19T07:30:56.185Z</time></trkpt><trkpt lat="43.0981271" lon="12.3021101"><ele>236.99999999999997</ele><time>2026-04-19T07:30:57.177Z</time></trkpt><trkpt lat="43.0981976" lon="12.3021246"><ele>237.33333333333334</ele><time>2026-04-19T07:30:58.171Z</time></trkpt><trkpt lat="43.0982686" lon="12.3021069"><ele>237.66666666666669</ele><time>2026-04-19T07:30:59.161Z</time></trkpt><trkpt lat="43.098338" lon="12.3020697"><ele>238.0</ele><time>2026-04-19T07:31:00.162Z</time></trkpt><trkpt lat="43.0984131" lon="12.3020402"><ele>238.33333333333334</ele><time>2026-04-19T07:31:01.152Z</time></trkpt><trkpt lat="43.0984886" lon="12.3020407"><ele>238.66666666666669</ele><time>2026-04-19T07:31:02.162Z</time></trkpt><trkpt lat="43.0985687" lon="12.3020691"><ele>239.0</ele><time>2026-04-19T07:31:03.179Z</time></trkpt><trkpt lat="43.098656" lon="12.302126"><ele>239.0</ele><time>2026-04-19T07:31:04.184Z</time></trkpt><trkpt lat="43.0987563" lon="12.3021924"><ele>239.0</ele><time>2026-04-19T07:31:05.169Z</time></trkpt><trkpt lat="43.0988619" lon="12.3022504"><ele>239.0</ele><time>2026-04-19T07:31:06.181Z</time></trkpt><trkpt lat="43.0989699" lon="12.3023035"><ele>239.0</ele><time>2026-04-19T07:31:07.16Z</time></trkpt><trkpt lat="43.0990833" lon="12.3023654"><ele>239.75</ele><time>2026-04-19T07:31:08.16Z</time></trkpt><trkpt lat="43.0991988" lon="12.3024262"><ele>240.5</ele><time>2026-04-19T07:31:09.162Z</time></trkpt><trkpt lat="43.0993161" lon="12.3024852"><ele>241.25</ele><time>2026-04-19T07:31:10.176Z</time></trkpt><trkpt lat="43.0994373" lon="12.3025465"><ele>242.0</ele><time>2026-04-19T07:31:11.173Z</time></trkpt><trkpt lat="43.0995607" lon="12.3026074"><ele>242.0</ele><time>2026-04-19T07:31:12.168Z</time></trkpt><trkpt lat="43.0996814" lon="12.3026694"><ele>242.0</ele><time>2026-04-19T07:31:13.17Z</time></trkpt><trkpt lat="43.0999225" lon="12.3027903"><ele>242.0</ele><time>2026-04-19T07:31:15.186Z</time></trkpt><trkpt lat="43.1000465" lon="12.3028479"><ele>242.5</ele><time>2026-04-19T07:31:16.175Z</time></trkpt><trkpt lat="43.1001654" lon="12.3029013"><ele>243.0</ele><time>2026-04-19T07:31:17.196Z</time></trkpt><trkpt lat="43.1002846" lon="12.302958"><ele>243.5</ele><time>2026-04-19T07:31:18.182Z</time></trkpt><trkpt lat="43.1003923" lon="12.3030107"><ele>244.0</ele><time>2026-04-19T07:31:19.183Z</time></trkpt><trkpt lat="43.1004814" lon="12.3030593"><ele>244.39999999999998</ele><time>2026-04-19T07:31:20.184Z</time></trkpt><trkpt lat="43.100558" lon="12.303114"><ele>244.79999999999998</ele><time>2026-04-19T07:31:21.191Z</time></trkpt><trkpt lat="43.1006212" lon="12.3031924"><ele>245.20000000000002</ele><time>2026-04-19T07:31:22.186Z</time></trkpt><trkpt lat="43.1006638" lon="12.303295"><ele>245.60000000000002</ele><time>2026-04-19T07:31:23.183Z</time></trkpt><trkpt lat="43.1006956" lon="12.3034275"><ele>246.0</ele><time>2026-04-19T07:31:24.195Z</time></trkpt><trkpt lat="43.1007141" lon="12.3035761"><ele>246.0</ele><time>2026-04-19T07:31:25.183Z</time></trkpt><trkpt lat="43.1007348" lon="12.3037388"><ele>246.0</ele><time>2026-04-19T07:31:26.173Z</time></trkpt><trkpt lat="43.1007579" lon="12.3039124"><ele>246.0</ele><time>2026-04-19T07:31:27.171Z</time></trkpt><trkpt lat="43.1007836" lon="12.304092"><ele>246.0</ele><time>2026-04-19T07:31:28.185Z</time></trkpt><trkpt lat="43.100805" lon="12.3042638"><ele>246.0</ele><time>2026-04-19T07:31:29.177Z</time></trkpt><trkpt lat="43.1008135" lon="12.3044381"><ele>246.0</ele><time>2026-04-19T07:31:30.18Z</time></trkpt><trkpt lat="43.1008104" lon="12.3046161"><ele>246.0</ele><time>2026-04-19T07:31:31.181Z</time></trkpt><trkpt lat="43.1007997" lon="12.3047956"><ele>246.0</ele><time>2026-04-19T07:31:32.183Z</time></trkpt><trkpt lat="43.1007866" lon="12.3049789"><ele>246.0</ele><time>2026-04-19T07:31:33.188Z</time></trkpt><trkpt lat="43.1007735" lon="12.305163"><ele>246.0</ele><time>2026-04-19T07:31:34.176Z</time></trkpt><trkpt lat="43.1007627" lon="12.3053575"><ele>246.0</ele><time>2026-04-19T07:31:35.171Z</time></trkpt><trkpt lat="43.100758" lon="12.3055554"><ele>246.0</ele><time>2026-04-19T07:31:36.185Z</time></trkpt><trkpt lat="43.1007565" lon="12.3057481"><ele>246.0</ele><time>2026-04-19T07:31:37.23Z</time></trkpt><trkpt lat="43.1007534" lon="12.3059412"><ele>246.0</ele><time>2026-04-19T07:31:38.199Z</time></trkpt><trkpt lat="43.1007532" lon="12.306138"><ele>246.0</ele><time>2026-04-19T07:31:39.187Z</time></trkpt><trkpt lat="43.1007458" lon="12.3063352"><ele>246.0</ele><time>2026-04-19T07:31:40.188Z</time></trkpt><trkpt lat="43.1007375" lon="12.3065313"><ele>246.0</ele><time>2026-04-19T07:31:41.182Z</time></trkpt><trkpt lat="43.1007301" lon="12.3067285"><ele>246.0</ele><time>2026-04-19T07:31:42.205Z</time></trkpt><trkpt lat="43.100723" lon="12.3069255"><ele>246.0</ele><time>2026-04-19T07:31:43.206Z</time></trkpt><trkpt lat="43.1007172" lon="12.3071198"><ele>246.0</ele><time>2026-04-19T07:31:44.199Z</time></trkpt><trkpt lat="43.1007129" lon="12.3073089"><ele>246.0</ele><time>2026-04-19T07:31:45.181Z</time></trkpt><trkpt lat="43.1007124" lon="12.3074783"><ele>246.00000000000003</ele><time>2026-04-19T07:31:46.201Z</time></trkpt><trkpt lat="43.1007119" lon="12.3076248"><ele>246.00000000000003</ele><time>2026-04-19T07:31:47.183Z</time></trkpt><trkpt lat="43.1007138" lon="12.3077585"><ele>246.0</ele><time>2026-04-19T07:31:48.188Z</time></trkpt><trkpt lat="43.1007234" lon="12.3078771"><ele>246.0</ele><time>2026-04-19T07:31:49.192Z</time></trkpt><trkpt lat="43.1007458" lon="12.3079827"><ele>246.5714285714286</ele><time>2026-04-19T07:31:50.19Z</time></trkpt><trkpt lat="43.1007839" lon="12.3080693"><ele>247.14285714285717</ele><time>2026-04-19T07:31:51.214Z</time></trkpt><trkpt lat="43.1008397" lon="12.3081299"><ele>247.71428571428572</ele><time>2026-04-19T07:31:52.19Z</time></trkpt><trkpt lat="43.1009023" lon="12.3081596"><ele>248.2857142857143</ele><time>2026-04-19T07:31:53.189Z</time></trkpt><trkpt lat="43.1009671" lon="12.3081629"><ele>248.8571428571429</ele><time>2026-04-19T07:31:54.201Z</time></trkpt><trkpt lat="43.1010377" lon="12.3081367"><ele>249.42857142857142</ele><time>2026-04-19T07:31:55.211Z</time></trkpt><trkpt lat="43.1011077" lon="12.3080753"><ele>250.0</ele><time>2026-04-19T07:31:56.19Z</time></trkpt><trkpt lat="43.1011463" lon="12.3079854"><ele>250.5</ele><time>2026-04-19T07:31:57.189Z</time></trkpt><trkpt lat="43.1011591" lon="12.3078698"><ele>251.0</ele><time>2026-04-19T07:31:58.186Z</time></trkpt><trkpt lat="43.1011493" lon="12.3077316"><ele>251.5</ele><time>2026-04-19T07:31:59.194Z</time></trkpt><trkpt lat="43.101136" lon="12.307563"><ele>252.0</ele><time>2026-04-19T07:32:00.192Z</time></trkpt><trkpt lat="43.1011161" lon="12.3073701"><ele>252.0</ele><time>2026-04-19T07:32:01.198Z</time></trkpt><trkpt lat="43.1011024" lon="12.3071809"><ele>252.0</ele><time>2026-04-19T07:32:02.2Z</time></trkpt><trkpt lat="43.1010904" lon="12.3070017"><ele>252.0</ele><time>2026-04-19T07:32:03.195Z</time></trkpt><trkpt lat="43.1010804" lon="12.3068359"><ele>252.0</ele><time>2026-04-19T07:32:04.206Z</time></trkpt><trkpt lat="43.1010751" lon="12.3066837"><ele>252.0</ele><time>2026-04-19T07:32:05.21Z</time></trkpt><trkpt lat="43.1010784" lon="12.3065518"><ele>252.0</ele><time>2026-04-19T07:32:06.201Z</time></trkpt><trkpt lat="43.1010922" lon="12.3064399"><ele>252.0</ele><time>2026-04-19T07:32:07.196Z</time></trkpt><trkpt lat="43.101129" lon="12.3063516"><ele>252.0</ele><time>2026-04-19T07:32:08.205Z</time></trkpt><trkpt lat="43.1011839" lon="12.3062944"><ele>252.0</ele><time>2026-04-19T07:32:09.207Z</time></trkpt><trkpt lat="43.101252" lon="12.3062634"><ele>252.0</ele><time>2026-04-19T07:32:10.209Z</time></trkpt><trkpt lat="43.1013597" lon="12.3063205"><ele>252.0</ele><time>2026-04-19T07:32:12.211Z</time></trkpt><trkpt lat="43.1013924" lon="12.3064651"><ele>252.0</ele><time>2026-04-19T07:32:14.202Z</time></trkpt><trkpt lat="43.1013788" lon="12.306555"><ele>252.0</ele><time>2026-04-19T07:32:15.201Z</time></trkpt><trkpt lat="43.1013445" lon="12.3066523"><ele>252.0</ele><time>2026-04-19T07:32:16.209Z</time></trkpt><trkpt lat="43.1013126" lon="12.3067393"><ele>252.0</ele><time>2026-04-19T07:32:17.206Z</time></trkpt><trkpt lat="43.101305" lon="12.3068277"><ele>252.0</ele><time>2026-04-19T07:32:18.212Z</time></trkpt><trkpt lat="43.101359" lon="12.3069592"><ele>252.0</ele><time>2026-04-19T07:32:20.216Z</time></trkpt><trkpt lat="43.1014834" lon="12.3069817"><ele>252.0</ele><time>2026-04-19T07:32:22.213Z</time></trkpt><trkpt lat="43.101576" lon="12.3069655"><ele>252.0</ele><time>2026-04-19T07:32:23.221Z</time></trkpt><trkpt lat="43.1016739" lon="12.3069361"><ele>252.0</ele><time>2026-04-19T07:32:24.219Z</time></trkpt><trkpt lat="43.1017779" lon="12.30693"><ele>252.0</ele><time>2026-04-19T07:32:25.213Z</time></trkpt><trkpt lat="43.1018816" lon="12.3069291"><ele>253.5</ele><time>2026-04-19T07:32:26.216Z</time></trkpt><trkpt lat="43.1019989" lon="12.3069372"><ele>255.0</ele><time>2026-04-19T07:32:27.222Z</time></trkpt><trkpt lat="43.1021185" lon="12.3069392"><ele>256.5</ele><time>2026-04-19T07:32:28.219Z</time></trkpt><trkpt lat="43.1022428" lon="12.3069413"><ele>258.0</ele><time>2026-04-19T07:32:29.228Z</time></trkpt><trkpt lat="43.1023642" lon="12.306941"><ele>259.5</ele><time>2026-04-19T07:32:30.218Z</time></trkpt><trkpt lat="43.1024937" lon="12.3069442"><ele>261.0</ele><time>2026-04-19T07:32:31.223Z</time></trkpt><trkpt lat="43.1026192" lon="12.3069525"><ele>262.5</ele><time>2026-04-19T07:32:32.217Z</time></trkpt><trkpt lat="43.1027417" lon="12.3069577"><ele>264.0</ele><time>2026-04-19T07:32:33.223Z</time></trkpt><trkpt lat="43.1028622" lon="12.3069612"><ele>264.0</ele><time>2026-04-19T07:32:34.21Z</time></trkpt><trkpt lat="43.1029898" lon="12.3069643"><ele>264.0</ele><time>2026-04-19T07:32:35.214Z</time></trkpt><trkpt lat="43.1031202" lon="12.3069687"><ele>264.0</ele><time>2026-04-19T07:32:36.223Z</time></trkpt><trkpt lat="43.1032523" lon="12.3069706"><ele>264.0</ele><time>2026-04-19T07:32:37.224Z</time></trkpt><trkpt lat="43.1033877" lon="12.3069714"><ele>264.75</ele><time>2026-04-19T07:32:38.218Z</time></trkpt><trkpt lat="43.1035236" lon="12.3069771"><ele>265.5</ele><time>2026-04-19T07:32:39.223Z</time></trkpt><trkpt lat="43.10366" lon="12.3069879"><ele>266.25</ele><time>2026-04-19T07:32:40.239Z</time></trkpt><trkpt lat="43.1037957" lon="12.3070074"><ele>267.0</ele><time>2026-04-19T07:32:41.236Z</time></trkpt><trkpt lat="43.1039309" lon="12.3070238"><ele>267.0</ele><time>2026-04-19T07:32:42.22Z</time></trkpt><trkpt lat="43.1040636" lon="12.3070407"><ele>267.0</ele><time>2026-04-19T07:32:43.235Z</time></trkpt><trkpt lat="43.1041946" lon="12.3070556"><ele>267.0</ele><time>2026-04-19T07:32:44.225Z</time></trkpt><trkpt lat="43.1043246" lon="12.307067"><ele>267.0</ele><time>2026-04-19T07:32:45.217Z</time></trkpt><trkpt lat="43.1044518" lon="12.3070844"><ele>269.0</ele><time>2026-04-19T07:32:46.218Z</time></trkpt><trkpt lat="43.1045792" lon="12.3070999"><ele>271.0</ele><time>2026-04-19T07:32:47.238Z</time></trkpt><trkpt lat="43.1047039" lon="12.3071155"><ele>273.0</ele><time>2026-04-19T07:32:48.225Z</time></trkpt><trkpt lat="43.1048168" lon="12.3071346"><ele>275.0</ele><time>2026-04-19T07:32:49.226Z</time></trkpt><trkpt lat="43.1049145" lon="12.3071588"><ele>276.1666666666667</ele><time>2026-04-19T07:32:50.226Z</time></trkpt><trkpt lat="43.1049852" lon="12.3071785"><ele>277.33333333333337</ele><time>2026-04-19T07:32:51.228Z</time></trkpt><trkpt lat="43.1050483" lon="12.3072304"><ele>278.5</ele><time>2026-04-19T07:32:53.22Z</time></trkpt><trkpt lat="43.1051095" lon="12.3073019"><ele>279.6666666666667</ele><time>2026-04-19T07:32:55.225Z</time></trkpt><trkpt lat="43.1051966" lon="12.3073066"><ele>280.8333333333333</ele><time>2026-04-19T07:32:57.239Z</time></trkpt><trkpt lat="43.1052907" lon="12.3072037"><ele>282.0</ele><time>2026-04-19T07:32:59.227Z</time></trkpt><trkpt lat="43.1053581" lon="12.3071286"><ele>282.0</ele><time>2026-04-19T07:33:00.224Z</time></trkpt><trkpt lat="43.1054371" lon="12.3070502"><ele>282.0</ele><time>2026-04-19T07:33:01.231Z</time></trkpt><trkpt lat="43.1055127" lon="12.30697"><ele>282.0</ele><time>2026-04-19T07:33:02.225Z</time></trkpt><trkpt lat="43.1055916" lon="12.3068835"><ele>282.0</ele><time>2026-04-19T07:33:03.223Z</time></trkpt><trkpt lat="43.105675" lon="12.306787"><ele>282.0</ele><time>2026-04-19T07:33:04.231Z</time></trkpt><trkpt lat="43.1057646" lon="12.3066894"><ele>282.25</ele><time>2026-04-19T07:33:05.235Z</time></trkpt><trkpt lat="43.1058534" lon="12.306593"><ele>282.5</ele><time>2026-04-19T07:33:06.228Z</time></trkpt><trkpt lat="43.1059437" lon="12.3064987"><ele>282.75</ele><time>2026-04-19T07:33:07.252Z</time></trkpt><trkpt lat="43.1060411" lon="12.3064003"><ele>283.0</ele><time>2026-04-19T07:33:08.229Z</time></trkpt><trkpt lat="43.1061476" lon="12.306306"><ele>283.0</ele><time>2026-04-19T07:33:09.227Z</time></trkpt><trkpt lat="43.1062597" lon="12.3062095"><ele>283.0</ele><time>2026-04-19T07:33:10.233Z</time></trkpt><trkpt lat="43.106366" lon="12.3061185"><ele>283.0</ele><time>2026-04-19T07:33:11.236Z</time></trkpt><trkpt lat="43.1064723" lon="12.3060225"><ele>283.0</ele><time>2026-04-19T07:33:12.232Z</time></trkpt><trkpt lat="43.1065891" lon="12.3059247"><ele>283.25</ele><time>2026-04-19T07:33:13.241Z</time></trkpt><trkpt lat="43.1067066" lon="12.3058319"><ele>283.5</ele><time>2026-04-19T07:33:14.237Z</time></trkpt><trkpt lat="43.1068179" lon="12.3057408"><ele>283.75</ele><time>2026-04-19T07:33:15.24Z</time></trkpt><trkpt lat="43.106925" lon="12.305647"><ele>284.0</ele><time>2026-04-19T07:33:16.263Z</time></trkpt><trkpt lat="43.1070394" lon="12.3055528"><ele>284.0</ele><time>2026-04-19T07:33:17.242Z</time></trkpt><trkpt lat="43.1071579" lon="12.3054637"><ele>284.0</ele><time>2026-04-19T07:33:18.234Z</time></trkpt><trkpt lat="43.1072824" lon="12.3053849"><ele>284.0</ele><time>2026-04-19T07:33:19.24Z</time></trkpt><trkpt lat="43.1074112" lon="12.3053076"><ele>284.0</ele><time>2026-04-19T07:33:20.247Z</time></trkpt><trkpt lat="43.1075441" lon="12.3052462"><ele>285.0</ele><time>2026-04-19T07:33:21.243Z</time></trkpt><trkpt lat="43.1076851" lon="12.3051849"><ele>286.0</ele><time>2026-04-19T07:33:22.24Z</time></trkpt><trkpt lat="43.1078284" lon="12.3051286"><ele>287.0</ele><time>2026-04-19T07:33:23.232Z</time></trkpt><trkpt lat="43.1079705" lon="12.3050691"><ele>288.0</ele><time>2026-04-19T07:33:24.254Z</time></trkpt><trkpt lat="43.1081124" lon="12.3050053"><ele>288.0</ele><time>2026-04-19T07:33:25.249Z</time></trkpt><trkpt lat="43.1082448" lon="12.3049491"><ele>288.0</ele><time>2026-04-19T07:33:26.237Z</time></trkpt><trkpt lat="43.1083707" lon="12.3048913"><ele>288.0</ele><time>2026-04-19T07:33:27.244Z</time></trkpt><trkpt lat="43.10861" lon="12.3047196"><ele>288.0</ele><time>2026-04-19T07:33:29.242Z</time></trkpt><trkpt lat="43.1087175" lon="12.3046089"><ele>288.0</ele><time>2026-04-19T07:33:30.245Z</time></trkpt><trkpt lat="43.1088209" lon="12.3044851"><ele>288.0</ele><time>2026-04-19T07:33:31.26Z</time></trkpt><trkpt lat="43.108924" lon="12.3043536"><ele>288.0</ele><time>2026-04-19T07:33:32.239Z</time></trkpt><trkpt lat="43.109024" lon="12.3042202"><ele>290.5</ele><time>2026-04-19T07:33:33.246Z</time></trkpt><trkpt lat="43.1091291" lon="12.3040822"><ele>293.0</ele><time>2026-04-19T07:33:34.247Z</time></trkpt><trkpt lat="43.1092377" lon="12.3039546"><ele>295.5</ele><time>2026-04-19T07:33:35.158Z</time></trkpt><trkpt lat="43.1093591" lon="12.3038332"><ele>298.0</ele><time>2026-04-19T07:33:36.147Z</time></trkpt><trkpt lat="43.1094816" lon="12.303725"><ele>298.0</ele><time>2026-04-19T07:33:37.166Z</time></trkpt><trkpt lat="43.109612" lon="12.30363"><ele>298.0</ele><time>2026-04-19T07:33:38.15Z</time></trkpt><trkpt lat="43.109751" lon="12.3035492"><ele>298.0</ele><time>2026-04-19T07:33:39.144Z</time></trkpt><trkpt lat="43.1098957" lon="12.3034687"><ele>302.0</ele><time>2026-04-19T07:33:40.159Z</time></trkpt><trkpt lat="43.1100429" lon="12.3033932"><ele>306.0</ele><time>2026-04-19T07:33:41.143Z</time></trkpt><trkpt lat="43.1101934" lon="12.303331"><ele>310.0</ele><time>2026-04-19T07:33:42.171Z</time></trkpt><trkpt lat="43.1103433" lon="12.3032838"><ele>310.0</ele><time>2026-04-19T07:33:43.182Z</time></trkpt><trkpt lat="43.1104916" lon="12.3032622"><ele>310.0</ele><time>2026-04-19T07:33:44.175Z</time></trkpt><trkpt lat="43.1106352" lon="12.3032596"><ele>310.0</ele><time>2026-04-19T07:33:45.146Z</time></trkpt><trkpt lat="43.1107783" lon="12.3032579"><ele>310.0</ele><time>2026-04-19T07:33:46.165Z</time></trkpt><trkpt lat="43.1109173" lon="12.3032413"><ele>312.0</ele><time>2026-04-19T07:33:47.19Z</time></trkpt><trkpt lat="43.1110606" lon="12.3032171"><ele>314.0</ele><time>2026-04-19T07:33:48.167Z</time></trkpt><trkpt lat="43.1112084" lon="12.3031876"><ele>316.0</ele><time>2026-04-19T07:33:49.158Z</time></trkpt><trkpt lat="43.1113539" lon="12.3031566"><ele>318.0</ele><time>2026-04-19T07:33:50.156Z</time></trkpt><trkpt lat="43.1114993" lon="12.3031209"><ele>317.6666666666667</ele><time>2026-04-19T07:33:51.169Z</time></trkpt><trkpt lat="43.1116466" lon="12.3030693"><ele>317.33333333333337</ele><time>2026-04-19T07:33:52.157Z</time></trkpt><trkpt lat="43.1117897" lon="12.303011"><ele>317.0</ele><time>2026-04-19T07:33:53.151Z</time></trkpt><trkpt lat="43.1119292" lon="12.3029324"><ele>317.0</ele><time>2026-04-19T07:33:54.187Z</time></trkpt><trkpt lat="43.1120612" lon="12.3028287"><ele>317.0</ele><time>2026-04-19T07:33:55.164Z</time></trkpt><trkpt lat="43.1121882" lon="12.3027175"><ele>317.0</ele><time>2026-04-19T07:33:56.172Z</time></trkpt><trkpt lat="43.1123098" lon="12.30259"><ele>320.33333333333337</ele><time>2026-04-19T07:33:57.163Z</time></trkpt><trkpt lat="43.1124225" lon="12.3024445"><ele>323.6666666666667</ele><time>2026-04-19T07:33:58.17Z</time></trkpt><trkpt lat="43.1125301" lon="12.3022933"><ele>327.0</ele><time>2026-04-19T07:33:59.159Z</time></trkpt><trkpt lat="43.1126363" lon="12.3021374"><ele>327.6666666666667</ele><time>2026-04-19T07:34:00.159Z</time></trkpt><trkpt lat="43.1127425" lon="12.3019776"><ele>328.33333333333337</ele><time>2026-04-19T07:34:01.156Z</time></trkpt><trkpt lat="43.1128507" lon="12.3018261"><ele>329.0</ele><time>2026-04-19T07:34:02.208Z</time></trkpt><trkpt lat="43.1129544" lon="12.3016728"><ele>329.0</ele><time>2026-04-19T07:34:03.161Z</time></trkpt><trkpt lat="43.1130556" lon="12.3015267"><ele>329.0</ele><time>2026-04-19T07:34:04.174Z</time></trkpt><trkpt lat="43.113166" lon="12.3014015"><ele>329.0</ele><time>2026-04-19T07:34:05.17Z</time></trkpt><trkpt lat="43.1132869" lon="12.3013089"><ele>329.0</ele><time>2026-04-19T07:34:06.18Z</time></trkpt><trkpt lat="43.1134157" lon="12.3012482"><ele>328.5</ele><time>2026-04-19T07:34:07.175Z</time></trkpt><trkpt lat="43.1135498" lon="12.3012063"><ele>328.0</ele><time>2026-04-19T07:34:08.18Z</time></trkpt><trkpt lat="43.1136879" lon="12.3011697"><ele>327.5</ele><time>2026-04-19T07:34:09.171Z</time></trkpt><trkpt lat="43.1138241" lon="12.3011319"><ele>327.0</ele><time>2026-04-19T07:34:10.17Z</time></trkpt><trkpt lat="43.113964" lon="12.3010837"><ele>329.5</ele><time>2026-04-19T07:34:11.173Z</time></trkpt><trkpt lat="43.1141077" lon="12.301033"><ele>332.0</ele><time>2026-04-19T07:34:12.169Z</time></trkpt><trkpt lat="43.1142505" lon="12.3009812"><ele>334.5</ele><time>2026-04-19T07:34:13.19Z</time></trkpt><trkpt lat="43.1143885" lon="12.3009208"><ele>337.0</ele><time>2026-04-19T07:34:14.181Z</time></trkpt><trkpt lat="43.1145208" lon="12.3008378"><ele>337.0</ele><time>2026-04-19T07:34:15.191Z</time></trkpt><trkpt lat="43.1146388" lon="12.3007302"><ele>337.0</ele><time>2026-04-19T07:34:16.167Z</time></trkpt><trkpt lat="43.114749" lon="12.300597"><ele>337.0</ele><time>2026-04-19T07:34:17.191Z</time></trkpt><trkpt lat="43.1148434" lon="12.3004449"><ele>337.0</ele><time>2026-04-19T07:34:18.169Z</time></trkpt><trkpt lat="43.1149225" lon="12.30028"><ele>338.75</ele><time>2026-04-19T07:34:19.181Z</time></trkpt><trkpt lat="43.1149963" lon="12.3001056"><ele>340.5</ele><time>2026-04-19T07:34:20.169Z</time></trkpt><trkpt lat="43.1150712" lon="12.299935"><ele>342.25</ele><time>2026-04-19T07:34:21.169Z</time></trkpt><trkpt lat="43.1151504" lon="12.2997708"><ele>344.0</ele><time>2026-04-19T07:34:22.178Z</time></trkpt><trkpt lat="43.1152349" lon="12.2996197"><ele>344.0</ele><time>2026-04-19T07:34:23.205Z</time></trkpt><trkpt lat="43.1153351" lon="12.2994843"><ele>344.0</ele><time>2026-04-19T07:34:24.175Z</time></trkpt><trkpt lat="43.1154587" lon="12.299363"><ele>344.0</ele><time>2026-04-19T07:34:25.177Z</time></trkpt><trkpt lat="43.1155874" lon="12.2992416"><ele>344.0</ele><time>2026-04-19T07:34:26.171Z</time></trkpt><trkpt lat="43.1157191" lon="12.2991289"><ele>346.0</ele><time>2026-04-19T07:34:27.178Z</time></trkpt><trkpt lat="43.1158607" lon="12.2990026"><ele>348.0</ele><time>2026-04-19T07:34:28.174Z</time></trkpt><trkpt lat="43.1160117" lon="12.2988776"><ele>350.0</ele><time>2026-04-19T07:34:29.168Z</time></trkpt><trkpt lat="43.1161671" lon="12.2987562"><ele>348.6666666666667</ele><time>2026-04-19T07:34:30.175Z</time></trkpt><trkpt lat="43.1163168" lon="12.2986541"><ele>347.3333333333333</ele><time>2026-04-19T07:34:31.179Z</time></trkpt><trkpt lat="43.1164718" lon="12.29855"><ele>346.0</ele><time>2026-04-19T07:34:32.184Z</time></trkpt><trkpt lat="43.116621" lon="12.298446"><ele>346.0</ele><time>2026-04-19T07:34:33.177Z</time></trkpt><trkpt lat="43.1167757" lon="12.2983443"><ele>346.0</ele><time>2026-04-19T07:34:34.186Z</time></trkpt><trkpt lat="43.1169344" lon="12.2982494"><ele>346.0</ele><time>2026-04-19T07:34:35.18Z</time></trkpt><trkpt lat="43.1170865" lon="12.2981596"><ele>344.3333333333333</ele><time>2026-04-19T07:34:36.184Z</time></trkpt><trkpt lat="43.1172464" lon="12.2980805"><ele>342.6666666666667</ele><time>2026-04-19T07:34:37.182Z</time></trkpt><trkpt lat="43.1174109" lon="12.298018"><ele>341.0</ele><time>2026-04-19T07:34:38.187Z</time></trkpt><trkpt lat="43.1175785" lon="12.2979696"><ele>341.0</ele><time>2026-04-19T07:34:39.191Z</time></trkpt><trkpt lat="43.1177489" lon="12.2979293"><ele>341.0</ele><time>2026-04-19T07:34:40.193Z</time></trkpt><trkpt lat="43.1179179" lon="12.2978998"><ele>341.0</ele><time>2026-04-19T07:34:41.189Z</time></trkpt><trkpt lat="43.1180855" lon="12.2978785"><ele>342.33333333333337</ele><time>2026-04-19T07:34:42.179Z</time></trkpt><trkpt lat="43.1182495" lon="12.2978527"><ele>343.6666666666667</ele><time>2026-04-19T07:34:43.19Z</time></trkpt><trkpt lat="43.1184143" lon="12.2978161"><ele>345.0</ele><time>2026-04-19T07:34:44.184Z</time></trkpt><trkpt lat="43.1185796" lon="12.2977672"><ele>345.0</ele><time>2026-04-19T07:34:45.179Z</time></trkpt><trkpt lat="43.1187444" lon="12.2977108"><ele>345.0</ele><time>2026-04-19T07:34:46.183Z</time></trkpt><trkpt lat="43.1189115" lon="12.2976507"><ele>345.0</ele><time>2026-04-19T07:34:47.19Z</time></trkpt><trkpt lat="43.119079" lon="12.2975932"><ele>347.6666666666667</ele><time>2026-04-19T07:34:48.182Z</time></trkpt><trkpt lat="43.1192389" lon="12.2975394"><ele>350.33333333333337</ele><time>2026-04-19T07:34:49.189Z</time></trkpt><trkpt lat="43.1193982" lon="12.2974842"><ele>353.0</ele><time>2026-04-19T07:34:50.205Z</time></trkpt><trkpt lat="43.1195545" lon="12.2974227"><ele>353.0</ele><time>2026-04-19T07:34:51.193Z</time></trkpt><trkpt lat="43.1197077" lon="12.2973516"><ele>353.0</ele><time>2026-04-19T07:34:52.196Z</time></trkpt><trkpt lat="43.1198579" lon="12.2972688"><ele>353.0</ele><time>2026-04-19T07:34:53.182Z</time></trkpt><trkpt lat="43.1200039" lon="12.297174"><ele>350.6666666666667</ele><time>2026-04-19T07:34:54.192Z</time></trkpt><trkpt lat="43.1201565" lon="12.2970772"><ele>348.3333333333333</ele><time>2026-04-19T07:34:55.191Z</time></trkpt><trkpt lat="43.1203051" lon="12.2969811"><ele>346.0</ele><time>2026-04-19T07:34:56.189Z</time></trkpt><trkpt lat="43.1204547" lon="12.2968807"><ele>346.0</ele><time>2026-04-19T07:34:57.196Z</time></trkpt><trkpt lat="43.1206037" lon="12.2967854"><ele>346.0</ele><time>2026-04-19T07:34:58.184Z</time></trkpt><trkpt lat="43.1207501" lon="12.2966874"><ele>346.0</ele><time>2026-04-19T07:34:59.184Z</time></trkpt><trkpt lat="43.1208915" lon="12.2965887"><ele>346.75</ele><time>2026-04-19T07:35:00.185Z</time></trkpt><trkpt lat="43.1210297" lon="12.2964887"><ele>347.5</ele><time>2026-04-19T07:35:01.193Z</time></trkpt><trkpt lat="43.1211537" lon="12.2963783"><ele>348.25</ele><time>2026-04-19T07:35:02.193Z</time></trkpt><trkpt lat="43.1212535" lon="12.2962375"><ele>349.0</ele><time>2026-04-19T07:35:03.202Z</time></trkpt><trkpt lat="43.1213319" lon="12.2960668"><ele>349.0</ele><time>2026-04-19T07:35:04.197Z</time></trkpt><trkpt lat="43.1213987" lon="12.2958818"><ele>349.0</ele><time>2026-04-19T07:35:05.196Z</time></trkpt><trkpt lat="43.1214587" lon="12.2956888"><ele>349.0</ele><time>2026-04-19T07:35:06.237Z</time></trkpt><trkpt lat="43.1215232" lon="12.2955012"><ele>352.75</ele><time>2026-04-19T07:35:07.204Z</time></trkpt><trkpt lat="43.1215844" lon="12.2953139"><ele>356.5</ele><time>2026-04-19T07:35:08.194Z</time></trkpt><trkpt lat="43.1216492" lon="12.2951384"><ele>360.25</ele><time>2026-04-19T07:35:09.203Z</time></trkpt><trkpt lat="43.1217119" lon="12.2949762"><ele>364.0</ele><time>2026-04-19T07:35:10.202Z</time></trkpt><trkpt lat="43.1217758" lon="12.2948337"><ele>364.4</ele><time>2026-04-19T07:35:11.219Z</time></trkpt><trkpt lat="43.1218416" lon="12.294712"><ele>364.79999999999995</ele><time>2026-04-19T07:35:12.193Z</time></trkpt><trkpt lat="43.1219133" lon="12.2946136"><ele>365.20000000000005</ele><time>2026-04-19T07:35:13.202Z</time></trkpt><trkpt lat="43.1219948" lon="12.2945435"><ele>365.6</ele><time>2026-04-19T07:35:14.214Z</time></trkpt><trkpt lat="43.1220892" lon="12.2945056"><ele>366.0</ele><time>2026-04-19T07:35:15.206Z</time></trkpt><trkpt lat="43.1222019" lon="12.2945006"><ele>366.0</ele><time>2026-04-19T07:35:16.204Z</time></trkpt><trkpt lat="43.122321" lon="12.2945201"><ele>366.0</ele><time>2026-04-19T07:35:17.203Z</time></trkpt><trkpt lat="43.1224441" lon="12.2945535"><ele>366.0</ele><time>2026-04-19T07:35:18.207Z</time></trkpt><trkpt lat="43.1225814" lon="12.2945842"><ele>366.0</ele><time>2026-04-19T07:35:19.204Z</time></trkpt><trkpt lat="43.1227256" lon="12.2946083"><ele>362.6666666666667</ele><time>2026-04-19T07:35:20.205Z</time></trkpt><trkpt lat="43.1228732" lon="12.2946208"><ele>359.33333333333337</ele><time>2026-04-19T07:35:21.21Z</time></trkpt><trkpt lat="43.1230277" lon="12.2946075"><ele>356.0</ele><time>2026-04-19T07:35:22.21Z</time></trkpt><trkpt lat="43.1231866" lon="12.2945925"><ele>353.0</ele><time>2026-04-19T07:35:23.217Z</time></trkpt><trkpt lat="43.1233418" lon="12.2945814"><ele>350.0</ele><time>2026-04-19T07:35:24.217Z</time></trkpt><trkpt lat="43.1234952" lon="12.294573"><ele>347.0</ele><time>2026-04-19T07:35:25.226Z</time></trkpt><trkpt lat="43.1236471" lon="12.2945648"><ele>347.0</ele><time>2026-04-19T07:35:26.209Z</time></trkpt><trkpt lat="43.1237904" lon="12.2945493"><ele>347.0</ele><time>2026-04-19T07:35:27.21Z</time></trkpt><trkpt lat="43.1239301" lon="12.2945289"><ele>347.0</ele><time>2026-04-19T07:35:28.236Z</time></trkpt><trkpt lat="43.1240746" lon="12.2945011"><ele>347.0</ele><time>2026-04-19T07:35:29.221Z</time></trkpt><trkpt lat="43.1242247" lon="12.2944766"><ele>345.0</ele><time>2026-04-19T07:35:30.256Z</time></trkpt><trkpt lat="43.124375" lon="12.2944643"><ele>343.0</ele><time>2026-04-19T07:35:31.238Z</time></trkpt><trkpt lat="43.1245288" lon="12.2944666"><ele>341.0</ele><time>2026-04-19T07:35:32.21Z</time></trkpt><trkpt lat="43.1246848" lon="12.2944943"><ele>341.0</ele><time>2026-04-19T07:35:33.222Z</time></trkpt><trkpt lat="43.1248386" lon="12.2945249"><ele>341.0</ele><time>2026-04-19T07:35:34.22Z</time></trkpt><trkpt lat="43.1249914" lon="12.2945518"><ele>341.0</ele><time>2026-04-19T07:35:35.211Z</time></trkpt><trkpt lat="43.1251415" lon="12.2945705"><ele>340.0</ele><time>2026-04-19T07:35:36.237Z</time></trkpt><trkpt lat="43.1252902" lon="12.2945528"><ele>339.0</ele><time>2026-04-19T07:35:37.227Z</time></trkpt><trkpt lat="43.1254262" lon="12.294512"><ele>338.0</ele><time>2026-04-19T07:35:38.214Z</time></trkpt><trkpt lat="43.1255543" lon="12.2944458"><ele>337.0</ele><time>2026-04-19T07:35:39.212Z</time></trkpt><trkpt lat="43.1256862" lon="12.294379"><ele>337.0</ele><time>2026-04-19T07:35:40.231Z</time></trkpt><trkpt lat="43.1258223" lon="12.294322"><ele>337.0</ele><time>2026-04-19T07:35:41.242Z</time></trkpt><trkpt lat="43.1259584" lon="12.2942542"><ele>337.0</ele><time>2026-04-19T07:35:42.216Z</time></trkpt><trkpt lat="43.1260989" lon="12.2941812"><ele>337.0</ele><time>2026-04-19T07:35:43.224Z</time></trkpt><trkpt lat="43.126244" lon="12.2941114"><ele>337.0</ele><time>2026-04-19T07:35:44.22Z</time></trkpt><trkpt lat="43.126386" lon="12.2940454"><ele>337.0</ele><time>2026-04-19T07:35:45.225Z</time></trkpt><trkpt lat="43.1265223" lon="12.2939809"><ele>337.0</ele><time>2026-04-19T07:35:46.23Z</time></trkpt><trkpt lat="43.126658" lon="12.2939182"><ele>337.0</ele><time>2026-04-19T07:35:47.223Z</time></trkpt><trkpt lat="43.1267954" lon="12.2938591"><ele>333.5</ele><time>2026-04-19T07:35:48.235Z</time></trkpt><trkpt lat="43.1269334" lon="12.293799"><ele>330.0</ele><time>2026-04-19T07:35:49.236Z</time></trkpt><trkpt lat="43.1270686" lon="12.2937419"><ele>326.5</ele><time>2026-04-19T07:35:50.215Z</time></trkpt><trkpt lat="43.1272012" lon="12.2936924"><ele>323.0</ele><time>2026-04-19T07:35:51.225Z</time></trkpt><trkpt lat="43.1273367" lon="12.2936461"><ele>323.0</ele><time>2026-04-19T07:35:52.229Z</time></trkpt><trkpt lat="43.1274768" lon="12.2936105"><ele>323.0</ele><time>2026-04-19T07:35:53.229Z</time></trkpt><trkpt lat="43.1276198" lon="12.2935919"><ele>323.0</ele><time>2026-04-19T07:35:54.231Z</time></trkpt><trkpt lat="43.1277645" lon="12.2935886"><ele>323.0</ele><time>2026-04-19T07:35:55.229Z</time></trkpt><trkpt lat="43.1279155" lon="12.2935816"><ele>323.0</ele><time>2026-04-19T07:35:56.225Z</time></trkpt><trkpt lat="43.1280581" lon="12.2935598"><ele>323.0</ele><time>2026-04-19T07:35:57.236Z</time></trkpt><trkpt lat="43.1282046" lon="12.2935184"><ele>323.0</ele><time>2026-04-19T07:35:58.272Z</time></trkpt><trkpt lat="43.1283495" lon="12.2934685"><ele>323.0</ele><time>2026-04-19T07:35:59.237Z</time></trkpt><trkpt lat="43.1285015" lon="12.2934169"><ele>323.0</ele><time>2026-04-19T07:36:00.232Z</time></trkpt><trkpt lat="43.1286506" lon="12.2933678"><ele>323.0</ele><time>2026-04-19T07:36:01.243Z</time></trkpt><trkpt lat="43.1288003" lon="12.2933305"><ele>323.0</ele><time>2026-04-19T07:36:02.166Z</time></trkpt><trkpt lat="43.1289531" lon="12.293291"><ele>322.33333333333337</ele><time>2026-04-19T07:36:03.139Z</time></trkpt><trkpt lat="43.1291048" lon="12.293241"><ele>321.6666666666667</ele><time>2026-04-19T07:36:04.155Z</time></trkpt><trkpt lat="43.1292596" lon="12.2931882"><ele>321.0</ele><time>2026-04-19T07:36:05.247Z</time></trkpt><trkpt lat="43.1295705" lon="12.29304"><ele>315.6666666666667</ele><time>2026-04-19T07:36:07.253Z</time></trkpt><trkpt lat="43.1297284" lon="12.292961"><ele>310.33333333333337</ele><time>2026-04-19T07:36:08.153Z</time></trkpt><trkpt lat="43.1298833" lon="12.2928807"><ele>305.0</ele><time>2026-04-19T07:36:09.167Z</time></trkpt><trkpt lat="43.1300378" lon="12.2927934"><ele>305.0</ele><time>2026-04-19T07:36:10.169Z</time></trkpt><trkpt lat="43.1301972" lon="12.2927103"><ele>305.0</ele><time>2026-04-19T07:36:11.158Z</time></trkpt><trkpt lat="43.1303538" lon="12.2926181"><ele>305.0</ele><time>2026-04-19T07:36:12.16Z</time></trkpt><trkpt lat="43.1305079" lon="12.2925319"><ele>305.0</ele><time>2026-04-19T07:36:13.168Z</time></trkpt><trkpt lat="43.1306618" lon="12.292446"><ele>305.0</ele><time>2026-04-19T07:36:14.17Z</time></trkpt><trkpt lat="43.1308141" lon="12.2923602"><ele>305.0</ele><time>2026-04-19T07:36:15.163Z</time></trkpt><trkpt lat="43.1309677" lon="12.2922726"><ele>302.6666666666667</ele><time>2026-04-19T07:36:16.165Z</time></trkpt><trkpt lat="43.1311173" lon="12.2921858"><ele>300.3333333333333</ele><time>2026-04-19T07:36:17.169Z</time></trkpt><trkpt lat="43.1312696" lon="12.2920983"><ele>298.0</ele><time>2026-04-19T07:36:18.16Z</time></trkpt><trkpt lat="43.1314155" lon="12.2920064"><ele>297.66666666666663</ele><time>2026-04-19T07:36:19.168Z</time></trkpt><trkpt lat="43.1315604" lon="12.2919064"><ele>297.3333333333333</ele><time>2026-04-19T07:36:20.167Z</time></trkpt><trkpt lat="43.1317035" lon="12.2917981"><ele>297.0</ele><time>2026-04-19T07:36:21.157Z</time></trkpt><trkpt lat="43.1318421" lon="12.2916899"><ele>297.0</ele><time>2026-04-19T07:36:22.169Z</time></trkpt><trkpt lat="43.131985" lon="12.2915729"><ele>297.0</ele><time>2026-04-19T07:36:23.167Z</time></trkpt><trkpt lat="43.1321304" lon="12.291468"><ele>297.0</ele><time>2026-04-19T07:36:24.16Z</time></trkpt><trkpt lat="43.1322761" lon="12.291364"><ele>295.3333333333333</ele><time>2026-04-19T07:36:25.176Z</time></trkpt><trkpt lat="43.1324205" lon="12.2912629"><ele>293.66666666666663</ele><time>2026-04-19T07:36:26.181Z</time></trkpt><trkpt lat="43.1325744" lon="12.2911735"><ele>292.0</ele><time>2026-04-19T07:36:27.169Z</time></trkpt><trkpt lat="43.1327374" lon="12.2911116"><ele>292.0</ele><time>2026-04-19T07:36:28.175Z</time></trkpt><trkpt lat="43.1329008" lon="12.291048"><ele>292.0</ele><time>2026-04-19T07:36:29.173Z</time></trkpt><trkpt lat="43.1330667" lon="12.2909838"><ele>292.0</ele><time>2026-04-19T07:36:30.166Z</time></trkpt><trkpt lat="43.1332311" lon="12.2909233"><ele>293.0</ele><time>2026-04-19T07:36:31.187Z</time></trkpt><trkpt lat="43.1333982" lon="12.2908581"><ele>294.0</ele><time>2026-04-19T07:36:32.165Z</time></trkpt><trkpt lat="43.1335642" lon="12.2907919"><ele>295.0</ele><time>2026-04-19T07:36:33.16Z</time></trkpt><trkpt lat="43.1337279" lon="12.2907282"><ele>295.0</ele><time>2026-04-19T07:36:34.174Z</time></trkpt><trkpt lat="43.1338961" lon="12.2906666"><ele>295.0</ele><time>2026-04-19T07:36:35.172Z</time></trkpt><trkpt lat="43.1340579" lon="12.2906134"><ele>295.0</ele><time>2026-04-19T07:36:36.177Z</time></trkpt><trkpt lat="43.1342259" lon="12.2905612"><ele>290.3333333333333</ele><time>2026-04-19T07:36:37.175Z</time></trkpt><trkpt lat="43.1343944" lon="12.290508"><ele>285.6666666666667</ele><time>2026-04-19T07:36:38.173Z</time></trkpt><trkpt lat="43.134564" lon="12.2904561"><ele>281.0</ele><time>2026-04-19T07:36:39.186Z</time></trkpt><trkpt lat="43.1347301" lon="12.2904004"><ele>281.0</ele><time>2026-04-19T07:36:40.202Z</time></trkpt><trkpt lat="43.1348972" lon="12.2903433"><ele>281.0</ele><time>2026-04-19T07:36:41.182Z</time></trkpt><trkpt lat="43.1350651" lon="12.2902839"><ele>281.0</ele><time>2026-04-19T07:36:42.176Z</time></trkpt><trkpt lat="43.1352268" lon="12.2902156"><ele>281.0</ele><time>2026-04-19T07:36:43.177Z</time></trkpt><trkpt lat="43.1353871" lon="12.2901312"><ele>281.0</ele><time>2026-04-19T07:36:44.188Z</time></trkpt><trkpt lat="43.1355432" lon="12.2900451"><ele>281.0</ele><time>2026-04-19T07:36:45.171Z</time></trkpt><trkpt lat="43.1357081" lon="12.2899628"><ele>280.0</ele><time>2026-04-19T07:36:46.178Z</time></trkpt><trkpt lat="43.1358733" lon="12.2899005"><ele>279.0</ele><time>2026-04-19T07:36:47.173Z</time></trkpt><trkpt lat="43.1360441" lon="12.2898592"><ele>278.0</ele><time>2026-04-19T07:36:48.182Z</time></trkpt><trkpt lat="43.1362163" lon="12.2898261"><ele>278.0</ele><time>2026-04-19T07:36:49.176Z</time></trkpt><trkpt lat="43.1363924" lon="12.2898001"><ele>278.0</ele><time>2026-04-19T07:36:50.181Z</time></trkpt><trkpt lat="43.1365717" lon="12.2897841"><ele>278.0</ele><time>2026-04-19T07:36:51.17Z</time></trkpt><trkpt lat="43.1367465" lon="12.2897727"><ele>275.6666666666667</ele><time>2026-04-19T07:36:52.18Z</time></trkpt><trkpt lat="43.1369234" lon="12.2897629"><ele>273.3333333333333</ele><time>2026-04-19T07:36:53.192Z</time></trkpt><trkpt lat="43.1370978" lon="12.2897522"><ele>271.0</ele><time>2026-04-19T07:36:54.199Z</time></trkpt><trkpt lat="43.1372733" lon="12.2897542"><ele>268.66666666666663</ele><time>2026-04-19T07:36:55.172Z</time></trkpt><trkpt lat="43.1374455" lon="12.2897612"><ele>266.3333333333333</ele><time>2026-04-19T07:36:56.18Z</time></trkpt><trkpt lat="43.1376211" lon="12.2897784"><ele>264.0</ele><time>2026-04-19T07:36:57.193Z</time></trkpt><trkpt lat="43.1377966" lon="12.2898023"><ele>264.0</ele><time>2026-04-19T07:36:58.182Z</time></trkpt><trkpt lat="43.1379714" lon="12.2898294"><ele>264.0</ele><time>2026-04-19T07:36:59.182Z</time></trkpt><trkpt lat="43.1381488" lon="12.2898545"><ele>264.0</ele><time>2026-04-19T07:37:00.177Z</time></trkpt><trkpt lat="43.1383244" lon="12.2898859"><ele>263.6666666666667</ele><time>2026-04-19T07:37:01.182Z</time></trkpt><trkpt lat="43.1385028" lon="12.2899089"><ele>263.33333333333337</ele><time>2026-04-19T07:37:02.184Z</time></trkpt><trkpt lat="43.1386811" lon="12.2899238"><ele>263.0</ele><time>2026-04-19T07:37:03.183Z</time></trkpt><trkpt lat="43.1388628" lon="12.2899195"><ele>263.0</ele><time>2026-04-19T07:37:04.177Z</time></trkpt><trkpt lat="43.139041" lon="12.289912"><ele>263.0</ele><time>2026-04-19T07:37:05.202Z</time></trkpt><trkpt lat="43.1392153" lon="12.2899012"><ele>263.0</ele><time>2026-04-19T07:37:06.184Z</time></trkpt><trkpt lat="43.1393778" lon="12.2898899"><ele>262.5</ele><time>2026-04-19T07:37:07.205Z</time></trkpt><trkpt lat="43.1395314" lon="12.2898817"><ele>262.0</ele><time>2026-04-19T07:37:08.186Z</time></trkpt><trkpt lat="43.1396797" lon="12.2898678"><ele>261.5</ele><time>2026-04-19T07:37:09.191Z</time></trkpt><trkpt lat="43.1398255" lon="12.2898573"><ele>261.0</ele><time>2026-04-19T07:37:10.198Z</time></trkpt><trkpt lat="43.139974" lon="12.2898452"><ele>260.25</ele><time>2026-04-19T07:37:11.188Z</time></trkpt><trkpt lat="43.1401151" lon="12.289836"><ele>259.5</ele><time>2026-04-19T07:37:12.191Z</time></trkpt><trkpt lat="43.1402508" lon="12.2898271"><ele>258.75</ele><time>2026-04-19T07:37:13.207Z</time></trkpt><trkpt lat="43.1403777" lon="12.2898182"><ele>258.0</ele><time>2026-04-19T07:37:14.2Z</time></trkpt><trkpt lat="43.1404924" lon="12.2898134"><ele>258.0</ele><time>2026-04-19T07:37:15.206Z</time></trkpt><trkpt lat="43.1406056" lon="12.2898089"><ele>258.0</ele><time>2026-04-19T07:37:16.2Z</time></trkpt><trkpt lat="43.140722" lon="12.289796"><ele>258.0</ele><time>2026-04-19T07:37:17.188Z</time></trkpt><trkpt lat="43.1408416" lon="12.2897916"><ele>258.0</ele><time>2026-04-19T07:37:18.193Z</time></trkpt><trkpt lat="43.1409651" lon="12.289785"><ele>257.6</ele><time>2026-04-19T07:37:19.196Z</time></trkpt><trkpt lat="43.1410883" lon="12.2897758"><ele>257.20000000000005</ele><time>2026-04-19T07:37:20.194Z</time></trkpt><trkpt lat="43.1412028" lon="12.2897677"><ele>256.8</ele><time>2026-04-19T07:37:21.193Z</time></trkpt><trkpt lat="43.1413085" lon="12.28976"><ele>256.40000000000003</ele><time>2026-04-19T07:37:22.199Z</time></trkpt><trkpt lat="43.1414059" lon="12.2897499"><ele>256.0</ele><time>2026-04-19T07:37:23.196Z</time></trkpt><trkpt lat="43.1414984" lon="12.2897394"><ele>255.60000000000002</ele><time>2026-04-19T07:37:24.191Z</time></trkpt><trkpt lat="43.1415801" lon="12.2897297"><ele>255.20000000000002</ele><time>2026-04-19T07:37:25.199Z</time></trkpt><trkpt lat="43.1416526" lon="12.289726"><ele>254.79999999999998</ele><time>2026-04-19T07:37:26.187Z</time></trkpt><trkpt lat="43.141747" lon="12.2897261"><ele>254.39999999999998</ele><time>2026-04-19T07:37:28.188Z</time></trkpt><trkpt lat="43.1418488" lon="12.2897012"><ele>254.0</ele><time>2026-04-19T07:38:25.203Z</time></trkpt><trkpt lat="43.1419381" lon="12.2896057"><ele>254.0</ele><time>2026-04-19T07:38:27.211Z</time></trkpt><trkpt lat="43.1419625" lon="12.2894199"><ele>254.0</ele><time>2026-04-19T07:38:29.203Z</time></trkpt><trkpt lat="43.1419828" lon="12.2892858"><ele>254.0</ele><time>2026-04-19T07:38:30.211Z</time></trkpt><trkpt lat="43.1420055" lon="12.2891353"><ele>254.0</ele><time>2026-04-19T07:38:31.208Z</time></trkpt><trkpt lat="43.1420285" lon="12.2889663"><ele>256.0</ele><time>2026-04-19T07:38:32.207Z</time></trkpt><trkpt lat="43.1420481" lon="12.2888061"><ele>258.0</ele><time>2026-04-19T07:38:33.205Z</time></trkpt><trkpt lat="43.1420806" lon="12.2886449"><ele>260.0</ele><time>2026-04-19T07:38:34.206Z</time></trkpt><trkpt lat="43.142123" lon="12.2885251"><ele>262.0</ele><time>2026-04-19T07:38:35.213Z</time></trkpt><trkpt lat="43.1421816" lon="12.2884196"><ele>264.0</ele><time>2026-04-19T07:38:36.209Z</time></trkpt><trkpt lat="43.1422617" lon="12.2883518"><ele>264.0</ele><time>2026-04-19T07:38:37.203Z</time></trkpt><trkpt lat="43.1423651" lon="12.2883034"><ele>264.0</ele><time>2026-04-19T07:38:38.207Z</time></trkpt><trkpt lat="43.1424873" lon="12.2882801"><ele>264.0</ele><time>2026-04-19T07:38:39.2Z</time></trkpt><trkpt lat="43.1426314" lon="12.2882735"><ele>264.0</ele><time>2026-04-19T07:38:40.232Z</time></trkpt><trkpt lat="43.1427847" lon="12.2882648"><ele>262.75</ele><time>2026-04-19T07:38:41.236Z</time></trkpt><trkpt lat="43.1429351" lon="12.2882526"><ele>261.5</ele><time>2026-04-19T07:38:42.216Z</time></trkpt><trkpt lat="43.1430823" lon="12.2882373"><ele>260.25</ele><time>2026-04-19T07:38:43.206Z</time></trkpt><trkpt lat="43.14322" lon="12.2882245"><ele>259.0</ele><time>2026-04-19T07:38:44.228Z</time></trkpt><trkpt lat="43.1433491" lon="12.2881967"><ele>257.75</ele><time>2026-04-19T07:38:45.208Z</time></trkpt><trkpt lat="43.1434698" lon="12.2881461"><ele>256.5</ele><time>2026-04-19T07:38:46.216Z</time></trkpt><trkpt lat="43.14359" lon="12.2880643"><ele>255.25</ele><time>2026-04-19T07:38:47.218Z</time></trkpt><trkpt lat="43.1437115" lon="12.2879638"><ele>254.0</ele><time>2026-04-19T07:38:48.23Z</time></trkpt><trkpt lat="43.1438219" lon="12.2878578"><ele>252.0</ele><time>2026-04-19T07:38:49.217Z</time></trkpt><trkpt lat="43.1439212" lon="12.2877411"><ele>250.0</ele><time>2026-04-19T07:38:50.211Z</time></trkpt><trkpt lat="43.1440021" lon="12.2876237"><ele>248.0</ele><time>2026-04-19T07:38:51.231Z</time></trkpt><trkpt lat="43.1440676" lon="12.2874805"><ele>246.0</ele><time>2026-04-19T07:38:52.213Z</time></trkpt><trkpt lat="43.1441222" lon="12.2873119"><ele>246.5</ele><time>2026-04-19T07:38:53.201Z</time></trkpt><trkpt lat="43.1441722" lon="12.2871324"><ele>247.0</ele><time>2026-04-19T07:38:54.219Z</time></trkpt><trkpt lat="43.1442168" lon="12.286947"><ele>247.5</ele><time>2026-04-19T07:38:55.219Z</time></trkpt><trkpt lat="43.1442592" lon="12.2867738"><ele>248.0</ele><time>2026-04-19T07:38:56.208Z</time></trkpt><trkpt lat="43.1443041" lon="12.2866116"><ele>248.0</ele><time>2026-04-19T07:38:57.205Z</time></trkpt><trkpt lat="43.1443465" lon="12.28646"><ele>248.0</ele><time>2026-04-19T07:38:58.211Z</time></trkpt><trkpt lat="43.1443938" lon="12.2862991"><ele>248.0</ele><time>2026-04-19T07:38:59.213Z</time></trkpt><trkpt lat="43.1444418" lon="12.2861281"><ele>248.0</ele><time>2026-04-19T07:39:00.213Z</time></trkpt><trkpt lat="43.1444874" lon="12.2859332"><ele>247.0</ele><time>2026-04-19T07:39:01.219Z</time></trkpt><trkpt lat="43.1445336" lon="12.2857299"><ele>246.0</ele><time>2026-04-19T07:39:02.208Z</time></trkpt><trkpt lat="43.1445844" lon="12.2855146"><ele>245.0</ele><time>2026-04-19T07:39:03.214Z</time></trkpt><trkpt lat="43.1446401" lon="12.2853024"><ele>243.75</ele><time>2026-04-19T07:39:04.214Z</time></trkpt><trkpt lat="43.1446906" lon="12.2851055"><ele>242.5</ele><time>2026-04-19T07:39:05.214Z</time></trkpt><trkpt lat="43.1447382" lon="12.2849281"><ele>241.25</ele><time>2026-04-19T07:39:06.219Z</time></trkpt><trkpt lat="43.1447789" lon="12.2847751"><ele>240.0</ele><time>2026-04-19T07:39:07.223Z</time></trkpt><trkpt lat="43.1448086" lon="12.2846513"><ele>240.0</ele><time>2026-04-19T07:39:08.22Z</time></trkpt><trkpt lat="43.144832" lon="12.2845651"><ele>240.0</ele><time>2026-04-19T07:39:09.235Z</time></trkpt><trkpt lat="43.1448661" lon="12.2844807"><ele>240.0</ele><time>2026-04-19T07:39:11.228Z</time></trkpt><trkpt lat="43.1449132" lon="12.2843699"><ele>240.0</ele><time>2026-04-19T07:39:20.227Z</time></trkpt><trkpt lat="43.1449389" lon="12.2842827"><ele>240.0</ele><time>2026-04-19T07:39:21.226Z</time></trkpt><trkpt lat="43.144962" lon="12.2841761"><ele>240.0</ele><time>2026-04-19T07:39:22.212Z</time></trkpt><trkpt lat="43.1449841" lon="12.2840542"><ele>240.25</ele><time>2026-04-19T07:39:23.225Z</time></trkpt><trkpt lat="43.1450153" lon="12.2839247"><ele>240.5</ele><time>2026-04-19T07:39:24.234Z</time></trkpt><trkpt lat="43.1450591" lon="12.2837881"><ele>240.75</ele><time>2026-04-19T07:39:25.231Z</time></trkpt><trkpt lat="43.1451028" lon="12.2836332"><ele>241.0</ele><time>2026-04-19T07:39:26.248Z</time></trkpt><trkpt lat="43.1451498" lon="12.2834659"><ele>241.0</ele><time>2026-04-19T07:39:27.226Z</time></trkpt><trkpt lat="43.145191" lon="12.2833017"><ele>241.0</ele><time>2026-04-19T07:39:28.221Z</time></trkpt><trkpt lat="43.1452318" lon="12.2831303"><ele>241.0</ele><time>2026-04-19T07:39:29.214Z</time></trkpt><trkpt lat="43.1452657" lon="12.2829562"><ele>241.0</ele><time>2026-04-19T07:39:30.243Z</time></trkpt><trkpt lat="43.1452978" lon="12.2827841"><ele>240.75</ele><time>2026-04-19T07:39:31.223Z</time></trkpt><trkpt lat="43.1453379" lon="12.282609"><ele>240.5</ele><time>2026-04-19T07:39:32.232Z</time></trkpt><trkpt lat="43.1453823" lon="12.2824418"><ele>240.25</ele><time>2026-04-19T07:39:33.222Z</time></trkpt><trkpt lat="43.1454302" lon="12.282275"><ele>240.0</ele><time>2026-04-19T07:39:34.223Z</time></trkpt><trkpt lat="43.1454765" lon="12.2821048"><ele>239.5</ele><time>2026-04-19T07:39:35.233Z</time></trkpt><trkpt lat="43.1455227" lon="12.2819304"><ele>239.0</ele><time>2026-04-19T07:39:36.222Z</time></trkpt><trkpt lat="43.1455727" lon="12.2817501"><ele>238.5</ele><time>2026-04-19T07:39:37.223Z</time></trkpt><trkpt lat="43.1456222" lon="12.2815625"><ele>238.0</ele><time>2026-04-19T07:39:38.222Z</time></trkpt><trkpt lat="43.1456703" lon="12.2813794"><ele>238.75</ele><time>2026-04-19T07:39:39.231Z</time></trkpt><trkpt lat="43.1457199" lon="12.2811942"><ele>239.5</ele><time>2026-04-19T07:39:40.224Z</time></trkpt><trkpt lat="43.1457664" lon="12.2810043"><ele>240.25</ele><time>2026-04-19T07:39:41.23Z</time></trkpt><trkpt lat="43.1458193" lon="12.2808149"><ele>241.0</ele><time>2026-04-19T07:39:42.222Z</time></trkpt><trkpt lat="43.1458695" lon="12.2806277"><ele>241.0</ele><time>2026-04-19T07:39:43.235Z</time></trkpt><trkpt lat="43.1459202" lon="12.2804381"><ele>241.0</ele><time>2026-04-19T07:39:44.22Z</time></trkpt><trkpt lat="43.1459671" lon="12.2802588"><ele>241.0</ele><time>2026-04-19T07:39:45.221Z</time></trkpt><trkpt lat="43.1460099" lon="12.280092"><ele>241.0</ele><time>2026-04-19T07:39:46.224Z</time></trkpt><trkpt lat="43.1460493" lon="12.2799311"><ele>241.0</ele><time>2026-04-19T07:39:47.22Z</time></trkpt><trkpt lat="43.1460877" lon="12.279783"><ele>241.00000000000003</ele><time>2026-04-19T07:39:48.233Z</time></trkpt><trkpt lat="43.1461233" lon="12.2796484"><ele>241.00000000000003</ele><time>2026-04-19T07:39:49.229Z</time></trkpt><trkpt lat="43.1461504" lon="12.2795361"><ele>241.0</ele><time>2026-04-19T07:39:50.235Z</time></trkpt><trkpt lat="43.1461666" lon="12.2794414"><ele>241.0</ele><time>2026-04-19T07:39:51.218Z</time></trkpt><trkpt lat="43.1461919" lon="12.2792817"><ele>241.4</ele><time>2026-04-19T07:39:53.232Z</time></trkpt><trkpt lat="43.1462065" lon="12.2791164"><ele>241.8</ele><time>2026-04-19T07:39:55.251Z</time></trkpt><trkpt lat="43.1462582" lon="12.2790078"><ele>242.20000000000002</ele><time>2026-04-19T07:39:57.229Z</time></trkpt><trkpt lat="43.1463253" lon="12.2789398"><ele>242.60000000000002</ele><time>2026-04-19T07:39:59.219Z</time></trkpt><trkpt lat="43.1464012" lon="12.2788658"><ele>243.0</ele><time>2026-04-19T07:40:01.227Z</time></trkpt><trkpt lat="43.1464903" lon="12.2787627"><ele>243.0</ele><time>2026-04-19T07:40:03.253Z</time></trkpt><trkpt lat="43.1465659" lon="12.2786768"><ele>243.0</ele><time>2026-04-19T07:40:05.253Z</time></trkpt><trkpt lat="43.1465742" lon="12.2785692"><ele>243.0</ele><time>2026-04-19T07:40:08.235Z</time></trkpt><trkpt lat="43.1465196" lon="12.2784713"><ele>243.0</ele><time>2026-04-19T07:40:11.228Z</time></trkpt><trkpt lat="43.1464731" lon="12.278389"><ele>243.0</ele><time>2026-04-19T07:40:13.238Z</time></trkpt><trkpt lat="43.1464118" lon="12.2783465"><ele>243.0</ele><time>2026-04-19T07:40:15.251Z</time></trkpt><trkpt lat="43.1463304" lon="12.2782966"><ele>243.0</ele><time>2026-04-19T07:40:18.227Z</time></trkpt><trkpt lat="43.1463061" lon="12.2782085"><ele>243.0</ele><time>2026-04-19T07:40:22.229Z</time></trkpt><trkpt lat="43.146375" lon="12.2781988"><ele>243.0</ele><time>2026-04-19T07:40:25.23Z</time></trkpt><trkpt lat="43.1464537" lon="12.2781806"><ele>243.0</ele><time>2026-04-19T07:40:27.228Z</time></trkpt><trkpt lat="43.1465569" lon="12.2781807"><ele>243.0</ele><time>2026-04-19T07:40:29.235Z</time></trkpt><trkpt lat="43.1466758" lon="12.2781866"><ele>243.0</ele><time>2026-04-19T07:40:31.255Z</time></trkpt><trkpt lat="43.1467766" lon="12.2781845"><ele>243.0</ele><time>2026-04-19T07:40:33.232Z</time></trkpt><trkpt lat="43.1468634" lon="12.2781823"><ele>243.0</ele><time>2026-04-19T07:40:35.246Z</time></trkpt><trkpt lat="43.1469488" lon="12.2781425"><ele>243.0</ele><time>2026-04-19T07:40:37.232Z</time></trkpt><trkpt lat="43.1470196" lon="12.2780946"><ele>243.0</ele><time>2026-04-19T07:40:38.243Z</time></trkpt><trkpt lat="43.1470974" lon="12.278051"><ele>243.0</ele><time>2026-04-19T07:40:39.249Z</time></trkpt><trkpt lat="43.1471854" lon="12.2780103"><ele>243.0</ele><time>2026-04-19T07:40:40.25Z</time></trkpt><trkpt lat="43.1472816" lon="12.277966"><ele>243.2</ele><time>2026-04-19T07:40:41.244Z</time></trkpt><trkpt lat="43.1473698" lon="12.2779268"><ele>243.4</ele><time>2026-04-19T07:40:42.236Z</time></trkpt><trkpt lat="43.1474545" lon="12.2778854"><ele>243.59999999999997</ele><time>2026-04-19T07:40:43.232Z</time></trkpt><trkpt lat="43.147545" lon="12.2778423"><ele>243.79999999999998</ele><time>2026-04-19T07:40:44.229Z</time></trkpt><trkpt lat="43.1476398" lon="12.2778056"><ele>244.0</ele><time>2026-04-19T07:40:45.249Z</time></trkpt><trkpt lat="43.1477377" lon="12.2777622"><ele>244.39999999999998</ele><time>2026-04-19T07:40:46.243Z</time></trkpt><trkpt lat="43.14783" lon="12.2777089"><ele>244.79999999999998</ele><time>2026-04-19T07:40:47.249Z</time></trkpt><trkpt lat="43.1479154" lon="12.2776592"><ele>245.20000000000002</ele><time>2026-04-19T07:40:48.233Z</time></trkpt><trkpt lat="43.1480034" lon="12.2776015"><ele>245.60000000000002</ele><time>2026-04-19T07:40:49.24Z</time></trkpt><trkpt lat="43.1481009" lon="12.277548"><ele>246.0</ele><time>2026-04-19T07:40:50.24Z</time></trkpt><trkpt lat="43.1482096" lon="12.2774912"><ele>246.0</ele><time>2026-04-19T07:40:51.254Z</time></trkpt><trkpt lat="43.1483243" lon="12.2774337"><ele>246.0</ele><time>2026-04-19T07:40:52.235Z</time></trkpt><trkpt lat="43.1484461" lon="12.2773765"><ele>246.0</ele><time>2026-04-19T07:40:53.236Z</time></trkpt><trkpt lat="43.1485689" lon="12.2773188"><ele>246.0</ele><time>2026-04-19T07:40:54.242Z</time></trkpt><trkpt lat="43.1486938" lon="12.2772579"><ele>246.5</ele><time>2026-04-19T07:40:55.261Z</time></trkpt><trkpt lat="43.1488209" lon="12.2771908"><ele>247.0</ele><time>2026-04-19T07:40:56.24Z</time></trkpt><trkpt lat="43.1489485" lon="12.2771265"><ele>247.5</ele><time>2026-04-19T07:40:57.24Z</time></trkpt><trkpt lat="43.1490713" lon="12.2770675"><ele>248.0</ele><time>2026-04-19T07:40:58.247Z</time></trkpt><trkpt lat="43.1491966" lon="12.2770157"><ele>248.0</ele><time>2026-04-19T07:40:59.261Z</time></trkpt><trkpt lat="43.1493156" lon="12.2769608"><ele>248.0</ele><time>2026-04-19T07:41:00.24Z</time></trkpt><trkpt lat="43.1494323" lon="12.2769012"><ele>248.0</ele><time>2026-04-19T07:41:01.244Z</time></trkpt><trkpt lat="43.1495525" lon="12.2768396"><ele>248.0</ele><time>2026-04-19T07:41:02.244Z</time></trkpt><trkpt lat="43.1496754" lon="12.2767835"><ele>248.0</ele><time>2026-04-19T07:41:03.24Z</time></trkpt><trkpt lat="43.1497922" lon="12.2767283"><ele>248.0</ele><time>2026-04-19T07:41:04.246Z</time></trkpt><trkpt lat="43.149902" lon="12.2766752"><ele>248.0</ele><time>2026-04-19T07:41:05.234Z</time></trkpt><trkpt lat="43.1500037" lon="12.2766199"><ele>248.0</ele><time>2026-04-19T07:41:06.265Z</time></trkpt><trkpt lat="43.1500966" lon="12.2765691"><ele>248.0</ele><time>2026-04-19T07:41:07.244Z</time></trkpt><trkpt lat="43.1501905" lon="12.2765167"><ele>248.0</ele><time>2026-04-19T07:41:08.243Z</time></trkpt><trkpt lat="43.1502915" lon="12.2764625"><ele>248.0</ele><time>2026-04-19T07:41:09.248Z</time></trkpt><trkpt lat="43.1503966" lon="12.2764084"><ele>248.0</ele><time>2026-04-19T07:41:10.238Z</time></trkpt><trkpt lat="43.1504925" lon="12.2763568"><ele>248.0</ele><time>2026-04-19T07:41:11.238Z</time></trkpt><trkpt lat="43.1505609" lon="12.2763229"><ele>248.0</ele><time>2026-04-19T07:41:12.247Z</time></trkpt><trkpt lat="43.1506657" lon="12.2763079"><ele>248.75</ele><time>2026-04-19T07:41:14.247Z</time></trkpt><trkpt lat="43.150761" lon="12.27636"><ele>249.5</ele><time>2026-04-19T07:41:16.246Z</time></trkpt><trkpt lat="43.1508695" lon="12.2764323"><ele>250.25</ele><time>2026-04-19T07:41:18.249Z</time></trkpt><trkpt lat="43.150982" lon="12.2764799"><ele>251.0</ele><time>2026-04-19T07:41:20.244Z</time></trkpt><trkpt lat="43.1510993" lon="12.2765147"><ele>251.0</ele><time>2026-04-19T07:41:22.255Z</time></trkpt><trkpt lat="43.1512357" lon="12.2766139"><ele>251.00000000000003</ele><time>2026-04-19T07:41:25.184Z</time></trkpt><trkpt lat="43.1512763" lon="12.2767065"><ele>251.00000000000003</ele><time>2026-04-19T07:41:27.255Z</time></trkpt><trkpt lat="43.1512939" lon="12.276809"><ele>251.0</ele><time>2026-04-19T07:41:29.172Z</time></trkpt><trkpt lat="43.1512866" lon="12.2769092"><ele>251.0</ele><time>2026-04-19T07:41:31.176Z</time></trkpt><trkpt lat="43.1512466" lon="12.2770207"><ele>251.0</ele><time>2026-04-19T07:41:33.183Z</time></trkpt><trkpt lat="43.1511777" lon="12.2771124"><ele>251.00000000000003</ele><time>2026-04-19T07:41:35.165Z</time></trkpt><trkpt lat="43.1511134" lon="12.2772052"><ele>251.00000000000003</ele><time>2026-04-19T07:41:37.154Z</time></trkpt><trkpt lat="43.1510781" lon="12.2773181"><ele>251.0</ele><time>2026-04-19T07:41:39.164Z</time></trkpt><trkpt lat="43.1510787" lon="12.2774395"><ele>251.0</ele><time>2026-04-19T07:41:41.156Z</time></trkpt><trkpt lat="43.1511033" lon="12.2775603"><ele>250.83333333333334</ele><time>2026-04-19T07:41:43.175Z</time></trkpt><trkpt lat="43.1511584" lon="12.2776549"><ele>250.66666666666669</ele><time>2026-04-19T07:41:45.186Z</time></trkpt><trkpt lat="43.1512637" lon="12.277733"><ele>250.5</ele><time>2026-04-19T07:41:47.178Z</time></trkpt><trkpt lat="43.1513311" lon="12.2777696"><ele>250.33333333333331</ele><time>2026-04-19T07:41:48.173Z</time></trkpt><trkpt lat="43.1513952" lon="12.2777997"><ele>250.16666666666666</ele><time>2026-04-19T07:41:49.186Z</time></trkpt><trkpt lat="43.1514622" lon="12.2778291"><ele>250.0</ele><time>2026-04-19T07:41:50.157Z</time></trkpt><trkpt lat="43.1515912" lon="12.2778679"><ele>249.99999999999997</ele><time>2026-04-19T07:41:52.153Z</time></trkpt><trkpt lat="43.1516719" lon="12.2778977"><ele>250.0</ele><time>2026-04-19T07:41:53.177Z</time></trkpt><trkpt lat="43.151758" lon="12.2779357"><ele>250.0</ele><time>2026-04-19T07:41:54.169Z</time></trkpt><trkpt lat="43.1518476" lon="12.2779709"><ele>250.0</ele><time>2026-04-19T07:41:55.172Z</time></trkpt><trkpt lat="43.1519319" lon="12.2780101"><ele>249.99999999999997</ele><time>2026-04-19T07:41:56.174Z</time></trkpt><trkpt lat="43.1520204" lon="12.2780459"><ele>250.0</ele><time>2026-04-19T07:41:57.178Z</time></trkpt><trkpt lat="43.1521043" lon="12.2780795"><ele>249.99999999999997</ele><time>2026-04-19T07:41:58.171Z</time></trkpt><trkpt lat="43.1521826" lon="12.278099"><ele>250.0</ele><time>2026-04-19T07:41:59.162Z</time></trkpt><trkpt lat="43.1522602" lon="12.2781161"><ele>250.0</ele><time>2026-04-19T07:42:00.155Z</time></trkpt><trkpt lat="43.1523441" lon="12.278127"><ele>250.0</ele><time>2026-04-19T07:42:01.158Z</time></trkpt><trkpt lat="43.1524301" lon="12.2781325"><ele>249.99999999999997</ele><time>2026-04-19T07:42:02.16Z</time></trkpt><trkpt lat="43.1525163" lon="12.2781388"><ele>250.0</ele><time>2026-04-19T07:42:03.162Z</time></trkpt><trkpt lat="43.1525998" lon="12.2781477"><ele>249.49999999999997</ele><time>2026-04-19T07:42:04.17Z</time></trkpt><trkpt lat="43.1526828" lon="12.2781628"><ele>249.0</ele><time>2026-04-19T07:42:05.194Z</time></trkpt><trkpt lat="43.1527652" lon="12.2781774"><ele>248.5</ele><time>2026-04-19T07:42:06.161Z</time></trkpt><trkpt lat="43.1528429" lon="12.2781926"><ele>248.0</ele><time>2026-04-19T07:42:07.19Z</time></trkpt><trkpt lat="43.1529183" lon="12.278204"><ele>247.49999999999997</ele><time>2026-04-19T07:42:08.161Z</time></trkpt><trkpt lat="43.1529895" lon="12.2782138"><ele>247.0</ele><time>2026-04-19T07:42:09.172Z</time></trkpt><trkpt lat="43.1530626" lon="12.2782273"><ele>246.99999999999997</ele><time>2026-04-19T07:42:10.171Z</time></trkpt><trkpt lat="43.1531379" lon="12.2782438"><ele>247.0</ele><time>2026-04-19T07:42:11.175Z</time></trkpt><trkpt lat="43.153217" lon="12.2782632"><ele>247.0</ele><time>2026-04-19T07:42:12.181Z</time></trkpt><trkpt lat="43.1532972" lon="12.2782837"><ele>247.0</ele><time>2026-04-19T07:42:13.164Z</time></trkpt><trkpt lat="43.1533818" lon="12.2783066"><ele>246.99999999999997</ele><time>2026-04-19T07:42:14.174Z</time></trkpt><trkpt lat="43.1534638" lon="12.2783253"><ele>247.0</ele><time>2026-04-19T07:42:15.178Z</time></trkpt><trkpt lat="43.1535476" lon="12.27834"><ele>248.0</ele><time>2026-04-19T07:42:16.162Z</time></trkpt><trkpt lat="43.1536293" lon="12.2783497"><ele>249.0</ele><time>2026-04-19T07:42:17.16Z</time></trkpt><trkpt lat="43.1537162" lon="12.2783604"><ele>250.0</ele><time>2026-04-19T07:42:18.176Z</time></trkpt><trkpt lat="43.1538071" lon="12.2783785"><ele>251.0</ele><time>2026-04-19T07:42:19.164Z</time></trkpt><trkpt lat="43.1539036" lon="12.2784074"><ele>252.0</ele><time>2026-04-19T07:42:20.162Z</time></trkpt><trkpt lat="43.154006" lon="12.2784521"><ele>253.0</ele><time>2026-04-19T07:42:21.167Z</time></trkpt><trkpt lat="43.1541062" lon="12.2785008"><ele>254.0</ele><time>2026-04-19T07:42:22.167Z</time></trkpt><trkpt lat="43.1541995" lon="12.2785455"><ele>255.0</ele><time>2026-04-19T07:42:23.18Z</time></trkpt><trkpt lat="43.1542877" lon="12.2785925"><ele>256.0</ele><time>2026-04-19T07:42:24.16Z</time></trkpt><trkpt lat="43.1543779" lon="12.2786632"><ele>257.0</ele><time>2026-04-19T07:42:25.179Z</time></trkpt><trkpt lat="43.1544676" lon="12.2787605"><ele>257.0</ele><time>2026-04-19T07:42:26.169Z</time></trkpt><trkpt lat="43.1545603" lon="12.2788789"><ele>257.0</ele><time>2026-04-19T07:42:27.198Z</time></trkpt><trkpt lat="43.1546474" lon="12.2790024"><ele>257.0</ele><time>2026-04-19T07:42:28.176Z</time></trkpt><trkpt lat="43.154729" lon="12.2791254"><ele>257.0</ele><time>2026-04-19T07:42:29.201Z</time></trkpt><trkpt lat="43.154806" lon="12.2792378"><ele>256.8</ele><time>2026-04-19T07:42:30.185Z</time></trkpt><trkpt lat="43.1548854" lon="12.2793555"><ele>256.6</ele><time>2026-04-19T07:42:31.163Z</time></trkpt><trkpt lat="43.1549603" lon="12.27947"><ele>256.40000000000003</ele><time>2026-04-19T07:42:32.163Z</time></trkpt><trkpt lat="43.1550367" lon="12.279573"><ele>256.2</ele><time>2026-04-19T07:42:33.182Z</time></trkpt><trkpt lat="43.1551133" lon="12.2796863"><ele>256.0</ele><time>2026-04-19T07:42:34.182Z</time></trkpt><trkpt lat="43.1551929" lon="12.2798072"><ele>256.0</ele><time>2026-04-19T07:42:35.17Z</time></trkpt><trkpt lat="43.1552676" lon="12.279935"><ele>256.0</ele><time>2026-04-19T07:42:36.17Z</time></trkpt><trkpt lat="43.1553421" lon="12.2800563"><ele>256.0</ele><time>2026-04-19T07:42:37.17Z</time></trkpt><trkpt lat="43.1554095" lon="12.2801626"><ele>256.0</ele><time>2026-04-19T07:42:38.182Z</time></trkpt><trkpt lat="43.1554768" lon="12.2802565"><ele>256.0</ele><time>2026-04-19T07:42:39.17Z</time></trkpt><trkpt lat="43.15554" lon="12.2803481"><ele>256.0</ele><time>2026-04-19T07:42:40.18Z</time></trkpt><trkpt lat="43.1556026" lon="12.2804347"><ele>256.0</ele><time>2026-04-19T07:42:41.184Z</time></trkpt><trkpt lat="43.1556653" lon="12.2805166"><ele>256.0</ele><time>2026-04-19T07:42:42.174Z</time></trkpt><trkpt lat="43.1557333" lon="12.2805934"><ele>256.0</ele><time>2026-04-19T07:42:43.186Z</time></trkpt><trkpt lat="43.1558092" lon="12.2806703"><ele>256.0</ele><time>2026-04-19T07:42:44.176Z</time></trkpt><trkpt lat="43.1559031" lon="12.2807399"><ele>255.4</ele><time>2026-04-19T07:42:45.18Z</time></trkpt><trkpt lat="43.1560033" lon="12.2808034"><ele>254.8</ele><time>2026-04-19T07:42:46.174Z</time></trkpt><trkpt lat="43.1561039" lon="12.2808624"><ele>254.20000000000002</ele><time>2026-04-19T07:42:47.201Z</time></trkpt><trkpt lat="43.1561978" lon="12.2809162"><ele>253.60000000000002</ele><time>2026-04-19T07:42:48.184Z</time></trkpt><trkpt lat="43.1562852" lon="12.2809655"><ele>253.0</ele><time>2026-04-19T07:42:49.18Z</time></trkpt><trkpt lat="43.1563582" lon="12.2810136"><ele>252.99999999999997</ele><time>2026-04-19T07:42:50.175Z</time></trkpt><trkpt lat="43.1564126" lon="12.2810575"><ele>253.0</ele><time>2026-04-19T07:42:51.191Z</time></trkpt><trkpt lat="43.1564793" lon="12.2811235"><ele>253.0</ele><time>2026-04-19T07:42:53.173Z</time></trkpt><trkpt lat="43.1564845" lon="12.2810356"><ele>253.0</ele><time>2026-04-19T07:43:10.176Z</time></trkpt><trkpt lat="43.1564609" lon="12.2809408"><ele>252.99999999999997</ele><time>2026-04-19T07:43:12.192Z</time></trkpt><trkpt lat="43.1564211" lon="12.280811"><ele>253.0</ele><time>2026-04-19T07:43:14.189Z</time></trkpt><trkpt lat="43.1563715" lon="12.2806507"><ele>253.83333333333331</ele><time>2026-04-19T07:43:16.187Z</time></trkpt><trkpt lat="43.1563465" lon="12.2805661"><ele>254.66666666666666</ele><time>2026-04-19T07:43:17.192Z</time></trkpt><trkpt lat="43.1563233" lon="12.2804689"><ele>255.5</ele><time>2026-04-19T07:43:18.182Z</time></trkpt><trkpt lat="43.1563007" lon="12.280361"><ele>256.3333333333333</ele><time>2026-04-19T07:43:19.18Z</time></trkpt><trkpt lat="43.1562823" lon="12.2802418"><ele>257.1666666666667</ele><time>2026-04-19T07:43:20.19Z</time></trkpt><trkpt lat="43.1562662" lon="12.2801305"><ele>258.0</ele><time>2026-04-19T07:43:21.179Z</time></trkpt><trkpt lat="43.1562619" lon="12.2800242"><ele>257.99999999999994</ele><time>2026-04-19T07:43:22.193Z</time></trkpt><trkpt lat="43.156262" lon="12.279913"><ele>258.0</ele><time>2026-04-19T07:43:23.18Z</time></trkpt><trkpt lat="43.1562661" lon="12.2798162"><ele>258.0</ele><time>2026-04-19T07:43:24.209Z</time></trkpt><trkpt lat="43.1562902" lon="12.2797285"><ele>258.0</ele><time>2026-04-19T07:43:25.182Z</time></trkpt><trkpt lat="43.1563248" lon="12.2796531"><ele>258.0</ele><time>2026-04-19T07:43:26.184Z</time></trkpt><trkpt lat="43.1563683" lon="12.2795772"><ele>257.99999999999994</ele><time>2026-04-19T07:43:27.174Z</time></trkpt><trkpt lat="43.1564143" lon="12.279499"><ele>258.0</ele><time>2026-04-19T07:43:28.19Z</time></trkpt><trkpt lat="43.1564449" lon="12.2794131"><ele>259.1666666666667</ele><time>2026-04-19T07:43:29.186Z</time></trkpt><trkpt lat="43.156475" lon="12.2793151"><ele>260.3333333333333</ele><time>2026-04-19T07:43:30.206Z</time></trkpt><trkpt lat="43.1564935" lon="12.2792129"><ele>261.5</ele><time>2026-04-19T07:43:31.181Z</time></trkpt><trkpt lat="43.156501" lon="12.2791122"><ele>262.66666666666663</ele><time>2026-04-19T07:43:32.189Z</time></trkpt><trkpt lat="43.1564939" lon="12.2790126"><ele>263.8333333333333</ele><time>2026-04-19T07:43:33.198Z</time></trkpt><trkpt lat="43.156472" lon="12.278919"><ele>265.0</ele><time>2026-04-19T07:43:34.197Z</time></trkpt><trkpt lat="43.1564362" lon="12.2788147"><ele>265.85714285714283</ele><time>2026-04-19T07:43:35.192Z</time></trkpt><trkpt lat="43.1563924" lon="12.2787149"><ele>266.7142857142857</ele><time>2026-04-19T07:43:36.195Z</time></trkpt><trkpt lat="43.1563545" lon="12.2786215"><ele>267.57142857142856</ele><time>2026-04-19T07:43:37.189Z</time></trkpt><trkpt lat="43.156319" lon="12.2785384"><ele>268.42857142857144</ele><time>2026-04-19T07:43:38.191Z</time></trkpt><trkpt lat="43.1562864" lon="12.2784514"><ele>269.2857142857143</ele><time>2026-04-19T07:43:39.181Z</time></trkpt><trkpt lat="43.1562571" lon="12.2783653"><ele>270.1428571428571</ele><time>2026-04-19T07:43:40.193Z</time></trkpt><trkpt lat="43.1562191" lon="12.278288"><ele>271.0</ele><time>2026-04-19T07:43:41.194Z</time></trkpt><trkpt lat="43.1561784" lon="12.2782077"><ele>271.0</ele><time>2026-04-19T07:43:42.199Z</time></trkpt><trkpt lat="43.1561284" lon="12.2781268"><ele>271.0</ele><time>2026-04-19T07:43:43.189Z</time></trkpt><trkpt lat="43.1560742" lon="12.2780444"><ele>271.0</ele><time>2026-04-19T07:43:44.196Z</time></trkpt><trkpt lat="43.1560178" lon="12.2779595"><ele>271.0</ele><time>2026-04-19T07:43:45.194Z</time></trkpt><trkpt lat="43.1559676" lon="12.2778668"><ele>271.0</ele><time>2026-04-19T07:43:46.192Z</time></trkpt><trkpt lat="43.1559213" lon="12.2777606"><ele>271.0</ele><time>2026-04-19T07:43:47.191Z</time></trkpt><trkpt lat="43.1558685" lon="12.2776411"><ele>273.40000000000003</ele><time>2026-04-19T07:43:48.193Z</time></trkpt><trkpt lat="43.1558158" lon="12.2775193"><ele>275.8</ele><time>2026-04-19T07:43:49.195Z</time></trkpt><trkpt lat="43.1557664" lon="12.2773974"><ele>278.20000000000005</ele><time>2026-04-19T07:43:50.19Z</time></trkpt><trkpt lat="43.1557156" lon="12.2772713"><ele>280.6</ele><time>2026-04-19T07:43:51.194Z</time></trkpt><trkpt lat="43.1556633" lon="12.2771419"><ele>283.0</ele><time>2026-04-19T07:43:52.198Z</time></trkpt><trkpt lat="43.155609" lon="12.2770098"><ele>283.66666666666663</ele><time>2026-04-19T07:43:53.202Z</time></trkpt><trkpt lat="43.1555535" lon="12.2768823"><ele>284.3333333333333</ele><time>2026-04-19T07:43:54.203Z</time></trkpt><trkpt lat="43.1555007" lon="12.2767659"><ele>285.0</ele><time>2026-04-19T07:43:55.193Z</time></trkpt><trkpt lat="43.1554541" lon="12.276665"><ele>285.6666666666667</ele><time>2026-04-19T07:43:56.194Z</time></trkpt><trkpt lat="43.1554166" lon="12.2765884"><ele>286.33333333333337</ele><time>2026-04-19T07:43:57.205Z</time></trkpt><trkpt lat="43.1553814" lon="12.2765017"><ele>287.0</ele><time>2026-04-19T07:43:59.188Z</time></trkpt><trkpt lat="43.155389" lon="12.2764089"><ele>289.0</ele><time>2026-04-19T07:44:01.197Z</time></trkpt><trkpt lat="43.1554509" lon="12.2763618"><ele>291.0</ele><time>2026-04-19T07:44:03.184Z</time></trkpt><trkpt lat="43.1555835" lon="12.2763896"><ele>293.0</ele><time>2026-04-19T07:44:05.197Z</time></trkpt><trkpt lat="43.1556631" lon="12.2764249"><ele>295.0</ele><time>2026-04-19T07:44:06.245Z</time></trkpt><trkpt lat="43.1557488" lon="12.2764605"><ele>297.0</ele><time>2026-04-19T07:44:07.191Z</time></trkpt><trkpt lat="43.1558439" lon="12.2765018"><ele>297.0</ele><time>2026-04-19T07:44:08.195Z</time></trkpt><trkpt lat="43.1559373" lon="12.2765386"><ele>297.0</ele><time>2026-04-19T07:44:09.203Z</time></trkpt><trkpt lat="43.1560252" lon="12.2765651"><ele>297.0</ele><time>2026-04-19T07:44:10.199Z</time></trkpt><trkpt lat="43.1561186" lon="12.2765818"><ele>297.0</ele><time>2026-04-19T07:44:11.21Z</time></trkpt><trkpt lat="43.1562136" lon="12.2766087"><ele>297.0</ele><time>2026-04-19T07:44:12.196Z</time></trkpt><trkpt lat="43.1563063" lon="12.2766479"><ele>297.0</ele><time>2026-04-19T07:44:13.2Z</time></trkpt><trkpt lat="43.1564045" lon="12.2766995"><ele>297.0</ele><time>2026-04-19T07:44:14.202Z</time></trkpt><trkpt lat="43.1564914" lon="12.2767418"><ele>297.0</ele><time>2026-04-19T07:44:15.204Z</time></trkpt><trkpt lat="43.1565727" lon="12.2767716"><ele>297.0</ele><time>2026-04-19T07:44:16.208Z</time></trkpt><trkpt lat="43.1566477" lon="12.2767864"><ele>297.0</ele><time>2026-04-19T07:44:17.203Z</time></trkpt><trkpt lat="43.1567355" lon="12.2768213"><ele>297.0</ele><time>2026-04-19T07:44:19.2Z</time></trkpt><trkpt lat="43.1567993" lon="12.2768031"><ele>299.3333333333333</ele><time>2026-04-19T07:44:33.201Z</time></trkpt><trkpt lat="43.1568864" lon="12.2767453"><ele>301.6666666666667</ele><time>2026-04-19T07:44:36.225Z</time></trkpt><trkpt lat="43.1569692" lon="12.2766939"><ele>304.0</ele><time>2026-04-19T07:44:38.203Z</time></trkpt><trkpt lat="43.1570394" lon="12.2766374"><ele>306.33333333333337</ele><time>2026-04-19T07:44:40.216Z</time></trkpt><trkpt lat="43.1570859" lon="12.2765659"><ele>308.6666666666667</ele><time>2026-04-19T07:44:42.219Z</time></trkpt><trkpt lat="43.1571078" lon="12.2764796"><ele>311.0</ele><time>2026-04-19T07:44:44.211Z</time></trkpt><trkpt lat="43.1571194" lon="12.2763801"><ele>313.33333333333337</ele><time>2026-04-19T07:44:46.226Z</time></trkpt><trkpt lat="43.1571105" lon="12.2762782"><ele>315.6666666666667</ele><time>2026-04-19T07:44:48.219Z</time></trkpt><trkpt lat="43.1570766" lon="12.276185"><ele>318.0</ele><time>2026-04-19T07:44:50.216Z</time></trkpt><trkpt lat="43.1570313" lon="12.2760868"><ele>320.3333333333333</ele><time>2026-04-19T07:44:52.227Z</time></trkpt><trkpt lat="43.1569854" lon="12.2760238"><ele>322.66666666666663</ele><time>2026-04-19T07:44:54.213Z</time></trkpt><trkpt lat="43.1569208" lon="12.2759626"><ele>325.0</ele><time>2026-04-19T07:44:57.22Z</time></trkpt><trkpt lat="43.1568484" lon="12.27597"><ele>325.0</ele><time>2026-04-19T07:44:59.219Z</time></trkpt><trkpt lat="43.1567807" lon="12.2759914"><ele>325.0</ele><time>2026-04-19T07:45:01.222Z</time></trkpt><trkpt lat="43.156705" lon="12.2759788"><ele>325.0</ele><time>2026-04-19T07:45:03.214Z</time></trkpt><trkpt lat="43.1566219" lon="12.2759495"><ele>325.0</ele><time>2026-04-19T07:45:05.239Z</time></trkpt><trkpt lat="43.1565355" lon="12.2758914"><ele>325.0</ele><time>2026-04-19T07:45:07.218Z</time></trkpt><trkpt lat="43.156621" lon="12.2759432"><ele>325.0</ele><time>2026-04-19T07:45:27.264Z</time></trkpt><trkpt lat="43.1567133" lon="12.2759669"><ele>325.0</ele><time>2026-04-19T07:45:29.236Z</time></trkpt><trkpt lat="43.1567805" lon="12.2759805"><ele>325.0</ele><time>2026-04-19T07:45:31.233Z</time></trkpt><trkpt lat="43.1568445" lon="12.2759773"><ele>325.0</ele><time>2026-04-19T07:45:33.235Z</time></trkpt><trkpt lat="43.1569275" lon="12.2759724"><ele>325.0</ele><time>2026-04-19T07:45:36.251Z</time></trkpt><trkpt lat="43.1569981" lon="12.276014"><ele>325.0</ele><time>2026-04-19T07:45:39.257Z</time></trkpt><trkpt lat="43.1570487" lon="12.2761152"><ele>325.0</ele><time>2026-04-19T07:45:42.251Z</time></trkpt><trkpt lat="43.1570901" lon="12.276216"><ele>325.0</ele><time>2026-04-19T07:45:45.257Z</time></trkpt><trkpt lat="43.157122" lon="12.2763223"><ele>325.0</ele><time>2026-04-19T07:45:48.259Z</time></trkpt><trkpt lat="43.1571447" lon="12.2764207"><ele>325.0</ele><time>2026-04-19T07:45:51.248Z</time></trkpt><trkpt lat="43.157196" lon="12.2764751"><ele>325.0</ele><time>2026-04-19T07:45:55.247Z</time></trkpt><trkpt lat="43.1572228" lon="12.2763838"><ele>325.0</ele><time>2026-04-19T07:46:00.229Z</time></trkpt><trkpt lat="43.1572532" lon="12.2762593"><ele>325.0</ele><time>2026-04-19T07:46:02.239Z</time></trkpt><trkpt lat="43.1572616" lon="12.2761234"><ele>325.0</ele><time>2026-04-19T07:46:04.257Z</time></trkpt><trkpt lat="43.157254" lon="12.2759474"><ele>325.0</ele><time>2026-04-19T07:46:06.233Z</time></trkpt><trkpt lat="43.1572471" lon="12.2758323"><ele>325.0</ele><time>2026-04-19T07:46:07.236Z</time></trkpt><trkpt lat="43.1572388" lon="12.2757172"><ele>325.0</ele><time>2026-04-19T07:46:08.236Z</time></trkpt><trkpt lat="43.1572391" lon="12.275606"><ele>325.0</ele><time>2026-04-19T07:46:09.234Z</time></trkpt><trkpt lat="43.1572408" lon="12.2754976"><ele>324.8333333333333</ele><time>2026-04-19T07:46:10.242Z</time></trkpt><trkpt lat="43.157243" lon="12.2753889"><ele>324.66666666666663</ele><time>2026-04-19T07:46:11.243Z</time></trkpt><trkpt lat="43.1572458" lon="12.2752803"><ele>324.5</ele><time>2026-04-19T07:46:12.244Z</time></trkpt><trkpt lat="43.1572509" lon="12.2751616"><ele>324.3333333333333</ele><time>2026-04-19T07:46:13.235Z</time></trkpt><trkpt lat="43.1572631" lon="12.2750389"><ele>324.1666666666667</ele><time>2026-04-19T07:46:14.239Z</time></trkpt><trkpt lat="43.1572733" lon="12.2749251"><ele>324.0</ele><time>2026-04-19T07:46:15.24Z</time></trkpt><trkpt lat="43.1572865" lon="12.2747997"><ele>321.8333333333333</ele><time>2026-04-19T07:46:16.24Z</time></trkpt><trkpt lat="43.157301" lon="12.2746736"><ele>319.6666666666667</ele><time>2026-04-19T07:46:17.244Z</time></trkpt><trkpt lat="43.1573162" lon="12.2745428"><ele>317.5</ele><time>2026-04-19T07:46:18.233Z</time></trkpt><trkpt lat="43.1573304" lon="12.2744236"><ele>315.33333333333337</ele><time>2026-04-19T07:46:19.234Z</time></trkpt><trkpt lat="43.1573384" lon="12.2743039"><ele>313.1666666666667</ele><time>2026-04-19T07:46:20.25Z</time></trkpt><trkpt lat="43.1573439" lon="12.2741952"><ele>311.0</ele><time>2026-04-19T07:46:21.244Z</time></trkpt><trkpt lat="43.1573486" lon="12.2740992"><ele>310.6</ele><time>2026-04-19T07:46:22.238Z</time></trkpt><trkpt lat="43.1573825" lon="12.2739619"><ele>310.20000000000005</ele><time>2026-04-19T07:46:24.24Z</time></trkpt><trkpt lat="43.1574712" lon="12.2738917"><ele>309.79999999999995</ele><time>2026-04-19T07:46:26.241Z</time></trkpt><trkpt lat="43.1575395" lon="12.2738614"><ele>309.4</ele><time>2026-04-19T07:46:27.246Z</time></trkpt><trkpt lat="43.1576481" lon="12.2737802"><ele>309.0</ele><time>2026-04-19T07:46:29.244Z</time></trkpt><trkpt lat="43.1577146" lon="12.273716"><ele>309.8</ele><time>2026-04-19T07:46:30.237Z</time></trkpt><trkpt lat="43.157782" lon="12.2736541"><ele>310.59999999999997</ele><time>2026-04-19T07:46:31.244Z</time></trkpt><trkpt lat="43.1578723" lon="12.2735075"><ele>311.4</ele><time>2026-04-19T07:46:33.179Z</time></trkpt><trkpt lat="43.1579148" lon="12.273417"><ele>312.2</ele><time>2026-04-19T07:46:34.161Z</time></trkpt><trkpt lat="43.1579508" lon="12.2733378"><ele>313.0</ele><time>2026-04-19T07:46:35.141Z</time></trkpt><trkpt lat="43.1580333" lon="12.2732541"><ele>313.0</ele><time>2026-04-19T07:46:37.151Z</time></trkpt><trkpt lat="43.1581299" lon="12.2732793"><ele>313.0</ele><time>2026-04-19T07:46:39.167Z</time></trkpt><trkpt lat="43.1581923" lon="12.2732916"><ele>313.0</ele><time>2026-04-19T07:46:40.153Z</time></trkpt><trkpt lat="43.1583101" lon="12.2732945"><ele>313.0</ele><time>2026-04-19T07:46:42.181Z</time></trkpt><trkpt lat="43.1584403" lon="12.2732682"><ele>313.0</ele><time>2026-04-19T07:46:44.168Z</time></trkpt><trkpt lat="43.1585119" lon="12.2732477"><ele>313.66666666666663</ele><time>2026-04-19T07:46:45.151Z</time></trkpt><trkpt lat="43.1585825" lon="12.2732246"><ele>314.3333333333333</ele><time>2026-04-19T07:46:46.155Z</time></trkpt><trkpt lat="43.1586527" lon="12.2731998"><ele>315.0</ele><time>2026-04-19T07:46:47.179Z</time></trkpt><trkpt lat="43.158752" lon="12.2731703"><ele>315.6666666666667</ele><time>2026-04-19T07:46:49.162Z</time></trkpt><trkpt lat="43.1588425" lon="12.2731316"><ele>316.33333333333337</ele><time>2026-04-19T07:46:51.168Z</time></trkpt><trkpt lat="43.1589245" lon="12.2730839"><ele>317.0</ele><time>2026-04-19T07:46:53.167Z</time></trkpt><trkpt lat="43.1590078" lon="12.2730383"><ele>319.33333333333337</ele><time>2026-04-19T07:46:55.174Z</time></trkpt><trkpt lat="43.1590935" lon="12.2729813"><ele>321.6666666666667</ele><time>2026-04-19T07:46:57.172Z</time></trkpt><trkpt lat="43.1591738" lon="12.2729522"><ele>324.0</ele><time>2026-04-19T07:46:59.166Z</time></trkpt><trkpt lat="43.159248" lon="12.2729353"><ele>326.3333333333333</ele><time>2026-04-19T07:47:01.178Z</time></trkpt><trkpt lat="43.1593225" lon="12.272911"><ele>328.66666666666663</ele><time>2026-04-19T07:47:04.188Z</time></trkpt><trkpt lat="43.1593246" lon="12.2728113"><ele>331.0</ele><time>2026-04-19T07:47:08.17Z</time></trkpt><trkpt lat="43.1593137" lon="12.2726664"><ele>331.0</ele><time>2026-04-19T07:47:10.185Z</time></trkpt><trkpt lat="43.1592966" lon="12.2724996"><ele>331.0</ele><time>2026-04-19T07:47:12.184Z</time></trkpt><trkpt lat="43.1592903" lon="12.2724133"><ele>331.0</ele><time>2026-04-19T07:47:13.173Z</time></trkpt><trkpt lat="43.1592893" lon="12.2723268"><ele>331.0</ele><time>2026-04-19T07:47:14.189Z</time></trkpt><trkpt lat="43.1593029" lon="12.2722281"><ele>331.0</ele><time>2026-04-19T07:47:15.185Z</time></trkpt><trkpt lat="43.1593327" lon="12.2721096"><ele>331.0</ele><time>2026-04-19T07:47:16.17Z</time></trkpt><trkpt lat="43.1593653" lon="12.2719842"><ele>331.3333333333333</ele><time>2026-04-19T07:47:17.18Z</time></trkpt><trkpt lat="43.1593963" lon="12.2718573"><ele>331.66666666666663</ele><time>2026-04-19T07:47:18.189Z</time></trkpt><trkpt lat="43.1594305" lon="12.2717272"><ele>332.0</ele><time>2026-04-19T07:47:19.172Z</time></trkpt><trkpt lat="43.159467" lon="12.2716067"><ele>332.3333333333333</ele><time>2026-04-19T07:47:20.177Z</time></trkpt><trkpt lat="43.1594992" lon="12.2715107"><ele>332.6666666666667</ele><time>2026-04-19T07:47:21.174Z</time></trkpt><trkpt lat="43.1595249" lon="12.271419"><ele>333.0</ele><time>2026-04-19T07:47:22.182Z</time></trkpt><trkpt lat="43.1595564" lon="12.2713217"><ele>333.0</ele><time>2026-04-19T07:47:23.18Z</time></trkpt><trkpt lat="43.1595901" lon="12.2712251"><ele>333.0</ele><time>2026-04-19T07:47:24.186Z</time></trkpt><trkpt lat="43.1596298" lon="12.271124"><ele>333.0</ele><time>2026-04-19T07:47:25.203Z</time></trkpt><trkpt lat="43.159671" lon="12.2710205"><ele>333.0</ele><time>2026-04-19T07:47:26.185Z</time></trkpt><trkpt lat="43.159708" lon="12.2709213"><ele>333.0</ele><time>2026-04-19T07:47:27.183Z</time></trkpt><trkpt lat="43.1597423" lon="12.2708285"><ele>333.0</ele><time>2026-04-19T07:47:28.185Z</time></trkpt><trkpt lat="43.1597808" lon="12.2707384"><ele>333.0</ele><time>2026-04-19T07:47:29.186Z</time></trkpt><trkpt lat="43.1598285" lon="12.2706524"><ele>333.0</ele><time>2026-04-19T07:47:30.185Z</time></trkpt><trkpt lat="43.1598849" lon="12.2705711"><ele>333.0</ele><time>2026-04-19T07:47:31.179Z</time></trkpt><trkpt lat="43.1599507" lon="12.2704961"><ele>333.0</ele><time>2026-04-19T07:47:32.187Z</time></trkpt><trkpt lat="43.1600193" lon="12.2704209"><ele>333.0</ele><time>2026-04-19T07:47:33.184Z</time></trkpt><trkpt lat="43.1600871" lon="12.2703482"><ele>333.0</ele><time>2026-04-19T07:47:34.19Z</time></trkpt><trkpt lat="43.1601551" lon="12.2702696"><ele>335.0</ele><time>2026-04-19T07:47:35.188Z</time></trkpt><trkpt lat="43.1602232" lon="12.2701821"><ele>337.0</ele><time>2026-04-19T07:47:36.191Z</time></trkpt><trkpt lat="43.1602895" lon="12.2700989"><ele>339.0</ele><time>2026-04-19T07:47:37.188Z</time></trkpt><trkpt lat="43.1603601" lon="12.2700185"><ele>341.0</ele><time>2026-04-19T07:47:38.186Z</time></trkpt><trkpt lat="43.160441" lon="12.2699375"><ele>343.0</ele><time>2026-04-19T07:47:39.193Z</time></trkpt><trkpt lat="43.1605336" lon="12.2698468"><ele>343.25</ele><time>2026-04-19T07:47:40.197Z</time></trkpt><trkpt lat="43.1606503" lon="12.2697427"><ele>343.5</ele><time>2026-04-19T07:47:41.188Z</time></trkpt><trkpt lat="43.1607566" lon="12.2696429"><ele>343.75</ele><time>2026-04-19T07:47:42.189Z</time></trkpt><trkpt lat="43.1608515" lon="12.269553"><ele>344.0</ele><time>2026-04-19T07:47:43.202Z</time></trkpt><trkpt lat="43.1609506" lon="12.2694598"><ele>344.0</ele><time>2026-04-19T07:47:44.197Z</time></trkpt><trkpt lat="43.1610489" lon="12.2693662"><ele>344.0</ele><time>2026-04-19T07:47:45.194Z</time></trkpt><trkpt lat="43.1611358" lon="12.2692801"><ele>344.0</ele><time>2026-04-19T07:47:46.208Z</time></trkpt><trkpt lat="43.1612213" lon="12.2691967"><ele>344.0</ele><time>2026-04-19T07:47:47.195Z</time></trkpt><trkpt lat="43.1613025" lon="12.2691114"><ele>344.0</ele><time>2026-04-19T07:47:48.191Z</time></trkpt><trkpt lat="43.1613834" lon="12.2690216"><ele>343.79999999999995</ele><time>2026-04-19T07:47:49.196Z</time></trkpt><trkpt lat="43.1614533" lon="12.2689376"><ele>343.59999999999997</ele><time>2026-04-19T07:47:50.192Z</time></trkpt><trkpt lat="43.161517" lon="12.2688543"><ele>343.4</ele><time>2026-04-19T07:47:51.198Z</time></trkpt><trkpt lat="43.1615857" lon="12.2687717"><ele>343.2</ele><time>2026-04-19T07:47:52.229Z</time></trkpt><trkpt lat="43.1616523" lon="12.2686804"><ele>343.0</ele><time>2026-04-19T07:47:53.207Z</time></trkpt><trkpt lat="43.16172" lon="12.2685886"><ele>345.2</ele><time>2026-04-19T07:47:54.201Z</time></trkpt><trkpt lat="43.1617901" lon="12.2685105"><ele>347.4</ele><time>2026-04-19T07:47:55.205Z</time></trkpt><trkpt lat="43.1618645" lon="12.268431"><ele>349.59999999999997</ele><time>2026-04-19T07:47:56.206Z</time></trkpt><trkpt lat="43.161942" lon="12.2683477"><ele>351.79999999999995</ele><time>2026-04-19T07:47:57.204Z</time></trkpt><trkpt lat="43.1620157" lon="12.2682576"><ele>354.0</ele><time>2026-04-19T07:47:58.225Z</time></trkpt><trkpt lat="43.162077" lon="12.2681536"><ele>356.1666666666667</ele><time>2026-04-19T07:47:59.205Z</time></trkpt><trkpt lat="43.162137" lon="12.2680399"><ele>358.3333333333333</ele><time>2026-04-19T07:48:00.208Z</time></trkpt><trkpt lat="43.1621933" lon="12.2679284"><ele>360.5</ele><time>2026-04-19T07:48:01.212Z</time></trkpt><trkpt lat="43.1622396" lon="12.267835"><ele>362.66666666666663</ele><time>2026-04-19T07:48:02.218Z</time></trkpt><trkpt lat="43.162284" lon="12.2677634"><ele>364.8333333333333</ele><time>2026-04-19T07:48:03.212Z</time></trkpt><trkpt lat="43.1623219" lon="12.2676936"><ele>367.0</ele><time>2026-04-19T07:48:04.208Z</time></trkpt><trkpt lat="43.1623576" lon="12.2675681"><ele>367.0</ele><time>2026-04-19T07:48:06.211Z</time></trkpt><trkpt lat="43.1623253" lon="12.2674639"><ele>367.0</ele><time>2026-04-19T07:48:08.219Z</time></trkpt><trkpt lat="43.1622337" lon="12.2674424"><ele>367.0</ele><time>2026-04-19T07:48:10.222Z</time></trkpt><trkpt lat="43.1621554" lon="12.2674655"><ele>367.0</ele><time>2026-04-19T07:48:11.215Z</time></trkpt><trkpt lat="43.1620699" lon="12.2674784"><ele>367.0</ele><time>2026-04-19T07:48:12.218Z</time></trkpt><trkpt lat="43.1619905" lon="12.2674772"><ele>367.0</ele><time>2026-04-19T07:48:13.259Z</time></trkpt><trkpt lat="43.161877" lon="12.2674551"><ele>367.0</ele><time>2026-04-19T07:48:15.229Z</time></trkpt><trkpt lat="43.1618177" lon="12.2673874"><ele>367.0</ele><time>2026-04-19T07:48:17.249Z</time></trkpt><trkpt lat="43.161845" lon="12.2672997"><ele>367.0</ele><time>2026-04-19T07:48:19.247Z</time></trkpt><trkpt lat="43.1619515" lon="12.267215"><ele>367.0</ele><time>2026-04-19T07:48:21.239Z</time></trkpt><trkpt lat="43.1620171" lon="12.2671638"><ele>367.0</ele><time>2026-04-19T07:48:22.233Z</time></trkpt><trkpt lat="43.1620796" lon="12.2670973"><ele>367.0</ele><time>2026-04-19T07:48:23.241Z</time></trkpt><trkpt lat="43.1621324" lon="12.2670093"><ele>372.75</ele><time>2026-04-19T07:48:24.235Z</time></trkpt><trkpt lat="43.1621811" lon="12.2669021"><ele>378.5</ele><time>2026-04-19T07:48:25.258Z</time></trkpt><trkpt lat="43.1622375" lon="12.2667668"><ele>384.25</ele><time>2026-04-19T07:48:26.234Z</time></trkpt><trkpt lat="43.1623036" lon="12.2666153"><ele>390.0</ele><time>2026-04-19T07:48:27.235Z</time></trkpt><trkpt lat="43.1623637" lon="12.26648"><ele>389.6</ele><time>2026-04-19T07:48:28.229Z</time></trkpt><trkpt lat="43.1624154" lon="12.2663629"><ele>389.2</ele><time>2026-04-19T07:48:29.225Z</time></trkpt><trkpt lat="43.1624624" lon="12.266255"><ele>388.79999999999995</ele><time>2026-04-19T07:48:30.235Z</time></trkpt><trkpt lat="43.1625055" lon="12.2661453"><ele>388.4</ele><time>2026-04-19T07:48:31.231Z</time></trkpt><trkpt lat="43.1625456" lon="12.2660349"><ele>388.0</ele><time>2026-04-19T07:48:32.243Z</time></trkpt><trkpt lat="43.1625767" lon="12.2659357"><ele>388.00000000000006</ele><time>2026-04-19T07:48:33.243Z</time></trkpt><trkpt lat="43.1625978" lon="12.2658406"><ele>388.0</ele><time>2026-04-19T07:48:34.229Z</time></trkpt><trkpt lat="43.1626177" lon="12.2656874"><ele>388.0</ele><time>2026-04-19T07:48:36.226Z</time></trkpt><trkpt lat="43.1626433" lon="12.2655397"><ele>388.0</ele><time>2026-04-19T07:48:38.251Z</time></trkpt><trkpt lat="43.1626732" lon="12.2654531"><ele>388.00000000000006</ele><time>2026-04-19T07:48:39.239Z</time></trkpt><trkpt lat="43.1627165" lon="12.2653655"><ele>388.0</ele><time>2026-04-19T07:48:40.234Z</time></trkpt><trkpt lat="43.1627607" lon="12.2653033"><ele>386.59999999999997</ele><time>2026-04-19T07:48:41.246Z</time></trkpt><trkpt lat="43.1628589" lon="12.2652273"><ele>385.2</ele><time>2026-04-19T07:48:43.247Z</time></trkpt><trkpt lat="43.1629497" lon="12.2650991"><ele>383.8</ele><time>2026-04-19T07:48:45.258Z</time></trkpt><trkpt lat="43.1630025" lon="12.2650003"><ele>382.4</ele><time>2026-04-19T07:48:46.238Z</time></trkpt><trkpt lat="43.1630594" lon="12.2648959"><ele>381.0</ele><time>2026-04-19T07:48:47.242Z</time></trkpt><trkpt lat="43.1631165" lon="12.2648067"><ele>381.4285714285714</ele><time>2026-04-19T07:48:48.255Z</time></trkpt><trkpt lat="43.1631609" lon="12.2647332"><ele>381.8571428571429</ele><time>2026-04-19T07:48:49.24Z</time></trkpt><trkpt lat="43.1631969" lon="12.2646577"><ele>382.2857142857143</ele><time>2026-04-19T07:48:50.246Z</time></trkpt><trkpt lat="43.1632325" lon="12.2645799"><ele>382.71428571428567</ele><time>2026-04-19T07:48:51.248Z</time></trkpt><trkpt lat="43.1632733" lon="12.26449"><ele>383.1428571428571</ele><time>2026-04-19T07:48:52.153Z</time></trkpt><trkpt lat="43.1633131" lon="12.2644013"><ele>383.57142857142856</ele><time>2026-04-19T07:48:53.171Z</time></trkpt><trkpt lat="43.1633482" lon="12.2643106"><ele>384.0</ele><time>2026-04-19T07:48:54.169Z</time></trkpt><trkpt lat="43.1633808" lon="12.2642286"><ele>384.0</ele><time>2026-04-19T07:48:55.173Z</time></trkpt><trkpt lat="43.1634343" lon="12.2640867"><ele>384.0</ele><time>2026-04-19T07:48:57.147Z</time></trkpt><trkpt lat="43.1634798" lon="12.2639924"><ele>384.0</ele><time>2026-04-19T07:48:59.157Z</time></trkpt><trkpt lat="43.163545" lon="12.2639439"><ele>384.0</ele><time>2026-04-19T07:49:01.154Z</time></trkpt><trkpt lat="43.1636049" lon="12.2638989"><ele>384.0</ele><time>2026-04-19T07:49:03.153Z</time></trkpt><trkpt lat="43.163664" lon="12.2638517"><ele>384.0</ele><time>2026-04-19T07:49:05.148Z</time></trkpt><trkpt lat="43.1637111" lon="12.2637883"><ele>384.3333333333333</ele><time>2026-04-19T07:49:07.159Z</time></trkpt><trkpt lat="43.163762" lon="12.2637318"><ele>384.66666666666663</ele><time>2026-04-19T07:49:09.167Z</time></trkpt><trkpt lat="43.1638373" lon="12.2636503"><ele>385.0</ele><time>2026-04-19T07:49:11.177Z</time></trkpt><trkpt lat="43.1639099" lon="12.263588"><ele>385.3333333333333</ele><time>2026-04-19T07:49:12.157Z</time></trkpt><trkpt lat="43.1639757" lon="12.263518"><ele>385.66666666666663</ele><time>2026-04-19T07:49:13.148Z</time></trkpt><trkpt lat="43.1640439" lon="12.2634449"><ele>386.0</ele><time>2026-04-19T07:49:14.153Z</time></trkpt><trkpt lat="43.1641063" lon="12.2633887"><ele>385.99999999999994</ele><time>2026-04-19T07:49:15.162Z</time></trkpt><trkpt lat="43.1641575" lon="12.2633326"><ele>386.0</ele><time>2026-04-19T07:49:16.153Z</time></trkpt><trkpt lat="43.1642011" lon="12.2632649"><ele>386.0</ele><time>2026-04-19T07:49:17.184Z</time></trkpt><trkpt lat="43.1642718" lon="12.2631415"><ele>386.0</ele><time>2026-04-19T07:49:19.153Z</time></trkpt><trkpt lat="43.1643053" lon="12.2630256"><ele>385.99999999999994</ele><time>2026-04-19T07:49:21.172Z</time></trkpt><trkpt lat="43.1643446" lon="12.2628998"><ele>386.0</ele><time>2026-04-19T07:49:23.179Z</time></trkpt><trkpt lat="43.1643914" lon="12.2627505"><ele>386.0</ele><time>2026-04-19T07:49:25.16Z</time></trkpt><trkpt lat="43.1644492" lon="12.2626"><ele>386.0</ele><time>2026-04-19T07:49:27.159Z</time></trkpt><trkpt lat="43.1644949" lon="12.2624925"><ele>386.0</ele><time>2026-04-19T07:49:29.175Z</time></trkpt><trkpt lat="43.1645374" lon="12.262423"><ele>386.0</ele><time>2026-04-19T07:49:31.174Z</time></trkpt><trkpt lat="43.1646075" lon="12.2623094"><ele>386.0</ele><time>2026-04-19T07:49:33.17Z</time></trkpt><trkpt lat="43.1646578" lon="12.262241"><ele>386.3333333333333</ele><time>2026-04-19T07:49:34.162Z</time></trkpt><trkpt lat="43.1647054" lon="12.2621757"><ele>386.66666666666663</ele><time>2026-04-19T07:49:35.161Z</time></trkpt><trkpt lat="43.164745" lon="12.2620965"><ele>387.0</ele><time>2026-04-19T07:49:36.158Z</time></trkpt><trkpt lat="43.164802" lon="12.261942"><ele>387.33333333333337</ele><time>2026-04-19T07:49:38.176Z</time></trkpt><trkpt lat="43.1648303" lon="12.261855"><ele>387.6666666666667</ele><time>2026-04-19T07:49:39.164Z</time></trkpt><trkpt lat="43.1648618" lon="12.2617735"><ele>388.0</ele><time>2026-04-19T07:49:40.166Z</time></trkpt><trkpt lat="43.1648919" lon="12.2616909"><ele>388.00000000000006</ele><time>2026-04-19T07:49:41.164Z</time></trkpt><trkpt lat="43.1649452" lon="12.2615606"><ele>388.0</ele><time>2026-04-19T07:49:43.18Z</time></trkpt><trkpt lat="43.1649735" lon="12.2614534"><ele>388.0</ele><time>2026-04-19T07:49:45.182Z</time></trkpt><trkpt lat="43.1650255" lon="12.2613652"><ele>388.0</ele><time>2026-04-19T07:49:48.179Z</time></trkpt><trkpt lat="43.1650757" lon="12.2612958"><ele>388.00000000000006</ele><time>2026-04-19T07:49:50.179Z</time></trkpt><trkpt lat="43.16513" lon="12.2612147"><ele>388.0</ele><time>2026-04-19T07:49:52.177Z</time></trkpt><trkpt lat="43.1651737" lon="12.2611269"><ele>388.1666666666667</ele><time>2026-04-19T07:49:54.187Z</time></trkpt><trkpt lat="43.1652155" lon="12.2610439"><ele>388.33333333333337</ele><time>2026-04-19T07:49:56.19Z</time></trkpt><trkpt lat="43.1652835" lon="12.2609745"><ele>388.5</ele><time>2026-04-19T07:49:58.192Z</time></trkpt><trkpt lat="43.165348" lon="12.2609197"><ele>388.66666666666663</ele><time>2026-04-19T07:50:00.191Z</time></trkpt><trkpt lat="43.1654139" lon="12.260876"><ele>388.8333333333333</ele><time>2026-04-19T07:50:02.187Z</time></trkpt><trkpt lat="43.1654976" lon="12.2608559"><ele>389.0</ele><time>2026-04-19T07:50:04.19Z</time></trkpt><trkpt lat="43.1655679" lon="12.2608211"><ele>388.99999999999994</ele><time>2026-04-19T07:50:06.202Z</time></trkpt><trkpt lat="43.1656177" lon="12.2607299"><ele>389.0</ele><time>2026-04-19T07:50:08.189Z</time></trkpt><trkpt lat="43.165659" lon="12.2606377"><ele>389.0</ele><time>2026-04-19T07:50:10.195Z</time></trkpt><trkpt lat="43.1657093" lon="12.2605598"><ele>389.0</ele><time>2026-04-19T07:50:12.196Z</time></trkpt><trkpt lat="43.1657735" lon="12.2604827"><ele>388.99999999999994</ele><time>2026-04-19T07:50:14.214Z</time></trkpt><trkpt lat="43.1658522" lon="12.260448"><ele>389.0</ele><time>2026-04-19T07:50:16.187Z</time></trkpt><trkpt lat="43.1659197" lon="12.2604168"><ele>391.16666666666663</ele><time>2026-04-19T07:50:19.202Z</time></trkpt><trkpt lat="43.1659758" lon="12.2603582"><ele>393.3333333333333</ele><time>2026-04-19T07:50:30.207Z</time></trkpt><trkpt lat="43.1660274" lon="12.2602908"><ele>395.5</ele><time>2026-04-19T07:50:32.192Z</time></trkpt><trkpt lat="43.1660933" lon="12.2602161"><ele>397.66666666666663</ele><time>2026-04-19T07:50:41.217Z</time></trkpt><trkpt lat="43.1661527" lon="12.2602519"><ele>399.8333333333333</ele><time>2026-04-19T07:50:44.203Z</time></trkpt><trkpt lat="43.1662198" lon="12.2603482"><ele>402.0</ele><time>2026-04-19T07:50:47.194Z</time></trkpt><trkpt lat="43.1663027" lon="12.2604135"><ele>402.0</ele><time>2026-04-19T07:50:49.19Z</time></trkpt><trkpt lat="43.166377" lon="12.2604693"><ele>402.0</ele><time>2026-04-19T07:50:51.194Z</time></trkpt><trkpt lat="43.1664665" lon="12.2604922"><ele>402.0</ele><time>2026-04-19T07:50:53.196Z</time></trkpt><trkpt lat="43.1665428" lon="12.2605034"><ele>402.0</ele><time>2026-04-19T07:50:55.191Z</time></trkpt><trkpt lat="43.1666064" lon="12.2604887"><ele>402.0</ele><time>2026-04-19T07:50:57.206Z</time></trkpt><trkpt lat="43.16669" lon="12.2604388"><ele>402.0</ele><time>2026-04-19T07:51:00.198Z</time></trkpt><trkpt lat="43.1667778" lon="12.260399"><ele>404.5</ele><time>2026-04-19T07:51:02.208Z</time></trkpt><trkpt lat="43.1668587" lon="12.26038"><ele>407.0</ele><time>2026-04-19T07:51:04.203Z</time></trkpt><trkpt lat="43.1669417" lon="12.2603882"><ele>409.5</ele><time>2026-04-19T07:51:06.207Z</time></trkpt><trkpt lat="43.1670101" lon="12.2604135"><ele>412.0</ele><time>2026-04-19T07:51:08.2Z</time></trkpt><trkpt lat="43.1671044" lon="12.2604009"><ele>414.5</ele><time>2026-04-19T07:51:10.206Z</time></trkpt><trkpt lat="43.1672166" lon="12.260371"><ele>417.0</ele><time>2026-04-19T07:51:12.203Z</time></trkpt><trkpt lat="43.1673274" lon="12.2602995"><ele>419.6666666666667</ele><time>2026-04-19T07:51:14.21Z</time></trkpt><trkpt lat="43.1673827" lon="12.260246"><ele>422.33333333333337</ele><time>2026-04-19T07:51:15.205Z</time></trkpt><trkpt lat="43.1674395" lon="12.2601978"><ele>425.0</ele><time>2026-04-19T07:51:16.209Z</time></trkpt><trkpt lat="43.1675021" lon="12.2601482"><ele>427.6666666666667</ele><time>2026-04-19T07:51:17.217Z</time></trkpt><trkpt lat="43.1675629" lon="12.2600957"><ele>430.33333333333337</ele><time>2026-04-19T07:51:18.205Z</time></trkpt><trkpt lat="43.1676262" lon="12.2600542"><ele>433.0</ele><time>2026-04-19T07:51:19.202Z</time></trkpt><trkpt lat="43.1677419" lon="12.2599751"><ele>433.0</ele><time>2026-04-19T07:51:21.214Z</time></trkpt><trkpt lat="43.1678233" lon="12.2598871"><ele>432.99999999999994</ele><time>2026-04-19T07:51:23.228Z</time></trkpt><trkpt lat="43.1679059" lon="12.2597975"><ele>432.99999999999994</ele><time>2026-04-19T07:51:25.214Z</time></trkpt><trkpt lat="43.1680154" lon="12.2597017"><ele>433.0</ele><time>2026-04-19T07:51:27.211Z</time></trkpt><trkpt lat="43.1680709" lon="12.2596546"><ele>433.0</ele><time>2026-04-19T07:51:28.22Z</time></trkpt><trkpt lat="43.1681257" lon="12.259604"><ele>433.1666666666667</ele><time>2026-04-19T07:51:29.229Z</time></trkpt><trkpt lat="43.1681771" lon="12.2595537"><ele>433.33333333333337</ele><time>2026-04-19T07:51:30.217Z</time></trkpt><trkpt lat="43.1682721" lon="12.259439"><ele>433.5</ele><time>2026-04-19T07:51:32.225Z</time></trkpt><trkpt lat="43.1683247" lon="12.2593821"><ele>433.66666666666663</ele><time>2026-04-19T07:51:33.23Z</time></trkpt><trkpt lat="43.1683804" lon="12.2593354"><ele>433.8333333333333</ele><time>2026-04-19T07:51:34.216Z</time></trkpt><trkpt lat="43.1684673" lon="12.2592473"><ele>434.0</ele><time>2026-04-19T07:51:36.228Z</time></trkpt><trkpt lat="43.1685294" lon="12.2591394"><ele>434.49999999999994</ele><time>2026-04-19T07:51:38.225Z</time></trkpt><trkpt lat="43.1685744" lon="12.2590605"><ele>435.0</ele><time>2026-04-19T07:51:40.224Z</time></trkpt><trkpt lat="43.1686117" lon="12.2589884"><ele>435.5</ele><time>2026-04-19T07:52:56.246Z</time></trkpt><trkpt lat="43.1686537" lon="12.2588972"><ele>436.0</ele><time>2026-04-19T07:52:59.23Z</time></trkpt><trkpt lat="43.1686896" lon="12.2587468"><ele>436.49999999999994</ele><time>2026-04-19T07:53:01.238Z</time></trkpt><trkpt lat="43.1686993" lon="12.2586509"><ele>437.0</ele><time>2026-04-19T07:53:02.229Z</time></trkpt><trkpt lat="43.1687056" lon="12.2585434"><ele>436.99999999999994</ele><time>2026-04-19T07:53:03.238Z</time></trkpt><trkpt lat="43.1687145" lon="12.2584398"><ele>437.0</ele><time>2026-04-19T07:53:04.237Z</time></trkpt><trkpt lat="43.1687363" lon="12.2583425"><ele>437.0</ele><time>2026-04-19T07:53:05.236Z</time></trkpt><trkpt lat="43.1687626" lon="12.2582464"><ele>437.0</ele><time>2026-04-19T07:53:06.222Z</time></trkpt><trkpt lat="43.1687944" lon="12.2581591"><ele>436.99999999999994</ele><time>2026-04-19T07:53:07.253Z</time></trkpt><trkpt lat="43.1688369" lon="12.2580743"><ele>437.0</ele><time>2026-04-19T07:53:08.253Z</time></trkpt><trkpt lat="43.1688956" lon="12.2579921"><ele>436.40000000000003</ele><time>2026-04-19T07:53:09.253Z</time></trkpt><trkpt lat="43.1689666" lon="12.2579092"><ele>435.80000000000007</ele><time>2026-04-19T07:53:10.229Z</time></trkpt><trkpt lat="43.1690429" lon="12.2578241"><ele>435.2</ele><time>2026-04-19T07:53:11.238Z</time></trkpt><trkpt lat="43.1691212" lon="12.2577363"><ele>434.6</ele><time>2026-04-19T07:53:12.252Z</time></trkpt><trkpt lat="43.1691991" lon="12.2576328"><ele>434.0</ele><time>2026-04-19T07:53:13.237Z</time></trkpt><trkpt lat="43.1692867" lon="12.2575237"><ele>435.0</ele><time>2026-04-19T07:53:14.251Z</time></trkpt><trkpt lat="43.169374" lon="12.2574176"><ele>436.0</ele><time>2026-04-19T07:53:15.242Z</time></trkpt><trkpt lat="43.1694484" lon="12.2573234"><ele>437.0</ele><time>2026-04-19T07:53:16.238Z</time></trkpt><trkpt lat="43.1695286" lon="12.25723"><ele>438.0</ele><time>2026-04-19T07:53:17.265Z</time></trkpt><trkpt lat="43.1696108" lon="12.2571354"><ele>439.0</ele><time>2026-04-19T07:53:18.259Z</time></trkpt><trkpt lat="43.1696868" lon="12.2570371"><ele>439.00000000000006</ele><time>2026-04-19T07:53:19.251Z</time></trkpt><trkpt lat="43.1697543" lon="12.2569508"><ele>439.0</ele><time>2026-04-19T07:53:20.252Z</time></trkpt><trkpt lat="43.1698148" lon="12.2568656"><ele>439.0</ele><time>2026-04-19T07:53:21.258Z</time></trkpt><trkpt lat="43.1698779" lon="12.2567794"><ele>439.0</ele><time>2026-04-19T07:53:22.243Z</time></trkpt><trkpt lat="43.1699367" lon="12.2566941"><ele>439.00000000000006</ele><time>2026-04-19T07:53:23.251Z</time></trkpt><trkpt lat="43.1699928" lon="12.2566016"><ele>439.0</ele><time>2026-04-19T07:53:24.246Z</time></trkpt><trkpt lat="43.1700383" lon="12.2565168"><ele>439.1428571428571</ele><time>2026-04-19T07:53:25.146Z</time></trkpt><trkpt lat="43.1700699" lon="12.256435"><ele>439.2857142857143</ele><time>2026-04-19T07:53:26.147Z</time></trkpt><trkpt lat="43.1700872" lon="12.2563472"><ele>439.42857142857144</ele><time>2026-04-19T07:53:27.158Z</time></trkpt><trkpt lat="43.170098" lon="12.2562605"><ele>439.57142857142856</ele><time>2026-04-19T07:53:28.158Z</time></trkpt><trkpt lat="43.1701116" lon="12.2561744"><ele>439.7142857142857</ele><time>2026-04-19T07:53:29.156Z</time></trkpt><trkpt lat="43.1701346" lon="12.2560922"><ele>439.85714285714283</ele><time>2026-04-19T07:53:30.154Z</time></trkpt><trkpt lat="43.1701657" lon="12.2560057"><ele>440.0</ele><time>2026-04-19T07:53:31.156Z</time></trkpt><trkpt lat="43.1701919" lon="12.2559081"><ele>439.99999999999994</ele><time>2026-04-19T07:53:32.151Z</time></trkpt><trkpt lat="43.1702248" lon="12.2558058"><ele>440.0</ele><time>2026-04-19T07:53:33.148Z</time></trkpt><trkpt lat="43.1702542" lon="12.2557034"><ele>440.0</ele><time>2026-04-19T07:53:34.148Z</time></trkpt><trkpt lat="43.1702809" lon="12.2556017"><ele>440.0</ele><time>2026-04-19T07:53:35.156Z</time></trkpt><trkpt lat="43.1703064" lon="12.2555115"><ele>440.0</ele><time>2026-04-19T07:53:36.15Z</time></trkpt><trkpt lat="43.1703356" lon="12.2554285"><ele>439.99999999999994</ele><time>2026-04-19T07:53:37.147Z</time></trkpt><trkpt lat="43.1703723" lon="12.2553491"><ele>440.0</ele><time>2026-04-19T07:53:38.164Z</time></trkpt><trkpt lat="43.1704157" lon="12.2552685"><ele>440.3333333333333</ele><time>2026-04-19T07:53:39.147Z</time></trkpt><trkpt lat="43.170469" lon="12.2551729"><ele>440.66666666666663</ele><time>2026-04-19T07:53:40.15Z</time></trkpt><trkpt lat="43.1705167" lon="12.2550702"><ele>441.0</ele><time>2026-04-19T07:53:41.158Z</time></trkpt><trkpt lat="43.1705495" lon="12.2549689"><ele>441.33333333333337</ele><time>2026-04-19T07:53:42.165Z</time></trkpt><trkpt lat="43.1705783" lon="12.2548776"><ele>441.6666666666667</ele><time>2026-04-19T07:53:43.157Z</time></trkpt><trkpt lat="43.1706046" lon="12.2547982"><ele>442.0</ele><time>2026-04-19T07:53:44.153Z</time></trkpt><trkpt lat="43.1706783" lon="12.2547126"><ele>442.6666666666667</ele><time>2026-04-19T07:53:46.168Z</time></trkpt><trkpt lat="43.1707743" lon="12.254684"><ele>443.33333333333337</ele><time>2026-04-19T07:53:48.155Z</time></trkpt><trkpt lat="43.1708418" lon="12.2546532"><ele>444.0</ele><time>2026-04-19T07:53:50.164Z</time></trkpt><trkpt lat="43.1708581" lon="12.2545578"><ele>444.66666666666663</ele><time>2026-04-19T07:53:52.15Z</time></trkpt><trkpt lat="43.1708392" lon="12.2543969"><ele>445.3333333333333</ele><time>2026-04-19T07:53:54.173Z</time></trkpt><trkpt lat="43.170829" lon="12.2543022"><ele>446.0</ele><time>2026-04-19T07:53:55.161Z</time></trkpt><trkpt lat="43.1708308" lon="12.2542095"><ele>446.0</ele><time>2026-04-19T07:53:56.176Z</time></trkpt><trkpt lat="43.1708347" lon="12.2541203"><ele>446.0</ele><time>2026-04-19T07:53:57.187Z</time></trkpt><trkpt lat="43.1708435" lon="12.2540197"><ele>446.0</ele><time>2026-04-19T07:53:58.17Z</time></trkpt><trkpt lat="43.1708547" lon="12.2539112"><ele>446.0</ele><time>2026-04-19T07:53:59.167Z</time></trkpt><trkpt lat="43.1708681" lon="12.2538104"><ele>446.0</ele><time>2026-04-19T07:54:00.162Z</time></trkpt><trkpt lat="43.170882" lon="12.2537235"><ele>446.0</ele><time>2026-04-19T07:54:01.17Z</time></trkpt><trkpt lat="43.1708831" lon="12.2536368"><ele>446.0</ele><time>2026-04-19T07:54:02.169Z</time></trkpt><trkpt lat="43.1708732" lon="12.2535448"><ele>445.85714285714283</ele><time>2026-04-19T07:54:03.176Z</time></trkpt><trkpt lat="43.1708468" lon="12.2534626"><ele>445.71428571428567</ele><time>2026-04-19T07:54:04.174Z</time></trkpt><trkpt lat="43.1708084" lon="12.2533732"><ele>445.57142857142856</ele><time>2026-04-19T07:54:05.158Z</time></trkpt><trkpt lat="43.1707679" lon="12.253285"><ele>445.42857142857144</ele><time>2026-04-19T07:54:06.165Z</time></trkpt><trkpt lat="43.1707248" lon="12.2531944"><ele>445.2857142857143</ele><time>2026-04-19T07:54:07.167Z</time></trkpt><trkpt lat="43.1706835" lon="12.2531078"><ele>445.14285714285717</ele><time>2026-04-19T07:54:08.169Z</time></trkpt><trkpt lat="43.1706486" lon="12.2530276"><ele>445.0</ele><time>2026-04-19T07:54:09.165Z</time></trkpt><trkpt lat="43.1706159" lon="12.2529489"><ele>444.33333333333337</ele><time>2026-04-19T07:54:10.176Z</time></trkpt><trkpt lat="43.1705895" lon="12.2528659"><ele>443.6666666666667</ele><time>2026-04-19T07:54:11.161Z</time></trkpt><trkpt lat="43.1705542" lon="12.2527319"><ele>443.0</ele><time>2026-04-19T07:54:13.195Z</time></trkpt><trkpt lat="43.1705748" lon="12.2526476"><ele>442.33333333333337</ele><time>2026-04-19T07:54:16.173Z</time></trkpt><trkpt lat="43.170651" lon="12.2525935"><ele>441.6666666666667</ele><time>2026-04-19T07:54:20.198Z</time></trkpt><trkpt lat="43.170713" lon="12.2525668"><ele>441.0</ele><time>2026-04-19T07:54:22.191Z</time></trkpt><trkpt lat="43.1707957" lon="12.2525279"><ele>441.0</ele><time>2026-04-19T07:54:25.196Z</time></trkpt><trkpt lat="43.1708681" lon="12.2524935"><ele>441.0</ele><time>2026-04-19T07:54:28.189Z</time></trkpt><trkpt lat="43.1709509" lon="12.2524475"><ele>441.0</ele><time>2026-04-19T07:54:31.205Z</time></trkpt><trkpt lat="43.1710089" lon="12.2524015"><ele>441.0</ele><time>2026-04-19T07:54:34.197Z</time></trkpt><trkpt lat="43.1710744" lon="12.2523352"><ele>441.0</ele><time>2026-04-19T07:54:37.215Z</time></trkpt><trkpt lat="43.1711301" lon="12.2522569"><ele>441.0</ele><time>2026-04-19T07:54:40.198Z</time></trkpt><trkpt lat="43.1711504" lon="12.2521607"><ele>442.6</ele><time>2026-04-19T07:54:43.216Z</time></trkpt><trkpt lat="43.1711666" lon="12.2520626"><ele>444.20000000000005</ele><time>2026-04-19T07:54:45.207Z</time></trkpt><trkpt lat="43.1712256" lon="12.251953"><ele>445.79999999999995</ele><time>2026-04-19T07:54:47.213Z</time></trkpt><trkpt lat="43.1713049" lon="12.251861"><ele>447.4</ele><time>2026-04-19T07:54:49.219Z</time></trkpt><trkpt lat="43.1713975" lon="12.251791"><ele>449.0</ele><time>2026-04-19T07:54:51.209Z</time></trkpt><trkpt lat="43.1714711" lon="12.2517156"><ele>448.99999999999994</ele><time>2026-04-19T07:54:53.211Z</time></trkpt><trkpt lat="43.1715235" lon="12.2516312"><ele>449.0</ele><time>2026-04-19T07:54:55.223Z</time></trkpt><trkpt lat="43.1715561" lon="12.2515412"><ele>449.0</ele><time>2026-04-19T07:54:57.233Z</time></trkpt><trkpt lat="43.1715723" lon="12.2514576"><ele>449.0</ele><time>2026-04-19T07:55:00.243Z</time></trkpt><trkpt lat="43.1715731" lon="12.2513566"><ele>448.99999999999994</ele><time>2026-04-19T07:55:03.219Z</time></trkpt><trkpt lat="43.1715755" lon="12.2512408"><ele>449.0</ele><time>2026-04-19T07:55:05.24Z</time></trkpt><trkpt lat="43.1715809" lon="12.2511361"><ele>446.3333333333333</ele><time>2026-04-19T07:55:07.24Z</time></trkpt><trkpt lat="43.1715916" lon="12.2510074"><ele>443.66666666666663</ele><time>2026-04-19T07:55:09.363Z</time></trkpt><trkpt lat="43.1716068" lon="12.250867"><ele>441.0</ele><time>2026-04-19T07:55:11.367Z</time></trkpt><trkpt lat="43.1715982" lon="12.2507435"><ele>438.33333333333337</ele><time>2026-04-19T07:55:13.35Z</time></trkpt><trkpt lat="43.1716132" lon="12.2506271"><ele>435.6666666666667</ele><time>2026-04-19T07:55:15.342Z</time></trkpt><trkpt lat="43.1716717" lon="12.2505687"><ele>433.0</ele><time>2026-04-19T07:55:17.351Z</time></trkpt><trkpt lat="43.1717569" lon="12.2505354"><ele>433.00000000000006</ele><time>2026-04-19T07:55:19.367Z</time></trkpt><trkpt lat="43.171844" lon="12.2505189"><ele>433.0</ele><time>2026-04-19T07:55:21.358Z</time></trkpt><trkpt lat="43.1719147" lon="12.2505104"><ele>433.0</ele><time>2026-04-19T07:55:24.364Z</time></trkpt><trkpt lat="43.172007" lon="12.250505"><ele>433.0</ele><time>2026-04-19T07:55:27.382Z</time></trkpt><trkpt lat="43.1721003" lon="12.2504951"><ele>433.00000000000006</ele><time>2026-04-19T07:55:29.358Z</time></trkpt><trkpt lat="43.1721892" lon="12.2504295"><ele>433.0</ele><time>2026-04-19T07:55:31.358Z</time></trkpt><trkpt lat="43.172261" lon="12.2503494"><ele>433.0</ele><time>2026-04-19T07:55:33.364Z</time></trkpt><trkpt lat="43.1723196" lon="12.2502325"><ele>432.99999999999994</ele><time>2026-04-19T07:55:35.347Z</time></trkpt><trkpt lat="43.1723584" lon="12.2500986"><ele>432.99999999999994</ele><time>2026-04-19T07:55:37.348Z</time></trkpt><trkpt lat="43.1723653" lon="12.2499714"><ele>433.0</ele><time>2026-04-19T07:55:39.348Z</time></trkpt><trkpt lat="43.1723689" lon="12.2498621"><ele>433.0</ele><time>2026-04-19T07:55:41.347Z</time></trkpt><trkpt lat="43.172346" lon="12.2497508"><ele>431.00000000000006</ele><time>2026-04-19T07:55:43.341Z</time></trkpt><trkpt lat="43.172309" lon="12.2496495"><ele>429.0</ele><time>2026-04-19T07:55:45.208Z</time></trkpt><trkpt lat="43.1722745" lon="12.2495383"><ele>427.0</ele><time>2026-04-19T07:55:48.208Z</time></trkpt><trkpt lat="43.1722267" lon="12.2494246"><ele>425.0</ele><time>2026-04-19T07:55:51.219Z</time></trkpt><trkpt lat="43.1721889" lon="12.2493365"><ele>423.00000000000006</ele><time>2026-04-19T07:55:53.21Z</time></trkpt><trkpt lat="43.1721397" lon="12.2492767"><ele>421.0</ele><time>2026-04-19T07:55:55.227Z</time></trkpt><trkpt lat="43.1720761" lon="12.249202"><ele>421.0</ele><time>2026-04-19T07:55:57.227Z</time></trkpt><trkpt lat="43.1719985" lon="12.2491295"><ele>421.0</ele><time>2026-04-19T07:55:59.116Z</time></trkpt><trkpt lat="43.1719114" lon="12.249084"><ele>421.0</ele><time>2026-04-19T07:56:01.124Z</time></trkpt><trkpt lat="43.1718132" lon="12.2490246"><ele>421.0</ele><time>2026-04-19T07:56:03.13Z</time></trkpt><trkpt lat="43.1717288" lon="12.2489612"><ele>421.0</ele><time>2026-04-19T07:56:05.13Z</time></trkpt><trkpt lat="43.1716532" lon="12.2489147"><ele>419.33333333333337</ele><time>2026-04-19T07:56:07.131Z</time></trkpt><trkpt lat="43.1715997" lon="12.2488244"><ele>417.6666666666667</ele><time>2026-04-19T07:56:09.147Z</time></trkpt><trkpt lat="43.1716056" lon="12.2487216"><ele>416.0</ele><time>2026-04-19T07:56:11.134Z</time></trkpt><trkpt lat="43.1716137" lon="12.2486105"><ele>414.33333333333337</ele><time>2026-04-19T07:56:13.977Z</time></trkpt><trkpt lat="43.1716529" lon="12.2485385"><ele>412.6666666666667</ele><time>2026-04-19T07:56:15.056Z</time></trkpt><trkpt lat="43.1717233" lon="12.2484322"><ele>411.0</ele><time>2026-04-19T07:56:16.142Z</time></trkpt><trkpt lat="43.1717743" lon="12.2483397"><ele>411.0</ele><time>2026-04-19T07:56:17.141Z</time></trkpt><trkpt lat="43.1718195" lon="12.248259"><ele>411.0</ele><time>2026-04-19T07:56:18.166Z</time></trkpt><trkpt lat="43.1718637" lon="12.2481861"><ele>411.0</ele><time>2026-04-19T07:56:19.139Z</time></trkpt><trkpt lat="43.1719503" lon="12.248058"><ele>411.0</ele><time>2026-04-19T07:56:21.149Z</time></trkpt><trkpt lat="43.1720093" lon="12.2479455"><ele>411.0</ele><time>2026-04-19T07:56:23.153Z</time></trkpt><trkpt lat="43.1720574" lon="12.2477916"><ele>411.1666666666667</ele><time>2026-04-19T07:56:25.161Z</time></trkpt><trkpt lat="43.1721097" lon="12.2476839"><ele>411.33333333333337</ele><time>2026-04-19T07:56:27.172Z</time></trkpt><trkpt lat="43.1721634" lon="12.2475819"><ele>411.5</ele><time>2026-04-19T07:56:30.17Z</time></trkpt><trkpt lat="43.1721968" lon="12.2474695"><ele>411.6666666666667</ele><time>2026-04-19T07:56:33.176Z</time></trkpt><trkpt lat="43.1722043" lon="12.2473582"><ele>411.83333333333337</ele><time>2026-04-19T07:56:36.173Z</time></trkpt><trkpt lat="43.1722015" lon="12.2472664"><ele>412.0</ele><time>2026-04-19T07:56:38.179Z</time></trkpt><trkpt lat="43.1721968" lon="12.2471793"><ele>410.6666666666667</ele><time>2026-04-19T07:56:40.182Z</time></trkpt><trkpt lat="43.1721767" lon="12.2470623"><ele>409.33333333333337</ele><time>2026-04-19T07:56:43.174Z</time></trkpt><trkpt lat="43.1722253" lon="12.2469588"><ele>408.0</ele><time>2026-04-19T07:56:46.161Z</time></trkpt><trkpt lat="43.1722945" lon="12.2469422"><ele>406.66666666666663</ele><time>2026-04-19T07:56:49.164Z</time></trkpt><trkpt lat="43.1723865" lon="12.2469279"><ele>405.3333333333333</ele><time>2026-04-19T07:56:52.167Z</time></trkpt><trkpt lat="43.1724741" lon="12.2469535"><ele>404.0</ele><time>2026-04-19T07:56:55.177Z</time></trkpt><trkpt lat="43.1725387" lon="12.2469833"><ele>401.8333333333333</ele><time>2026-04-19T07:56:58.172Z</time></trkpt><trkpt lat="43.1726213" lon="12.2470105"><ele>399.66666666666663</ele><time>2026-04-19T07:57:02.17Z</time></trkpt><trkpt lat="43.1726812" lon="12.2470593"><ele>397.5</ele><time>2026-04-19T07:57:05.188Z</time></trkpt><trkpt lat="43.1727484" lon="12.2471053"><ele>395.33333333333337</ele><time>2026-04-19T07:57:08.188Z</time></trkpt><trkpt lat="43.1728053" lon="12.2471622"><ele>393.1666666666667</ele><time>2026-04-19T07:57:11.187Z</time></trkpt><trkpt lat="43.1728731" lon="12.247119"><ele>391.0</ele><time>2026-04-19T07:57:15.175Z</time></trkpt><trkpt lat="43.1728905" lon="12.2470186"><ele>391.00000000000006</ele><time>2026-04-19T07:57:18.183Z</time></trkpt><trkpt lat="43.172906" lon="12.2469165"><ele>391.0</ele><time>2026-04-19T07:57:21.19Z</time></trkpt><trkpt lat="43.1729265" lon="12.246811"><ele>391.0</ele><time>2026-04-19T07:57:24.2Z</time></trkpt><trkpt lat="43.1729298" lon="12.2467093"><ele>391.0</ele><time>2026-04-19T07:57:26.183Z</time></trkpt><trkpt lat="43.1729325" lon="12.2465982"><ele>391.00000000000006</ele><time>2026-04-19T07:57:28.194Z</time></trkpt><trkpt lat="43.1729138" lon="12.2464911"><ele>391.0</ele><time>2026-04-19T07:57:30.187Z</time></trkpt><trkpt lat="43.1728574" lon="12.2463886"><ele>388.83333333333337</ele><time>2026-04-19T07:57:32.198Z</time></trkpt><trkpt lat="43.172769" lon="12.2462998"><ele>386.6666666666667</ele><time>2026-04-19T07:57:34.189Z</time></trkpt><trkpt lat="43.1726543" lon="12.2462514"><ele>384.5</ele><time>2026-04-19T07:57:36.199Z</time></trkpt><trkpt lat="43.1725916" lon="12.2462339"><ele>382.33333333333337</ele><time>2026-04-19T07:57:37.231Z</time></trkpt><trkpt lat="43.172524" lon="12.2462291"><ele>380.1666666666667</ele><time>2026-04-19T07:57:38.189Z</time></trkpt><trkpt lat="43.1724466" lon="12.2462029"><ele>378.0</ele><time>2026-04-19T07:57:39.186Z</time></trkpt><trkpt lat="43.1723717" lon="12.2461775"><ele>380.1666666666667</ele><time>2026-04-19T07:57:40.186Z</time></trkpt><trkpt lat="43.1723067" lon="12.2461629"><ele>382.33333333333337</ele><time>2026-04-19T07:57:41.186Z</time></trkpt><trkpt lat="43.1722185" lon="12.246123"><ele>384.5</ele><time>2026-04-19T07:57:43.195Z</time></trkpt><trkpt lat="43.1721748" lon="12.2460456"><ele>386.6666666666667</ele><time>2026-04-19T07:57:45.197Z</time></trkpt><trkpt lat="43.1721616" lon="12.2459537"><ele>388.83333333333337</ele><time>2026-04-19T07:57:47.194Z</time></trkpt><trkpt lat="43.172183" lon="12.2458378"><ele>391.0</ele><time>2026-04-19T07:57:49.196Z</time></trkpt><trkpt lat="43.1721941" lon="12.2457191"><ele>387.8</ele><time>2026-04-19T07:57:51.211Z</time></trkpt><trkpt lat="43.1722221" lon="12.2455895"><ele>384.6</ele><time>2026-04-19T07:57:53.198Z</time></trkpt><trkpt lat="43.1722608" lon="12.2454642"><ele>381.4</ele><time>2026-04-19T07:57:55.199Z</time></trkpt><trkpt lat="43.1722848" lon="12.2453623"><ele>378.2</ele><time>2026-04-19T07:57:57.199Z</time></trkpt><trkpt lat="43.172263" lon="12.245256"><ele>375.0</ele><time>2026-04-19T07:58:00.202Z</time></trkpt><trkpt lat="43.1722511" lon="12.2451291"><ele>375.0</ele><time>2026-04-19T07:58:03.207Z</time></trkpt><trkpt lat="43.1722496" lon="12.2450046"><ele>375.0</ele><time>2026-04-19T07:58:06.242Z</time></trkpt><trkpt lat="43.1722609" lon="12.2449177"><ele>375.0</ele><time>2026-04-19T07:58:08.209Z</time></trkpt><trkpt lat="43.1722708" lon="12.2448217"><ele>375.0</ele><time>2026-04-19T07:58:10.203Z</time></trkpt><trkpt lat="43.1722787" lon="12.2447257"><ele>375.0</ele><time>2026-04-19T07:58:12.202Z</time></trkpt><trkpt lat="43.1722869" lon="12.2446257"><ele>375.0</ele><time>2026-04-19T07:58:14.214Z</time></trkpt><trkpt lat="43.1722906" lon="12.2445355"><ele>375.0</ele><time>2026-04-19T07:58:16.209Z</time></trkpt><trkpt lat="43.1723068" lon="12.2444341"><ele>372.7142857142857</ele><time>2026-04-19T07:58:18.222Z</time></trkpt><trkpt lat="43.172317" lon="12.2443442"><ele>370.4285714285714</ele><time>2026-04-19T07:58:20.21Z</time></trkpt><trkpt lat="43.1723253" lon="12.2442541"><ele>368.1428571428571</ele><time>2026-04-19T07:58:22.211Z</time></trkpt><trkpt lat="43.1723302" lon="12.2441515"><ele>365.8571428571429</ele><time>2026-04-19T07:58:25.22Z</time></trkpt><trkpt lat="43.1722934" lon="12.2440752"><ele>363.57142857142856</ele><time>2026-04-19T07:58:29.218Z</time></trkpt><trkpt lat="43.1722372" lon="12.2440096"><ele>361.2857142857143</ele><time>2026-04-19T07:58:33.22Z</time></trkpt><trkpt lat="43.1721589" lon="12.2439695"><ele>359.0</ele><time>2026-04-19T07:58:36.222Z</time></trkpt><trkpt lat="43.1720943" lon="12.2438909"><ele>357.0</ele><time>2026-04-19T07:58:39.211Z</time></trkpt><trkpt lat="43.1720436" lon="12.2438266"><ele>355.0</ele><time>2026-04-19T07:58:41.225Z</time></trkpt><trkpt lat="43.1719773" lon="12.2437943"><ele>353.0</ele><time>2026-04-19T07:58:43.223Z</time></trkpt><trkpt lat="43.1719092" lon="12.24372"><ele>351.0</ele><time>2026-04-19T07:58:45.223Z</time></trkpt><trkpt lat="43.1718677" lon="12.2436013"><ele>349.0</ele><time>2026-04-19T07:58:47.22Z</time></trkpt><trkpt lat="43.1718527" lon="12.2435168"><ele>347.0</ele><time>2026-04-19T07:58:49.219Z</time></trkpt><trkpt lat="43.1718444" lon="12.2434186"><ele>347.0</ele><time>2026-04-19T07:58:51.218Z</time></trkpt><trkpt lat="43.1718266" lon="12.2433204"><ele>347.0</ele><time>2026-04-19T07:58:53.222Z</time></trkpt><trkpt lat="43.1718084" lon="12.2431928"><ele>347.0</ele><time>2026-04-19T07:58:56.117Z</time></trkpt><trkpt lat="43.171799" lon="12.2431067"><ele>347.0</ele><time>2026-04-19T07:58:58.206Z</time></trkpt><trkpt lat="43.1717888" lon="12.2430125"><ele>347.0</ele><time>2026-04-19T07:59:00.11Z</time></trkpt><trkpt lat="43.171784" lon="12.2428957"><ele>347.0</ele><time>2026-04-19T07:59:03.124Z</time></trkpt><trkpt lat="43.1718235" lon="12.2428094"><ele>345.14285714285717</ele><time>2026-04-19T07:59:06.142Z</time></trkpt><trkpt lat="43.1718663" lon="12.2427364"><ele>343.2857142857143</ele><time>2026-04-19T07:59:10.123Z</time></trkpt><trkpt lat="43.1719074" lon="12.2426669"><ele>341.42857142857144</ele><time>2026-04-19T07:59:13.124Z</time></trkpt><trkpt lat="43.1719773" lon="12.2426031"><ele>339.57142857142856</ele><time>2026-04-19T07:59:16.117Z</time></trkpt><trkpt lat="43.171991" lon="12.2425079"><ele>337.7142857142857</ele><time>2026-04-19T07:59:19.119Z</time></trkpt><trkpt lat="43.1720145" lon="12.2424089"><ele>335.85714285714283</ele><time>2026-04-19T07:59:22.145Z</time></trkpt><trkpt lat="43.1720298" lon="12.2423078"><ele>334.0</ele><time>2026-04-19T07:59:25.126Z</time></trkpt><trkpt lat="43.1720451" lon="12.2421909"><ele>331.5</ele><time>2026-04-19T07:59:28.134Z</time></trkpt><trkpt lat="43.1720572" lon="12.2420684"><ele>329.0</ele><time>2026-04-19T07:59:31.132Z</time></trkpt><trkpt lat="43.1720669" lon="12.2419803"><ele>326.5</ele><time>2026-04-19T07:59:33.127Z</time></trkpt><trkpt lat="43.1720969" lon="12.2418655"><ele>324.0</ele><time>2026-04-19T07:59:36.119Z</time></trkpt><trkpt lat="43.1721156" lon="12.2417816"><ele>321.5</ele><time>2026-04-19T07:59:38.135Z</time></trkpt><trkpt lat="43.1721356" lon="12.2416847"><ele>319.0</ele><time>2026-04-19T07:59:40.122Z</time></trkpt><trkpt lat="43.1721474" lon="12.241586"><ele>319.0</ele><time>2026-04-19T07:59:42.139Z</time></trkpt><trkpt lat="43.1721232" lon="12.2414658"><ele>319.0</ele><time>2026-04-19T07:59:45.155Z</time></trkpt><trkpt lat="43.1720817" lon="12.2413671"><ele>319.0</ele><time>2026-04-19T07:59:48.15Z</time></trkpt><trkpt lat="43.1720249" lon="12.2412727"><ele>319.0</ele><time>2026-04-19T07:59:51.127Z</time></trkpt><trkpt lat="43.1719604" lon="12.241194"><ele>319.0</ele><time>2026-04-19T07:59:54.125Z</time></trkpt><trkpt lat="43.1719008" lon="12.2411001"><ele>319.0</ele><time>2026-04-19T07:59:57.152Z</time></trkpt><trkpt lat="43.1718584" lon="12.2410337"><ele>317.14285714285717</ele><time>2026-04-19T07:59:59.152Z</time></trkpt><trkpt lat="43.1718184" lon="12.2409587"><ele>315.2857142857143</ele><time>2026-04-19T08:00:01.15Z</time></trkpt><trkpt lat="43.171776" lon="12.2408814"><ele>313.42857142857144</ele><time>2026-04-19T08:00:03.136Z</time></trkpt><trkpt lat="43.1717315" lon="12.2408139"><ele>311.57142857142856</ele><time>2026-04-19T08:00:05.139Z</time></trkpt><trkpt lat="43.1716841" lon="12.2407403"><ele>309.7142857142857</ele><time>2026-04-19T08:00:07.138Z</time></trkpt><trkpt lat="43.1716387" lon="12.2406638"><ele>307.85714285714283</ele><time>2026-04-19T08:00:09.131Z</time></trkpt><trkpt lat="43.1715933" lon="12.2405838"><ele>306.0</ele><time>2026-04-19T08:00:11.142Z</time></trkpt><trkpt lat="43.1715535" lon="12.2405031"><ele>304.8333333333333</ele><time>2026-04-19T08:00:13.139Z</time></trkpt><trkpt lat="43.1715171" lon="12.2404284"><ele>303.6666666666667</ele><time>2026-04-19T08:00:15.147Z</time></trkpt><trkpt lat="43.1714966" lon="12.2403269"><ele>302.5</ele><time>2026-04-19T08:00:18.131Z</time></trkpt><trkpt lat="43.1715208" lon="12.2401957"><ele>301.33333333333337</ele><time>2026-04-19T08:00:21.141Z</time></trkpt><trkpt lat="43.1715768" lon="12.2401079"><ele>300.1666666666667</ele><time>2026-04-19T08:00:24.142Z</time></trkpt><trkpt lat="43.1716312" lon="12.2400486"><ele>299.0</ele><time>2026-04-19T08:00:26.149Z</time></trkpt><trkpt lat="43.1716963" lon="12.2399949"><ele>298.1666666666667</ele><time>2026-04-19T08:00:28.145Z</time></trkpt><trkpt lat="43.1717759" lon="12.2399367"><ele>297.33333333333337</ele><time>2026-04-19T08:00:30.16Z</time></trkpt><trkpt lat="43.1718358" lon="12.2398782"><ele>296.5</ele><time>2026-04-19T08:00:32.147Z</time></trkpt><trkpt lat="43.1718888" lon="12.2398201"><ele>295.6666666666667</ele><time>2026-04-19T08:00:34.169Z</time></trkpt><trkpt lat="43.1719534" lon="12.2397191"><ele>294.8333333333333</ele><time>2026-04-19T08:00:37.161Z</time></trkpt><trkpt lat="43.171977" lon="12.2396379"><ele>294.0</ele><time>2026-04-19T08:00:39.175Z</time></trkpt><trkpt lat="43.1719922" lon="12.2395466"><ele>293.42857142857144</ele><time>2026-04-19T08:00:41.182Z</time></trkpt><trkpt lat="43.1720311" lon="12.23945"><ele>292.8571428571429</ele><time>2026-04-19T08:00:44.196Z</time></trkpt><trkpt lat="43.1720956" lon="12.2393625"><ele>292.2857142857143</ele><time>2026-04-19T08:00:47.183Z</time></trkpt><trkpt lat="43.1721449" lon="12.2393019"><ele>291.7142857142857</ele><time>2026-04-19T08:00:49.18Z</time></trkpt><trkpt lat="43.1721919" lon="12.2392267"><ele>291.14285714285717</ele><time>2026-04-19T08:00:51.18Z</time></trkpt><trkpt lat="43.1722409" lon="12.2391593"><ele>290.57142857142856</ele><time>2026-04-19T08:00:53.173Z</time></trkpt><trkpt lat="43.1722745" lon="12.239079"><ele>290.0</ele><time>2026-04-19T08:00:55.186Z</time></trkpt><trkpt lat="43.1722904" lon="12.2389775"><ele>290.0</ele><time>2026-04-19T08:00:57.187Z</time></trkpt><trkpt lat="43.1723065" lon="12.2388888"><ele>290.0</ele><time>2026-04-19T08:00:59.172Z</time></trkpt><trkpt lat="43.1723271" lon="12.2388004"><ele>290.0</ele><time>2026-04-19T08:01:01.182Z</time></trkpt><trkpt lat="43.1723669" lon="12.2387105"><ele>290.0</ele><time>2026-04-19T08:01:03.178Z</time></trkpt><trkpt lat="43.1724255" lon="12.2386236"><ele>290.0</ele><time>2026-04-19T08:01:05.192Z</time></trkpt><trkpt lat="43.1725097" lon="12.2385267"><ele>290.0</ele><time>2026-04-19T08:01:07.191Z</time></trkpt><trkpt lat="43.1725926" lon="12.2384406"><ele>288.0</ele><time>2026-04-19T08:01:09.201Z</time></trkpt><trkpt lat="43.1726514" lon="12.2383235"><ele>286.0</ele><time>2026-04-19T08:01:11.193Z</time></trkpt><trkpt lat="43.1727256" lon="12.2382024"><ele>284.0</ele><time>2026-04-19T08:01:13.177Z</time></trkpt><trkpt lat="43.1728043" lon="12.2381096"><ele>282.0</ele><time>2026-04-19T08:01:15.184Z</time></trkpt><trkpt lat="43.1728729" lon="12.2380214"><ele>280.0</ele><time>2026-04-19T08:01:17.182Z</time></trkpt><trkpt lat="43.172938" lon="12.2379579"><ele>279.5</ele><time>2026-04-19T08:01:19.185Z</time></trkpt><trkpt lat="43.1730251" lon="12.2379042"><ele>279.0</ele><time>2026-04-19T08:01:21.204Z</time></trkpt><trkpt lat="43.173129" lon="12.2378598"><ele>278.5</ele><time>2026-04-19T08:01:23.195Z</time></trkpt><trkpt lat="43.1731995" lon="12.2378348"><ele>278.0</ele><time>2026-04-19T08:01:24.202Z</time></trkpt><trkpt lat="43.1732795" lon="12.2378015"><ele>277.5</ele><time>2026-04-19T08:01:25.193Z</time></trkpt><trkpt lat="43.1733469" lon="12.2377719"><ele>277.0</ele><time>2026-04-19T08:01:26.195Z</time></trkpt><trkpt lat="43.1734475" lon="12.2377203"><ele>277.0</ele><time>2026-04-19T08:01:28.205Z</time></trkpt><trkpt lat="43.1735317" lon="12.2376529"><ele>277.0</ele><time>2026-04-19T08:01:30.189Z</time></trkpt><trkpt lat="43.1735763" lon="12.237559"><ele>277.0</ele><time>2026-04-19T08:01:33.21Z</time></trkpt><trkpt lat="43.1735642" lon="12.2374737"><ele>277.0</ele><time>2026-04-19T08:01:35.199Z</time></trkpt><trkpt lat="43.1735297" lon="12.2373682"><ele>277.0</ele><time>2026-04-19T08:01:38.19Z</time></trkpt><trkpt lat="43.1735423" lon="12.2372791"><ele>277.0</ele><time>2026-04-19T08:01:40.195Z</time></trkpt><trkpt lat="43.1735741" lon="12.2371724"><ele>277.25</ele><time>2026-04-19T08:01:42.205Z</time></trkpt><trkpt lat="43.1736437" lon="12.2370791"><ele>277.5</ele><time>2026-04-19T08:01:44.2Z</time></trkpt><trkpt lat="43.173776" lon="12.236972"><ele>277.75</ele><time>2026-04-19T08:01:46.189Z</time></trkpt><trkpt lat="43.1738739" lon="12.236902"><ele>278.0</ele><time>2026-04-19T08:01:47.193Z</time></trkpt><trkpt lat="43.1739609" lon="12.2368204"><ele>278.5</ele><time>2026-04-19T08:01:48.191Z</time></trkpt><trkpt lat="43.1740412" lon="12.2367419"><ele>279.0</ele><time>2026-04-19T08:01:49.2Z</time></trkpt><trkpt lat="43.1741122" lon="12.2366855"><ele>279.5</ele><time>2026-04-19T08:01:50.186Z</time></trkpt><trkpt lat="43.1741812" lon="12.2366358"><ele>280.0</ele><time>2026-04-19T08:01:51.188Z</time></trkpt><trkpt lat="43.1742424" lon="12.2365842"><ele>280.5</ele><time>2026-04-19T08:01:52.218Z</time></trkpt><trkpt lat="43.174295" lon="12.2365207"><ele>281.0</ele><time>2026-04-19T08:01:53.195Z</time></trkpt><trkpt lat="43.1743411" lon="12.2364619"><ele>281.0</ele><time>2026-04-19T08:01:54.198Z</time></trkpt><trkpt lat="43.174416" lon="12.2363911"><ele>281.0</ele><time>2026-04-19T08:01:56.209Z</time></trkpt><trkpt lat="43.1744849" lon="12.2363907"><ele>281.0</ele><time>2026-04-19T08:01:59.219Z</time></trkpt><trkpt lat="43.1745458" lon="12.2364544"><ele>281.0</ele><time>2026-04-19T08:02:01.201Z</time></trkpt><trkpt lat="43.1746277" lon="12.2365523"><ele>281.0</ele><time>2026-04-19T08:02:03.202Z</time></trkpt><trkpt lat="43.1747086" lon="12.2366715"><ele>281.0</ele><time>2026-04-19T08:02:05.232Z</time></trkpt><trkpt lat="43.1747526" lon="12.2367523"><ele>281.0</ele><time>2026-04-19T08:02:06.21Z</time></trkpt><trkpt lat="43.1747945" lon="12.2368319"><ele>281.0</ele><time>2026-04-19T08:02:07.232Z</time></trkpt><trkpt lat="43.1748341" lon="12.2369093"><ele>281.0</ele><time>2026-04-19T08:02:08.211Z</time></trkpt><trkpt lat="43.1748972" lon="12.2370487"><ele>281.0</ele><time>2026-04-19T08:02:10.206Z</time></trkpt><trkpt lat="43.1749253" lon="12.2371287"><ele>281.0</ele><time>2026-04-19T08:02:11.233Z</time></trkpt><trkpt lat="43.1749542" lon="12.2372182"><ele>281.83333333333337</ele><time>2026-04-19T08:02:12.207Z</time></trkpt><trkpt lat="43.1749763" lon="12.2373155"><ele>282.6666666666667</ele><time>2026-04-19T08:02:13.259Z</time></trkpt><trkpt lat="43.1749933" lon="12.237419"><ele>283.5</ele><time>2026-04-19T08:02:14.214Z</time></trkpt><trkpt lat="43.1750086" lon="12.2375191"><ele>284.3333333333333</ele><time>2026-04-19T08:02:15.237Z</time></trkpt><trkpt lat="43.1750212" lon="12.2376307"><ele>285.16666666666663</ele><time>2026-04-19T08:02:16.224Z</time></trkpt><trkpt lat="43.1750285" lon="12.237736"><ele>286.0</ele><time>2026-04-19T08:02:17.228Z</time></trkpt><trkpt lat="43.175034" lon="12.2378326"><ele>286.0</ele><time>2026-04-19T08:02:18.229Z</time></trkpt><trkpt lat="43.1750412" lon="12.2379344"><ele>286.0</ele><time>2026-04-19T08:02:19.227Z</time></trkpt><trkpt lat="43.1750507" lon="12.2380363"><ele>286.0</ele><time>2026-04-19T08:02:20.244Z</time></trkpt><trkpt lat="43.1750687" lon="12.2381437"><ele>286.0</ele><time>2026-04-19T08:02:21.227Z</time></trkpt><trkpt lat="43.1750953" lon="12.2382558"><ele>286.0</ele><time>2026-04-19T08:02:22.217Z</time></trkpt><trkpt lat="43.1751211" lon="12.2383648"><ele>286.0</ele><time>2026-04-19T08:02:23.23Z</time></trkpt><trkpt lat="43.1751723" lon="12.2385779"><ele>285.40000000000003</ele><time>2026-04-19T08:02:25.114Z</time></trkpt><trkpt lat="43.1752042" lon="12.2386871"><ele>284.8</ele><time>2026-04-19T08:02:26.114Z</time></trkpt><trkpt lat="43.175243" lon="12.2388144"><ele>284.20000000000005</ele><time>2026-04-19T08:02:27.119Z</time></trkpt><trkpt lat="43.1752784" lon="12.2389597"><ele>283.6</ele><time>2026-04-19T08:02:28.221Z</time></trkpt><trkpt lat="43.1753134" lon="12.2391001"><ele>283.0</ele><time>2026-04-19T08:02:29.226Z</time></trkpt><trkpt lat="43.1753471" lon="12.239239"><ele>283.0</ele><time>2026-04-19T08:02:30.229Z</time></trkpt><trkpt lat="43.1753785" lon="12.2393734"><ele>283.0</ele><time>2026-04-19T08:02:31.137Z</time></trkpt><trkpt lat="43.1754045" lon="12.2395024"><ele>283.0</ele><time>2026-04-19T08:02:32.111Z</time></trkpt><trkpt lat="43.1754199" lon="12.2396404"><ele>283.0</ele><time>2026-04-19T08:02:33.116Z</time></trkpt><trkpt lat="43.1754326" lon="12.2397754"><ele>283.0</ele><time>2026-04-19T08:02:34.127Z</time></trkpt><trkpt lat="43.175445" lon="12.2399116"><ele>283.2</ele><time>2026-04-19T08:02:35.227Z</time></trkpt><trkpt lat="43.1754637" lon="12.2400479"><ele>283.4</ele><time>2026-04-19T08:02:36.218Z</time></trkpt><trkpt lat="43.1754887" lon="12.24019"><ele>283.59999999999997</ele><time>2026-04-19T08:02:37.12Z</time></trkpt><trkpt lat="43.1755198" lon="12.2403368"><ele>283.8</ele><time>2026-04-19T08:02:38.136Z</time></trkpt><trkpt lat="43.1755569" lon="12.2404907"><ele>284.0</ele><time>2026-04-19T08:02:39.115Z</time></trkpt><trkpt lat="43.175595" lon="12.2406472"><ele>284.0</ele><time>2026-04-19T08:02:40.121Z</time></trkpt><trkpt lat="43.1756364" lon="12.2407952"><ele>284.0</ele><time>2026-04-19T08:02:41.144Z</time></trkpt><trkpt lat="43.1756742" lon="12.2409258"><ele>284.0</ele><time>2026-04-19T08:02:42.145Z</time></trkpt><trkpt lat="43.1757157" lon="12.241055"><ele>284.0</ele><time>2026-04-19T08:02:43.132Z</time></trkpt><trkpt lat="43.1757588" lon="12.2411889"><ele>284.0</ele><time>2026-04-19T08:02:44.125Z</time></trkpt><trkpt lat="43.175803" lon="12.2413212"><ele>284.0</ele><time>2026-04-19T08:02:45.127Z</time></trkpt><trkpt lat="43.1758471" lon="12.2414617"><ele>284.0</ele><time>2026-04-19T08:02:46.14Z</time></trkpt><trkpt lat="43.1758905" lon="12.2416053"><ele>284.0</ele><time>2026-04-19T08:02:47.137Z</time></trkpt><trkpt lat="43.1759322" lon="12.2417464"><ele>284.0</ele><time>2026-04-19T08:02:48.12Z</time></trkpt><trkpt lat="43.1759692" lon="12.2418806"><ele>284.0</ele><time>2026-04-19T08:02:49.132Z</time></trkpt><trkpt lat="43.1760133" lon="12.2420088"><ele>284.33333333333337</ele><time>2026-04-19T08:02:50.121Z</time></trkpt><trkpt lat="43.1760635" lon="12.242112"><ele>284.6666666666667</ele><time>2026-04-19T08:02:51.13Z</time></trkpt><trkpt lat="43.1761053" lon="12.2422092"><ele>285.0</ele><time>2026-04-19T08:02:52.138Z</time></trkpt><trkpt lat="43.1761466" lon="12.2422942"><ele>285.3333333333333</ele><time>2026-04-19T08:02:53.139Z</time></trkpt><trkpt lat="43.1761815" lon="12.2423874"><ele>285.66666666666663</ele><time>2026-04-19T08:02:54.132Z</time></trkpt><trkpt lat="43.1762077" lon="12.2424941"><ele>286.0</ele><time>2026-04-19T08:02:55.128Z</time></trkpt><trkpt lat="43.1762188" lon="12.242598"><ele>286.16666666666663</ele><time>2026-04-19T08:02:56.122Z</time></trkpt><trkpt lat="43.1762199" lon="12.2426991"><ele>286.3333333333333</ele><time>2026-04-19T08:02:57.117Z</time></trkpt><trkpt lat="43.1762178" lon="12.2427929"><ele>286.5</ele><time>2026-04-19T08:02:58.152Z</time></trkpt><trkpt lat="43.1762331" lon="12.2429195"><ele>286.6666666666667</ele><time>2026-04-19T08:03:00.129Z</time></trkpt><trkpt lat="43.1763006" lon="12.2429553"><ele>286.83333333333337</ele><time>2026-04-19T08:03:02.137Z</time></trkpt><trkpt lat="43.1764057" lon="12.2429273"><ele>287.0</ele><time>2026-04-19T08:03:04.133Z</time></trkpt><trkpt lat="43.176465" lon="12.2428898"><ele>287.0</ele><time>2026-04-19T08:03:05.139Z</time></trkpt><trkpt lat="43.176527" lon="12.2428519"><ele>287.0</ele><time>2026-04-19T08:03:06.135Z</time></trkpt><trkpt lat="43.1765977" lon="12.2428134"><ele>287.0</ele><time>2026-04-19T08:03:07.139Z</time></trkpt><trkpt lat="43.1766779" lon="12.2427688"><ele>287.0</ele><time>2026-04-19T08:03:08.125Z</time></trkpt><trkpt lat="43.1767564" lon="12.242731"><ele>287.0</ele><time>2026-04-19T08:03:09.141Z</time></trkpt><trkpt lat="43.1768349" lon="12.2426789"><ele>287.0</ele><time>2026-04-19T08:03:10.139Z</time></trkpt><trkpt lat="43.1769086" lon="12.242623"><ele>287.0</ele><time>2026-04-19T08:03:11.141Z</time></trkpt><trkpt lat="43.1769784" lon="12.2425644"><ele>287.0</ele><time>2026-04-19T08:03:12.141Z</time></trkpt><trkpt lat="43.177048" lon="12.242496"><ele>287.0</ele><time>2026-04-19T08:03:13.138Z</time></trkpt><trkpt lat="43.1771089" lon="12.2424187"><ele>287.0</ele><time>2026-04-19T08:03:14.14Z</time></trkpt><trkpt lat="43.1771557" lon="12.2423516"><ele>287.0</ele><time>2026-04-19T08:03:15.14Z</time></trkpt><trkpt lat="43.1772472" lon="12.2422451"><ele>287.0</ele><time>2026-04-19T08:03:17.14Z</time></trkpt><trkpt lat="43.1773648" lon="12.242239"><ele>288.0</ele><time>2026-04-19T08:03:19.142Z</time></trkpt><trkpt lat="43.1774261" lon="12.2422691"><ele>289.0</ele><time>2026-04-19T08:03:20.15Z</time></trkpt><trkpt lat="43.1774776" lon="12.2423327"><ele>290.0</ele><time>2026-04-19T08:03:21.14Z</time></trkpt><trkpt lat="43.1775251" lon="12.2424142"><ele>291.0</ele><time>2026-04-19T08:03:22.161Z</time></trkpt><trkpt lat="43.1775789" lon="12.2424851"><ele>292.0</ele><time>2026-04-19T08:03:23.143Z</time></trkpt><trkpt lat="43.1776395" lon="12.242548"><ele>293.0</ele><time>2026-04-19T08:03:24.163Z</time></trkpt><trkpt lat="43.1777072" lon="12.2426078"><ele>294.0</ele><time>2026-04-19T08:03:25.142Z</time></trkpt><trkpt lat="43.1777753" lon="12.2426655"><ele>294.0</ele><time>2026-04-19T08:03:26.154Z</time></trkpt><trkpt lat="43.1778329" lon="12.2427183"><ele>294.0</ele><time>2026-04-19T08:03:27.158Z</time></trkpt><trkpt lat="43.1779408" lon="12.2427973"><ele>294.0</ele><time>2026-04-19T08:03:29.142Z</time></trkpt><trkpt lat="43.1780026" lon="12.2428251"><ele>294.0</ele><time>2026-04-19T08:03:30.15Z</time></trkpt><trkpt lat="43.1780706" lon="12.2428449"><ele>294.0</ele><time>2026-04-19T08:03:31.156Z</time></trkpt><trkpt lat="43.1781425" lon="12.2428586"><ele>294.0</ele><time>2026-04-19T08:03:32.152Z</time></trkpt><trkpt lat="43.178223" lon="12.2428773"><ele>296.5</ele><time>2026-04-19T08:03:33.142Z</time></trkpt><trkpt lat="43.1783015" lon="12.2428877"><ele>299.0</ele><time>2026-04-19T08:03:34.169Z</time></trkpt><trkpt lat="43.178371" lon="12.242899"><ele>301.5</ele><time>2026-04-19T08:03:35.146Z</time></trkpt><trkpt lat="43.1784364" lon="12.2429031"><ele>304.0</ele><time>2026-04-19T08:03:36.151Z</time></trkpt><trkpt lat="43.1785126" lon="12.2428961"><ele>306.5</ele><time>2026-04-19T08:03:37.169Z</time></trkpt><trkpt lat="43.1786026" lon="12.2428871"><ele>309.0</ele><time>2026-04-19T08:03:38.164Z</time></trkpt><trkpt lat="43.1787032" lon="12.2428792"><ele>309.0</ele><time>2026-04-19T08:03:39.157Z</time></trkpt><trkpt lat="43.1788076" lon="12.2428678"><ele>309.0</ele><time>2026-04-19T08:03:40.181Z</time></trkpt><trkpt lat="43.1789118" lon="12.2428539"><ele>309.0</ele><time>2026-04-19T08:03:41.171Z</time></trkpt><trkpt lat="43.1790163" lon="12.2428436"><ele>309.0</ele><time>2026-04-19T08:03:42.164Z</time></trkpt><trkpt lat="43.1791174" lon="12.2428403"><ele>309.0</ele><time>2026-04-19T08:03:43.174Z</time></trkpt><trkpt lat="43.1792169" lon="12.24284"><ele>310.8</ele><time>2026-04-19T08:03:44.195Z</time></trkpt><trkpt lat="43.1793154" lon="12.2428408"><ele>312.59999999999997</ele><time>2026-04-19T08:03:45.183Z</time></trkpt><trkpt lat="43.1794113" lon="12.2428389"><ele>314.4</ele><time>2026-04-19T08:03:46.203Z</time></trkpt><trkpt lat="43.179507" lon="12.2428305"><ele>316.2</ele><time>2026-04-19T08:03:47.185Z</time></trkpt><trkpt lat="43.1796028" lon="12.2428078"><ele>318.0</ele><time>2026-04-19T08:03:48.193Z</time></trkpt><trkpt lat="43.1797061" lon="12.2427787"><ele>318.0</ele><time>2026-04-19T08:03:49.185Z</time></trkpt><trkpt lat="43.1798181" lon="12.2427454"><ele>318.0</ele><time>2026-04-19T08:03:50.18Z</time></trkpt><trkpt lat="43.1799317" lon="12.2427207"><ele>318.0</ele><time>2026-04-19T08:03:51.177Z</time></trkpt><trkpt lat="43.1800344" lon="12.2427006"><ele>318.0</ele><time>2026-04-19T08:03:52.181Z</time></trkpt><trkpt lat="43.1801295" lon="12.242677"><ele>318.0</ele><time>2026-04-19T08:03:53.194Z</time></trkpt><trkpt lat="43.1802247" lon="12.2426556"><ele>316.8</ele><time>2026-04-19T08:03:54.186Z</time></trkpt><trkpt lat="43.180328" lon="12.242621"><ele>315.6</ele><time>2026-04-19T08:03:55.194Z</time></trkpt><trkpt lat="43.1804337" lon="12.2425877"><ele>314.4</ele><time>2026-04-19T08:03:56.19Z</time></trkpt><trkpt lat="43.1805346" lon="12.2425535"><ele>313.2</ele><time>2026-04-19T08:03:57.188Z</time></trkpt><trkpt lat="43.1806338" lon="12.2425195"><ele>312.0</ele><time>2026-04-19T08:03:58.183Z</time></trkpt><trkpt lat="43.1807289" lon="12.2424937"><ele>310.0</ele><time>2026-04-19T08:03:59.195Z</time></trkpt><trkpt lat="43.1808206" lon="12.2424664"><ele>308.0</ele><time>2026-04-19T08:04:00.187Z</time></trkpt><trkpt lat="43.1809167" lon="12.2424412"><ele>306.0</ele><time>2026-04-19T08:04:01.198Z</time></trkpt><trkpt lat="43.1810151" lon="12.2424087"><ele>304.0</ele><time>2026-04-19T08:04:02.195Z</time></trkpt><trkpt lat="43.1811118" lon="12.2423659"><ele>302.0</ele><time>2026-04-19T08:04:03.19Z</time></trkpt><trkpt lat="43.1812078" lon="12.242316"><ele>303.4</ele><time>2026-04-19T08:04:04.203Z</time></trkpt><trkpt lat="43.1813015" lon="12.2422512"><ele>304.79999999999995</ele><time>2026-04-19T08:04:05.214Z</time></trkpt><trkpt lat="43.1813942" lon="12.2421813"><ele>306.2</ele><time>2026-04-19T08:04:06.197Z</time></trkpt><trkpt lat="43.1814747" lon="12.2421164"><ele>307.59999999999997</ele><time>2026-04-19T08:04:07.195Z</time></trkpt><trkpt lat="43.1815542" lon="12.2420498"><ele>309.0</ele><time>2026-04-19T08:04:08.204Z</time></trkpt><trkpt lat="43.1816304" lon="12.241987"><ele>309.0</ele><time>2026-04-19T08:04:09.204Z</time></trkpt><trkpt lat="43.1816964" lon="12.2419475"><ele>309.0</ele><time>2026-04-19T08:04:10.203Z</time></trkpt><trkpt lat="43.1817573" lon="12.2419198"><ele>309.0</ele><time>2026-04-19T08:04:11.196Z</time></trkpt><trkpt lat="43.181844" lon="12.2419157"><ele>309.0</ele><time>2026-04-19T08:04:13.208Z</time></trkpt><trkpt lat="43.1819287" lon="12.2418986"><ele>309.0</ele><time>2026-04-19T08:04:16.22Z</time></trkpt><trkpt lat="43.181998" lon="12.2418064"><ele>309.0</ele><time>2026-04-19T08:04:18.204Z</time></trkpt><trkpt lat="43.1820564" lon="12.2417433"><ele>309.0</ele><time>2026-04-19T08:04:19.222Z</time></trkpt><trkpt lat="43.1821159" lon="12.2417"><ele>309.0</ele><time>2026-04-19T08:04:20.218Z</time></trkpt><trkpt lat="43.1822025" lon="12.241644"><ele>309.0</ele><time>2026-04-19T08:04:22.215Z</time></trkpt><trkpt lat="43.1822633" lon="12.2416161"><ele>309.0</ele><time>2026-04-19T08:04:30.122Z</time></trkpt><trkpt lat="43.1823423" lon="12.2415574"><ele>309.0</ele><time>2026-04-19T08:04:32.154Z</time></trkpt><trkpt lat="43.1824206" lon="12.2414916"><ele>309.0</ele><time>2026-04-19T08:04:34.144Z</time></trkpt><trkpt lat="43.1824964" lon="12.2414307"><ele>311.5</ele><time>2026-04-19T08:04:36.146Z</time></trkpt><trkpt lat="43.1825837" lon="12.2413538"><ele>314.0</ele><time>2026-04-19T08:04:38.155Z</time></trkpt><trkpt lat="43.1826519" lon="12.2412876"><ele>316.5</ele><time>2026-04-19T08:04:40.169Z</time></trkpt><trkpt lat="43.1827269" lon="12.2412519"><ele>319.0</ele><time>2026-04-19T08:04:42.152Z</time></trkpt><trkpt lat="43.1828286" lon="12.2412031"><ele>321.5</ele><time>2026-04-19T08:04:44.141Z</time></trkpt><trkpt lat="43.1828916" lon="12.2411641"><ele>324.0</ele><time>2026-04-19T08:04:45.154Z</time></trkpt><trkpt lat="43.1829555" lon="12.2411178"><ele>324.0</ele><time>2026-04-19T08:04:46.152Z</time></trkpt><trkpt lat="43.1830209" lon="12.2410738"><ele>324.0</ele><time>2026-04-19T08:04:47.14Z</time></trkpt><trkpt lat="43.1830806" lon="12.24103"><ele>324.0</ele><time>2026-04-19T08:04:48.16Z</time></trkpt><trkpt lat="43.1831392" lon="12.2409961"><ele>324.0</ele><time>2026-04-19T08:04:49.149Z</time></trkpt><trkpt lat="43.1831997" lon="12.2409638"><ele>324.0</ele><time>2026-04-19T08:04:50.168Z</time></trkpt><trkpt lat="43.1832601" lon="12.2409281"><ele>324.0</ele><time>2026-04-19T08:04:51.141Z</time></trkpt><trkpt lat="43.1833216" lon="12.2408856"><ele>324.0</ele><time>2026-04-19T08:04:52.17Z</time></trkpt><trkpt lat="43.1834247" lon="12.240807"><ele>323.1666666666667</ele><time>2026-04-19T08:04:54.176Z</time></trkpt><trkpt lat="43.1835314" lon="12.2407234"><ele>322.3333333333333</ele><time>2026-04-19T08:04:56.149Z</time></trkpt><trkpt lat="43.1835902" lon="12.2406692"><ele>321.5</ele><time>2026-04-19T08:04:57.169Z</time></trkpt><trkpt lat="43.1836493" lon="12.2406268"><ele>320.66666666666663</ele><time>2026-04-19T08:04:58.153Z</time></trkpt><trkpt lat="43.1837061" lon="12.2405885"><ele>319.8333333333333</ele><time>2026-04-19T08:04:59.154Z</time></trkpt><trkpt lat="43.1838217" lon="12.2405255"><ele>319.0</ele><time>2026-04-19T08:05:01.158Z</time></trkpt><trkpt lat="43.18393" lon="12.2404619"><ele>320.4</ele><time>2026-04-19T08:05:03.176Z</time></trkpt><trkpt lat="43.1840341" lon="12.2403814"><ele>321.79999999999995</ele><time>2026-04-19T08:05:05.173Z</time></trkpt><trkpt lat="43.1841348" lon="12.2403306"><ele>323.20000000000005</ele><time>2026-04-19T08:05:07.164Z</time></trkpt><trkpt lat="43.1842424" lon="12.2403017"><ele>324.6</ele><time>2026-04-19T08:05:09.169Z</time></trkpt><trkpt lat="43.18431" lon="12.2402877"><ele>326.0</ele><time>2026-04-19T08:05:10.184Z</time></trkpt><trkpt lat="43.184383" lon="12.2402581"><ele>326.0</ele><time>2026-04-19T08:05:11.194Z</time></trkpt><trkpt lat="43.1844506" lon="12.2402359"><ele>326.0</ele><time>2026-04-19T08:05:12.176Z</time></trkpt><trkpt lat="43.1845716" lon="12.2402251"><ele>326.0</ele><time>2026-04-19T08:05:14.178Z</time></trkpt><trkpt lat="43.1846699" lon="12.2402049"><ele>326.0</ele><time>2026-04-19T08:05:16.202Z</time></trkpt><trkpt lat="43.1847928" lon="12.2401819"><ele>326.0</ele><time>2026-04-19T08:05:18.176Z</time></trkpt><trkpt lat="43.1848598" lon="12.240164"><ele>325.2857142857143</ele><time>2026-04-19T08:05:19.193Z</time></trkpt><trkpt lat="43.1849279" lon="12.2401387"><ele>324.57142857142856</ele><time>2026-04-19T08:05:20.208Z</time></trkpt><trkpt lat="43.1849958" lon="12.2401054"><ele>323.85714285714283</ele><time>2026-04-19T08:05:21.196Z</time></trkpt><trkpt lat="43.1850615" lon="12.2400642"><ele>323.1428571428571</ele><time>2026-04-19T08:05:22.21Z</time></trkpt><trkpt lat="43.1851233" lon="12.2400318"><ele>322.42857142857144</ele><time>2026-04-19T08:05:23.196Z</time></trkpt><trkpt lat="43.1851913" lon="12.2400147"><ele>321.71428571428567</ele><time>2026-04-19T08:05:24.185Z</time></trkpt><trkpt lat="43.1852702" lon="12.2399977"><ele>321.0</ele><time>2026-04-19T08:05:25.243Z</time></trkpt><trkpt lat="43.185345" lon="12.2399862"><ele>321.0</ele><time>2026-04-19T08:05:26.186Z</time></trkpt><trkpt lat="43.1854625" lon="12.2399515"><ele>321.0</ele><time>2026-04-19T08:05:28.19Z</time></trkpt><trkpt lat="43.1855723" lon="12.2398801"><ele>321.0</ele><time>2026-04-19T08:05:30.196Z</time></trkpt><trkpt lat="43.185654" lon="12.2397792"><ele>321.0</ele><time>2026-04-19T08:05:32.196Z</time></trkpt><trkpt lat="43.185707" lon="12.2396944"><ele>321.0</ele><time>2026-04-19T08:05:34.213Z</time></trkpt><trkpt lat="43.1857856" lon="12.2396835"><ele>321.6</ele><time>2026-04-19T08:05:37.208Z</time></trkpt><trkpt lat="43.1858758" lon="12.2397434"><ele>322.20000000000005</ele><time>2026-04-19T08:05:41.203Z</time></trkpt><trkpt lat="43.1859494" lon="12.2398123"><ele>322.79999999999995</ele><time>2026-04-19T08:05:43.218Z</time></trkpt><trkpt lat="43.186045" lon="12.2398566"><ele>323.4</ele><time>2026-04-19T08:05:45.223Z</time></trkpt><trkpt lat="43.1861458" lon="12.2398722"><ele>324.0</ele><time>2026-04-19T08:05:47.21Z</time></trkpt><trkpt lat="43.1862678" lon="12.2398913"><ele>324.0</ele><time>2026-04-19T08:05:49.117Z</time></trkpt><trkpt lat="43.1863448" lon="12.2399037"><ele>324.0</ele><time>2026-04-19T08:05:50.131Z</time></trkpt><trkpt lat="43.1864192" lon="12.2399241"><ele>324.0</ele><time>2026-04-19T08:05:51.131Z</time></trkpt><trkpt lat="43.1864854" lon="12.2399367"><ele>324.0</ele><time>2026-04-19T08:05:52.129Z</time></trkpt><trkpt lat="43.1865781" lon="12.2399807"><ele>324.0</ele><time>2026-04-19T08:05:54.113Z</time></trkpt><trkpt lat="43.1866811" lon="12.2400781"><ele>324.0</ele><time>2026-04-19T08:05:56.127Z</time></trkpt><trkpt lat="43.1867416" lon="12.2401284"><ele>325.8333333333333</ele><time>2026-04-19T08:05:57.117Z</time></trkpt><trkpt lat="43.1868115" lon="12.240163"><ele>327.6666666666667</ele><time>2026-04-19T08:05:58.126Z</time></trkpt><trkpt lat="43.1868781" lon="12.2401874"><ele>329.5</ele><time>2026-04-19T08:05:59.118Z</time></trkpt><trkpt lat="43.186996" lon="12.2402249"><ele>331.33333333333337</ele><time>2026-04-19T08:06:01.132Z</time></trkpt><trkpt lat="43.1870683" lon="12.2402541"><ele>333.1666666666667</ele><time>2026-04-19T08:06:02.164Z</time></trkpt><trkpt lat="43.1871401" lon="12.2402931"><ele>335.0</ele><time>2026-04-19T08:06:03.124Z</time></trkpt><trkpt lat="43.1872107" lon="12.2403082"><ele>335.0</ele><time>2026-04-19T08:06:04.126Z</time></trkpt><trkpt lat="43.1873261" lon="12.240311"><ele>335.0</ele><time>2026-04-19T08:06:06.136Z</time></trkpt><trkpt lat="43.1874244" lon="12.2403171"><ele>335.0</ele><time>2026-04-19T08:06:08.124Z</time></trkpt><trkpt lat="43.1875006" lon="12.2403471"><ele>335.0</ele><time>2026-04-19T08:06:10.137Z</time></trkpt><trkpt lat="43.1875765" lon="12.2403546"><ele>335.0</ele><time>2026-04-19T08:06:12.136Z</time></trkpt><trkpt lat="43.1876573" lon="12.2403836"><ele>337.4</ele><time>2026-04-19T08:06:14.146Z</time></trkpt><trkpt lat="43.1877503" lon="12.2404062"><ele>339.8</ele><time>2026-04-19T08:06:16.128Z</time></trkpt><trkpt lat="43.1878339" lon="12.2404525"><ele>342.20000000000005</ele><time>2026-04-19T08:06:18.15Z</time></trkpt><trkpt lat="43.1879376" lon="12.2404952"><ele>344.6</ele><time>2026-04-19T08:06:20.147Z</time></trkpt><trkpt lat="43.1880418" lon="12.2404807"><ele>347.0</ele><time>2026-04-19T08:06:22.15Z</time></trkpt><trkpt lat="43.1881635" lon="12.2404678"><ele>349.20000000000005</ele><time>2026-04-19T08:06:24.148Z</time></trkpt><trkpt lat="43.1882773" lon="12.2404698"><ele>351.4</ele><time>2026-04-19T08:06:26.161Z</time></trkpt><trkpt lat="43.1883958" lon="12.2404509"><ele>353.6</ele><time>2026-04-19T08:06:28.149Z</time></trkpt><trkpt lat="43.1884695" lon="12.2404249"><ele>355.79999999999995</ele><time>2026-04-19T08:06:29.159Z</time></trkpt><trkpt lat="43.1885367" lon="12.240399"><ele>358.0</ele><time>2026-04-19T08:06:30.149Z</time></trkpt><trkpt lat="43.1886409" lon="12.2403566"><ele>358.0</ele><time>2026-04-19T08:06:32.156Z</time></trkpt><trkpt lat="43.188772" lon="12.2403102"><ele>358.0</ele><time>2026-04-19T08:06:35.187Z</time></trkpt><trkpt lat="43.1888745" lon="12.2403122"><ele>358.0</ele><time>2026-04-19T08:06:38.172Z</time></trkpt><trkpt lat="43.1889918" lon="12.2403223"><ele>358.0</ele><time>2026-04-19T08:06:40.165Z</time></trkpt><trkpt lat="43.1891049" lon="12.2403415"><ele>359.16666666666663</ele><time>2026-04-19T08:06:42.206Z</time></trkpt><trkpt lat="43.1892109" lon="12.2404046"><ele>360.3333333333333</ele><time>2026-04-19T08:06:44.168Z</time></trkpt><trkpt lat="43.1892641" lon="12.2404578"><ele>361.5</ele><time>2026-04-19T08:06:45.19Z</time></trkpt><trkpt lat="43.1893179" lon="12.2405048"><ele>362.6666666666667</ele><time>2026-04-19T08:06:46.176Z</time></trkpt><trkpt lat="43.1893792" lon="12.2405453"><ele>363.83333333333337</ele><time>2026-04-19T08:06:47.17Z</time></trkpt><trkpt lat="43.1894409" lon="12.2405758"><ele>365.0</ele><time>2026-04-19T08:06:48.173Z</time></trkpt><trkpt lat="43.1895233" lon="12.2406147"><ele>365.0</ele><time>2026-04-19T08:06:50.179Z</time></trkpt><trkpt lat="43.1896226" lon="12.2406011"><ele>365.0</ele><time>2026-04-19T08:06:53.184Z</time></trkpt><trkpt lat="43.1897588" lon="12.240532"><ele>365.0</ele><time>2026-04-19T08:06:56.209Z</time></trkpt><trkpt lat="43.1898434" lon="12.2405011"><ele>365.0</ele><time>2026-04-19T08:06:58.184Z</time></trkpt><trkpt lat="43.1899164" lon="12.2404708"><ele>365.0</ele><time>2026-04-19T08:07:00.187Z</time></trkpt><trkpt lat="43.1900066" lon="12.2404264"><ele>365.0</ele><time>2026-04-19T08:07:02.179Z</time></trkpt><trkpt lat="43.1900927" lon="12.2403784"><ele>365.0</ele><time>2026-04-19T08:07:04.183Z</time></trkpt><trkpt lat="43.1901654" lon="12.240321"><ele>365.0</ele><time>2026-04-19T08:07:06.192Z</time></trkpt><trkpt lat="43.1902386" lon="12.2402737"><ele>365.0</ele><time>2026-04-19T08:07:08.205Z</time></trkpt><trkpt lat="43.1903107" lon="12.2402432"><ele>365.0</ele><time>2026-04-19T08:07:10.199Z</time></trkpt><trkpt lat="43.1904045" lon="12.2402291"><ele>365.0</ele><time>2026-04-19T08:07:12.198Z</time></trkpt><trkpt lat="43.1905026" lon="12.2401971"><ele>365.0</ele><time>2026-04-19T08:07:14.203Z</time></trkpt><trkpt lat="43.190587" lon="12.240147"><ele>365.0</ele><time>2026-04-19T08:07:16.199Z</time></trkpt><trkpt lat="43.1906682" lon="12.2400884"><ele>365.0</ele><time>2026-04-19T08:07:18.203Z</time></trkpt><trkpt lat="43.1907257" lon="12.2400226"><ele>365.0</ele><time>2026-04-19T08:07:20.199Z</time></trkpt><trkpt lat="43.1907517" lon="12.2399031"><ele>365.0</ele><time>2026-04-19T08:07:22.197Z</time></trkpt><trkpt lat="43.1907753" lon="12.2397475"><ele>368.33333333333337</ele><time>2026-04-19T08:07:24.926Z</time></trkpt><trkpt lat="43.1907926" lon="12.2396535"><ele>371.6666666666667</ele><time>2026-04-19T08:07:25.932Z</time></trkpt><trkpt lat="43.1908008" lon="12.2395644"><ele>375.0</ele><time>2026-04-19T08:07:26.914Z</time></trkpt><trkpt lat="43.1908028" lon="12.2394226"><ele>378.33333333333337</ele><time>2026-04-19T08:07:28.92Z</time></trkpt><trkpt lat="43.1907898" lon="12.2393318"><ele>381.6666666666667</ele><time>2026-04-19T08:07:30.927Z</time></trkpt><trkpt lat="43.1908341" lon="12.2392481"><ele>385.0</ele><time>2026-04-19T08:07:34.919Z</time></trkpt><trkpt lat="43.1909371" lon="12.2392494"><ele>385.0</ele><time>2026-04-19T08:07:37.914Z</time></trkpt><trkpt lat="43.1910251" lon="12.2392522"><ele>385.0</ele><time>2026-04-19T08:07:39.831Z</time></trkpt><trkpt lat="43.1911083" lon="12.2392528"><ele>385.0</ele><time>2026-04-19T08:07:41.927Z</time></trkpt><trkpt lat="43.1912229" lon="12.239206"><ele>385.0</ele><time>2026-04-19T08:07:44.842Z</time></trkpt><trkpt lat="43.1913334" lon="12.2391141"><ele>385.0</ele><time>2026-04-19T08:07:47.874Z</time></trkpt><trkpt lat="43.1914228" lon="12.2390512"><ele>387.2</ele><time>2026-04-19T08:07:49.838Z</time></trkpt><trkpt lat="43.1914898" lon="12.2389566"><ele>389.4</ele><time>2026-04-19T08:07:51.829Z</time></trkpt><trkpt lat="43.1915434" lon="12.2387989"><ele>391.6</ele><time>2026-04-19T08:07:53.836Z</time></trkpt><trkpt lat="43.1915655" lon="12.2387013"><ele>393.8</ele><time>2026-04-19T08:07:54.835Z</time></trkpt><trkpt lat="43.1915924" lon="12.2385924"><ele>396.0</ele><time>2026-04-19T08:07:55.852Z</time></trkpt><trkpt lat="43.1916222" lon="12.2384697"><ele>396.6666666666667</ele><time>2026-04-19T08:07:56.837Z</time></trkpt><trkpt lat="43.1916506" lon="12.2383619"><ele>397.33333333333337</ele><time>2026-04-19T08:07:57.844Z</time></trkpt><trkpt lat="43.1916753" lon="12.23826"><ele>398.0</ele><time>2026-04-19T08:07:58.837Z</time></trkpt><trkpt lat="43.1916966" lon="12.2381579"><ele>398.6666666666667</ele><time>2026-04-19T08:07:59.831Z</time></trkpt><trkpt lat="43.1917166" lon="12.2380538"><ele>399.33333333333337</ele><time>2026-04-19T08:08:00.841Z</time></trkpt><trkpt lat="43.1917414" lon="12.2379427"><ele>400.0</ele><time>2026-04-19T08:08:01.873Z</time></trkpt><trkpt lat="43.1917613" lon="12.2378278"><ele>401.83333333333337</ele><time>2026-04-19T08:08:02.864Z</time></trkpt><trkpt lat="43.1917752" lon="12.2377163"><ele>403.6666666666667</ele><time>2026-04-19T08:08:03.842Z</time></trkpt><trkpt lat="43.1917971" lon="12.2376024"><ele>405.5</ele><time>2026-04-19T08:08:04.845Z</time></trkpt><trkpt lat="43.1918191" lon="12.237489"><ele>407.33333333333337</ele><time>2026-04-19T08:08:05.84Z</time></trkpt><trkpt lat="43.1918399" lon="12.2373739"><ele>409.1666666666667</ele><time>2026-04-19T08:08:06.857Z</time></trkpt><trkpt lat="43.1918651" lon="12.2372679"><ele>411.0</ele><time>2026-04-19T08:08:07.845Z</time></trkpt><trkpt lat="43.1918845" lon="12.2371641"><ele>413.6</ele><time>2026-04-19T08:08:08.852Z</time></trkpt><trkpt lat="43.1919089" lon="12.2370623"><ele>416.20000000000005</ele><time>2026-04-19T08:08:09.845Z</time></trkpt><trkpt lat="43.191936" lon="12.2369599"><ele>418.79999999999995</ele><time>2026-04-19T08:08:11.846Z</time></trkpt><trkpt lat="43.1919402" lon="12.2368348"><ele>421.4</ele><time>2026-04-19T08:08:14.851Z</time></trkpt><trkpt lat="43.1919095" lon="12.2367105"><ele>424.0</ele><time>2026-04-19T08:08:16.852Z</time></trkpt><trkpt lat="43.1918648" lon="12.23657"><ele>424.00000000000006</ele><time>2026-04-19T08:08:18.862Z</time></trkpt><trkpt lat="43.1918337" lon="12.2364829"><ele>424.0</ele><time>2026-04-19T08:08:19.849Z</time></trkpt><trkpt lat="43.1917917" lon="12.2363819"><ele>424.0</ele><time>2026-04-19T08:08:20.852Z</time></trkpt><trkpt lat="43.1917414" lon="12.2362844"><ele>424.0</ele><time>2026-04-19T08:08:21.861Z</time></trkpt><trkpt lat="43.1916914" lon="12.2362025"><ele>424.00000000000006</ele><time>2026-04-19T08:08:22.859Z</time></trkpt><trkpt lat="43.1916403" lon="12.2361235"><ele>424.0</ele><time>2026-04-19T08:08:23.857Z</time></trkpt><trkpt lat="43.1915791" lon="12.2360581"><ele>426.2857142857143</ele><time>2026-04-19T08:08:24.857Z</time></trkpt><trkpt lat="43.1915188" lon="12.2359955"><ele>428.57142857142856</ele><time>2026-04-19T08:08:25.853Z</time></trkpt><trkpt lat="43.1914569" lon="12.2359374"><ele>430.85714285714283</ele><time>2026-04-19T08:08:26.853Z</time></trkpt><trkpt lat="43.1913957" lon="12.2358857"><ele>433.1428571428571</ele><time>2026-04-19T08:08:27.86Z</time></trkpt><trkpt lat="43.191335" lon="12.2358624"><ele>435.42857142857144</ele><time>2026-04-19T08:08:28.857Z</time></trkpt><trkpt lat="43.1912662" lon="12.2358642"><ele>437.71428571428567</ele><time>2026-04-19T08:08:29.864Z</time></trkpt><trkpt lat="43.1911872" lon="12.2358942"><ele>440.0</ele><time>2026-04-19T08:08:30.86Z</time></trkpt><trkpt lat="43.1911242" lon="12.2359371"><ele>441.8333333333333</ele><time>2026-04-19T08:08:31.871Z</time></trkpt><trkpt lat="43.1910657" lon="12.235995"><ele>443.66666666666663</ele><time>2026-04-19T08:08:32.864Z</time></trkpt><trkpt lat="43.191006" lon="12.2360436"><ele>445.5</ele><time>2026-04-19T08:08:33.889Z</time></trkpt><trkpt lat="43.190953" lon="12.2360902"><ele>447.33333333333337</ele><time>2026-04-19T08:08:34.866Z</time></trkpt><trkpt lat="43.1908415" lon="12.2361778"><ele>449.1666666666667</ele><time>2026-04-19T08:08:36.871Z</time></trkpt><trkpt lat="43.190777" lon="12.2362099"><ele>451.0</ele><time>2026-04-19T08:08:37.887Z</time></trkpt><trkpt lat="43.1906625" lon="12.2362639"><ele>451.0</ele><time>2026-04-19T08:08:39.884Z</time></trkpt><trkpt lat="43.1905911" lon="12.2362903"><ele>451.0</ele><time>2026-04-19T08:08:40.874Z</time></trkpt><trkpt lat="43.1905121" lon="12.2363213"><ele>451.0</ele><time>2026-04-19T08:08:41.892Z</time></trkpt><trkpt lat="43.1904383" lon="12.236354"><ele>451.0</ele><time>2026-04-19T08:08:42.89Z</time></trkpt><trkpt lat="43.1903278" lon="12.2364236"><ele>451.0</ele><time>2026-04-19T08:08:44.869Z</time></trkpt><trkpt lat="43.1902319" lon="12.2364553"><ele>451.0</ele><time>2026-04-19T08:08:46.871Z</time></trkpt><trkpt lat="43.1901265" lon="12.2364342"><ele>451.0</ele><time>2026-04-19T08:08:48.875Z</time></trkpt><trkpt lat="43.1900304" lon="12.2363063"><ele>451.0</ele><time>2026-04-19T08:08:51.88Z</time></trkpt><trkpt lat="43.1900872" lon="12.2362412"><ele>451.0</ele><time>2026-04-19T08:08:55.874Z</time></trkpt><trkpt lat="43.1901548" lon="12.2362368"><ele>451.0</ele><time>2026-04-19T08:08:56.887Z</time></trkpt><trkpt lat="43.1902237" lon="12.2362208"><ele>451.0</ele><time>2026-04-19T08:08:57.899Z</time></trkpt><trkpt lat="43.1902909" lon="12.236186"><ele>451.0</ele><time>2026-04-19T08:08:58.886Z</time></trkpt><trkpt lat="43.1903571" lon="12.2361399"><ele>451.0</ele><time>2026-04-19T08:08:59.884Z</time></trkpt><trkpt lat="43.1904467" lon="12.2360618"><ele>451.0</ele><time>2026-04-19T08:09:01.883Z</time></trkpt><trkpt lat="43.1905473" lon="12.2359674"><ele>451.0</ele><time>2026-04-19T08:09:03.873Z</time></trkpt><trkpt lat="43.1906201" lon="12.2358312"><ele>451.00000000000006</ele><time>2026-04-19T08:09:05.887Z</time></trkpt><trkpt lat="43.1906557" lon="12.2357512"><ele>451.0</ele><time>2026-04-19T08:09:06.878Z</time></trkpt><trkpt lat="43.1906942" lon="12.2356694"><ele>451.0</ele><time>2026-04-19T08:09:07.871Z</time></trkpt><trkpt lat="43.1907379" lon="12.2355799"><ele>451.0</ele><time>2026-04-19T08:09:08.878Z</time></trkpt><trkpt lat="43.1907863" lon="12.2354926"><ele>451.00000000000006</ele><time>2026-04-19T08:09:09.877Z</time></trkpt><trkpt lat="43.1908314" lon="12.2354056"><ele>451.0</ele><time>2026-04-19T08:09:10.878Z</time></trkpt><trkpt lat="43.1908682" lon="12.2353176"><ele>452.00000000000006</ele><time>2026-04-19T08:09:11.891Z</time></trkpt><trkpt lat="43.1908967" lon="12.2352323"><ele>453.0</ele><time>2026-04-19T08:09:12.896Z</time></trkpt><trkpt lat="43.1909239" lon="12.235057"><ele>454.0</ele><time>2026-04-19T08:09:14.901Z</time></trkpt><trkpt lat="43.1909402" lon="12.2349546"><ele>455.0</ele><time>2026-04-19T08:09:15.886Z</time></trkpt><trkpt lat="43.1909682" lon="12.2348486"><ele>456.00000000000006</ele><time>2026-04-19T08:09:16.892Z</time></trkpt><trkpt lat="43.1910011" lon="12.2347414"><ele>457.0</ele><time>2026-04-19T08:09:17.886Z</time></trkpt><trkpt lat="43.1910329" lon="12.2346362"><ele>457.33333333333337</ele><time>2026-04-19T08:09:18.887Z</time></trkpt><trkpt lat="43.1910611" lon="12.2345394"><ele>457.6666666666667</ele><time>2026-04-19T08:09:19.879Z</time></trkpt><trkpt lat="43.1910913" lon="12.2344559"><ele>458.0</ele><time>2026-04-19T08:09:20.88Z</time></trkpt><trkpt lat="43.1911248" lon="12.2343779"><ele>458.33333333333337</ele><time>2026-04-19T08:09:21.891Z</time></trkpt><trkpt lat="43.1912164" lon="12.2342592"><ele>458.6666666666667</ele><time>2026-04-19T08:09:23.879Z</time></trkpt><trkpt lat="43.191271" lon="12.2342099"><ele>459.0</ele><time>2026-04-19T08:09:24.915Z</time></trkpt><trkpt lat="43.1913434" lon="12.2340782"><ele>460.6</ele><time>2026-04-19T08:09:26.898Z</time></trkpt><trkpt lat="43.191345" lon="12.2339144"><ele>462.2</ele><time>2026-04-19T08:09:28.884Z</time></trkpt><trkpt lat="43.1913624" lon="12.2338024"><ele>463.80000000000007</ele><time>2026-04-19T08:09:30.889Z</time></trkpt><trkpt lat="43.1914342" lon="12.2337401"><ele>465.40000000000003</ele><time>2026-04-19T08:09:32.896Z</time></trkpt><trkpt lat="43.191526" lon="12.2337551"><ele>467.0</ele><time>2026-04-19T08:09:34.898Z</time></trkpt><trkpt lat="43.1916437" lon="12.233828"><ele>469.99999999999994</ele><time>2026-04-19T08:09:36.896Z</time></trkpt><trkpt lat="43.1917085" lon="12.2338704"><ele>473.0</ele><time>2026-04-19T08:09:37.916Z</time></trkpt><trkpt lat="43.1917757" lon="12.233899"><ele>476.0</ele><time>2026-04-19T08:09:38.901Z</time></trkpt><trkpt lat="43.1918464" lon="12.2339105"><ele>479.0</ele><time>2026-04-19T08:09:39.913Z</time></trkpt><trkpt lat="43.1919188" lon="12.2339049"><ele>481.99999999999994</ele><time>2026-04-19T08:09:40.888Z</time></trkpt><trkpt lat="43.1919869" lon="12.2338839"><ele>485.0</ele><time>2026-04-19T08:09:41.889Z</time></trkpt><trkpt lat="43.1920946" lon="12.2337962"><ele>485.00000000000006</ele><time>2026-04-19T08:09:43.9Z</time></trkpt><trkpt lat="43.1921387" lon="12.2337277"><ele>485.0</ele><time>2026-04-19T08:09:44.897Z</time></trkpt><trkpt lat="43.1921692" lon="12.2336512"><ele>485.00000000000006</ele><time>2026-04-19T08:09:45.896Z</time></trkpt><trkpt lat="43.1921927" lon="12.2335581"><ele>485.00000000000006</ele><time>2026-04-19T08:09:46.897Z</time></trkpt><trkpt lat="43.1922138" lon="12.2334544"><ele>485.0</ele><time>2026-04-19T08:09:47.901Z</time></trkpt><trkpt lat="43.192241" lon="12.233354"><ele>485.00000000000006</ele><time>2026-04-19T08:09:48.922Z</time></trkpt><trkpt lat="43.1922706" lon="12.2332732"><ele>485.00000000000006</ele><time>2026-04-19T08:09:49.895Z</time></trkpt><trkpt lat="43.192299" lon="12.2331532"><ele>487.3333333333333</ele><time>2026-04-19T08:09:51.914Z</time></trkpt><trkpt lat="43.1922731" lon="12.2330584"><ele>489.66666666666663</ele><time>2026-04-19T08:09:53.922Z</time></trkpt><trkpt lat="43.1921797" lon="12.2329932"><ele>492.0</ele><time>2026-04-19T08:09:55.897Z</time></trkpt><trkpt lat="43.1921107" lon="12.232955"><ele>494.33333333333337</ele><time>2026-04-19T08:09:56.914Z</time></trkpt><trkpt lat="43.1920438" lon="12.2329119"><ele>496.6666666666667</ele><time>2026-04-19T08:09:57.907Z</time></trkpt><trkpt lat="43.1919887" lon="12.2328315"><ele>499.0</ele><time>2026-04-19T08:09:58.896Z</time></trkpt><trkpt lat="43.1919384" lon="12.2327259"><ele>499.00000000000006</ele><time>2026-04-19T08:09:59.926Z</time></trkpt><trkpt lat="43.19189" lon="12.2326266"><ele>499.0</ele><time>2026-04-19T08:10:00.902Z</time></trkpt><trkpt lat="43.1918532" lon="12.2325265"><ele>499.0</ele><time>2026-04-19T08:10:01.899Z</time></trkpt><trkpt lat="43.1918166" lon="12.2324288"><ele>499.0</ele><time>2026-04-19T08:10:02.896Z</time></trkpt><trkpt lat="43.1917844" lon="12.2323306"><ele>499.00000000000006</ele><time>2026-04-19T08:10:03.906Z</time></trkpt><trkpt lat="43.1917586" lon="12.2322367"><ele>499.0</ele><time>2026-04-19T08:10:04.898Z</time></trkpt><trkpt lat="43.1917407" lon="12.2320829"><ele>499.6</ele><time>2026-04-19T08:10:06.895Z</time></trkpt><trkpt lat="43.1917643" lon="12.2319711"><ele>500.2</ele><time>2026-04-19T08:10:08.913Z</time></trkpt><trkpt lat="43.1918521" lon="12.2318426"><ele>500.80000000000007</ele><time>2026-04-19T08:10:10.894Z</time></trkpt><trkpt lat="43.1919276" lon="12.2317659"><ele>501.40000000000003</ele><time>2026-04-19T08:10:11.916Z</time></trkpt><trkpt lat="43.1920011" lon="12.2316906"><ele>502.0</ele><time>2026-04-19T08:10:12.898Z</time></trkpt><trkpt lat="43.1920649" lon="12.2316252"><ele>502.0</ele><time>2026-04-19T08:10:13.912Z</time></trkpt><trkpt lat="43.1921351" lon="12.2315651"><ele>502.00000000000006</ele><time>2026-04-19T08:10:14.909Z</time></trkpt><trkpt lat="43.1922059" lon="12.2315064"><ele>502.00000000000006</ele><time>2026-04-19T08:10:15.911Z</time></trkpt><trkpt lat="43.1922878" lon="12.2314538"><ele>502.0</ele><time>2026-04-19T08:10:16.916Z</time></trkpt><trkpt lat="43.1923826" lon="12.2314082"><ele>502.0</ele><time>2026-04-19T08:10:17.913Z</time></trkpt><trkpt lat="43.1924732" lon="12.2313771"><ele>501.20000000000005</ele><time>2026-04-19T08:10:18.909Z</time></trkpt><trkpt lat="43.1925597" lon="12.2313537"><ele>500.40000000000003</ele><time>2026-04-19T08:10:19.912Z</time></trkpt><trkpt lat="43.1926388" lon="12.2313415"><ele>499.59999999999997</ele><time>2026-04-19T08:10:20.929Z</time></trkpt><trkpt lat="43.1927245" lon="12.2313398"><ele>498.79999999999995</ele><time>2026-04-19T08:10:21.923Z</time></trkpt><trkpt lat="43.1928128" lon="12.2313585"><ele>498.0</ele><time>2026-04-19T08:10:22.908Z</time></trkpt><trkpt lat="43.1929167" lon="12.2313943"><ele>498.0</ele><time>2026-04-19T08:10:23.919Z</time></trkpt><trkpt lat="43.1930283" lon="12.2314342"><ele>497.99999999999994</ele><time>2026-04-19T08:10:24.921Z</time></trkpt><trkpt lat="43.1931415" lon="12.2314652"><ele>497.99999999999994</ele><time>2026-04-19T08:10:25.921Z</time></trkpt><trkpt lat="43.1932501" lon="12.2314996"><ele>498.0</ele><time>2026-04-19T08:10:26.92Z</time></trkpt><trkpt lat="43.1933531" lon="12.2315277"><ele>498.0</ele><time>2026-04-19T08:10:27.92Z</time></trkpt><trkpt lat="43.1934539" lon="12.2315624"><ele>501.3333333333333</ele><time>2026-04-19T08:10:28.922Z</time></trkpt><trkpt lat="43.1935495" lon="12.2316037"><ele>504.66666666666663</ele><time>2026-04-19T08:10:29.914Z</time></trkpt><trkpt lat="43.1936318" lon="12.2316388"><ele>508.0</ele><time>2026-04-19T08:10:30.936Z</time></trkpt><trkpt lat="43.1937046" lon="12.2316656"><ele>511.3333333333333</ele><time>2026-04-19T08:10:31.924Z</time></trkpt><trkpt lat="43.1937758" lon="12.2316794"><ele>514.6666666666666</ele><time>2026-04-19T08:10:32.909Z</time></trkpt><trkpt lat="43.1938501" lon="12.231672"><ele>518.0</ele><time>2026-04-19T08:10:33.92Z</time></trkpt><trkpt lat="43.1939434" lon="12.2316555"><ele>521.6</ele><time>2026-04-19T08:10:34.903Z</time></trkpt><trkpt lat="43.1940395" lon="12.2316398"><ele>525.1999999999999</ele><time>2026-04-19T08:10:35.924Z</time></trkpt><trkpt lat="43.1941365" lon="12.2316372"><ele>528.8</ele><time>2026-04-19T08:10:36.912Z</time></trkpt><trkpt lat="43.1942302" lon="12.2316417"><ele>532.4</ele><time>2026-04-19T08:10:37.919Z</time></trkpt><trkpt lat="43.1943181" lon="12.2316398"><ele>536.0</ele><time>2026-04-19T08:10:38.918Z</time></trkpt><trkpt lat="43.1943898" lon="12.2316118"><ele>536.0</ele><time>2026-04-19T08:10:39.945Z</time></trkpt><trkpt lat="43.1944604" lon="12.2315684"><ele>536.0</ele><time>2026-04-19T08:10:40.93Z</time></trkpt><trkpt lat="43.194531" lon="12.2314982"><ele>536.0</ele><time>2026-04-19T08:10:41.918Z</time></trkpt><trkpt lat="43.1946046" lon="12.2314106"><ele>536.0</ele><time>2026-04-19T08:10:42.937Z</time></trkpt><trkpt lat="43.1946746" lon="12.2313244"><ele>536.0</ele><time>2026-04-19T08:10:43.93Z</time></trkpt><trkpt lat="43.194738" lon="12.2312484"><ele>536.0</ele><time>2026-04-19T08:10:44.928Z</time></trkpt><trkpt lat="43.1948634" lon="12.2311398"><ele>537.25</ele><time>2026-04-19T08:10:46.833Z</time></trkpt><trkpt lat="43.1949501" lon="12.2310971"><ele>538.5</ele><time>2026-04-19T08:10:47.93Z</time></trkpt><trkpt lat="43.1951136" lon="12.2310094"><ele>539.75</ele><time>2026-04-19T08:10:49.827Z</time></trkpt><trkpt lat="43.1951975" lon="12.2309371"><ele>541.0</ele><time>2026-04-19T08:10:50.85Z</time></trkpt><trkpt lat="43.1952904" lon="12.2308422"><ele>541.0</ele><time>2026-04-19T08:10:51.842Z</time></trkpt><trkpt lat="43.1953835" lon="12.2307359"><ele>541.0</ele><time>2026-04-19T08:10:52.82Z</time></trkpt><trkpt lat="43.1954682" lon="12.2306349"><ele>541.0</ele><time>2026-04-19T08:10:53.841Z</time></trkpt><trkpt lat="43.1955353" lon="12.2305434"><ele>541.0</ele><time>2026-04-19T08:10:54.838Z</time></trkpt><trkpt lat="43.1955814" lon="12.2304591"><ele>541.0</ele><time>2026-04-19T08:10:55.823Z</time></trkpt><trkpt lat="43.1956168" lon="12.2303626"><ele>542.3333333333334</ele><time>2026-04-19T08:10:56.834Z</time></trkpt><trkpt lat="43.195637" lon="12.2302537"><ele>543.6666666666667</ele><time>2026-04-19T08:10:57.853Z</time></trkpt><trkpt lat="43.1956536" lon="12.2301551"><ele>545.0</ele><time>2026-04-19T08:10:58.832Z</time></trkpt><trkpt lat="43.1956706" lon="12.2300645"><ele>546.3333333333334</ele><time>2026-04-19T08:10:59.837Z</time></trkpt><trkpt lat="43.1957053" lon="12.2299641"><ele>547.6666666666666</ele><time>2026-04-19T08:11:00.837Z</time></trkpt><trkpt lat="43.1957536" lon="12.2298654"><ele>549.0</ele><time>2026-04-19T08:11:01.845Z</time></trkpt><trkpt lat="43.1958057" lon="12.2297628"><ele>549.0</ele><time>2026-04-19T08:11:02.844Z</time></trkpt><trkpt lat="43.1958541" lon="12.2296563"><ele>549.0</ele><time>2026-04-19T08:11:03.845Z</time></trkpt><trkpt lat="43.1959134" lon="12.2295591"><ele>549.0</ele><time>2026-04-19T08:11:04.855Z</time></trkpt><trkpt lat="43.1959823" lon="12.2294616"><ele>549.0</ele><time>2026-04-19T08:11:05.841Z</time></trkpt><trkpt lat="43.1960515" lon="12.229395"><ele>549.0</ele><time>2026-04-19T08:11:06.851Z</time></trkpt><trkpt lat="43.1961139" lon="12.2293432"><ele>549.0</ele><time>2026-04-19T08:11:07.86Z</time></trkpt><trkpt lat="43.1961627" lon="12.2292877"><ele>549.0</ele><time>2026-04-19T08:11:08.835Z</time></trkpt><trkpt lat="43.1962071" lon="12.2291711"><ele>549.0</ele><time>2026-04-19T08:11:10.842Z</time></trkpt><trkpt lat="43.1961359" lon="12.229048"><ele>549.0</ele><time>2026-04-19T08:11:12.841Z</time></trkpt><trkpt lat="43.1960737" lon="12.2289974"><ele>549.0</ele><time>2026-04-19T08:11:13.848Z</time></trkpt><trkpt lat="43.1960086" lon="12.2289355"><ele>549.0</ele><time>2026-04-19T08:11:14.845Z</time></trkpt><trkpt lat="43.1959425" lon="12.228851"><ele>549.3333333333334</ele><time>2026-04-19T08:11:15.843Z</time></trkpt><trkpt lat="43.1958765" lon="12.2287589"><ele>549.6666666666666</ele><time>2026-04-19T08:11:16.85Z</time></trkpt><trkpt lat="43.1958184" lon="12.2286621"><ele>550.0</ele><time>2026-04-19T08:11:17.852Z</time></trkpt><trkpt lat="43.1957749" lon="12.2285756"><ele>550.3333333333333</ele><time>2026-04-19T08:11:18.841Z</time></trkpt><trkpt lat="43.1957291" lon="12.2284689"><ele>550.6666666666666</ele><time>2026-04-19T08:11:19.849Z</time></trkpt><trkpt lat="43.1956715" lon="12.2283754"><ele>551.0</ele><time>2026-04-19T08:11:20.869Z</time></trkpt><trkpt lat="43.1956295" lon="12.228301"><ele>547.6</ele><time>2026-04-19T08:11:21.849Z</time></trkpt><trkpt lat="43.1955783" lon="12.2281787"><ele>544.2</ele><time>2026-04-19T08:11:23.849Z</time></trkpt><trkpt lat="43.1955508" lon="12.2280331"><ele>540.8</ele><time>2026-04-19T08:11:25.881Z</time></trkpt><trkpt lat="43.1955319" lon="12.2278815"><ele>537.4</ele><time>2026-04-19T08:11:27.847Z</time></trkpt><trkpt lat="43.1954909" lon="12.2277231"><ele>534.0</ele><time>2026-04-19T08:11:29.872Z</time></trkpt><trkpt lat="43.195455" lon="12.2276473"><ele>534.0</ele><time>2026-04-19T08:11:30.854Z</time></trkpt><trkpt lat="43.195397" lon="12.227571"><ele>534.0</ele><time>2026-04-19T08:11:31.859Z</time></trkpt><trkpt lat="43.1953387" lon="12.2275024"><ele>534.0</ele><time>2026-04-19T08:11:32.858Z</time></trkpt><trkpt lat="43.1952923" lon="12.2274263"><ele>534.0</ele><time>2026-04-19T08:11:33.875Z</time></trkpt><trkpt lat="43.1952598" lon="12.2273513"><ele>534.0</ele><time>2026-04-19T08:11:34.873Z</time></trkpt><trkpt lat="43.1951945" lon="12.2272029"><ele>534.0</ele><time>2026-04-19T08:11:36.872Z</time></trkpt><trkpt lat="43.1951505" lon="12.2271209"><ele>535.5</ele><time>2026-04-19T08:11:37.887Z</time></trkpt><trkpt lat="43.1950962" lon="12.2270763"><ele>537.0</ele><time>2026-04-19T08:11:38.875Z</time></trkpt><trkpt lat="43.1950343" lon="12.227056"><ele>538.5</ele><time>2026-04-19T08:11:39.883Z</time></trkpt><trkpt lat="43.1949456" lon="12.2270653"><ele>540.0</ele><time>2026-04-19T08:11:40.861Z</time></trkpt><trkpt lat="43.1948494" lon="12.2270843"><ele>541.5</ele><time>2026-04-19T08:11:41.872Z</time></trkpt><trkpt lat="43.19476" lon="12.227093"><ele>543.0</ele><time>2026-04-19T08:11:42.872Z</time></trkpt><trkpt lat="43.1946682" lon="12.2270859"><ele>543.0</ele><time>2026-04-19T08:11:43.876Z</time></trkpt><trkpt lat="43.1945623" lon="12.2270765"><ele>543.0</ele><time>2026-04-19T08:11:44.869Z</time></trkpt><trkpt lat="43.1944552" lon="12.2270564"><ele>543.0</ele><time>2026-04-19T08:11:45.889Z</time></trkpt><trkpt lat="43.1943369" lon="12.2270337"><ele>543.0</ele><time>2026-04-19T08:11:46.887Z</time></trkpt><trkpt lat="43.1942189" lon="12.22702"><ele>543.0</ele><time>2026-04-19T08:11:47.878Z</time></trkpt><trkpt lat="43.1941151" lon="12.2270002"><ele>543.0</ele><time>2026-04-19T08:11:48.87Z</time></trkpt><trkpt lat="43.1940299" lon="12.2269873"><ele>543.0</ele><time>2026-04-19T08:11:49.863Z</time></trkpt><trkpt lat="43.1939108" lon="12.2269521"><ele>543.0</ele><time>2026-04-19T08:11:51.88Z</time></trkpt><trkpt lat="43.1937868" lon="12.2268412"><ele>541.1999999999999</ele><time>2026-04-19T08:11:53.871Z</time></trkpt><trkpt lat="43.1937109" lon="12.2267309"><ele>539.4</ele><time>2026-04-19T08:11:54.872Z</time></trkpt><trkpt lat="43.193637" lon="12.2266066"><ele>537.5999999999999</ele><time>2026-04-19T08:11:55.866Z</time></trkpt><trkpt lat="43.1935694" lon="12.2265015"><ele>535.8</ele><time>2026-04-19T08:11:56.875Z</time></trkpt><trkpt lat="43.1935111" lon="12.2264066"><ele>534.0</ele><time>2026-04-19T08:11:57.87Z</time></trkpt><trkpt lat="43.1934515" lon="12.2263349"><ele>534.8333333333334</ele><time>2026-04-19T08:11:58.872Z</time></trkpt><trkpt lat="43.193386" lon="12.2262867"><ele>535.6666666666666</ele><time>2026-04-19T08:11:59.872Z</time></trkpt><trkpt lat="43.1933058" lon="12.2262596"><ele>536.5</ele><time>2026-04-19T08:12:00.894Z</time></trkpt><trkpt lat="43.1932234" lon="12.2262438"><ele>537.3333333333333</ele><time>2026-04-19T08:12:01.88Z</time></trkpt><trkpt lat="43.1931407" lon="12.2262235"><ele>538.1666666666666</ele><time>2026-04-19T08:12:02.873Z</time></trkpt><trkpt lat="43.1930582" lon="12.2261996"><ele>539.0</ele><time>2026-04-19T08:12:03.874Z</time></trkpt><trkpt lat="43.1929809" lon="12.2261609"><ele>539.0</ele><time>2026-04-19T08:12:04.883Z</time></trkpt><trkpt lat="43.1929053" lon="12.2261153"><ele>539.0</ele><time>2026-04-19T08:12:05.876Z</time></trkpt><trkpt lat="43.1928404" lon="12.2260772"><ele>539.0</ele><time>2026-04-19T08:12:06.881Z</time></trkpt><trkpt lat="43.192778" lon="12.2260481"><ele>539.0</ele><time>2026-04-19T08:12:07.878Z</time></trkpt><trkpt lat="43.1927131" lon="12.2260057"><ele>539.0</ele><time>2026-04-19T08:12:08.888Z</time></trkpt><trkpt lat="43.1926548" lon="12.2259378"><ele>539.0</ele><time>2026-04-19T08:12:09.908Z</time></trkpt><trkpt lat="43.1925976" lon="12.2258652"><ele>539.0</ele><time>2026-04-19T08:12:10.905Z</time></trkpt><trkpt lat="43.1925526" lon="12.2257799"><ele>539.0</ele><time>2026-04-19T08:12:11.874Z</time></trkpt><trkpt lat="43.1925155" lon="12.2257008"><ele>539.0</ele><time>2026-04-19T08:12:12.882Z</time></trkpt><trkpt lat="43.19241" lon="12.2255987"><ele>539.0</ele><time>2026-04-19T08:12:14.887Z</time></trkpt><trkpt lat="43.1923379" lon="12.2255659"><ele>539.0</ele><time>2026-04-19T08:12:15.874Z</time></trkpt><trkpt lat="43.1922611" lon="12.2255436"><ele>539.0</ele><time>2026-04-19T08:12:16.887Z</time></trkpt><trkpt lat="43.1921912" lon="12.2255116"><ele>539.0</ele><time>2026-04-19T08:12:17.89Z</time></trkpt><trkpt lat="43.1921226" lon="12.2254603"><ele>539.8333333333333</ele><time>2026-04-19T08:12:18.893Z</time></trkpt><trkpt lat="43.1920612" lon="12.225417"><ele>540.6666666666666</ele><time>2026-04-19T08:12:19.895Z</time></trkpt><trkpt lat="43.1919973" lon="12.2254006"><ele>541.5</ele><time>2026-04-19T08:12:20.889Z</time></trkpt><trkpt lat="43.19192" lon="12.225412"><ele>542.3333333333334</ele><time>2026-04-19T08:12:21.899Z</time></trkpt><trkpt lat="43.1918294" lon="12.2254374"><ele>543.1666666666667</ele><time>2026-04-19T08:12:22.9Z</time></trkpt><trkpt lat="43.191731" lon="12.2254507"><ele>544.0</ele><time>2026-04-19T08:12:23.889Z</time></trkpt><trkpt lat="43.1916434" lon="12.2254666"><ele>544.0</ele><time>2026-04-19T08:12:24.906Z</time></trkpt><trkpt lat="43.191564" lon="12.225485"><ele>544.0</ele><time>2026-04-19T08:12:25.886Z</time></trkpt><trkpt lat="43.191488" lon="12.225512"><ele>544.0</ele><time>2026-04-19T08:12:26.895Z</time></trkpt><trkpt lat="43.1914237" lon="12.2255471"><ele>544.0</ele><time>2026-04-19T08:12:27.911Z</time></trkpt><trkpt lat="43.1913611" lon="12.2255835"><ele>544.0</ele><time>2026-04-19T08:12:28.907Z</time></trkpt><trkpt lat="43.1912798" lon="12.2256374"><ele>544.0</ele><time>2026-04-19T08:12:30.913Z</time></trkpt><trkpt lat="43.1912337" lon="12.22556"><ele>542.1666666666667</ele><time>2026-04-19T08:12:33.902Z</time></trkpt><trkpt lat="43.1912357" lon="12.2254034"><ele>540.3333333333334</ele><time>2026-04-19T08:12:35.9Z</time></trkpt><trkpt lat="43.1912385" lon="12.2253095"><ele>538.5</ele><time>2026-04-19T08:12:36.949Z</time></trkpt><trkpt lat="43.1912297" lon="12.2252064"><ele>536.6666666666666</ele><time>2026-04-19T08:12:37.903Z</time></trkpt><trkpt lat="43.1912163" lon="12.2250899"><ele>534.8333333333333</ele><time>2026-04-19T08:12:38.9Z</time></trkpt><trkpt lat="43.1912073" lon="12.2249737"><ele>533.0</ele><time>2026-04-19T08:12:39.901Z</time></trkpt><trkpt lat="43.1912098" lon="12.2248683"><ele>532.3333333333333</ele><time>2026-04-19T08:12:40.908Z</time></trkpt><trkpt lat="43.1912145" lon="12.2247561"><ele>531.6666666666666</ele><time>2026-04-19T08:12:41.915Z</time></trkpt><trkpt lat="43.191224" lon="12.2246443"><ele>531.0</ele><time>2026-04-19T08:12:42.898Z</time></trkpt><trkpt lat="43.1912349" lon="12.224543"><ele>530.3333333333334</ele><time>2026-04-19T08:12:43.925Z</time></trkpt><trkpt lat="43.1912507" lon="12.2244425"><ele>529.6666666666667</ele><time>2026-04-19T08:12:44.9Z</time></trkpt><trkpt lat="43.1912785" lon="12.2243427"><ele>529.0</ele><time>2026-04-19T08:12:45.931Z</time></trkpt><trkpt lat="43.1913071" lon="12.2242484"><ele>529.0</ele><time>2026-04-19T08:12:46.905Z</time></trkpt><trkpt lat="43.191343" lon="12.2241621"><ele>529.0</ele><time>2026-04-19T08:12:47.907Z</time></trkpt><trkpt lat="43.1913897" lon="12.2240796"><ele>529.0</ele><time>2026-04-19T08:12:48.904Z</time></trkpt><trkpt lat="43.1914463" lon="12.223997"><ele>529.0</ele><time>2026-04-19T08:12:49.906Z</time></trkpt><trkpt lat="43.191515" lon="12.2239021"><ele>529.0</ele><time>2026-04-19T08:12:50.919Z</time></trkpt><trkpt lat="43.191588" lon="12.2238038"><ele>529.0</ele><time>2026-04-19T08:12:51.909Z</time></trkpt><trkpt lat="43.1916638" lon="12.2237108"><ele>532.0</ele><time>2026-04-19T08:12:52.908Z</time></trkpt><trkpt lat="43.191815" lon="12.2235263"><ele>535.0</ele><time>2026-04-19T08:12:54.902Z</time></trkpt><trkpt lat="43.1918933" lon="12.2234348"><ele>538.0</ele><time>2026-04-19T08:12:55.908Z</time></trkpt><trkpt lat="43.1919678" lon="12.2233405"><ele>541.0</ele><time>2026-04-19T08:12:56.909Z</time></trkpt><trkpt lat="43.1920438" lon="12.2232436"><ele>540.2</ele><time>2026-04-19T08:12:57.91Z</time></trkpt><trkpt lat="43.1921206" lon="12.2231446"><ele>539.4000000000001</ele><time>2026-04-19T08:12:58.906Z</time></trkpt><trkpt lat="43.1921973" lon="12.2230408"><ele>538.6</ele><time>2026-04-19T08:12:59.909Z</time></trkpt><trkpt lat="43.1922705" lon="12.2229387"><ele>537.8000000000001</ele><time>2026-04-19T08:13:00.903Z</time></trkpt><trkpt lat="43.1923432" lon="12.2228413"><ele>537.0</ele><time>2026-04-19T08:13:01.91Z</time></trkpt><trkpt lat="43.1924108" lon="12.2227453"><ele>540.6</ele><time>2026-04-19T08:13:02.905Z</time></trkpt><trkpt lat="43.1924704" lon="12.2226457"><ele>544.2</ele><time>2026-04-19T08:13:03.914Z</time></trkpt><trkpt lat="43.1925184" lon="12.2225322"><ele>547.8</ele><time>2026-04-19T08:13:04.901Z</time></trkpt><trkpt lat="43.1925479" lon="12.2224134"><ele>551.4</ele><time>2026-04-19T08:13:05.91Z</time></trkpt><trkpt lat="43.1925591" lon="12.2222878"><ele>555.0</ele><time>2026-04-19T08:13:06.899Z</time></trkpt><trkpt lat="43.1925572" lon="12.222163"><ele>555.0</ele><time>2026-04-19T08:13:07.91Z</time></trkpt><trkpt lat="43.1925566" lon="12.2220455"><ele>555.0</ele><time>2026-04-19T08:13:08.901Z</time></trkpt><trkpt lat="43.1925707" lon="12.2219371"><ele>555.0</ele><time>2026-04-19T08:13:09.921Z</time></trkpt><trkpt lat="43.1926067" lon="12.2218196"><ele>555.0</ele><time>2026-04-19T08:13:10.908Z</time></trkpt><trkpt lat="43.1926543" lon="12.2216922"><ele>555.0</ele><time>2026-04-19T08:13:11.905Z</time></trkpt><trkpt lat="43.1927133" lon="12.221594"><ele>555.0</ele><time>2026-04-19T08:13:12.906Z</time></trkpt><trkpt lat="43.1927818" lon="12.2215161"><ele>555.0</ele><time>2026-04-19T08:13:13.907Z</time></trkpt><trkpt lat="43.1928598" lon="12.2214546"><ele>555.0</ele><time>2026-04-19T08:13:14.915Z</time></trkpt><trkpt lat="43.1929396" lon="12.2214125"><ele>555.0</ele><time>2026-04-19T08:13:15.901Z</time></trkpt><trkpt lat="43.1930257" lon="12.2213803"><ele>555.0</ele><time>2026-04-19T08:13:16.917Z</time></trkpt><trkpt lat="43.193126" lon="12.2213596"><ele>554.4</ele><time>2026-04-19T08:13:17.906Z</time></trkpt><trkpt lat="43.1932261" lon="12.2213415"><ele>553.8</ele><time>2026-04-19T08:13:18.899Z</time></trkpt><trkpt lat="43.1933293" lon="12.2213328"><ele>553.2</ele><time>2026-04-19T08:13:19.915Z</time></trkpt><trkpt lat="43.1934009" lon="12.2213429"><ele>552.6</ele><time>2026-04-19T08:13:20.91Z</time></trkpt><trkpt lat="43.1935018" lon="12.2214028"><ele>552.0</ele><time>2026-04-19T08:13:22.904Z</time></trkpt><trkpt lat="43.1935275" lon="12.2214831"><ele>552.5</ele><time>2026-04-19T08:13:23.907Z</time></trkpt><trkpt lat="43.1934731" lon="12.2216342"><ele>553.0</ele><time>2026-04-19T08:13:25.903Z</time></trkpt><trkpt lat="43.19341" lon="12.2216767"><ele>553.5</ele><time>2026-04-19T08:13:26.904Z</time></trkpt><trkpt lat="43.1933347" lon="12.2217013"><ele>554.0</ele><time>2026-04-19T08:13:27.893Z</time></trkpt><trkpt lat="43.1932567" lon="12.2217172"><ele>554.5</ele><time>2026-04-19T08:13:28.932Z</time></trkpt><trkpt lat="43.1931778" lon="12.2217292"><ele>555.0</ele><time>2026-04-19T08:13:29.929Z</time></trkpt><trkpt lat="43.193069" lon="12.2217796"><ele>555.0</ele><time>2026-04-19T08:13:31.93Z</time></trkpt><trkpt lat="43.192995" lon="12.2218316"><ele>555.0</ele><time>2026-04-19T08:13:33.916Z</time></trkpt><trkpt lat="43.1929439" lon="12.2219063"><ele>555.0</ele><time>2026-04-19T08:13:36.927Z</time></trkpt><trkpt lat="43.1929475" lon="12.2220462"><ele>555.0</ele><time>2026-04-19T08:13:40.924Z</time></trkpt><trkpt lat="43.1929892" lon="12.2222188"><ele>555.0</ele><time>2026-04-19T08:13:42.927Z</time></trkpt><trkpt lat="43.1930247" lon="12.2223177"><ele>555.3333333333334</ele><time>2026-04-19T08:13:43.924Z</time></trkpt><trkpt lat="43.193047" lon="12.2224322"><ele>555.6666666666666</ele><time>2026-04-19T08:13:44.918Z</time></trkpt><trkpt lat="43.1930623" lon="12.2225499"><ele>556.0</ele><time>2026-04-19T08:13:45.921Z</time></trkpt><trkpt lat="43.1930665" lon="12.2226656"><ele>556.3333333333333</ele><time>2026-04-19T08:13:46.911Z</time></trkpt><trkpt lat="43.1930713" lon="12.2227848"><ele>556.6666666666666</ele><time>2026-04-19T08:13:47.926Z</time></trkpt><trkpt lat="43.1930791" lon="12.2228958"><ele>557.0</ele><time>2026-04-19T08:13:48.913Z</time></trkpt><trkpt lat="43.1930998" lon="12.2230018"><ele>557.0</ele><time>2026-04-19T08:13:49.926Z</time></trkpt><trkpt lat="43.1931334" lon="12.2230918"><ele>557.0</ele><time>2026-04-19T08:13:50.911Z</time></trkpt><trkpt lat="43.1931851" lon="12.2231579"><ele>557.0</ele><time>2026-04-19T08:13:51.919Z</time></trkpt><trkpt lat="43.1932503" lon="12.2231869"><ele>557.0</ele><time>2026-04-19T08:13:52.912Z</time></trkpt><trkpt lat="43.1933171" lon="12.2231815"><ele>557.0</ele><time>2026-04-19T08:13:53.913Z</time></trkpt><trkpt lat="43.1933781" lon="12.2231238"><ele>557.0</ele><time>2026-04-19T08:13:54.917Z</time></trkpt><trkpt lat="43.1934263" lon="12.2230451"><ele>557.0</ele><time>2026-04-19T08:13:55.921Z</time></trkpt><trkpt lat="43.1934487" lon="12.2229525"><ele>560.0</ele><time>2026-04-19T08:13:56.914Z</time></trkpt><trkpt lat="43.1934418" lon="12.2228573"><ele>563.0</ele><time>2026-04-19T08:13:57.917Z</time></trkpt><trkpt lat="43.1934171" lon="12.2227521"><ele>566.0</ele><time>2026-04-19T08:13:58.914Z</time></trkpt><trkpt lat="43.1933826" lon="12.2226483"><ele>569.0</ele><time>2026-04-19T08:13:59.923Z</time></trkpt><trkpt lat="43.1933593" lon="12.2225319"><ele>572.0</ele><time>2026-04-19T08:14:00.933Z</time></trkpt><trkpt lat="43.1933461" lon="12.2224315"><ele>575.0</ele><time>2026-04-19T08:14:01.924Z</time></trkpt><trkpt lat="43.1933585" lon="12.2223247"><ele>575.0</ele><time>2026-04-19T08:14:02.925Z</time></trkpt><trkpt lat="43.1933977" lon="12.2222408"><ele>575.0</ele><time>2026-04-19T08:14:03.922Z</time></trkpt><trkpt lat="43.1935015" lon="12.2222057"><ele>575.0</ele><time>2026-04-19T08:14:05.833Z</time></trkpt><trkpt lat="43.1935585" lon="12.2222475"><ele>575.0</ele><time>2026-04-19T08:14:06.821Z</time></trkpt><trkpt lat="43.1936028" lon="12.2223154"><ele>575.0</ele><time>2026-04-19T08:14:07.836Z</time></trkpt><trkpt lat="43.1936264" lon="12.2224014"><ele>575.0</ele><time>2026-04-19T08:14:08.824Z</time></trkpt><trkpt lat="43.1936303" lon="12.2225032"><ele>575.0</ele><time>2026-04-19T08:14:09.827Z</time></trkpt><trkpt lat="43.1936279" lon="12.2226117"><ele>575.0</ele><time>2026-04-19T08:14:10.832Z</time></trkpt><trkpt lat="43.1936321" lon="12.2227495"><ele>575.0</ele><time>2026-04-19T08:14:11.825Z</time></trkpt><trkpt lat="43.1936313" lon="12.2228937"><ele>575.0</ele><time>2026-04-19T08:14:12.835Z</time></trkpt><trkpt lat="43.1936268" lon="12.2230409"><ele>575.0</ele><time>2026-04-19T08:14:13.827Z</time></trkpt><trkpt lat="43.1936233" lon="12.2231998"><ele>576.75</ele><time>2026-04-19T08:14:14.82Z</time></trkpt><trkpt lat="43.1936177" lon="12.2233667"><ele>578.5</ele><time>2026-04-19T08:14:15.835Z</time></trkpt><trkpt lat="43.1936124" lon="12.2235311"><ele>580.25</ele><time>2026-04-19T08:14:16.831Z</time></trkpt><trkpt lat="43.1936044" lon="12.2236872"><ele>582.0</ele><time>2026-04-19T08:14:17.826Z</time></trkpt><trkpt lat="43.1935956" lon="12.223821"><ele>582.0</ele><time>2026-04-19T08:14:18.822Z</time></trkpt><trkpt lat="43.1935857" lon="12.2239484"><ele>582.0</ele><time>2026-04-19T08:14:19.82Z</time></trkpt><trkpt lat="43.1935807" lon="12.2240859"><ele>582.0</ele><time>2026-04-19T08:14:20.838Z</time></trkpt><trkpt lat="43.1935726" lon="12.2242207"><ele>582.0</ele><time>2026-04-19T08:14:21.826Z</time></trkpt><trkpt lat="43.1935664" lon="12.2243398"><ele>582.0</ele><time>2026-04-19T08:14:22.834Z</time></trkpt><trkpt lat="43.1935707" lon="12.2244475"><ele>582.6666666666666</ele><time>2026-04-19T08:14:23.838Z</time></trkpt><trkpt lat="43.1935806" lon="12.2245412"><ele>583.3333333333334</ele><time>2026-04-19T08:14:24.856Z</time></trkpt><trkpt lat="43.1936746" lon="12.2246607"><ele>584.0</ele><time>2026-04-19T08:14:26.837Z</time></trkpt><trkpt lat="43.1937421" lon="12.2246668"><ele>584.6666666666667</ele><time>2026-04-19T08:14:27.829Z</time></trkpt><trkpt lat="43.1938093" lon="12.224637"><ele>585.3333333333334</ele><time>2026-04-19T08:14:28.853Z</time></trkpt><trkpt lat="43.1938594" lon="12.2245817"><ele>586.0</ele><time>2026-04-19T08:14:29.832Z</time></trkpt><trkpt lat="43.1938889" lon="12.2244949"><ele>586.0</ele><time>2026-04-19T08:14:30.833Z</time></trkpt><trkpt lat="43.1939028" lon="12.2243983"><ele>586.0</ele><time>2026-04-19T08:14:31.829Z</time></trkpt><trkpt lat="43.1939035" lon="12.2242933"><ele>586.0</ele><time>2026-04-19T08:14:32.834Z</time></trkpt><trkpt lat="43.1939061" lon="12.2241709"><ele>586.0</ele><time>2026-04-19T08:14:33.848Z</time></trkpt><trkpt lat="43.1939147" lon="12.2240367"><ele>586.0</ele><time>2026-04-19T08:14:34.837Z</time></trkpt><trkpt lat="43.193924" lon="12.2238924"><ele>586.0</ele><time>2026-04-19T08:14:35.858Z</time></trkpt><trkpt lat="43.193925" lon="12.2237529"><ele>585.3333333333334</ele><time>2026-04-19T08:14:36.846Z</time></trkpt><trkpt lat="43.1939312" lon="12.2236237"><ele>584.6666666666667</ele><time>2026-04-19T08:14:37.836Z</time></trkpt><trkpt lat="43.1939398" lon="12.2235108"><ele>584.0</ele><time>2026-04-19T08:14:38.832Z</time></trkpt><trkpt lat="43.1939533" lon="12.2234195"><ele>583.3333333333334</ele><time>2026-04-19T08:14:39.835Z</time></trkpt><trkpt lat="43.193968" lon="12.2233309"><ele>582.6666666666666</ele><time>2026-04-19T08:14:40.841Z</time></trkpt><trkpt lat="43.1940023" lon="12.2232556"><ele>582.0</ele><time>2026-04-19T08:14:41.834Z</time></trkpt><trkpt lat="43.1941057" lon="12.2231986"><ele>584.8333333333334</ele><time>2026-04-19T08:14:43.841Z</time></trkpt><trkpt lat="43.194175" lon="12.2232202"><ele>587.6666666666666</ele><time>2026-04-19T08:14:44.837Z</time></trkpt><trkpt lat="43.1942319" lon="12.223271"><ele>590.5</ele><time>2026-04-19T08:14:45.855Z</time></trkpt><trkpt lat="43.1942788" lon="12.2233508"><ele>593.3333333333333</ele><time>2026-04-19T08:14:46.836Z</time></trkpt><trkpt lat="43.1942955" lon="12.2234498"><ele>596.1666666666666</ele><time>2026-04-19T08:14:47.843Z</time></trkpt><trkpt lat="43.1942935" lon="12.223556"><ele>599.0</ele><time>2026-04-19T08:14:48.846Z</time></trkpt><trkpt lat="43.1942893" lon="12.2236722"><ele>599.0</ele><time>2026-04-19T08:14:49.847Z</time></trkpt><trkpt lat="43.1942825" lon="12.2237886"><ele>599.0</ele><time>2026-04-19T08:14:50.853Z</time></trkpt><trkpt lat="43.1942775" lon="12.2239091"><ele>599.0</ele><time>2026-04-19T08:14:51.846Z</time></trkpt><trkpt lat="43.194274" lon="12.2240288"><ele>599.0</ele><time>2026-04-19T08:14:52.873Z</time></trkpt><trkpt lat="43.1942717" lon="12.2241507"><ele>599.0</ele><time>2026-04-19T08:14:53.844Z</time></trkpt><trkpt lat="43.1942734" lon="12.2242506"><ele>599.0</ele><time>2026-04-19T08:14:54.848Z</time></trkpt><trkpt lat="43.1942798" lon="12.2243472"><ele>599.0</ele><time>2026-04-19T08:14:55.853Z</time></trkpt><trkpt lat="43.194304" lon="12.2244356"><ele>599.0</ele><time>2026-04-19T08:14:56.846Z</time></trkpt><trkpt lat="43.1943534" lon="12.2245166"><ele>599.0</ele><time>2026-04-19T08:14:57.852Z</time></trkpt><trkpt lat="43.1944187" lon="12.2245627"><ele>599.0</ele><time>2026-04-19T08:14:58.858Z</time></trkpt><trkpt lat="43.19453" lon="12.2245298"><ele>599.0</ele><time>2026-04-19T08:15:00.853Z</time></trkpt><trkpt lat="43.1945783" lon="12.2244699"><ele>599.0</ele><time>2026-04-19T08:15:01.855Z</time></trkpt><trkpt lat="43.1946233" lon="12.2243753"><ele>599.0</ele><time>2026-04-19T08:15:02.869Z</time></trkpt><trkpt lat="43.1946612" lon="12.2242613"><ele>599.0</ele><time>2026-04-19T08:15:03.846Z</time></trkpt><trkpt lat="43.1946982" lon="12.2241342"><ele>599.0</ele><time>2026-04-19T08:15:04.858Z</time></trkpt><trkpt lat="43.1947386" lon="12.2239989"><ele>599.0</ele><time>2026-04-19T08:15:05.855Z</time></trkpt><trkpt lat="43.1947865" lon="12.2238694"><ele>599.0</ele><time>2026-04-19T08:15:06.867Z</time></trkpt><trkpt lat="43.1948298" lon="12.2237575"><ele>601.2</ele><time>2026-04-19T08:15:07.855Z</time></trkpt><trkpt lat="43.1948663" lon="12.2236569"><ele>603.4</ele><time>2026-04-19T08:15:08.857Z</time></trkpt><trkpt lat="43.1949157" lon="12.2235428"><ele>605.6</ele><time>2026-04-19T08:15:09.861Z</time></trkpt><trkpt lat="43.1949777" lon="12.2234229"><ele>607.8</ele><time>2026-04-19T08:15:10.862Z</time></trkpt><trkpt lat="43.1950477" lon="12.2233036"><ele>610.0</ele><time>2026-04-19T08:15:11.875Z</time></trkpt><trkpt lat="43.1951153" lon="12.2231827"><ele>608.4</ele><time>2026-04-19T08:15:12.865Z</time></trkpt><trkpt lat="43.1951781" lon="12.2230685"><ele>606.8</ele><time>2026-04-19T08:15:13.869Z</time></trkpt><trkpt lat="43.1952269" lon="12.222966"><ele>605.2</ele><time>2026-04-19T08:15:14.867Z</time></trkpt><trkpt lat="43.1952655" lon="12.2228762"><ele>603.6</ele><time>2026-04-19T08:15:15.88Z</time></trkpt><trkpt lat="43.1953585" lon="12.2227724"><ele>602.0</ele><time>2026-04-19T08:15:17.869Z</time></trkpt><trkpt lat="43.195484" lon="12.2227865"><ele>602.0</ele><time>2026-04-19T08:15:19.87Z</time></trkpt><trkpt lat="43.1955537" lon="12.2228981"><ele>602.0</ele><time>2026-04-19T08:15:21.866Z</time></trkpt><trkpt lat="43.1955598" lon="12.2229878"><ele>602.0</ele><time>2026-04-19T08:15:22.878Z</time></trkpt><trkpt lat="43.1955493" lon="12.2230877"><ele>602.0</ele><time>2026-04-19T08:15:23.877Z</time></trkpt><trkpt lat="43.19552" lon="12.2231961"><ele>602.0</ele><time>2026-04-19T08:15:24.871Z</time></trkpt><trkpt lat="43.1955009" lon="12.2232965"><ele>602.0</ele><time>2026-04-19T08:15:25.87Z</time></trkpt><trkpt lat="43.1955029" lon="12.2233975"><ele>603.6</ele><time>2026-04-19T08:15:26.871Z</time></trkpt><trkpt lat="43.1955345" lon="12.2235011"><ele>605.2</ele><time>2026-04-19T08:15:27.921Z</time></trkpt><trkpt lat="43.195591" lon="12.2236092"><ele>606.8</ele><time>2026-04-19T08:15:28.88Z</time></trkpt><trkpt lat="43.1956706" lon="12.2237107"><ele>608.4</ele><time>2026-04-19T08:15:29.871Z</time></trkpt><trkpt lat="43.1957487" lon="12.2237991"><ele>610.0</ele><time>2026-04-19T08:15:30.878Z</time></trkpt><trkpt lat="43.1958353" lon="12.2238808"><ele>610.3333333333334</ele><time>2026-04-19T08:15:31.873Z</time></trkpt><trkpt lat="43.1959259" lon="12.2239666"><ele>610.6666666666667</ele><time>2026-04-19T08:15:32.874Z</time></trkpt><trkpt lat="43.1960052" lon="12.224046"><ele>611.0</ele><time>2026-04-19T08:15:33.885Z</time></trkpt><trkpt lat="43.1960843" lon="12.2241146"><ele>611.3333333333334</ele><time>2026-04-19T08:15:34.877Z</time></trkpt><trkpt lat="43.1961557" lon="12.2241662"><ele>611.6666666666666</ele><time>2026-04-19T08:15:35.875Z</time></trkpt><trkpt lat="43.1962174" lon="12.2241921"><ele>612.0</ele><time>2026-04-19T08:15:36.877Z</time></trkpt><trkpt lat="43.1963326" lon="12.2241263"><ele>613.5</ele><time>2026-04-19T08:15:38.881Z</time></trkpt><trkpt lat="43.196362" lon="12.2239788"><ele>615.0</ele><time>2026-04-19T08:15:40.883Z</time></trkpt><trkpt lat="43.1963266" lon="12.2239025"><ele>616.5</ele><time>2026-04-19T08:15:41.889Z</time></trkpt><trkpt lat="43.1962757" lon="12.2238334"><ele>618.0</ele><time>2026-04-19T08:15:42.874Z</time></trkpt><trkpt lat="43.1962102" lon="12.2237746"><ele>619.5</ele><time>2026-04-19T08:15:43.893Z</time></trkpt><trkpt lat="43.1961372" lon="12.2237244"><ele>621.0</ele><time>2026-04-19T08:15:44.894Z</time></trkpt><trkpt lat="43.1960681" lon="12.2236711"><ele>621.0</ele><time>2026-04-19T08:15:45.898Z</time></trkpt><trkpt lat="43.1960176" lon="12.2235975"><ele>621.0</ele><time>2026-04-19T08:15:46.881Z</time></trkpt><trkpt lat="43.1959979" lon="12.2234977"><ele>621.0</ele><time>2026-04-19T08:15:47.879Z</time></trkpt><trkpt lat="43.19599" lon="12.2233974"><ele>621.0</ele><time>2026-04-19T08:15:48.878Z</time></trkpt><trkpt lat="43.196012" lon="12.2233094"><ele>621.0</ele><time>2026-04-19T08:15:49.887Z</time></trkpt><trkpt lat="43.1960502" lon="12.2232242"><ele>621.0</ele><time>2026-04-19T08:15:50.89Z</time></trkpt><trkpt lat="43.1961653" lon="12.2231362"><ele>621.0</ele><time>2026-04-19T08:15:52.894Z</time></trkpt><trkpt lat="43.1962374" lon="12.2231214"><ele>621.0</ele><time>2026-04-19T08:15:53.891Z</time></trkpt><trkpt lat="43.1963285" lon="12.2231364"><ele>621.0</ele><time>2026-04-19T08:15:54.886Z</time></trkpt><trkpt lat="43.1964435" lon="12.2231622"><ele>621.0</ele><time>2026-04-19T08:15:55.888Z</time></trkpt><trkpt lat="43.1965534" lon="12.2231798"><ele>621.0</ele><time>2026-04-19T08:15:56.885Z</time></trkpt><trkpt lat="43.1966554" lon="12.2231931"><ele>623.2</ele><time>2026-04-19T08:15:57.885Z</time></trkpt><trkpt lat="43.1967571" lon="12.2232197"><ele>625.4000000000001</ele><time>2026-04-19T08:15:58.901Z</time></trkpt><trkpt lat="43.1968646" lon="12.2232408"><ele>627.6</ele><time>2026-04-19T08:15:59.896Z</time></trkpt><trkpt lat="43.1969796" lon="12.2232706"><ele>629.8000000000001</ele><time>2026-04-19T08:16:00.897Z</time></trkpt><trkpt lat="43.1970909" lon="12.2232915"><ele>632.0</ele><time>2026-04-19T08:16:01.903Z</time></trkpt><trkpt lat="43.1972026" lon="12.2233156"><ele>632.0</ele><time>2026-04-19T08:16:02.895Z</time></trkpt><trkpt lat="43.1973169" lon="12.2233349"><ele>632.0</ele><time>2026-04-19T08:16:03.894Z</time></trkpt><trkpt lat="43.1974237" lon="12.2233617"><ele>632.0</ele><time>2026-04-19T08:16:04.898Z</time></trkpt><trkpt lat="43.1975271" lon="12.223388"><ele>632.0</ele><time>2026-04-19T08:16:05.909Z</time></trkpt><trkpt lat="43.1976261" lon="12.223413"><ele>632.0</ele><time>2026-04-19T08:16:06.897Z</time></trkpt><trkpt lat="43.1977259" lon="12.2234373"><ele>633.3333333333333</ele><time>2026-04-19T08:16:07.898Z</time></trkpt><trkpt lat="43.1978247" lon="12.2234631"><ele>634.6666666666666</ele><time>2026-04-19T08:16:08.913Z</time></trkpt><trkpt lat="43.197922" lon="12.2234879"><ele>636.0</ele><time>2026-04-19T08:16:09.887Z</time></trkpt><trkpt lat="43.1980111" lon="12.2235146"><ele>637.3333333333334</ele><time>2026-04-19T08:16:10.923Z</time></trkpt><trkpt lat="43.1980843" lon="12.223527"><ele>638.6666666666667</ele><time>2026-04-19T08:16:11.891Z</time></trkpt><trkpt lat="43.198168" lon="12.2235318"><ele>640.0</ele><time>2026-04-19T08:16:13.906Z</time></trkpt><trkpt lat="43.1981981" lon="12.2234491"><ele>640.0</ele><time>2026-04-19T08:16:16.913Z</time></trkpt><trkpt lat="43.1981728" lon="12.2232752"><ele>640.0</ele><time>2026-04-19T08:16:18.91Z</time></trkpt><trkpt lat="43.1981518" lon="12.2231742"><ele>640.0</ele><time>2026-04-19T08:16:19.924Z</time></trkpt><trkpt lat="43.1981384" lon="12.2230627"><ele>640.0</ele><time>2026-04-19T08:16:20.894Z</time></trkpt><trkpt lat="43.1981336" lon="12.2229598"><ele>640.0</ele><time>2026-04-19T08:16:21.908Z</time></trkpt><trkpt lat="43.1981412" lon="12.222853"><ele>640.0</ele><time>2026-04-19T08:16:22.905Z</time></trkpt><trkpt lat="43.1981449" lon="12.2227486"><ele>638.6666666666667</ele><time>2026-04-19T08:16:23.899Z</time></trkpt><trkpt lat="43.1981492" lon="12.2226317"><ele>637.3333333333334</ele><time>2026-04-19T08:16:24.898Z</time></trkpt><trkpt lat="43.1981526" lon="12.2225072"><ele>636.0</ele><time>2026-04-19T08:16:25.894Z</time></trkpt><trkpt lat="43.1981548" lon="12.222384"><ele>634.6666666666666</ele><time>2026-04-19T08:16:26.9Z</time></trkpt><trkpt lat="43.1981549" lon="12.2222607"><ele>633.3333333333333</ele><time>2026-04-19T08:16:27.906Z</time></trkpt><trkpt lat="43.1981564" lon="12.2221421"><ele>632.0</ele><time>2026-04-19T08:16:28.916Z</time></trkpt><trkpt lat="43.1981588" lon="12.2220263"><ele>631.6666666666666</ele><time>2026-04-19T08:16:29.917Z</time></trkpt><trkpt lat="43.1981611" lon="12.2219099"><ele>631.3333333333333</ele><time>2026-04-19T08:16:30.906Z</time></trkpt><trkpt lat="43.1981652" lon="12.2217979"><ele>631.0</ele><time>2026-04-19T08:16:31.906Z</time></trkpt><trkpt lat="43.1981708" lon="12.2217022"><ele>630.6666666666666</ele><time>2026-04-19T08:16:32.913Z</time></trkpt><trkpt lat="43.198189" lon="12.2216154"><ele>630.3333333333334</ele><time>2026-04-19T08:16:33.912Z</time></trkpt><trkpt lat="43.1982302" lon="12.2215218"><ele>630.0</ele><time>2026-04-19T08:16:34.904Z</time></trkpt><trkpt lat="43.1982929" lon="12.2214289"><ele>630.0</ele><time>2026-04-19T08:16:35.914Z</time></trkpt><trkpt lat="43.1983651" lon="12.2213437"><ele>630.0</ele><time>2026-04-19T08:16:36.922Z</time></trkpt><trkpt lat="43.198435" lon="12.2212709"><ele>630.0</ele><time>2026-04-19T08:16:37.908Z</time></trkpt><trkpt lat="43.19851" lon="12.2211964"><ele>630.0</ele><time>2026-04-19T08:16:38.93Z</time></trkpt><trkpt lat="43.1985794" lon="12.2211226"><ele>630.0</ele><time>2026-04-19T08:16:39.914Z</time></trkpt><trkpt lat="43.1986515" lon="12.2210496"><ele>630.0</ele><time>2026-04-19T08:16:40.907Z</time></trkpt><trkpt lat="43.1987281" lon="12.2209809"><ele>630.0</ele><time>2026-04-19T08:16:41.919Z</time></trkpt><trkpt lat="43.1988083" lon="12.2209064"><ele>630.0</ele><time>2026-04-19T08:16:42.914Z</time></trkpt><trkpt lat="43.1988767" lon="12.2208351"><ele>630.0</ele><time>2026-04-19T08:16:43.909Z</time></trkpt><trkpt lat="43.1989478" lon="12.2207533"><ele>630.0</ele><time>2026-04-19T08:16:44.918Z</time></trkpt><trkpt lat="43.199013" lon="12.2206631"><ele>630.0</ele><time>2026-04-19T08:16:45.906Z</time></trkpt><trkpt lat="43.1990623" lon="12.2205817"><ele>630.0</ele><time>2026-04-19T08:16:46.914Z</time></trkpt><trkpt lat="43.1991078" lon="12.2204977"><ele>630.0</ele><time>2026-04-19T08:16:47.911Z</time></trkpt><trkpt lat="43.1991481" lon="12.2204136"><ele>630.0</ele><time>2026-04-19T08:16:48.918Z</time></trkpt><trkpt lat="43.1991803" lon="12.2203108"><ele>630.0</ele><time>2026-04-19T08:16:49.919Z</time></trkpt><trkpt lat="43.1992004" lon="12.2201916"><ele>630.0</ele><time>2026-04-19T08:16:50.931Z</time></trkpt><trkpt lat="43.1992032" lon="12.2200616"><ele>630.0</ele><time>2026-04-19T08:16:51.901Z</time></trkpt><trkpt lat="43.1991939" lon="12.2199387"><ele>630.0</ele><time>2026-04-19T08:16:52.921Z</time></trkpt><trkpt lat="43.1991672" lon="12.2198283"><ele>630.0</ele><time>2026-04-19T08:16:53.902Z</time></trkpt><trkpt lat="43.1991276" lon="12.2197266"><ele>630.0</ele><time>2026-04-19T08:16:54.927Z</time></trkpt><trkpt lat="43.1990637" lon="12.2196363"><ele>630.0</ele><time>2026-04-19T08:16:55.93Z</time></trkpt><trkpt lat="43.1989914" lon="12.2195668"><ele>630.0</ele><time>2026-04-19T08:16:56.922Z</time></trkpt><trkpt lat="43.1989279" lon="12.2194965"><ele>627.5</ele><time>2026-04-19T08:16:57.914Z</time></trkpt><trkpt lat="43.198875" lon="12.2194285"><ele>625.0</ele><time>2026-04-19T08:16:58.928Z</time></trkpt><trkpt lat="43.1988397" lon="12.2193441"><ele>622.5</ele><time>2026-04-19T08:16:59.928Z</time></trkpt><trkpt lat="43.1988143" lon="12.219249"><ele>620.0</ele><time>2026-04-19T08:17:00.929Z</time></trkpt><trkpt lat="43.1988096" lon="12.2191412"><ele>617.5</ele><time>2026-04-19T08:17:01.917Z</time></trkpt><trkpt lat="43.1988156" lon="12.2190307"><ele>615.0</ele><time>2026-04-19T08:17:02.924Z</time></trkpt><trkpt lat="43.1988272" lon="12.2189263"><ele>613.8333333333334</ele><time>2026-04-19T08:17:03.909Z</time></trkpt><trkpt lat="43.198836" lon="12.2188341"><ele>612.6666666666666</ele><time>2026-04-19T08:17:04.912Z</time></trkpt><trkpt lat="43.1988241" lon="12.2187432"><ele>611.5</ele><time>2026-04-19T08:17:05.916Z</time></trkpt><trkpt lat="43.198738" lon="12.2186582"><ele>610.3333333333333</ele><time>2026-04-19T08:17:07.918Z</time></trkpt><trkpt lat="43.1986679" lon="12.2186599"><ele>609.1666666666666</ele><time>2026-04-19T08:17:08.917Z</time></trkpt><trkpt lat="43.1985939" lon="12.2186601"><ele>608.0</ele><time>2026-04-19T08:17:09.917Z</time></trkpt><trkpt lat="43.1985062" lon="12.2186945"><ele>608.0</ele><time>2026-04-19T08:17:10.909Z</time></trkpt><trkpt lat="43.1984168" lon="12.2187604"><ele>608.0</ele><time>2026-04-19T08:17:11.909Z</time></trkpt><trkpt lat="43.198334" lon="12.2188258"><ele>608.0</ele><time>2026-04-19T08:17:12.918Z</time></trkpt><trkpt lat="43.1982543" lon="12.2188888"><ele>608.0</ele><time>2026-04-19T08:17:13.906Z</time></trkpt><trkpt lat="43.1981888" lon="12.2189411"><ele>608.0</ele><time>2026-04-19T08:17:14.91Z</time></trkpt><trkpt lat="43.1981219" lon="12.2189844"><ele>608.0</ele><time>2026-04-19T08:17:15.916Z</time></trkpt><trkpt lat="43.1980562" lon="12.2189895"><ele>606.3333333333333</ele><time>2026-04-19T08:17:16.911Z</time></trkpt><trkpt lat="43.1979867" lon="12.2189602"><ele>604.6666666666666</ele><time>2026-04-19T08:17:17.926Z</time></trkpt><trkpt lat="43.1979138" lon="12.218906"><ele>603.0</ele><time>2026-04-19T08:17:18.913Z</time></trkpt><trkpt lat="43.1978459" lon="12.2188186"><ele>601.3333333333334</ele><time>2026-04-19T08:17:19.913Z</time></trkpt><trkpt lat="43.1977701" lon="12.2187346"><ele>599.6666666666667</ele><time>2026-04-19T08:17:20.928Z</time></trkpt><trkpt lat="43.1976978" lon="12.2186513"><ele>598.0</ele><time>2026-04-19T08:17:21.925Z</time></trkpt><trkpt lat="43.197637" lon="12.2185779"><ele>598.0</ele><time>2026-04-19T08:17:22.927Z</time></trkpt><trkpt lat="43.1975721" lon="12.2184971"><ele>598.0</ele><time>2026-04-19T08:17:23.918Z</time></trkpt><trkpt lat="43.1975192" lon="12.2183987"><ele>598.0</ele><time>2026-04-19T08:17:24.917Z</time></trkpt><trkpt lat="43.1974813" lon="12.2182961"><ele>598.0</ele><time>2026-04-19T08:17:25.948Z</time></trkpt><trkpt lat="43.1974509" lon="12.2181901"><ele>598.0</ele><time>2026-04-19T08:17:26.92Z</time></trkpt><trkpt lat="43.1974187" lon="12.2180943"><ele>598.0</ele><time>2026-04-19T08:17:27.924Z</time></trkpt><trkpt lat="43.1973783" lon="12.2179536"><ele>596.6</ele><time>2026-04-19T08:17:29.932Z</time></trkpt><trkpt lat="43.1973654" lon="12.2178531"><ele>595.1999999999999</ele><time>2026-04-19T08:17:31.927Z</time></trkpt><trkpt lat="43.1974134" lon="12.2177392"><ele>593.8</ele><time>2026-04-19T08:17:35.827Z</time></trkpt><trkpt lat="43.1975257" lon="12.2177122"><ele>592.4</ele><time>2026-04-19T08:17:38.828Z</time></trkpt><trkpt lat="43.1976112" lon="12.2177283"><ele>591.0</ele><time>2026-04-19T08:17:40.828Z</time></trkpt><trkpt lat="43.1977112" lon="12.2177571"><ele>591.0</ele><time>2026-04-19T08:17:42.827Z</time></trkpt><trkpt lat="43.1978259" lon="12.2177921"><ele>591.0</ele><time>2026-04-19T08:17:44.83Z</time></trkpt><trkpt lat="43.19794" lon="12.2178078"><ele>591.0</ele><time>2026-04-19T08:17:46.824Z</time></trkpt><trkpt lat="43.1980401" lon="12.2177812"><ele>591.0</ele><time>2026-04-19T08:17:48.834Z</time></trkpt><trkpt lat="43.1981263" lon="12.217669"><ele>591.0</ele><time>2026-04-19T08:17:50.83Z</time></trkpt><trkpt lat="43.1981637" lon="12.2175749"><ele>591.0</ele><time>2026-04-19T08:17:51.83Z</time></trkpt><trkpt lat="43.1982108" lon="12.217473"><ele>591.0</ele><time>2026-04-19T08:17:52.824Z</time></trkpt><trkpt lat="43.1982502" lon="12.217382"><ele>591.0</ele><time>2026-04-19T08:17:53.827Z</time></trkpt><trkpt lat="43.1982893" lon="12.2173"><ele>591.0</ele><time>2026-04-19T08:17:54.841Z</time></trkpt><trkpt lat="43.1983222" lon="12.2172225"><ele>591.0</ele><time>2026-04-19T08:17:55.838Z</time></trkpt><trkpt lat="43.1983923" lon="12.217092"><ele>588.8</ele><time>2026-04-19T08:17:57.82Z</time></trkpt><trkpt lat="43.1984537" lon="12.216972"><ele>586.6</ele><time>2026-04-19T08:17:59.824Z</time></trkpt><trkpt lat="43.198521" lon="12.216887"><ele>584.4</ele><time>2026-04-19T08:18:01.866Z</time></trkpt><trkpt lat="43.1986161" lon="12.2168581"><ele>582.2</ele><time>2026-04-19T08:18:03.837Z</time></trkpt><trkpt lat="43.1986933" lon="12.2168596"><ele>580.0</ele><time>2026-04-19T08:18:04.829Z</time></trkpt><trkpt lat="43.1987843" lon="12.2168562"><ele>580.0</ele><time>2026-04-19T08:18:05.838Z</time></trkpt><trkpt lat="43.1988754" lon="12.2168444"><ele>580.0</ele><time>2026-04-19T08:18:06.831Z</time></trkpt><trkpt lat="43.1989625" lon="12.2168317"><ele>580.0</ele><time>2026-04-19T08:18:07.834Z</time></trkpt><trkpt lat="43.1990344" lon="12.2168008"><ele>580.0</ele><time>2026-04-19T08:18:08.837Z</time></trkpt><trkpt lat="43.1991065" lon="12.2167516"><ele>580.0</ele><time>2026-04-19T08:18:09.849Z</time></trkpt><trkpt lat="43.1991799" lon="12.2166963"><ele>580.0</ele><time>2026-04-19T08:18:10.833Z</time></trkpt><trkpt lat="43.1992544" lon="12.2166295"><ele>581.0</ele><time>2026-04-19T08:18:11.841Z</time></trkpt><trkpt lat="43.1993298" lon="12.2165648"><ele>582.0</ele><time>2026-04-19T08:18:12.856Z</time></trkpt><trkpt lat="43.1993929" lon="12.2165188"><ele>583.0</ele><time>2026-04-19T08:18:13.864Z</time></trkpt><trkpt lat="43.1994758" lon="12.2164608"><ele>584.0</ele><time>2026-04-19T08:18:15.836Z</time></trkpt><trkpt lat="43.199565" lon="12.2164315"><ele>585.0</ele><time>2026-04-19T08:18:17.853Z</time></trkpt><trkpt lat="43.1996891" lon="12.2164174"><ele>581.6</ele><time>2026-04-19T08:18:19.84Z</time></trkpt><trkpt lat="43.1997571" lon="12.2164114"><ele>578.2</ele><time>2026-04-19T08:18:20.849Z</time></trkpt><trkpt lat="43.1998707" lon="12.2164303"><ele>574.8</ele><time>2026-04-19T08:18:22.868Z</time></trkpt><trkpt lat="43.1999874" lon="12.2164088"><ele>571.4</ele><time>2026-04-19T08:18:24.846Z</time></trkpt><trkpt lat="43.2000588" lon="12.2163641"><ele>568.0</ele><time>2026-04-19T08:18:25.845Z</time></trkpt><trkpt lat="43.2001356" lon="12.2163088"><ele>567.8571428571429</ele><time>2026-04-19T08:18:26.842Z</time></trkpt><trkpt lat="43.2002077" lon="12.216254"><ele>567.7142857142857</ele><time>2026-04-19T08:18:27.837Z</time></trkpt><trkpt lat="43.2002771" lon="12.2162106"><ele>567.5714285714286</ele><time>2026-04-19T08:18:28.851Z</time></trkpt><trkpt lat="43.2003376" lon="12.2161712"><ele>567.4285714285714</ele><time>2026-04-19T08:18:29.848Z</time></trkpt><trkpt lat="43.2003957" lon="12.2161292"><ele>567.2857142857142</ele><time>2026-04-19T08:18:30.851Z</time></trkpt><trkpt lat="43.2004582" lon="12.2160758"><ele>567.1428571428571</ele><time>2026-04-19T08:18:31.843Z</time></trkpt><trkpt lat="43.2005134" lon="12.2160235"><ele>567.0</ele><time>2026-04-19T08:18:32.865Z</time></trkpt><trkpt lat="43.200567" lon="12.2159632"><ele>567.0</ele><time>2026-04-19T08:18:33.854Z</time></trkpt><trkpt lat="43.2006597" lon="12.2158599"><ele>567.0</ele><time>2026-04-19T08:18:35.854Z</time></trkpt><trkpt lat="43.2007348" lon="12.2157694"><ele>567.0</ele><time>2026-04-19T08:18:37.851Z</time></trkpt><trkpt lat="43.2008119" lon="12.2157152"><ele>567.0</ele><time>2026-04-19T08:18:39.512Z</time></trkpt><trkpt lat="43.2008783" lon="12.2156905"><ele>567.0</ele><time>2026-04-19T08:18:40.521Z</time></trkpt><trkpt lat="43.2009637" lon="12.2156418"><ele>565.6</ele><time>2026-04-19T08:18:41.513Z</time></trkpt><trkpt lat="43.2010561" lon="12.2155875"><ele>564.2</ele><time>2026-04-19T08:18:42.521Z</time></trkpt><trkpt lat="43.201132" lon="12.2155548"><ele>562.8</ele><time>2026-04-19T08:18:43.528Z</time></trkpt><trkpt lat="43.2011938" lon="12.2155268"><ele>561.4</ele><time>2026-04-19T08:18:44.52Z</time></trkpt><trkpt lat="43.2013048" lon="12.2154857"><ele>560.0</ele><time>2026-04-19T08:18:46.521Z</time></trkpt><trkpt lat="43.2014023" lon="12.2154544"><ele>560.0</ele><time>2026-04-19T08:18:48.523Z</time></trkpt><trkpt lat="43.2014986" lon="12.2154136"><ele>560.0</ele><time>2026-04-19T08:18:50.513Z</time></trkpt><trkpt lat="43.2016041" lon="12.2153769"><ele>560.0</ele><time>2026-04-19T08:18:52.522Z</time></trkpt><trkpt lat="43.2016981" lon="12.2153393"><ele>560.0</ele><time>2026-04-19T08:18:54.526Z</time></trkpt><trkpt lat="43.2017878" lon="12.2152673"><ele>560.0</ele><time>2026-04-19T08:18:56.52Z</time></trkpt><trkpt lat="43.2018739" lon="12.2151902"><ele>558.2</ele><time>2026-04-19T08:18:58.523Z</time></trkpt><trkpt lat="43.2019567" lon="12.2151364"><ele>556.4</ele><time>2026-04-19T08:19:00.527Z</time></trkpt><trkpt lat="43.2020448" lon="12.2151075"><ele>554.6</ele><time>2026-04-19T08:19:02.549Z</time></trkpt><trkpt lat="43.2021629" lon="12.2150842"><ele>552.8</ele><time>2026-04-19T08:19:04.522Z</time></trkpt><trkpt lat="43.2022738" lon="12.2150415"><ele>551.0</ele><time>2026-04-19T08:19:06.525Z</time></trkpt><trkpt lat="43.2023759" lon="12.2150064"><ele>549.2</ele><time>2026-04-19T08:19:08.532Z</time></trkpt><trkpt lat="43.2024912" lon="12.214966"><ele>547.4000000000001</ele><time>2026-04-19T08:19:10.532Z</time></trkpt><trkpt lat="43.2026051" lon="12.2149379"><ele>545.6</ele><time>2026-04-19T08:19:12.521Z</time></trkpt><trkpt lat="43.2027106" lon="12.2149159"><ele>543.8000000000001</ele><time>2026-04-19T08:19:14.522Z</time></trkpt><trkpt lat="43.2028091" lon="12.2148912"><ele>542.0</ele><time>2026-04-19T08:19:16.518Z</time></trkpt><trkpt lat="43.202914" lon="12.2148886"><ele>542.0</ele><time>2026-04-19T08:19:18.513Z</time></trkpt><trkpt lat="43.2030118" lon="12.2149043"><ele>542.0</ele><time>2026-04-19T08:19:20.515Z</time></trkpt><trkpt lat="43.203104" lon="12.2149079"><ele>542.0</ele><time>2026-04-19T08:19:22.522Z</time></trkpt><trkpt lat="43.2031909" lon="12.2148783"><ele>542.0</ele><time>2026-04-19T08:19:24.527Z</time></trkpt><trkpt lat="43.2032675" lon="12.2148155"><ele>542.0</ele><time>2026-04-19T08:19:26.521Z</time></trkpt><trkpt lat="43.2033215" lon="12.2147258"><ele>536.6</ele><time>2026-04-19T08:19:28.526Z</time></trkpt><trkpt lat="43.2033555" lon="12.2145995"><ele>531.2</ele><time>2026-04-19T08:19:30.518Z</time></trkpt><trkpt lat="43.2033945" lon="12.2144701"><ele>525.8</ele><time>2026-04-19T08:19:32.522Z</time></trkpt><trkpt lat="43.2034227" lon="12.214343"><ele>520.4</ele><time>2026-04-19T08:19:34.521Z</time></trkpt><trkpt lat="43.2034419" lon="12.2142144"><ele>515.0</ele><time>2026-04-19T08:19:36.519Z</time></trkpt><trkpt lat="43.2034597" lon="12.2141014"><ele>515.0</ele><time>2026-04-19T08:19:38.518Z</time></trkpt><trkpt lat="43.2035015" lon="12.2140135"><ele>515.0</ele><time>2026-04-19T08:19:40.526Z</time></trkpt><trkpt lat="43.2035696" lon="12.2139746"><ele>515.0</ele><time>2026-04-19T08:19:42.531Z</time></trkpt><trkpt lat="43.2036519" lon="12.2139586"><ele>515.0</ele><time>2026-04-19T08:19:44.522Z</time></trkpt><trkpt lat="43.2037328" lon="12.2139481"><ele>515.0</ele><time>2026-04-19T08:19:46.529Z</time></trkpt><trkpt lat="43.2038054" lon="12.2139415"><ele>515.0</ele><time>2026-04-19T08:19:48.529Z</time></trkpt><trkpt lat="43.2038665" lon="12.2139034"><ele>511.4</ele><time>2026-04-19T08:19:50.526Z</time></trkpt><trkpt lat="43.2038883" lon="12.2137748"><ele>507.8</ele><time>2026-04-19T08:19:52.539Z</time></trkpt><trkpt lat="43.2038687" lon="12.2136417"><ele>504.20000000000005</ele><time>2026-04-19T08:19:54.544Z</time></trkpt><trkpt lat="43.2038458" lon="12.2135299"><ele>500.6</ele><time>2026-04-19T08:19:56.511Z</time></trkpt><trkpt lat="43.2038187" lon="12.2134408"><ele>497.0</ele><time>2026-04-19T08:20:03.538Z</time></trkpt><trkpt lat="43.1981518" lon="12.2231742"><ele>519.5</ele><time>2026-04-19T08:16:19.924Z</time></trkpt><trkpt lat="43.1981384" lon="12.2230627"><ele>542.0</ele><time>2026-04-19T08:16:20.894Z</time></trkpt><trkpt lat="43.1981336" lon="12.2229598"><ele>564.5</ele><time>2026-04-19T08:16:21.908Z</time></trkpt><trkpt lat="43.1981412" lon="12.222853"><ele>587.0</ele><time>2026-04-19T08:16:22.905Z</time></trkpt><trkpt lat="43.1981449" lon="12.2227486"><ele>609.5</ele><time>2026-04-19T08:16:23.899Z</time></trkpt><trkpt lat="43.1981492" lon="12.2226317"><ele>632.0</ele><time>2026-04-19T08:16:24.898Z</time></trkpt><trkpt lat="43.1981526" lon="12.2225072"><ele>632.0</ele><time>2026-04-19T08:16:25.894Z</time></trkpt><trkpt lat="43.1981548" lon="12.222384"><ele>632.0</ele><time>2026-04-19T08:16:26.9Z</time></trkpt><trkpt lat="43.1981549" lon="12.2222607"><ele>632.0</ele><time>2026-04-19T08:16:27.906Z</time></trkpt><trkpt lat="43.1981564" lon="12.2221421"><ele>632.0</ele><time>2026-04-19T08:16:28.916Z</time></trkpt><trkpt lat="43.1981588" lon="12.2220263"><ele>632.0</ele><time>2026-04-19T08:16:29.917Z</time></trkpt><trkpt lat="43.1981611" lon="12.2219099"><ele>632.0</ele><time>2026-04-19T08:16:30.906Z</time></trkpt><trkpt lat="43.1981652" lon="12.2217979"><ele>631.6666666666666</ele><time>2026-04-19T08:16:31.906Z</time></trkpt><trkpt lat="43.1981708" lon="12.2217022"><ele>631.3333333333333</ele><time>2026-04-19T08:16:32.913Z</time></trkpt><trkpt lat="43.198189" lon="12.2216154"><ele>631.0</ele><time>2026-04-19T08:16:33.912Z</time></trkpt><trkpt lat="43.1982302" lon="12.2215218"><ele>630.6666666666666</ele><time>2026-04-19T08:16:34.904Z</time></trkpt><trkpt lat="43.1982929" lon="12.2214289"><ele>630.3333333333334</ele><time>2026-04-19T08:16:35.914Z</time></trkpt><trkpt lat="43.1983651" lon="12.2213437"><ele>630.0</ele><time>2026-04-19T08:16:36.922Z</time></trkpt><trkpt lat="43.198435" lon="12.2212709"><ele>630.0</ele><time>2026-04-19T08:16:37.908Z</time></trkpt><trkpt lat="43.19851" lon="12.2211964"><ele>630.0</ele><time>2026-04-19T08:16:38.93Z</time></trkpt><trkpt lat="43.1985794" lon="12.2211226"><ele>630.0</ele><time>2026-04-19T08:16:39.914Z</time></trkpt><trkpt lat="43.1986515" lon="12.2210496"><ele>630.0</ele><time>2026-04-19T08:16:40.907Z</time></trkpt><trkpt lat="43.1987281" lon="12.2209809"><ele>630.0</ele><time>2026-04-19T08:16:41.919Z</time></trkpt><trkpt lat="43.1988083" lon="12.2209064"><ele>630.0</ele><time>2026-04-19T08:16:42.914Z</time></trkpt><trkpt lat="43.1988767" lon="12.2208351"><ele>630.0</ele><time>2026-04-19T08:16:43.909Z</time></trkpt><trkpt lat="43.1989478" lon="12.2207533"><ele>630.0</ele><time>2026-04-19T08:16:44.918Z</time></trkpt><trkpt lat="43.199013" lon="12.2206631"><ele>630.0</ele><time>2026-04-19T08:16:45.906Z</time></trkpt><trkpt lat="43.1990623" lon="12.2205817"><ele>630.0</ele><time>2026-04-19T08:16:46.914Z</time></trkpt><trkpt lat="43.1991078" lon="12.2204977"><ele>630.0</ele><time>2026-04-19T08:16:47.911Z</time></trkpt><trkpt lat="43.1991481" lon="12.2204136"><ele>630.0</ele><time>2026-04-19T08:16:48.918Z</time></trkpt><trkpt lat="43.1991803" lon="12.2203108"><ele>630.0</ele><time>2026-04-19T08:16:49.919Z</time></trkpt><trkpt lat="43.1992004" lon="12.2201916"><ele>630.0</ele><time>2026-04-19T08:16:50.931Z</time></trkpt><trkpt lat="43.1992032" lon="12.2200616"><ele>630.0</ele><time>2026-04-19T08:16:51.901Z</time></trkpt><trkpt lat="43.1991939" lon="12.2199387"><ele>630.0</ele><time>2026-04-19T08:16:52.921Z</time></trkpt><trkpt lat="43.1991672" lon="12.2198283"><ele>630.0</ele><time>2026-04-19T08:16:53.902Z</time></trkpt><trkpt lat="43.1991276" lon="12.2197266"><ele>630.0</ele><time>2026-04-19T08:16:54.927Z</time></trkpt><trkpt lat="43.1990637" lon="12.2196363"><ele>630.0</ele><time>2026-04-19T08:16:55.93Z</time></trkpt><trkpt lat="43.1989914" lon="12.2195668"><ele>630.0</ele><time>2026-04-19T08:16:56.922Z</time></trkpt><trkpt lat="43.1989279" lon="12.2194965"><ele>630.0</ele><time>2026-04-19T08:16:57.914Z</time></trkpt><trkpt lat="43.198875" lon="12.2194285"><ele>630.0</ele><time>2026-04-19T08:16:58.928Z</time></trkpt><trkpt lat="43.1988397" lon="12.2193441"><ele>630.0</ele><time>2026-04-19T08:16:59.928Z</time></trkpt><trkpt lat="43.1988143" lon="12.219249"><ele>627.5</ele><time>2026-04-19T08:17:00.929Z</time></trkpt><trkpt lat="43.1988096" lon="12.2191412"><ele>625.0</ele><time>2026-04-19T08:17:01.917Z</time></trkpt><trkpt lat="43.1988156" lon="12.2190307"><ele>622.5</ele><time>2026-04-19T08:17:02.924Z</time></trkpt><trkpt lat="43.1988272" lon="12.2189263"><ele>620.0</ele><time>2026-04-19T08:17:03.909Z</time></trkpt><trkpt lat="43.198836" lon="12.2188341"><ele>617.5</ele><time>2026-04-19T08:17:04.912Z</time></trkpt><trkpt lat="43.1988241" lon="12.2187432"><ele>615.0</ele><time>2026-04-19T08:17:05.916Z</time></trkpt><trkpt lat="43.198738" lon="12.2186582"><ele>613.8333333333334</ele><time>2026-04-19T08:17:07.918Z</time></trkpt><trkpt lat="43.1986679" lon="12.2186599"><ele>612.6666666666666</ele><time>2026-04-19T08:17:08.917Z</time></trkpt><trkpt lat="43.1985939" lon="12.2186601"><ele>611.5</ele><time>2026-04-19T08:17:09.917Z</time></trkpt><trkpt lat="43.1985062" lon="12.2186945"><ele>610.3333333333333</ele><time>2026-04-19T08:17:10.909Z</time></trkpt><trkpt lat="43.1984168" lon="12.2187604"><ele>609.1666666666666</ele><time>2026-04-19T08:17:11.909Z</time></trkpt><trkpt lat="43.198334" lon="12.2188258"><ele>608.0</ele><time>2026-04-19T08:17:12.918Z</time></trkpt><trkpt lat="43.1982543" lon="12.2188888"><ele>608.0</ele><time>2026-04-19T08:17:13.906Z</time></trkpt><trkpt lat="43.1981888" lon="12.2189411"><ele>608.0</ele><time>2026-04-19T08:17:14.91Z</time></trkpt><trkpt lat="43.1981219" lon="12.2189844"><ele>608.0</ele><time>2026-04-19T08:17:15.916Z</time></trkpt><trkpt lat="43.1980562" lon="12.2189895"><ele>608.0</ele><time>2026-04-19T08:17:16.911Z</time></trkpt><trkpt lat="43.1979867" lon="12.2189602"><ele>608.0</ele><time>2026-04-19T08:17:17.926Z</time></trkpt><trkpt lat="43.1979138" lon="12.218906"><ele>608.0</ele><time>2026-04-19T08:17:18.913Z</time></trkpt><trkpt lat="43.1978459" lon="12.2188186"><ele>606.0</ele><time>2026-04-19T08:17:19.913Z</time></trkpt><trkpt lat="43.1977701" lon="12.2187346"><ele>604.0</ele><time>2026-04-19T08:17:20.928Z</time></trkpt><trkpt lat="43.1976978" lon="12.2186513"><ele>602.0</ele><time>2026-04-19T08:17:21.925Z</time></trkpt><trkpt lat="43.197637" lon="12.2185779"><ele>600.0</ele><time>2026-04-19T08:17:22.927Z</time></trkpt><trkpt lat="43.1975721" lon="12.2184971"><ele>598.0</ele><time>2026-04-19T08:17:23.918Z</time></trkpt><trkpt lat="43.1975192" lon="12.2183987"><ele>598.0</ele><time>2026-04-19T08:17:24.917Z</time></trkpt><trkpt lat="43.1974813" lon="12.2182961"><ele>598.0</ele><time>2026-04-19T08:17:25.948Z</time></trkpt><trkpt lat="43.1974509" lon="12.2181901"><ele>598.0</ele><time>2026-04-19T08:17:26.92Z</time></trkpt><trkpt lat="43.1974187" lon="12.2180943"><ele>598.0</ele><time>2026-04-19T08:17:27.924Z</time></trkpt><trkpt lat="43.1973783" lon="12.2179536"><ele>598.0</ele><time>2026-04-19T08:17:29.932Z</time></trkpt><trkpt lat="43.1973654" lon="12.2178531"><ele>598.0</ele><time>2026-04-19T08:17:31.927Z</time></trkpt><trkpt lat="43.1974134" lon="12.2177392"><ele>596.6</ele><time>2026-04-19T08:17:35.827Z</time></trkpt><trkpt lat="43.1975257" lon="12.2177122"><ele>595.1999999999999</ele><time>2026-04-19T08:17:38.828Z</time></trkpt><trkpt lat="43.1976112" lon="12.2177283"><ele>593.8</ele><time>2026-04-19T08:17:40.828Z</time></trkpt><trkpt lat="43.1977112" lon="12.2177571"><ele>592.4</ele><time>2026-04-19T08:17:42.827Z</time></trkpt><trkpt lat="43.1978259" lon="12.2177921"><ele>591.0</ele><time>2026-04-19T08:17:44.83Z</time></trkpt><trkpt lat="43.19794" lon="12.2178078"><ele>591.0</ele><time>2026-04-19T08:17:46.824Z</time></trkpt><trkpt lat="43.1980401" lon="12.2177812"><ele>591.0</ele><time>2026-04-19T08:17:48.834Z</time></trkpt><trkpt lat="43.1981263" lon="12.217669"><ele>591.0</ele><time>2026-04-19T08:17:50.83Z</time></trkpt><trkpt lat="43.1981637" lon="12.2175749"><ele>591.0</ele><time>2026-04-19T08:17:51.83Z</time></trkpt><trkpt lat="43.1982108" lon="12.217473"><ele>591.0</ele><time>2026-04-19T08:17:52.824Z</time></trkpt><trkpt lat="43.1982502" lon="12.217382"><ele>588.8</ele><time>2026-04-19T08:17:53.827Z</time></trkpt><trkpt lat="43.1982893" lon="12.2173"><ele>586.6</ele><time>2026-04-19T08:17:54.841Z</time></trkpt><trkpt lat="43.1983222" lon="12.2172225"><ele>584.4</ele><time>2026-04-19T08:17:55.838Z</time></trkpt><trkpt lat="43.1983923" lon="12.217092"><ele>582.2</ele><time>2026-04-19T08:17:57.82Z</time></trkpt><trkpt lat="43.1984537" lon="12.216972"><ele>580.0</ele><time>2026-04-19T08:17:59.824Z</time></trkpt><trkpt lat="43.198521" lon="12.216887"><ele>580.0</ele><time>2026-04-19T08:18:01.866Z</time></trkpt><trkpt lat="43.1986161" lon="12.2168581"><ele>580.0</ele><time>2026-04-19T08:18:03.837Z</time></trkpt><trkpt lat="43.1986933" lon="12.2168596"><ele>580.0</ele><time>2026-04-19T08:18:04.829Z</time></trkpt><trkpt lat="43.1987843" lon="12.2168562"><ele>580.0</ele><time>2026-04-19T08:18:05.838Z</time></trkpt><trkpt lat="43.1988754" lon="12.2168444"><ele>580.0</ele><time>2026-04-19T08:18:06.831Z</time></trkpt><trkpt lat="43.1989625" lon="12.2168317"><ele>580.0</ele><time>2026-04-19T08:18:07.834Z</time></trkpt><trkpt lat="43.1990344" lon="12.2168008"><ele>580.8333333333334</ele><time>2026-04-19T08:18:08.837Z</time></trkpt><trkpt lat="43.1991065" lon="12.2167516"><ele>581.6666666666667</ele><time>2026-04-19T08:18:09.849Z</time></trkpt><trkpt lat="43.1991799" lon="12.2166963"><ele>582.5</ele><time>2026-04-19T08:18:10.833Z</time></trkpt><trkpt lat="43.1992544" lon="12.2166295"><ele>583.3333333333334</ele><time>2026-04-19T08:18:11.841Z</time></trkpt><trkpt lat="43.1993298" lon="12.2165648"><ele>584.1666666666666</ele><time>2026-04-19T08:18:12.856Z</time></trkpt><trkpt lat="43.1993929" lon="12.2165188"><ele>585.0</ele><time>2026-04-19T08:18:13.864Z</time></trkpt><trkpt lat="43.1994758" lon="12.2164608"><ele>581.6</ele><time>2026-04-19T08:18:15.836Z</time></trkpt><trkpt lat="43.199565" lon="12.2164315"><ele>578.2</ele><time>2026-04-19T08:18:17.853Z</time></trkpt><trkpt lat="43.1996891" lon="12.2164174"><ele>574.8</ele><time>2026-04-19T08:18:19.84Z</time></trkpt><trkpt lat="43.1997571" lon="12.2164114"><ele>571.4</ele><time>2026-04-19T08:18:20.849Z</time></trkpt><trkpt lat="43.1998707" lon="12.2164303"><ele>568.0</ele><time>2026-04-19T08:18:22.868Z</time></trkpt><trkpt lat="43.1999874" lon="12.2164088"><ele>567.8333333333334</ele><time>2026-04-19T08:18:24.846Z</time></trkpt><trkpt lat="43.2000588" lon="12.2163641"><ele>567.6666666666667</ele><time>2026-04-19T08:18:25.845Z</time></trkpt><trkpt lat="43.2001356" lon="12.2163088"><ele>567.5</ele><time>2026-04-19T08:18:26.842Z</time></trkpt><trkpt lat="43.2002077" lon="12.216254"><ele>567.3333333333334</ele><time>2026-04-19T08:18:27.837Z</time></trkpt><trkpt lat="43.2002771" lon="12.2162106"><ele>567.1666666666666</ele><time>2026-04-19T08:18:28.851Z</time></trkpt><trkpt lat="43.2003376" lon="12.2161712"><ele>567.0</ele><time>2026-04-19T08:18:29.848Z</time></trkpt><trkpt lat="43.2003957" lon="12.2161292"><ele>567.0</ele><time>2026-04-19T08:18:30.851Z</time></trkpt><trkpt lat="43.2004582" lon="12.2160758"><ele>567.0</ele><time>2026-04-19T08:18:31.843Z</time></trkpt><trkpt lat="43.2005134" lon="12.2160235"><ele>567.0</ele><time>2026-04-19T08:18:32.865Z</time></trkpt><trkpt lat="43.200567" lon="12.2159632"><ele>567.0</ele><time>2026-04-19T08:18:33.854Z</time></trkpt><trkpt lat="43.2006597" lon="12.2158599"><ele>567.0</ele><time>2026-04-19T08:18:35.854Z</time></trkpt><trkpt lat="43.2007348" lon="12.2157694"><ele>567.0</ele><time>2026-04-19T08:18:37.851Z</time></trkpt><trkpt lat="43.2008119" lon="12.2157152"><ele>568.1666666666666</ele><time>2026-04-19T08:18:39.512Z</time></trkpt><trkpt lat="43.2008783" lon="12.2156905"><ele>569.3333333333334</ele><time>2026-04-19T08:18:40.521Z</time></trkpt><trkpt lat="43.2009637" lon="12.2156418"><ele>570.5</ele><time>2026-04-19T08:18:41.513Z</time></trkpt><trkpt lat="43.2010561" lon="12.2155875"><ele>571.6666666666667</ele><time>2026-04-19T08:18:42.521Z</time></trkpt><trkpt lat="43.201132" lon="12.2155548"><ele>572.8333333333334</ele><time>2026-04-19T08:18:43.528Z</time></trkpt><trkpt lat="43.2011938" lon="12.2155268"><ele>574.0</ele><time>2026-04-19T08:18:44.52Z</time></trkpt><trkpt lat="43.2013048" lon="12.2154857"><ele>571.2</ele><time>2026-04-19T08:18:46.521Z</time></trkpt><trkpt lat="43.2014023" lon="12.2154544"><ele>568.4</ele><time>2026-04-19T08:18:48.523Z</time></trkpt><trkpt lat="43.2014986" lon="12.2154136"><ele>565.6</ele><time>2026-04-19T08:18:50.513Z</time></trkpt><trkpt lat="43.2016041" lon="12.2153769"><ele>562.8</ele><time>2026-04-19T08:18:52.522Z</time></trkpt><trkpt lat="43.2016981" lon="12.2153393"><ele>560.0</ele><time>2026-04-19T08:18:54.526Z</time></trkpt><trkpt lat="43.2017878" lon="12.2152673"><ele>558.2</ele><time>2026-04-19T08:18:56.52Z</time></trkpt><trkpt lat="43.2018739" lon="12.2151902"><ele>556.4</ele><time>2026-04-19T08:18:58.523Z</time></trkpt><trkpt lat="43.2019567" lon="12.2151364"><ele>554.6</ele><time>2026-04-19T08:19:00.527Z</time></trkpt><trkpt lat="43.2020448" lon="12.2151075"><ele>552.8</ele><time>2026-04-19T08:19:02.549Z</time></trkpt><trkpt lat="43.2021629" lon="12.2150842"><ele>551.0</ele><time>2026-04-19T08:19:04.522Z</time></trkpt><trkpt lat="43.2022738" lon="12.2150415"><ele>549.2</ele><time>2026-04-19T08:19:06.525Z</time></trkpt><trkpt lat="43.2023759" lon="12.2150064"><ele>547.4000000000001</ele><time>2026-04-19T08:19:08.532Z</time></trkpt><trkpt lat="43.2024912" lon="12.214966"><ele>545.6</ele><time>2026-04-19T08:19:10.532Z</time></trkpt><trkpt lat="43.2026051" lon="12.2149379"><ele>543.8000000000001</ele><time>2026-04-19T08:19:12.521Z</time></trkpt><trkpt lat="43.2027106" lon="12.2149159"><ele>542.0</ele><time>2026-04-19T08:19:14.522Z</time></trkpt><trkpt lat="43.2028091" lon="12.2148912"><ele>542.0</ele><time>2026-04-19T08:19:16.518Z</time></trkpt><trkpt lat="43.202914" lon="12.2148886"><ele>542.0</ele><time>2026-04-19T08:19:18.513Z</time></trkpt><trkpt lat="43.2030118" lon="12.2149043"><ele>542.0</ele><time>2026-04-19T08:19:20.515Z</time></trkpt><trkpt lat="43.203104" lon="12.2149079"><ele>542.0</ele><time>2026-04-19T08:19:22.522Z</time></trkpt><trkpt lat="43.2031909" lon="12.2148783"><ele>542.0</ele><time>2026-04-19T08:19:24.527Z</time></trkpt><trkpt lat="43.2032675" lon="12.2148155"><ele>536.6</ele><time>2026-04-19T08:19:26.521Z</time></trkpt><trkpt lat="43.2033215" lon="12.2147258"><ele>531.2</ele><time>2026-04-19T08:19:28.526Z</time></trkpt><trkpt lat="43.2033555" lon="12.2145995"><ele>525.8</ele><time>2026-04-19T08:19:30.518Z</time></trkpt><trkpt lat="43.2033945" lon="12.2144701"><ele>520.4</ele><time>2026-04-19T08:19:32.522Z</time></trkpt><trkpt lat="43.2034227" lon="12.214343"><ele>515.0</ele><time>2026-04-19T08:19:34.521Z</time></trkpt><trkpt lat="43.2034419" lon="12.2142144"><ele>515.0</ele><time>2026-04-19T08:19:36.519Z</time></trkpt><trkpt lat="43.2034597" lon="12.2141014"><ele>515.0</ele><time>2026-04-19T08:19:38.518Z</time></trkpt><trkpt lat="43.2035015" lon="12.2140135"><ele>515.0</ele><time>2026-04-19T08:19:40.526Z</time></trkpt><trkpt lat="43.2035696" lon="12.2139746"><ele>515.0</ele><time>2026-04-19T08:19:42.531Z</time></trkpt><trkpt lat="43.2036519" lon="12.2139586"><ele>515.0</ele><time>2026-04-19T08:19:44.522Z</time></trkpt><trkpt lat="43.2037328" lon="12.2139481"><ele>515.0</ele><time>2026-04-19T08:19:46.529Z</time></trkpt><trkpt lat="43.2038054" lon="12.2139415"><ele>511.99999999999994</ele><time>2026-04-19T08:19:48.529Z</time></trkpt><trkpt lat="43.2038665" lon="12.2139034"><ele>509.0</ele><time>2026-04-19T08:19:50.526Z</time></trkpt><trkpt lat="43.2038883" lon="12.2137748"><ele>506.0</ele><time>2026-04-19T08:19:52.539Z</time></trkpt><trkpt lat="43.2038687" lon="12.2136417"><ele>503.0</ele><time>2026-04-19T08:19:54.544Z</time></trkpt><trkpt lat="43.2038458" lon="12.2135299"><ele>499.99999999999994</ele><time>2026-04-19T08:19:56.511Z</time></trkpt><trkpt lat="43.2038187" lon="12.2134408"><ele>497.0</ele><time>2026-04-19T08:20:03.538Z</time></trkpt><trkpt lat="43.2038804" lon="12.2133931"><ele>496.99999999999994</ele><time>2026-04-19T08:21:47.241Z</time></trkpt><trkpt lat="43.2039429" lon="12.2133574"><ele>497.0</ele><time>2026-04-19T08:21:49.238Z</time></trkpt><trkpt lat="43.2039989" lon="12.2133152"><ele>497.0</ele><time>2026-04-19T08:21:51.255Z</time></trkpt><trkpt lat="43.2040689" lon="12.2132796"><ele>497.0</ele><time>2026-04-19T08:21:53.245Z</time></trkpt><trkpt lat="43.2041521" lon="12.213239"><ele>496.99999999999994</ele><time>2026-04-19T08:21:55.259Z</time></trkpt><trkpt lat="43.2042434" lon="12.2131769"><ele>497.0</ele><time>2026-04-19T08:21:57.256Z</time></trkpt><trkpt lat="43.2043125" lon="12.2131163"><ele>493.8333333333333</ele><time>2026-04-19T08:21:59.239Z</time></trkpt><trkpt lat="43.2043839" lon="12.2130973"><ele>490.66666666666663</ele><time>2026-04-19T08:22:01.248Z</time></trkpt><trkpt lat="43.2044689" lon="12.213071"><ele>487.5</ele><time>2026-04-19T08:22:03.268Z</time></trkpt><trkpt lat="43.2045628" lon="12.2130171"><ele>484.33333333333337</ele><time>2026-04-19T08:22:05.267Z</time></trkpt><trkpt lat="43.2046536" lon="12.2129767"><ele>481.1666666666667</ele><time>2026-04-19T08:22:07.251Z</time></trkpt><trkpt lat="43.2047341" lon="12.2129178"><ele>478.0</ele><time>2026-04-19T08:22:10.284Z</time></trkpt><trkpt lat="43.2047925" lon="12.2128536"><ele>477.4</ele><time>2026-04-19T08:22:12.124Z</time></trkpt><trkpt lat="43.2048992" lon="12.2128096"><ele>476.79999999999995</ele><time>2026-04-19T08:22:14.273Z</time></trkpt><trkpt lat="43.2049956" lon="12.2127673"><ele>476.2</ele><time>2026-04-19T08:22:16.277Z</time></trkpt><trkpt lat="43.2050859" lon="12.2127158"><ele>475.6</ele><time>2026-04-19T08:22:18.871Z</time></trkpt><trkpt lat="43.2051623" lon="12.2126313"><ele>475.0</ele><time>2026-04-19T08:22:20.939Z</time></trkpt><trkpt lat="43.2052305" lon="12.2125536"><ele>475.0</ele><time>2026-04-19T08:22:22.902Z</time></trkpt><trkpt lat="43.2052896" lon="12.2124804"><ele>475.0</ele><time>2026-04-19T08:22:24.874Z</time></trkpt><trkpt lat="43.2053506" lon="12.2124166"><ele>475.0</ele><time>2026-04-19T08:22:26.873Z</time></trkpt><trkpt lat="43.2054426" lon="12.2123763"><ele>475.0</ele><time>2026-04-19T08:22:28.888Z</time></trkpt><trkpt lat="43.2055343" lon="12.2123264"><ele>475.0</ele><time>2026-04-19T08:22:30.885Z</time></trkpt><trkpt lat="43.2056167" lon="12.2122513"><ele>471.6</ele><time>2026-04-19T08:22:32.874Z</time></trkpt><trkpt lat="43.2056891" lon="12.2121878"><ele>468.2</ele><time>2026-04-19T08:22:34.878Z</time></trkpt><trkpt lat="43.2057888" lon="12.2120843"><ele>464.79999999999995</ele><time>2026-04-19T08:22:37.231Z</time></trkpt><trkpt lat="43.2058597" lon="12.2120178"><ele>461.4</ele><time>2026-04-19T08:22:39.208Z</time></trkpt><trkpt lat="43.2059565" lon="12.2119522"><ele>458.0</ele><time>2026-04-19T08:22:42.225Z</time></trkpt><trkpt lat="43.2060136" lon="12.2118959"><ele>457.99999999999994</ele><time>2026-04-19T08:22:44.16Z</time></trkpt><trkpt lat="43.2060624" lon="12.2117941"><ele>458.0</ele><time>2026-04-19T08:22:47.125Z</time></trkpt><trkpt lat="43.2061101" lon="12.2117092"><ele>458.0</ele><time>2026-04-19T08:22:49.083Z</time></trkpt><trkpt lat="43.2062001" lon="12.2116559"><ele>458.0</ele><time>2026-04-19T08:22:51.131Z</time></trkpt><trkpt lat="43.2062686" lon="12.2116331"><ele>457.99999999999994</ele><time>2026-04-19T08:22:53.13Z</time></trkpt><trkpt lat="43.2063334" lon="12.2115467"><ele>458.0</ele><time>2026-04-19T08:22:55.139Z</time></trkpt><trkpt lat="43.2064066" lon="12.2114976"><ele>456.3333333333333</ele><time>2026-04-19T08:22:57.13Z</time></trkpt><trkpt lat="43.2064816" lon="12.2114697"><ele>454.66666666666663</ele><time>2026-04-19T08:22:59.151Z</time></trkpt><trkpt lat="43.2065595" lon="12.2114449"><ele>453.0</ele><time>2026-04-19T08:23:01.137Z</time></trkpt><trkpt lat="43.2066225" lon="12.2113888"><ele>451.33333333333337</ele><time>2026-04-19T08:23:03.148Z</time></trkpt><trkpt lat="43.2066554" lon="12.2112972"><ele>449.6666666666667</ele><time>2026-04-19T08:23:05.146Z</time></trkpt><trkpt lat="43.2066843" lon="12.2111569"><ele>448.0</ele><time>2026-04-19T08:23:08.152Z</time></trkpt><trkpt lat="43.2067127" lon="12.2110304"><ele>446.2</ele><time>2026-04-19T08:23:10.148Z</time></trkpt><trkpt lat="43.2067543" lon="12.2109586"><ele>444.4</ele><time>2026-04-19T08:23:12.147Z</time></trkpt><trkpt lat="43.2068216" lon="12.2108875"><ele>442.59999999999997</ele><time>2026-04-19T08:23:14.148Z</time></trkpt><trkpt lat="43.2068727" lon="12.2107954"><ele>440.79999999999995</ele><time>2026-04-19T08:23:16.162Z</time></trkpt><trkpt lat="43.2069318" lon="12.2106721"><ele>439.0</ele><time>2026-04-19T08:23:18.152Z</time></trkpt><trkpt lat="43.2070011" lon="12.2105336"><ele>436.75</ele><time>2026-04-19T08:23:20.156Z</time></trkpt><trkpt lat="43.2070799" lon="12.2104123"><ele>434.5</ele><time>2026-04-19T08:23:22.175Z</time></trkpt><trkpt lat="43.2071358" lon="12.2102523"><ele>432.25</ele><time>2026-04-19T08:23:24.159Z</time></trkpt><trkpt lat="43.2071841" lon="12.2101224"><ele>430.0</ele><time>2026-04-19T08:23:26.161Z</time></trkpt><trkpt lat="43.2072409" lon="12.2099976"><ele>430.0</ele><time>2026-04-19T08:23:28.155Z</time></trkpt><trkpt lat="43.2072796" lon="12.2098792"><ele>430.0</ele><time>2026-04-19T08:23:30.744Z</time></trkpt><trkpt lat="43.2072863" lon="12.2097844"><ele>430.0</ele><time>2026-04-19T08:23:32.74Z</time></trkpt><trkpt lat="43.2072498" lon="12.2096935"><ele>430.0</ele><time>2026-04-19T08:23:36.742Z</time></trkpt><trkpt lat="43.2071954" lon="12.2096333"><ele>430.0</ele><time>2026-04-19T08:23:38.741Z</time></trkpt><trkpt lat="43.2071668" lon="12.209548"><ele>430.0</ele><time>2026-04-19T08:23:40.748Z</time></trkpt><trkpt lat="43.2071746" lon="12.2094581"><ele>430.0</ele><time>2026-04-19T08:23:42.752Z</time></trkpt><trkpt lat="43.2072244" lon="12.2093513"><ele>428.2</ele><time>2026-04-19T08:23:44.753Z</time></trkpt><trkpt lat="43.2072879" lon="12.2092157"><ele>426.4</ele><time>2026-04-19T08:23:46.757Z</time></trkpt><trkpt lat="43.2073835" lon="12.209104"><ele>424.6</ele><time>2026-04-19T08:23:48.752Z</time></trkpt><trkpt lat="43.2074486" lon="12.2090506"><ele>422.8</ele><time>2026-04-19T08:23:49.759Z</time></trkpt><trkpt lat="43.2075137" lon="12.2090015"><ele>421.0</ele><time>2026-04-19T08:23:50.76Z</time></trkpt><trkpt lat="43.2076271" lon="12.2089205"><ele>417.25</ele><time>2026-04-19T08:23:52.755Z</time></trkpt><trkpt lat="43.2077209" lon="12.2088108"><ele>413.5</ele><time>2026-04-19T08:23:54.757Z</time></trkpt><trkpt lat="43.2077885" lon="12.2087062"><ele>409.75</ele><time>2026-04-19T08:23:56.779Z</time></trkpt><trkpt lat="43.2078101" lon="12.2085507"><ele>406.0</ele><time>2026-04-19T08:23:58.773Z</time></trkpt><trkpt lat="43.2078152" lon="12.2083948"><ele>406.0</ele><time>2026-04-19T08:24:00.764Z</time></trkpt><trkpt lat="43.2078461" lon="12.2082519"><ele>406.0</ele><time>2026-04-19T08:24:02.778Z</time></trkpt><trkpt lat="43.2078983" lon="12.2081442"><ele>406.0</ele><time>2026-04-19T08:24:04.765Z</time></trkpt><trkpt lat="43.2079415" lon="12.208079"><ele>406.0</ele><time>2026-04-19T08:24:05.768Z</time></trkpt><trkpt lat="43.2080234" lon="12.2080035"><ele>406.0</ele><time>2026-04-19T08:24:07.759Z</time></trkpt><trkpt lat="43.2081119" lon="12.2080038"><ele>405.0</ele><time>2026-04-19T08:24:09.8Z</time></trkpt><trkpt lat="43.2082128" lon="12.2080162"><ele>404.0</ele><time>2026-04-19T08:24:11.801Z</time></trkpt><trkpt lat="43.2083075" lon="12.2079528"><ele>403.0</ele><time>2026-04-19T08:24:13.788Z</time></trkpt><trkpt lat="43.2083962" lon="12.2078703"><ele>402.0</ele><time>2026-04-19T08:24:15.782Z</time></trkpt><trkpt lat="43.2084886" lon="12.2077683"><ele>401.0</ele><time>2026-04-19T08:24:17.785Z</time></trkpt><trkpt lat="43.2085729" lon="12.207643"><ele>401.0</ele><time>2026-04-19T08:24:19.803Z</time></trkpt><trkpt lat="43.2086504" lon="12.2075115"><ele>401.0</ele><time>2026-04-19T08:24:21.798Z</time></trkpt><trkpt lat="43.2087436" lon="12.2074195"><ele>401.0</ele><time>2026-04-19T08:24:23.808Z</time></trkpt><trkpt lat="43.2087986" lon="12.2073629"><ele>401.0</ele><time>2026-04-19T08:24:24.796Z</time></trkpt><trkpt lat="43.2088587" lon="12.207301"><ele>401.0</ele><time>2026-04-19T08:24:25.793Z</time></trkpt><trkpt lat="43.2089184" lon="12.2072405"><ele>398.8333333333333</ele><time>2026-04-19T08:24:26.806Z</time></trkpt><trkpt lat="43.2089809" lon="12.2071755"><ele>396.66666666666663</ele><time>2026-04-19T08:24:27.811Z</time></trkpt><trkpt lat="43.2090587" lon="12.2071077"><ele>394.5</ele><time>2026-04-19T08:24:28.799Z</time></trkpt><trkpt lat="43.209131" lon="12.2070394"><ele>392.33333333333337</ele><time>2026-04-19T08:24:29.794Z</time></trkpt><trkpt lat="43.2092068" lon="12.2069752"><ele>390.1666666666667</ele><time>2026-04-19T08:24:30.807Z</time></trkpt><trkpt lat="43.209285" lon="12.2069087"><ele>388.0</ele><time>2026-04-19T08:24:31.828Z</time></trkpt><trkpt lat="43.2093573" lon="12.2068487"><ele>388.0</ele><time>2026-04-19T08:24:32.815Z</time></trkpt><trkpt lat="43.2094335" lon="12.2067902"><ele>388.0</ele><time>2026-04-19T08:24:33.893Z</time></trkpt><trkpt lat="43.2095763" lon="12.2066721"><ele>388.0</ele><time>2026-04-19T08:24:35.72Z</time></trkpt><trkpt lat="43.2096518" lon="12.2065978"><ele>388.0</ele><time>2026-04-19T08:24:36.706Z</time></trkpt><trkpt lat="43.2097226" lon="12.2065292"><ele>388.0</ele><time>2026-04-19T08:24:37.718Z</time></trkpt><trkpt lat="43.2097947" lon="12.2064631"><ele>387.1666666666667</ele><time>2026-04-19T08:24:38.703Z</time></trkpt><trkpt lat="43.209873" lon="12.2063938"><ele>386.33333333333337</ele><time>2026-04-19T08:24:39.712Z</time></trkpt><trkpt lat="43.2099502" lon="12.2063208"><ele>385.5</ele><time>2026-04-19T08:24:40.714Z</time></trkpt><trkpt lat="43.2100195" lon="12.2062465"><ele>384.6666666666667</ele><time>2026-04-19T08:24:41.715Z</time></trkpt><trkpt lat="43.2100841" lon="12.2061762"><ele>383.83333333333337</ele><time>2026-04-19T08:24:42.703Z</time></trkpt><trkpt lat="43.2101395" lon="12.2061111"><ele>383.0</ele><time>2026-04-19T08:24:43.718Z</time></trkpt><trkpt lat="43.2101822" lon="12.2060353"><ele>383.0</ele><time>2026-04-19T08:24:44.698Z</time></trkpt><trkpt lat="43.2102198" lon="12.2059388"><ele>383.0</ele><time>2026-04-19T08:24:45.727Z</time></trkpt><trkpt lat="43.2102687" lon="12.2058344"><ele>383.0</ele><time>2026-04-19T08:24:46.73Z</time></trkpt><trkpt lat="43.2103291" lon="12.2057288"><ele>383.0</ele><time>2026-04-19T08:24:47.714Z</time></trkpt><trkpt lat="43.210398" lon="12.205628"><ele>383.0</ele><time>2026-04-19T08:24:48.708Z</time></trkpt><trkpt lat="43.2104695" lon="12.2055306"><ele>381.59999999999997</ele><time>2026-04-19T08:24:49.719Z</time></trkpt><trkpt lat="43.210541" lon="12.2054345"><ele>380.2</ele><time>2026-04-19T08:24:50.719Z</time></trkpt><trkpt lat="43.2106055" lon="12.2053503"><ele>378.8</ele><time>2026-04-19T08:24:51.715Z</time></trkpt><trkpt lat="43.2106795" lon="12.2052666"><ele>377.4</ele><time>2026-04-19T08:24:52.718Z</time></trkpt><trkpt lat="43.2107626" lon="12.2051861"><ele>376.0</ele><time>2026-04-19T08:24:53.715Z</time></trkpt><trkpt lat="43.2108493" lon="12.2051021"><ele>376.0</ele><time>2026-04-19T08:24:54.731Z</time></trkpt><trkpt lat="43.2109337" lon="12.2050032"><ele>376.0</ele><time>2026-04-19T08:24:55.73Z</time></trkpt><trkpt lat="43.2110092" lon="12.2049054"><ele>376.0</ele><time>2026-04-19T08:24:56.716Z</time></trkpt><trkpt lat="43.2110818" lon="12.2048015"><ele>376.0</ele><time>2026-04-19T08:24:57.713Z</time></trkpt><trkpt lat="43.2111518" lon="12.2047105"><ele>376.0</ele><time>2026-04-19T08:24:58.733Z</time></trkpt><trkpt lat="43.211216" lon="12.2046446"><ele>374.8333333333333</ele><time>2026-04-19T08:24:59.719Z</time></trkpt><trkpt lat="43.2112788" lon="12.2045887"><ele>373.66666666666663</ele><time>2026-04-19T08:25:00.72Z</time></trkpt><trkpt lat="43.2113306" lon="12.2045118"><ele>372.5</ele><time>2026-04-19T08:25:01.742Z</time></trkpt><trkpt lat="43.2113728" lon="12.2044057"><ele>371.3333333333333</ele><time>2026-04-19T08:25:02.719Z</time></trkpt><trkpt lat="43.211405" lon="12.2042809"><ele>370.1666666666667</ele><time>2026-04-19T08:25:03.728Z</time></trkpt><trkpt lat="43.2114301" lon="12.2041591"><ele>369.0</ele><time>2026-04-19T08:25:04.728Z</time></trkpt><trkpt lat="43.2114547" lon="12.2040378"><ele>369.5</ele><time>2026-04-19T08:25:05.739Z</time></trkpt><trkpt lat="43.2114767" lon="12.2039194"><ele>370.0</ele><time>2026-04-19T08:25:06.732Z</time></trkpt><trkpt lat="43.211495" lon="12.2038099"><ele>370.5</ele><time>2026-04-19T08:25:07.738Z</time></trkpt><trkpt lat="43.2115164" lon="12.203702"><ele>371.0</ele><time>2026-04-19T08:25:08.76Z</time></trkpt><trkpt lat="43.2115437" lon="12.2035924"><ele>371.5</ele><time>2026-04-19T08:25:09.739Z</time></trkpt><trkpt lat="43.2115712" lon="12.2034914"><ele>372.0</ele><time>2026-04-19T08:25:10.739Z</time></trkpt><trkpt lat="43.2116086" lon="12.2033954"><ele>372.0</ele><time>2026-04-19T08:25:11.729Z</time></trkpt><trkpt lat="43.2116523" lon="12.2033001"><ele>372.0</ele><time>2026-04-19T08:25:12.743Z</time></trkpt><trkpt lat="43.2116912" lon="12.2032009"><ele>372.0</ele><time>2026-04-19T08:25:13.742Z</time></trkpt><trkpt lat="43.2117436" lon="12.2030971"><ele>372.0</ele><time>2026-04-19T08:25:14.737Z</time></trkpt><trkpt lat="43.2118053" lon="12.2029796"><ele>372.0</ele><time>2026-04-19T08:25:15.739Z</time></trkpt><trkpt lat="43.2118683" lon="12.2028659"><ele>370.0</ele><time>2026-04-19T08:25:16.745Z</time></trkpt><trkpt lat="43.211924" lon="12.2027631"><ele>368.0</ele><time>2026-04-19T08:25:17.756Z</time></trkpt><trkpt lat="43.2119774" lon="12.2026621"><ele>366.0</ele><time>2026-04-19T08:25:18.751Z</time></trkpt><trkpt lat="43.2120246" lon="12.2025704"><ele>364.0</ele><time>2026-04-19T08:25:19.755Z</time></trkpt><trkpt lat="43.2120724" lon="12.2024843"><ele>362.0</ele><time>2026-04-19T08:25:20.767Z</time></trkpt><trkpt lat="43.2121196" lon="12.2023988"><ele>360.0</ele><time>2026-04-19T08:25:21.758Z</time></trkpt><trkpt lat="43.2121632" lon="12.2023208"><ele>359.7142857142857</ele><time>2026-04-19T08:25:22.789Z</time></trkpt><trkpt lat="43.2122059" lon="12.2022394"><ele>359.42857142857144</ele><time>2026-04-19T08:25:23.769Z</time></trkpt><trkpt lat="43.2122481" lon="12.202162"><ele>359.14285714285717</ele><time>2026-04-19T08:25:24.277Z</time></trkpt><trkpt lat="43.2122909" lon="12.202086"><ele>358.8571428571429</ele><time>2026-04-19T08:25:25.287Z</time></trkpt><trkpt lat="43.2123344" lon="12.2020078"><ele>358.57142857142856</ele><time>2026-04-19T08:25:26.302Z</time></trkpt><trkpt lat="43.2123813" lon="12.2019296"><ele>358.28571428571433</ele><time>2026-04-19T08:25:27.28Z</time></trkpt><trkpt lat="43.2124284" lon="12.2018504"><ele>358.0</ele><time>2026-04-19T08:25:28.294Z</time></trkpt><trkpt lat="43.2124698" lon="12.2017772"><ele>358.00000000000006</ele><time>2026-04-19T08:25:29.29Z</time></trkpt><trkpt lat="43.2125118" lon="12.2017089"><ele>358.0</ele><time>2026-04-19T08:25:30.288Z</time></trkpt><trkpt lat="43.212554" lon="12.2016365"><ele>358.0</ele><time>2026-04-19T08:25:31.292Z</time></trkpt><trkpt lat="43.212596" lon="12.2015644"><ele>358.0</ele><time>2026-04-19T08:25:32.293Z</time></trkpt><trkpt lat="43.2126402" lon="12.2014924"><ele>358.0</ele><time>2026-04-19T08:25:33.302Z</time></trkpt><trkpt lat="43.212684" lon="12.2014243"><ele>358.00000000000006</ele><time>2026-04-19T08:25:34.293Z</time></trkpt><trkpt lat="43.2127283" lon="12.2013588"><ele>358.0</ele><time>2026-04-19T08:25:35.296Z</time></trkpt><trkpt lat="43.212808" lon="12.2012319"><ele>356.5</ele><time>2026-04-19T08:25:37.304Z</time></trkpt><trkpt lat="43.2128628" lon="12.2011287"><ele>355.0</ele><time>2026-04-19T08:25:39.298Z</time></trkpt><trkpt lat="43.2129015" lon="12.2010472"><ele>353.5</ele><time>2026-04-19T08:25:42.322Z</time></trkpt><trkpt lat="43.2128285" lon="12.2010484"><ele>352.0</ele><time>2026-04-19T08:26:38.027Z</time></trkpt><trkpt lat="43.2127549" lon="12.2010718"><ele>350.5</ele><time>2026-04-19T08:26:40.035Z</time></trkpt><trkpt lat="43.212674" lon="12.201062"><ele>349.0</ele><time>2026-04-19T08:26:42.029Z</time></trkpt><trkpt lat="43.2125928" lon="12.2010225"><ele>348.99999999999994</ele><time>2026-04-19T08:27:09.608Z</time></trkpt><trkpt lat="43.212533" lon="12.200984"><ele>349.0</ele><time>2026-04-19T08:27:11.604Z</time></trkpt><trkpt lat="43.2124911" lon="12.2009089"><ele>349.0</ele><time>2026-04-19T08:27:13.627Z</time></trkpt><trkpt lat="43.2124825" lon="12.2008046"><ele>349.0</ele><time>2026-04-19T08:27:15.611Z</time></trkpt><trkpt lat="43.2124933" lon="12.2006996"><ele>349.0</ele><time>2026-04-19T08:27:17.621Z</time></trkpt><trkpt lat="43.2124875" lon="12.2006043"><ele>348.99999999999994</ele><time>2026-04-19T08:27:20.632Z</time></trkpt><trkpt lat="43.2124887" lon="12.2007142"><ele>349.0</ele><time>2026-04-19T08:33:54.648Z</time></trkpt><trkpt lat="43.2125071" lon="12.200841"><ele>349.0</ele><time>2026-04-19T08:33:56.643Z</time></trkpt><trkpt lat="43.2125342" lon="12.2009592"><ele>349.0</ele><time>2026-04-19T08:33:58.641Z</time></trkpt><trkpt lat="43.2125922" lon="12.201011"><ele>349.0</ele><time>2026-04-19T08:34:00.651Z</time></trkpt><trkpt lat="43.2126773" lon="12.2010526"><ele>349.0</ele><time>2026-04-19T08:34:02.687Z</time></trkpt><trkpt lat="43.2127643" lon="12.2010678"><ele>349.0</ele><time>2026-04-19T08:34:04.666Z</time></trkpt><trkpt lat="43.2128356" lon="12.201061"><ele>349.0</ele><time>2026-04-19T08:34:06.661Z</time></trkpt><trkpt lat="43.2129296" lon="12.200989"><ele>349.0</ele><time>2026-04-19T08:34:08.657Z</time></trkpt><trkpt lat="43.2129972" lon="12.2009072"><ele>349.0</ele><time>2026-04-19T08:34:10.79Z</time></trkpt><trkpt lat="43.2130424" lon="12.2008313"><ele>349.0</ele><time>2026-04-19T08:34:12.677Z</time></trkpt><trkpt lat="43.2131134" lon="12.2007859"><ele>349.0</ele><time>2026-04-19T08:34:14.677Z</time></trkpt><trkpt lat="43.2132284" lon="12.2007273"><ele>349.0</ele><time>2026-04-19T08:34:16.688Z</time></trkpt><trkpt lat="43.2132904" lon="12.2006887"><ele>349.0</ele><time>2026-04-19T08:34:17.667Z</time></trkpt><trkpt lat="43.2133494" lon="12.2006502"><ele>349.8333333333333</ele><time>2026-04-19T08:34:18.669Z</time></trkpt><trkpt lat="43.2134126" lon="12.2006138"><ele>350.66666666666663</ele><time>2026-04-19T08:34:19.677Z</time></trkpt><trkpt lat="43.21347" lon="12.2005774"><ele>351.5</ele><time>2026-04-19T08:34:20.704Z</time></trkpt><trkpt lat="43.2135335" lon="12.2005449"><ele>352.3333333333333</ele><time>2026-04-19T08:34:21.696Z</time></trkpt><trkpt lat="43.2135955" lon="12.2005136"><ele>353.1666666666667</ele><time>2026-04-19T08:34:22.679Z</time></trkpt><trkpt lat="43.213658" lon="12.2004787"><ele>354.0</ele><time>2026-04-19T08:34:23.708Z</time></trkpt><trkpt lat="43.2137652" lon="12.2004075"><ele>354.0</ele><time>2026-04-19T08:34:25.704Z</time></trkpt><trkpt lat="43.2138573" lon="12.2003354"><ele>354.0</ele><time>2026-04-19T08:34:27.685Z</time></trkpt><trkpt lat="43.213929" lon="12.2002589"><ele>354.0</ele><time>2026-04-19T08:34:29.699Z</time></trkpt><trkpt lat="43.2139928" lon="12.2001886"><ele>354.0</ele><time>2026-04-19T08:34:31.634Z</time></trkpt><trkpt lat="43.214064" lon="12.2001999"><ele>354.0</ele><time>2026-04-19T08:34:33.629Z</time></trkpt><trkpt lat="43.2141104" lon="12.2002872"><ele>354.0</ele><time>2026-04-19T08:34:35.629Z</time></trkpt><trkpt lat="43.2141157" lon="12.2004137"><ele>353.25</ele><time>2026-04-19T08:34:37.689Z</time></trkpt><trkpt lat="43.2141225" lon="12.200647"><ele>352.5</ele><time>2026-04-19T08:34:40.635Z</time></trkpt><trkpt lat="43.2141034" lon="12.200794"><ele>351.75</ele><time>2026-04-19T08:34:42.625Z</time></trkpt><trkpt lat="43.214038" lon="12.2009278"><ele>351.0</ele><time>2026-04-19T08:34:44.695Z</time></trkpt><trkpt lat="43.2139848" lon="12.2009946"><ele>351.0</ele><time>2026-04-19T08:34:45.657Z</time></trkpt><trkpt lat="43.2139145" lon="12.2010635"><ele>351.0</ele><time>2026-04-19T08:34:46.62Z</time></trkpt><trkpt lat="43.2138575" lon="12.2011174"><ele>351.0</ele><time>2026-04-19T08:34:47.626Z</time></trkpt><trkpt lat="43.2137865" lon="12.2012478"><ele>351.0</ele><time>2026-04-19T08:34:49.666Z</time></trkpt><trkpt lat="43.2137625" lon="12.2013894"><ele>351.0</ele><time>2026-04-19T08:34:51.664Z</time></trkpt><trkpt lat="43.2137768" lon="12.201522"><ele>350.4</ele><time>2026-04-19T08:34:53.66Z</time></trkpt><trkpt lat="43.2138448" lon="12.2016582"><ele>349.8</ele><time>2026-04-19T08:34:55.713Z</time></trkpt><trkpt lat="43.2138862" lon="12.2017452"><ele>349.2</ele><time>2026-04-19T08:34:56.66Z</time></trkpt><trkpt lat="43.2139564" lon="12.2018834"><ele>348.59999999999997</ele><time>2026-04-19T08:34:58.664Z</time></trkpt><trkpt lat="43.2140158" lon="12.2020261"><ele>348.0</ele><time>2026-04-19T08:35:00.679Z</time></trkpt><trkpt lat="43.2140748" lon="12.2021571"><ele>345.1666666666667</ele><time>2026-04-19T08:35:02.687Z</time></trkpt><trkpt lat="43.2141548" lon="12.2022487"><ele>342.3333333333333</ele><time>2026-04-19T08:35:04.651Z</time></trkpt><trkpt lat="43.2142472" lon="12.2023197"><ele>339.5</ele><time>2026-04-19T08:35:06.701Z</time></trkpt><trkpt lat="43.2143089" lon="12.202349"><ele>336.66666666666663</ele><time>2026-04-19T08:35:07.693Z</time></trkpt><trkpt lat="43.2143784" lon="12.2023802"><ele>333.8333333333333</ele><time>2026-04-19T08:35:08.691Z</time></trkpt><trkpt lat="43.214443" lon="12.202412"><ele>331.0</ele><time>2026-04-19T08:35:09.671Z</time></trkpt><trkpt lat="43.2145553" lon="12.2024559"><ele>330.5</ele><time>2026-04-19T08:35:11.666Z</time></trkpt><trkpt lat="43.2146132" lon="12.202491"><ele>330.0</ele><time>2026-04-19T08:35:12.694Z</time></trkpt><trkpt lat="43.2147148" lon="12.202551"><ele>329.5</ele><time>2026-04-19T08:35:14.763Z</time></trkpt><trkpt lat="43.2147821" lon="12.2025845"><ele>329.0</ele><time>2026-04-19T08:35:15.721Z</time></trkpt><trkpt lat="43.2148657" lon="12.2026402"><ele>328.5</ele><time>2026-04-19T08:35:16.699Z</time></trkpt><trkpt lat="43.2149593" lon="12.202687"><ele>328.0</ele><time>2026-04-19T08:35:17.703Z</time></trkpt><trkpt lat="43.2150468" lon="12.2027241"><ele>327.16666666666663</ele><time>2026-04-19T08:35:18.721Z</time></trkpt><trkpt lat="43.2151185" lon="12.2027557"><ele>326.3333333333333</ele><time>2026-04-19T08:35:19.704Z</time></trkpt><trkpt lat="43.2151942" lon="12.2027906"><ele>325.5</ele><time>2026-04-19T08:35:20.765Z</time></trkpt><trkpt lat="43.2152764" lon="12.2028237"><ele>324.6666666666667</ele><time>2026-04-19T08:35:21.7Z</time></trkpt><trkpt lat="43.215365" lon="12.2028473"><ele>323.83333333333337</ele><time>2026-04-19T08:35:22.705Z</time></trkpt><trkpt lat="43.2154536" lon="12.2028534"><ele>323.0</ele><time>2026-04-19T08:35:23.712Z</time></trkpt><trkpt lat="43.2155535" lon="12.2028453"><ele>322.0</ele><time>2026-04-19T08:35:24.732Z</time></trkpt><trkpt lat="43.2156623" lon="12.2028268"><ele>321.0</ele><time>2026-04-19T08:35:25.686Z</time></trkpt><trkpt lat="43.2157782" lon="12.2028061"><ele>320.0</ele><time>2026-04-19T08:35:26.703Z</time></trkpt><trkpt lat="43.215894" lon="12.2027876"><ele>319.0</ele><time>2026-04-19T08:35:27.692Z</time></trkpt><trkpt lat="43.2160098" lon="12.2027632"><ele>319.0</ele><time>2026-04-19T08:35:28.715Z</time></trkpt><trkpt lat="43.2161287" lon="12.2027385"><ele>319.0</ele><time>2026-04-19T08:35:29.789Z</time></trkpt><trkpt lat="43.2162461" lon="12.202713"><ele>319.0</ele><time>2026-04-19T08:35:30.706Z</time></trkpt><trkpt lat="43.2163565" lon="12.2026921"><ele>319.0</ele><time>2026-04-19T08:35:31.708Z</time></trkpt><trkpt lat="43.2164555" lon="12.2026698"><ele>318.16666666666663</ele><time>2026-04-19T08:35:32.709Z</time></trkpt><trkpt lat="43.2165513" lon="12.2026507"><ele>317.3333333333333</ele><time>2026-04-19T08:35:33.654Z</time></trkpt><trkpt lat="43.2166364" lon="12.2026336"><ele>316.5</ele><time>2026-04-19T08:35:34.6Z</time></trkpt><trkpt lat="43.2167107" lon="12.2026157"><ele>315.6666666666667</ele><time>2026-04-19T08:35:35.645Z</time></trkpt><trkpt lat="43.2167756" lon="12.2026001"><ele>314.83333333333337</ele><time>2026-04-19T08:35:36.605Z</time></trkpt><trkpt lat="43.2168796" lon="12.202545"><ele>314.0</ele><time>2026-04-19T08:35:38.642Z</time></trkpt><trkpt lat="43.2169663" lon="12.202447"><ele>314.0</ele><time>2026-04-19T08:35:40.591Z</time></trkpt><trkpt lat="43.2170733" lon="12.2023444"><ele>314.0</ele><time>2026-04-19T08:35:42.601Z</time></trkpt><trkpt lat="43.2171403" lon="12.2023093"><ele>314.0</ele><time>2026-04-19T08:35:43.601Z</time></trkpt><trkpt lat="43.2172228" lon="12.2022837"><ele>314.0</ele><time>2026-04-19T08:35:44.616Z</time></trkpt><trkpt lat="43.2173204" lon="12.2022635"><ele>314.0</ele><time>2026-04-19T08:35:45.626Z</time></trkpt><trkpt lat="43.2174419" lon="12.2022495"><ele>314.0</ele><time>2026-04-19T08:35:46.639Z</time></trkpt><trkpt lat="43.2175658" lon="12.2022349"><ele>314.0</ele><time>2026-04-19T08:35:47.617Z</time></trkpt><trkpt lat="43.2176874" lon="12.2022199"><ele>314.0</ele><time>2026-04-19T08:35:48.601Z</time></trkpt><trkpt lat="43.2178088" lon="12.2022031"><ele>314.0</ele><time>2026-04-19T08:35:49.624Z</time></trkpt><trkpt lat="43.2179333" lon="12.2021858"><ele>314.0</ele><time>2026-04-19T08:35:50.639Z</time></trkpt><trkpt lat="43.2180557" lon="12.2021731"><ele>314.0</ele><time>2026-04-19T08:35:51.686Z</time></trkpt><trkpt lat="43.2181747" lon="12.202156"><ele>314.0</ele><time>2026-04-19T08:35:52.626Z</time></trkpt><trkpt lat="43.2182929" lon="12.2021388"><ele>314.0</ele><time>2026-04-19T08:35:53.661Z</time></trkpt><trkpt lat="43.2184051" lon="12.2021236"><ele>314.0</ele><time>2026-04-19T08:35:54.678Z</time></trkpt><trkpt lat="43.2185091" lon="12.2021099"><ele>314.0</ele><time>2026-04-19T08:35:55.645Z</time></trkpt><trkpt lat="43.2186003" lon="12.2020956"><ele>314.0</ele><time>2026-04-19T08:35:56.633Z</time></trkpt><trkpt lat="43.2186798" lon="12.2020709"><ele>314.0</ele><time>2026-04-19T08:35:57.658Z</time></trkpt><trkpt lat="43.2187554" lon="12.2020354"><ele>314.0</ele><time>2026-04-19T08:35:58.635Z</time></trkpt><trkpt lat="43.2188456" lon="12.2019863"><ele>314.0</ele><time>2026-04-19T08:35:59.657Z</time></trkpt><trkpt lat="43.2189497" lon="12.2019265"><ele>314.0</ele><time>2026-04-19T08:36:00.681Z</time></trkpt><trkpt lat="43.2190536" lon="12.2018579"><ele>314.0</ele><time>2026-04-19T08:36:01.698Z</time></trkpt><trkpt lat="43.2191526" lon="12.201787"><ele>314.0</ele><time>2026-04-19T08:36:02.681Z</time></trkpt><trkpt lat="43.2192461" lon="12.2017166"><ele>314.0</ele><time>2026-04-19T08:36:03.728Z</time></trkpt><trkpt lat="43.2193343" lon="12.2016587"><ele>314.2</ele><time>2026-04-19T08:36:04.722Z</time></trkpt><trkpt lat="43.2194098" lon="12.2016097"><ele>314.4</ele><time>2026-04-19T08:36:05.697Z</time></trkpt><trkpt lat="43.2194703" lon="12.2015779"><ele>314.6</ele><time>2026-04-19T08:36:06.744Z</time></trkpt><trkpt lat="43.219595" lon="12.201568"><ele>314.8</ele><time>2026-04-19T08:36:08.636Z</time></trkpt><trkpt lat="43.2196577" lon="12.2015898"><ele>315.0</ele><time>2026-04-19T08:36:09.706Z</time></trkpt><trkpt lat="43.2197494" lon="12.2016918"><ele>315.0</ele><time>2026-04-19T08:36:11.654Z</time></trkpt><trkpt lat="43.2198143" lon="12.2017815"><ele>315.0</ele><time>2026-04-19T08:36:13.683Z</time></trkpt><trkpt lat="43.2198836" lon="12.2018473"><ele>315.0</ele><time>2026-04-19T08:36:15.661Z</time></trkpt><trkpt lat="43.2199481" lon="12.2019415"><ele>315.0</ele><time>2026-04-19T08:36:17.664Z</time></trkpt><trkpt lat="43.2199738" lon="12.2020885"><ele>315.0</ele><time>2026-04-19T08:36:19.646Z</time></trkpt><trkpt lat="43.2199667" lon="12.2021776"><ele>315.0</ele><time>2026-04-19T08:36:20.669Z</time></trkpt><trkpt lat="43.2199404" lon="12.2022832"><ele>315.6</ele><time>2026-04-19T08:36:21.673Z</time></trkpt><trkpt lat="43.2199027" lon="12.2024041"><ele>316.2</ele><time>2026-04-19T08:36:22.659Z</time></trkpt><trkpt lat="43.219857" lon="12.2025217"><ele>316.8</ele><time>2026-04-19T08:36:23.687Z</time></trkpt><trkpt lat="43.2198099" lon="12.2026479"><ele>317.4</ele><time>2026-04-19T08:36:24.706Z</time></trkpt><trkpt lat="43.219758" lon="12.2027774"><ele>318.0</ele><time>2026-04-19T08:36:25.667Z</time></trkpt><trkpt lat="43.2197022" lon="12.2029055"><ele>318.0</ele><time>2026-04-19T08:36:26.694Z</time></trkpt><trkpt lat="43.2196491" lon="12.2030219"><ele>318.0</ele><time>2026-04-19T08:36:27.665Z</time></trkpt><trkpt lat="43.2195982" lon="12.2031417"><ele>318.0</ele><time>2026-04-19T08:36:28.649Z</time></trkpt><trkpt lat="43.2195491" lon="12.2032759"><ele>318.0</ele><time>2026-04-19T08:36:29.691Z</time></trkpt><trkpt lat="43.2195106" lon="12.2033972"><ele>318.0</ele><time>2026-04-19T08:36:30.703Z</time></trkpt><trkpt lat="43.2194811" lon="12.2035119"><ele>318.0</ele><time>2026-04-19T08:36:31.677Z</time></trkpt><trkpt lat="43.2194564" lon="12.2036369"><ele>318.0</ele><time>2026-04-19T08:36:32.66Z</time></trkpt><trkpt lat="43.2194349" lon="12.2037671"><ele>318.0</ele><time>2026-04-19T08:36:33.683Z</time></trkpt><trkpt lat="43.2194168" lon="12.2039006"><ele>318.0</ele><time>2026-04-19T08:36:34.694Z</time></trkpt><trkpt lat="43.2193935" lon="12.2040214"><ele>318.0</ele><time>2026-04-19T08:36:35.672Z</time></trkpt><trkpt lat="43.2193651" lon="12.2041254"><ele>318.5</ele><time>2026-04-19T08:36:36.687Z</time></trkpt><trkpt lat="43.2193374" lon="12.2042252"><ele>319.0</ele><time>2026-04-19T08:36:37.696Z</time></trkpt><trkpt lat="43.2193004" lon="12.2043273"><ele>319.5</ele><time>2026-04-19T08:36:38.702Z</time></trkpt><trkpt lat="43.219255" lon="12.2044477"><ele>320.0</ele><time>2026-04-19T08:36:39.696Z</time></trkpt><trkpt lat="43.2192169" lon="12.2045746"><ele>320.5</ele><time>2026-04-19T08:36:40.678Z</time></trkpt><trkpt lat="43.2191974" lon="12.2046938"><ele>321.0</ele><time>2026-04-19T08:36:41.69Z</time></trkpt><trkpt lat="43.2191899" lon="12.2048197"><ele>320.8</ele><time>2026-04-19T08:36:42.692Z</time></trkpt><trkpt lat="43.2191933" lon="12.204967"><ele>320.6</ele><time>2026-04-19T08:36:43.696Z</time></trkpt><trkpt lat="43.2192082" lon="12.2051243"><ele>320.4</ele><time>2026-04-19T08:36:44.668Z</time></trkpt><trkpt lat="43.2192246" lon="12.205276"><ele>320.2</ele><time>2026-04-19T08:36:45.701Z</time></trkpt><trkpt lat="43.2192482" lon="12.2054249"><ele>320.0</ele><time>2026-04-19T08:36:46.68Z</time></trkpt><trkpt lat="43.2192729" lon="12.2055724"><ele>319.8</ele><time>2026-04-19T08:36:47.691Z</time></trkpt><trkpt lat="43.2193043" lon="12.2057074"><ele>319.6</ele><time>2026-04-19T08:36:48.73Z</time></trkpt><trkpt lat="43.2193377" lon="12.2058511"><ele>319.4</ele><time>2026-04-19T08:36:49.735Z</time></trkpt><trkpt lat="43.2193771" lon="12.2060004"><ele>319.2</ele><time>2026-04-19T08:36:50.686Z</time></trkpt><trkpt lat="43.2194204" lon="12.2061525"><ele>319.0</ele><time>2026-04-19T08:36:51.724Z</time></trkpt><trkpt lat="43.2194717" lon="12.2063088"><ele>319.0</ele><time>2026-04-19T08:36:52.764Z</time></trkpt><trkpt lat="43.2195291" lon="12.2064679"><ele>319.0</ele><time>2026-04-19T08:36:53.696Z</time></trkpt><trkpt lat="43.219589" lon="12.2066175"><ele>319.0</ele><time>2026-04-19T08:36:54.747Z</time></trkpt><trkpt lat="43.2196442" lon="12.2067671"><ele>319.0</ele><time>2026-04-19T08:36:55.727Z</time></trkpt><trkpt lat="43.2197025" lon="12.2069192"><ele>319.4</ele><time>2026-04-19T08:36:56.696Z</time></trkpt><trkpt lat="43.2197566" lon="12.2070687"><ele>319.79999999999995</ele><time>2026-04-19T08:36:57.7Z</time></trkpt><trkpt lat="43.2198063" lon="12.207215"><ele>320.20000000000005</ele><time>2026-04-19T08:36:58.622Z</time></trkpt><trkpt lat="43.2198506" lon="12.2073472"><ele>320.6</ele><time>2026-04-19T08:36:59.617Z</time></trkpt><trkpt lat="43.2198908" lon="12.2074698"><ele>321.0</ele><time>2026-04-19T08:37:00.768Z</time></trkpt><trkpt lat="43.219964" lon="12.2076744"><ele>321.6</ele><time>2026-04-19T08:37:02.651Z</time></trkpt><trkpt lat="43.219997" lon="12.2077556"><ele>322.20000000000005</ele><time>2026-04-19T08:37:03.649Z</time></trkpt><trkpt lat="43.220065" lon="12.2078832"><ele>322.79999999999995</ele><time>2026-04-19T08:37:05.648Z</time></trkpt><trkpt lat="43.2201588" lon="12.2079458"><ele>323.4</ele><time>2026-04-19T08:37:07.607Z</time></trkpt><trkpt lat="43.2202538" lon="12.2079474"><ele>324.0</ele><time>2026-04-19T08:37:09.662Z</time></trkpt><trkpt lat="43.2203228" lon="12.207932"><ele>324.0</ele><time>2026-04-19T08:37:11.682Z</time></trkpt><trkpt lat="43.2203843" lon="12.2079046"><ele>324.0</ele><time>2026-04-19T08:37:13.676Z</time></trkpt><trkpt lat="43.2204479" lon="12.2078622"><ele>324.0</ele><time>2026-04-19T08:37:22.756Z</time></trkpt><trkpt lat="43.2205974" lon="12.2078265"><ele>324.0</ele><time>2026-04-19T08:37:25.633Z</time></trkpt><trkpt lat="43.2207009" lon="12.2078383"><ele>324.0</ele><time>2026-04-19T08:37:27.648Z</time></trkpt><trkpt lat="43.2208054" lon="12.2078629"><ele>326.4</ele><time>2026-04-19T08:37:29.63Z</time></trkpt><trkpt lat="43.2209276" lon="12.2078778"><ele>328.79999999999995</ele><time>2026-04-19T08:37:31.642Z</time></trkpt><trkpt lat="43.2209928" lon="12.2078754"><ele>331.20000000000005</ele><time>2026-04-19T08:37:33.643Z</time></trkpt><trkpt lat="43.2210941" lon="12.207893"><ele>333.6</ele><time>2026-04-19T08:37:37.642Z</time></trkpt><trkpt lat="43.2211964" lon="12.2079193"><ele>336.0</ele><time>2026-04-19T08:37:39.658Z</time></trkpt><trkpt lat="43.2212902" lon="12.2079529"><ele>336.0</ele><time>2026-04-19T08:37:41.662Z</time></trkpt><trkpt lat="43.2213983" lon="12.2080096"><ele>336.0</ele><time>2026-04-19T08:37:43.678Z</time></trkpt><trkpt lat="43.2214639" lon="12.2080543"><ele>336.0</ele><time>2026-04-19T08:37:44.636Z</time></trkpt><trkpt lat="43.2215313" lon="12.2081093"><ele>336.0</ele><time>2026-04-19T08:37:45.665Z</time></trkpt><trkpt lat="43.2215979" lon="12.2081718"><ele>336.0</ele><time>2026-04-19T08:37:46.701Z</time></trkpt><trkpt lat="43.2216696" lon="12.2082369"><ele>336.0</ele><time>2026-04-19T08:37:47.639Z</time></trkpt><trkpt lat="43.2217415" lon="12.208316"><ele>335.3333333333333</ele><time>2026-04-19T08:37:48.674Z</time></trkpt><trkpt lat="43.2218047" lon="12.2083892"><ele>334.6666666666667</ele><time>2026-04-19T08:37:49.661Z</time></trkpt><trkpt lat="43.2218606" lon="12.208446"><ele>334.0</ele><time>2026-04-19T08:37:50.638Z</time></trkpt><trkpt lat="43.2219189" lon="12.2085071"><ele>333.33333333333337</ele><time>2026-04-19T08:37:51.661Z</time></trkpt><trkpt lat="43.2219735" lon="12.2085686"><ele>332.6666666666667</ele><time>2026-04-19T08:37:52.67Z</time></trkpt><trkpt lat="43.222025" lon="12.2086267"><ele>332.0</ele><time>2026-04-19T08:37:53.64Z</time></trkpt><trkpt lat="43.2221141" lon="12.2087241"><ele>332.0</ele><time>2026-04-19T08:37:55.667Z</time></trkpt><trkpt lat="43.2221938" lon="12.2088147"><ele>332.0</ele><time>2026-04-19T08:37:57.641Z</time></trkpt><trkpt lat="43.2222631" lon="12.2089354"><ele>332.0</ele><time>2026-04-19T08:37:59.692Z</time></trkpt><trkpt lat="43.2223523" lon="12.2090538"><ele>332.0</ele><time>2026-04-19T08:38:01.659Z</time></trkpt><trkpt lat="43.2224086" lon="12.2091214"><ele>332.0</ele><time>2026-04-19T08:38:02.659Z</time></trkpt><trkpt lat="43.2224604" lon="12.20919"><ele>333.0</ele><time>2026-04-19T08:38:03.668Z</time></trkpt><trkpt lat="43.2225199" lon="12.2092546"><ele>334.0</ele><time>2026-04-19T08:38:04.672Z</time></trkpt><trkpt lat="43.2225689" lon="12.2093159"><ele>335.0</ele><time>2026-04-19T08:38:05.674Z</time></trkpt><trkpt lat="43.2226559" lon="12.2094208"><ele>336.0</ele><time>2026-04-19T08:38:07.661Z</time></trkpt><trkpt lat="43.2227236" lon="12.2094496"><ele>337.0</ele><time>2026-04-19T08:38:08.684Z</time></trkpt><trkpt lat="43.2227927" lon="12.2094818"><ele>338.0</ele><time>2026-04-19T08:38:09.697Z</time></trkpt><trkpt lat="43.2228567" lon="12.209519"><ele>338.0</ele><time>2026-04-19T08:38:10.695Z</time></trkpt><trkpt lat="43.2229162" lon="12.2095554"><ele>338.0</ele><time>2026-04-19T08:38:11.685Z</time></trkpt><trkpt lat="43.2230313" lon="12.2096315"><ele>338.0</ele><time>2026-04-19T08:38:13.681Z</time></trkpt><trkpt lat="43.2230968" lon="12.2096719"><ele>338.0</ele><time>2026-04-19T08:38:14.722Z</time></trkpt><trkpt lat="43.2231974" lon="12.2097424"><ele>338.0</ele><time>2026-04-19T08:38:16.7Z</time></trkpt><trkpt lat="43.2232895" lon="12.2098606"><ele>338.5</ele><time>2026-04-19T08:38:18.67Z</time></trkpt><trkpt lat="43.2233483" lon="12.2099241"><ele>339.0</ele><time>2026-04-19T08:38:19.685Z</time></trkpt><trkpt lat="43.2234178" lon="12.2100034"><ele>339.5</ele><time>2026-04-19T08:38:20.689Z</time></trkpt><trkpt lat="43.2234817" lon="12.2100705"><ele>340.0</ele><time>2026-04-19T08:38:22.701Z</time></trkpt><trkpt lat="43.2235469" lon="12.2101582"><ele>340.5</ele><time>2026-04-19T08:38:26.706Z</time></trkpt><trkpt lat="43.2236261" lon="12.2102644"><ele>341.0</ele><time>2026-04-19T08:38:28.707Z</time></trkpt><trkpt lat="43.2236794" lon="12.2103122"><ele>341.0</ele><time>2026-04-19T08:38:29.676Z</time></trkpt><trkpt lat="43.223787" lon="12.210394"><ele>341.0</ele><time>2026-04-19T08:38:31.711Z</time></trkpt><trkpt lat="43.2238791" lon="12.2104435"><ele>341.0</ele><time>2026-04-19T08:38:33.749Z</time></trkpt><trkpt lat="43.2239507" lon="12.2104713"><ele>341.0</ele><time>2026-04-19T08:38:39.688Z</time></trkpt><trkpt lat="43.224038" lon="12.2105082"><ele>341.0</ele><time>2026-04-19T08:38:42.71Z</time></trkpt><trkpt lat="43.2241201" lon="12.2105234"><ele>344.5</ele><time>2026-04-19T08:38:44.68Z</time></trkpt><trkpt lat="43.2241872" lon="12.2105713"><ele>348.0</ele><time>2026-04-19T08:38:46.67Z</time></trkpt><trkpt lat="43.2242564" lon="12.2106236"><ele>351.5</ele><time>2026-04-19T08:38:48.702Z</time></trkpt><trkpt lat="43.2243323" lon="12.2106515"><ele>355.0</ele><time>2026-04-19T08:39:01.729Z</time></trkpt><trkpt lat="43.2242478" lon="12.2106354"><ele>358.5</ele><time>2026-04-19T08:45:32.613Z</time></trkpt><trkpt lat="43.2241703" lon="12.2105778"><ele>362.0</ele><time>2026-04-19T08:45:35.653Z</time></trkpt><trkpt lat="43.2240962" lon="12.2105407"><ele>362.0</ele><time>2026-04-19T08:45:38.611Z</time></trkpt><trkpt lat="43.2240308" lon="12.2105275"><ele>362.0</ele><time>2026-04-19T08:45:41.613Z</time></trkpt><trkpt lat="43.2239461" lon="12.2105188"><ele>362.0</ele><time>2026-04-19T08:45:44.615Z</time></trkpt><trkpt lat="43.2238844" lon="12.2104964"><ele>362.0</ele><time>2026-04-19T08:45:47.644Z</time></trkpt><trkpt lat="43.2238036" lon="12.2104637"><ele>362.0</ele><time>2026-04-19T08:45:50.819Z</time></trkpt><trkpt lat="43.2237434" lon="12.2104356"><ele>362.0</ele><time>2026-04-19T08:45:52.64Z</time></trkpt><trkpt lat="43.2236882" lon="12.2103909"><ele>362.0</ele><time>2026-04-19T08:45:54.646Z</time></trkpt><trkpt lat="43.2236256" lon="12.2103322"><ele>358.5</ele><time>2026-04-19T08:45:56.684Z</time></trkpt><trkpt lat="43.2235669" lon="12.2102566"><ele>355.0</ele><time>2026-04-19T08:45:58.671Z</time></trkpt><trkpt lat="43.2235208" lon="12.2101939"><ele>351.5</ele><time>2026-04-19T08:46:00.646Z</time></trkpt><trkpt lat="43.2234539" lon="12.2101195"><ele>348.0</ele><time>2026-04-19T08:46:03.668Z</time></trkpt><trkpt lat="43.2233871" lon="12.2100553"><ele>344.5</ele><time>2026-04-19T08:46:05.679Z</time></trkpt><trkpt lat="43.2233071" lon="12.2099728"><ele>341.0</ele><time>2026-04-19T08:46:07.64Z</time></trkpt><trkpt lat="43.223246" lon="12.2099023"><ele>340.5</ele><time>2026-04-19T08:46:09.649Z</time></trkpt><trkpt lat="43.2231952" lon="12.2097961"><ele>340.0</ele><time>2026-04-19T08:46:11.652Z</time></trkpt><trkpt lat="43.2231363" lon="12.2097299"><ele>339.5</ele><time>2026-04-19T08:46:13.649Z</time></trkpt><trkpt lat="43.223066" lon="12.2096932"><ele>339.0</ele><time>2026-04-19T08:46:15.651Z</time></trkpt><trkpt lat="43.2229952" lon="12.2096546"><ele>338.5</ele><time>2026-04-19T08:46:17.671Z</time></trkpt><trkpt lat="43.2229411" lon="12.2096055"><ele>338.0</ele><time>2026-04-19T08:46:18.644Z</time></trkpt><trkpt lat="43.2228413" lon="12.2095353"><ele>338.0</ele><time>2026-04-19T08:46:20.673Z</time></trkpt><trkpt lat="43.2227626" lon="12.2094871"><ele>338.0</ele><time>2026-04-19T08:46:22.661Z</time></trkpt><trkpt lat="43.2226719" lon="12.2094411"><ele>338.0</ele><time>2026-04-19T08:46:24.668Z</time></trkpt><trkpt lat="43.2225989" lon="12.209381"><ele>338.0</ele><time>2026-04-19T08:46:26.667Z</time></trkpt><trkpt lat="43.2225327" lon="12.2092935"><ele>338.0</ele><time>2026-04-19T08:46:28.696Z</time></trkpt><trkpt lat="43.2224486" lon="12.2092118"><ele>338.0</ele><time>2026-04-19T08:46:30.661Z</time></trkpt><trkpt lat="43.2223804" lon="12.2091232"><ele>338.0</ele><time>2026-04-19T08:46:32.665Z</time></trkpt><trkpt lat="43.2222863" lon="12.2090173"><ele>338.0</ele><time>2026-04-19T08:46:34.665Z</time></trkpt><trkpt lat="43.2222221" lon="12.208918"><ele>338.0</ele><time>2026-04-19T08:46:36.66Z</time></trkpt><trkpt lat="43.2221659" lon="12.2088163"><ele>338.0</ele><time>2026-04-19T08:46:38.681Z</time></trkpt><trkpt lat="43.2220914" lon="12.2087303"><ele>337.0</ele><time>2026-04-19T08:46:40.688Z</time></trkpt><trkpt lat="43.2220175" lon="12.2086359"><ele>336.0</ele><time>2026-04-19T08:46:42.677Z</time></trkpt><trkpt lat="43.2219704" lon="12.2085756"><ele>335.0</ele><time>2026-04-19T08:46:43.686Z</time></trkpt><trkpt lat="43.2219121" lon="12.2085151"><ele>334.0</ele><time>2026-04-19T08:46:44.681Z</time></trkpt><trkpt lat="43.2218576" lon="12.2084503"><ele>333.0</ele><time>2026-04-19T08:46:45.702Z</time></trkpt><trkpt lat="43.2218059" lon="12.208397"><ele>332.0</ele><time>2026-04-19T08:46:46.698Z</time></trkpt><trkpt lat="43.2217173" lon="12.2082943"><ele>332.0</ele><time>2026-04-19T08:46:48.699Z</time></trkpt><trkpt lat="43.2216626" lon="12.2082493"><ele>332.0</ele><time>2026-04-19T08:46:49.694Z</time></trkpt><trkpt lat="43.2216088" lon="12.208198"><ele>332.0</ele><time>2026-04-19T08:46:50.694Z</time></trkpt><trkpt lat="43.221551" lon="12.2081483"><ele>332.0</ele><time>2026-04-19T08:46:51.7Z</time></trkpt><trkpt lat="43.2214446" lon="12.2080573"><ele>332.0</ele><time>2026-04-19T08:46:53.579Z</time></trkpt><trkpt lat="43.2213446" lon="12.207984"><ele>332.0</ele><time>2026-04-19T08:46:55.696Z</time></trkpt><trkpt lat="43.2212073" lon="12.2079283"><ele>332.6666666666667</ele><time>2026-04-19T08:46:58.609Z</time></trkpt><trkpt lat="43.2211016" lon="12.2079186"><ele>333.33333333333337</ele><time>2026-04-19T08:47:00.594Z</time></trkpt><trkpt lat="43.2210223" lon="12.2079093"><ele>334.0</ele><time>2026-04-19T08:47:02.595Z</time></trkpt><trkpt lat="43.2209546" lon="12.2079112"><ele>334.6666666666667</ele><time>2026-04-19T08:47:06.61Z</time></trkpt><trkpt lat="43.2208792" lon="12.2079133"><ele>335.3333333333333</ele><time>2026-04-19T08:47:11.623Z</time></trkpt><trkpt lat="43.2207943" lon="12.2079012"><ele>336.0</ele><time>2026-04-19T08:47:13.632Z</time></trkpt><trkpt lat="43.2206896" lon="12.2078628"><ele>333.6</ele><time>2026-04-19T08:47:15.605Z</time></trkpt><trkpt lat="43.2205772" lon="12.2078512"><ele>331.20000000000005</ele><time>2026-04-19T08:47:17.624Z</time></trkpt><trkpt lat="43.220514" lon="12.2078569"><ele>328.79999999999995</ele><time>2026-04-19T08:47:18.627Z</time></trkpt><trkpt lat="43.2204438" lon="12.2078765"><ele>326.4</ele><time>2026-04-19T08:47:19.606Z</time></trkpt><trkpt lat="43.2203422" lon="12.2079188"><ele>324.0</ele><time>2026-04-19T08:47:21.633Z</time></trkpt><trkpt lat="43.2202352" lon="12.2079466"><ele>324.0</ele><time>2026-04-19T08:47:23.638Z</time></trkpt><trkpt lat="43.2201356" lon="12.2079279"><ele>324.0</ele><time>2026-04-19T08:47:25.682Z</time></trkpt><trkpt lat="43.2200428" lon="12.2078732"><ele>324.0</ele><time>2026-04-19T08:47:27.615Z</time></trkpt><trkpt lat="43.2199675" lon="12.2077759"><ele>324.0</ele><time>2026-04-19T08:47:29.686Z</time></trkpt><trkpt lat="43.2198848" lon="12.2075384"><ele>324.0</ele><time>2026-04-19T08:47:32.616Z</time></trkpt><trkpt lat="43.2198395" lon="12.2073688"><ele>324.0</ele><time>2026-04-19T08:47:34.678Z</time></trkpt><trkpt lat="43.2197829" lon="12.2071857"><ele>324.0</ele><time>2026-04-19T08:47:36.695Z</time></trkpt><trkpt lat="43.2197211" lon="12.2070019"><ele>324.0</ele><time>2026-04-19T08:47:38.668Z</time></trkpt><trkpt lat="43.2196553" lon="12.2068088"><ele>323.0</ele><time>2026-04-19T08:47:40.678Z</time></trkpt><trkpt lat="43.2195823" lon="12.2066236"><ele>322.0</ele><time>2026-04-19T08:47:42.657Z</time></trkpt><trkpt lat="43.2195152" lon="12.2064272"><ele>321.0</ele><time>2026-04-19T08:47:44.709Z</time></trkpt><trkpt lat="43.2194463" lon="12.2062416"><ele>320.6666666666667</ele><time>2026-04-19T08:47:46.757Z</time></trkpt><trkpt lat="43.2193892" lon="12.2060631"><ele>320.33333333333337</ele><time>2026-04-19T08:47:48.694Z</time></trkpt><trkpt lat="43.2193212" lon="12.2058048"><ele>320.0</ele><time>2026-04-19T08:47:51.707Z</time></trkpt><trkpt lat="43.2192858" lon="12.2056258"><ele>320.0</ele><time>2026-04-19T08:47:53.654Z</time></trkpt><trkpt lat="43.2192451" lon="12.2054068"><ele>320.0</ele><time>2026-04-19T08:47:55.657Z</time></trkpt><trkpt lat="43.2192103" lon="12.2051797"><ele>320.0</ele><time>2026-04-19T08:47:57.688Z</time></trkpt><trkpt lat="43.219193" lon="12.2049698"><ele>320.25</ele><time>2026-04-19T08:47:59.672Z</time></trkpt><trkpt lat="43.2191907" lon="12.204769"><ele>320.5</ele><time>2026-04-19T08:48:01.671Z</time></trkpt><trkpt lat="43.2192177" lon="12.2045868"><ele>320.75</ele><time>2026-04-19T08:48:03.671Z</time></trkpt><trkpt lat="43.2192573" lon="12.204444"><ele>321.0</ele><time>2026-04-19T08:48:05.685Z</time></trkpt><trkpt lat="43.2193099" lon="12.2043276"><ele>321.0</ele><time>2026-04-19T08:48:07.674Z</time></trkpt><trkpt lat="43.2193554" lon="12.2042201"><ele>321.0</ele><time>2026-04-19T08:48:09.7Z</time></trkpt><trkpt lat="43.2193925" lon="12.2040861"><ele>321.0</ele><time>2026-04-19T08:48:11.716Z</time></trkpt><trkpt lat="43.2194149" lon="12.2039326"><ele>321.0</ele><time>2026-04-19T08:48:13.691Z</time></trkpt><trkpt lat="43.2194476" lon="12.2037471"><ele>321.0</ele><time>2026-04-19T08:48:15.681Z</time></trkpt><trkpt lat="43.2194747" lon="12.2035625"><ele>320.0</ele><time>2026-04-19T08:48:17.737Z</time></trkpt><trkpt lat="43.2195618" lon="12.2032536"><ele>319.0</ele><time>2026-04-19T08:48:20.582Z</time></trkpt><trkpt lat="43.2196396" lon="12.2030599"><ele>318.0</ele><time>2026-04-19T08:48:22.61Z</time></trkpt><trkpt lat="43.219726" lon="12.2028754"><ele>318.0</ele><time>2026-04-19T08:48:24.593Z</time></trkpt><trkpt lat="43.2198153" lon="12.2026697"><ele>318.0</ele><time>2026-04-19T08:48:26.659Z</time></trkpt><trkpt lat="43.219898" lon="12.202454"><ele>318.0</ele><time>2026-04-19T08:48:28.607Z</time></trkpt><trkpt lat="43.219953" lon="12.2022617"><ele>318.0</ele><time>2026-04-19T08:48:30.623Z</time></trkpt><trkpt lat="43.2199746" lon="12.2020943"><ele>318.0</ele><time>2026-04-19T08:48:32.594Z</time></trkpt><trkpt lat="43.21996" lon="12.2019492"><ele>318.0</ele><time>2026-04-19T08:48:34.65Z</time></trkpt><trkpt lat="43.2199124" lon="12.201846"><ele>318.0</ele><time>2026-04-19T08:48:36.619Z</time></trkpt><trkpt lat="43.2198801" lon="12.2017401"><ele>318.0</ele><time>2026-04-19T08:48:40.65Z</time></trkpt><trkpt lat="43.2199582" lon="12.2016001"><ele>317.0</ele><time>2026-04-19T08:50:04.648Z</time></trkpt><trkpt lat="43.2200507" lon="12.201399"><ele>316.0</ele><time>2026-04-19T08:50:07.637Z</time></trkpt><trkpt lat="43.2201376" lon="12.2012398"><ele>315.0</ele><time>2026-04-19T08:50:10.774Z</time></trkpt><trkpt lat="43.2202618" lon="12.2012193"><ele>314.0</ele><time>2026-04-19T08:50:14.647Z</time></trkpt><trkpt lat="43.2203067" lon="12.201332"><ele>314.0</ele><time>2026-04-19T08:50:17.625Z</time></trkpt><trkpt lat="43.220313" lon="12.2014428"><ele>314.0</ele><time>2026-04-19T08:50:19.643Z</time></trkpt><trkpt lat="43.2203245" lon="12.2015607"><ele>314.0</ele><time>2026-04-19T08:50:21.617Z</time></trkpt><trkpt lat="43.2203684" lon="12.201769"><ele>314.0</ele><time>2026-04-19T08:50:24.625Z</time></trkpt><trkpt lat="43.2204018" lon="12.201928"><ele>314.0</ele><time>2026-04-19T08:50:26.625Z</time></trkpt><trkpt lat="43.2204086" lon="12.2020862"><ele>314.8</ele><time>2026-04-19T08:50:28.628Z</time></trkpt><trkpt lat="43.2204082" lon="12.2022369"><ele>315.59999999999997</ele><time>2026-04-19T08:50:30.625Z</time></trkpt><trkpt lat="43.220396" lon="12.2023773"><ele>316.4</ele><time>2026-04-19T08:50:32.626Z</time></trkpt><trkpt lat="43.2203751" lon="12.202515"><ele>317.2</ele><time>2026-04-19T08:50:34.622Z</time></trkpt><trkpt lat="43.2203406" lon="12.2026499"><ele>318.0</ele><time>2026-04-19T08:50:36.625Z</time></trkpt><trkpt lat="43.2203099" lon="12.2027778"><ele>319.1666666666667</ele><time>2026-04-19T08:50:38.633Z</time></trkpt><trkpt lat="43.2202929" lon="12.2028827"><ele>320.3333333333333</ele><time>2026-04-19T08:50:40.644Z</time></trkpt><trkpt lat="43.2202988" lon="12.2030003"><ele>321.5</ele><time>2026-04-19T08:50:43.643Z</time></trkpt><trkpt lat="43.2203092" lon="12.2028781"><ele>322.66666666666663</ele><time>2026-04-19T08:50:55.669Z</time></trkpt><trkpt lat="43.2203289" lon="12.2027659"><ele>323.8333333333333</ele><time>2026-04-19T08:50:57.657Z</time></trkpt><trkpt lat="43.2203526" lon="12.2026445"><ele>325.0</ele><time>2026-04-19T08:50:59.667Z</time></trkpt><trkpt lat="43.2203756" lon="12.202521"><ele>325.0</ele><time>2026-04-19T08:51:01.643Z</time></trkpt><trkpt lat="43.2203953" lon="12.202397"><ele>325.0</ele><time>2026-04-19T08:51:03.669Z</time></trkpt><trkpt lat="43.220406" lon="12.2022642"><ele>325.0</ele><time>2026-04-19T08:51:05.652Z</time></trkpt><trkpt lat="43.2204104" lon="12.2021228"><ele>325.0</ele><time>2026-04-19T08:51:07.67Z</time></trkpt><trkpt lat="43.2204022" lon="12.2019721"><ele>325.0</ele><time>2026-04-19T08:51:09.649Z</time></trkpt><trkpt lat="43.2203847" lon="12.2018321"><ele>323.6</ele><time>2026-04-19T08:51:11.662Z</time></trkpt><trkpt lat="43.2203695" lon="12.2016827"><ele>322.2</ele><time>2026-04-19T08:51:13.667Z</time></trkpt><trkpt lat="43.2203364" lon="12.2015541"><ele>320.8</ele><time>2026-04-19T08:51:15.677Z</time></trkpt><trkpt lat="43.2203147" lon="12.2014318"><ele>319.4</ele><time>2026-04-19T08:51:17.533Z</time></trkpt><trkpt lat="43.220292" lon="12.2013088"><ele>318.0</ele><time>2026-04-19T08:51:19.453Z</time></trkpt><trkpt lat="43.2202465" lon="12.2012049"><ele>318.0</ele><time>2026-04-19T08:51:21.477Z</time></trkpt><trkpt lat="43.2201721" lon="12.2011832"><ele>318.0</ele><time>2026-04-19T08:51:24.488Z</time></trkpt><trkpt lat="43.2201274" lon="12.2012448"><ele>318.0</ele><time>2026-04-19T08:51:26.488Z</time></trkpt><trkpt lat="43.2200675" lon="12.2013587"><ele>318.0</ele><time>2026-04-19T08:51:28.468Z</time></trkpt><trkpt lat="43.2200297" lon="12.2014318"><ele>318.0</ele><time>2026-04-19T08:51:29.496Z</time></trkpt><trkpt lat="43.2199955" lon="12.2015064"><ele>318.0</ele><time>2026-04-19T08:51:30.496Z</time></trkpt><trkpt lat="43.2199363" lon="12.201641"><ele>318.0</ele><time>2026-04-19T08:51:32.582Z</time></trkpt><trkpt lat="43.2198725" lon="12.2017414"><ele>318.0</ele><time>2026-04-19T08:51:34.582Z</time></trkpt><trkpt lat="43.2198003" lon="12.2017799"><ele>318.0</ele><time>2026-04-19T08:51:36.518Z</time></trkpt><trkpt lat="43.2197345" lon="12.201711"><ele>318.0</ele><time>2026-04-19T08:51:38.491Z</time></trkpt><trkpt lat="43.2196782" lon="12.2016156"><ele>318.0</ele><time>2026-04-19T08:51:41.501Z</time></trkpt><trkpt lat="43.2195939" lon="12.201555"><ele>318.0</ele><time>2026-04-19T08:51:44.573Z</time></trkpt><trkpt lat="43.2195188" lon="12.2015442"><ele>317.5</ele><time>2026-04-19T08:51:47.615Z</time></trkpt><trkpt lat="43.2194548" lon="12.2015618"><ele>317.0</ele><time>2026-04-19T08:51:49.497Z</time></trkpt><trkpt lat="43.2193938" lon="12.2015864"><ele>316.5</ele><time>2026-04-19T08:51:51.504Z</time></trkpt><trkpt lat="43.2193528" lon="12.2016532"><ele>316.0</ele><time>2026-04-19T08:51:56.446Z</time></trkpt><trkpt lat="43.2192816" lon="12.2017055"><ele>315.5</ele><time>2026-04-19T08:52:04.456Z</time></trkpt><trkpt lat="43.2191803" lon="12.2017579"><ele>315.0</ele><time>2026-04-19T08:52:06.418Z</time></trkpt><trkpt lat="43.219085" lon="12.201823"><ele>314.8</ele><time>2026-04-19T08:52:08.409Z</time></trkpt><trkpt lat="43.2189816" lon="12.2018968"><ele>314.6</ele><time>2026-04-19T08:52:10.422Z</time></trkpt><trkpt lat="43.2188986" lon="12.2019608"><ele>314.4</ele><time>2026-04-19T08:52:12.421Z</time></trkpt><trkpt lat="43.2188144" lon="12.2019987"><ele>314.2</ele><time>2026-04-19T08:52:14.455Z</time></trkpt><trkpt lat="43.2187385" lon="12.2019639"><ele>314.0</ele><time>2026-04-19T08:52:16.431Z</time></trkpt><trkpt lat="43.2186831" lon="12.2018546"><ele>314.0</ele><time>2026-04-19T08:52:18.422Z</time></trkpt><trkpt lat="43.2186537" lon="12.2017622"><ele>314.0</ele><time>2026-04-19T08:52:19.427Z</time></trkpt><trkpt lat="43.2186129" lon="12.2016411"><ele>314.0</ele><time>2026-04-19T08:52:20.438Z</time></trkpt><trkpt lat="43.2185712" lon="12.2015069"><ele>314.0</ele><time>2026-04-19T08:52:21.439Z</time></trkpt><trkpt lat="43.2185272" lon="12.2013765"><ele>314.0</ele><time>2026-04-19T08:52:22.442Z</time></trkpt><trkpt lat="43.2183937" lon="12.2010305"><ele>313.5</ele><time>2026-04-19T08:52:25.424Z</time></trkpt><trkpt lat="43.2183515" lon="12.2009184"><ele>313.0</ele><time>2026-04-19T08:52:26.434Z</time></trkpt><trkpt lat="43.218305" lon="12.200789"><ele>312.5</ele><time>2026-04-19T08:52:27.431Z</time></trkpt><trkpt lat="43.2182008" lon="12.2005239"><ele>312.0</ele><time>2026-04-19T08:52:29.435Z</time></trkpt><trkpt lat="43.2181462" lon="12.2003926"><ele>311.75</ele><time>2026-04-19T08:52:30.447Z</time></trkpt><trkpt lat="43.2180915" lon="12.2002615"><ele>311.5</ele><time>2026-04-19T08:52:31.44Z</time></trkpt><trkpt lat="43.2180345" lon="12.2001222"><ele>311.25</ele><time>2026-04-19T08:52:32.439Z</time></trkpt><trkpt lat="43.2179765" lon="12.1999877"><ele>311.0</ele><time>2026-04-19T08:52:33.429Z</time></trkpt><trkpt lat="43.2179239" lon="12.199855"><ele>310.8</ele><time>2026-04-19T08:52:34.455Z</time></trkpt><trkpt lat="43.2178724" lon="12.1997194"><ele>310.6</ele><time>2026-04-19T08:52:35.435Z</time></trkpt><trkpt lat="43.2178223" lon="12.1995855"><ele>310.4</ele><time>2026-04-19T08:52:36.439Z</time></trkpt><trkpt lat="43.2177701" lon="12.1994527"><ele>310.2</ele><time>2026-04-19T08:52:37.446Z</time></trkpt><trkpt lat="43.2177207" lon="12.1993198"><ele>310.0</ele><time>2026-04-19T08:52:38.45Z</time></trkpt><trkpt lat="43.2176672" lon="12.1991932"><ele>310.0</ele><time>2026-04-19T08:52:39.442Z</time></trkpt><trkpt lat="43.2176147" lon="12.1990592"><ele>310.0</ele><time>2026-04-19T08:52:40.455Z</time></trkpt><trkpt lat="43.2175623" lon="12.1989309"><ele>310.0</ele><time>2026-04-19T08:52:41.446Z</time></trkpt><trkpt lat="43.2175058" lon="12.1987943"><ele>310.0</ele><time>2026-04-19T08:52:42.451Z</time></trkpt><trkpt lat="43.2174536" lon="12.1986618"><ele>310.0</ele><time>2026-04-19T08:52:43.458Z</time></trkpt><trkpt lat="43.2174121" lon="12.198526"><ele>310.0</ele><time>2026-04-19T08:52:44.443Z</time></trkpt><trkpt lat="43.2173795" lon="12.19839"><ele>310.0</ele><time>2026-04-19T08:52:45.575Z</time></trkpt><trkpt lat="43.2173295" lon="12.1980869"><ele>310.0</ele><time>2026-04-19T08:52:47.445Z</time></trkpt><trkpt lat="43.2173153" lon="12.1979109"><ele>310.25</ele><time>2026-04-19T08:52:48.472Z</time></trkpt><trkpt lat="43.2172989" lon="12.1977452"><ele>310.5</ele><time>2026-04-19T08:52:49.45Z</time></trkpt><trkpt lat="43.2172774" lon="12.1975917"><ele>310.75</ele><time>2026-04-19T08:52:50.429Z</time></trkpt><trkpt lat="43.2172603" lon="12.1974342"><ele>311.0</ele><time>2026-04-19T08:52:51.442Z</time></trkpt><trkpt lat="43.217236" lon="12.1972831"><ele>311.0</ele><time>2026-04-19T08:52:52.447Z</time></trkpt><trkpt lat="43.2172135" lon="12.1971362"><ele>311.0</ele><time>2026-04-19T08:52:53.476Z</time></trkpt><trkpt lat="43.2171962" lon="12.1969924"><ele>311.0</ele><time>2026-04-19T08:52:54.628Z</time></trkpt><trkpt lat="43.2171795" lon="12.196851"><ele>311.0</ele><time>2026-04-19T08:52:55.568Z</time></trkpt><trkpt lat="43.2171668" lon="12.1967125"><ele>311.0</ele><time>2026-04-19T08:52:56.48Z</time></trkpt><trkpt lat="43.2171575" lon="12.1965778"><ele>311.25</ele><time>2026-04-19T08:52:57.523Z</time></trkpt><trkpt lat="43.2171536" lon="12.1964444"><ele>311.5</ele><time>2026-04-19T08:52:58.495Z</time></trkpt><trkpt lat="43.2171577" lon="12.1963128"><ele>311.75</ele><time>2026-04-19T08:52:59.658Z</time></trkpt><trkpt lat="43.217195" lon="12.1960425"><ele>312.0</ele><time>2026-04-19T08:53:01.464Z</time></trkpt><trkpt lat="43.2172352" lon="12.1958903"><ele>312.0</ele><time>2026-04-19T08:53:02.559Z</time></trkpt><trkpt lat="43.2172755" lon="12.1957375"><ele>312.0</ele><time>2026-04-19T08:53:03.535Z</time></trkpt><trkpt lat="43.2173109" lon="12.1955918"><ele>312.0</ele><time>2026-04-19T08:53:04.465Z</time></trkpt><trkpt lat="43.2173413" lon="12.1954505"><ele>312.0</ele><time>2026-04-19T08:53:05.475Z</time></trkpt><trkpt lat="43.2173764" lon="12.1953134"><ele>312.0</ele><time>2026-04-19T08:53:06.485Z</time></trkpt><trkpt lat="43.2174051" lon="12.1951886"><ele>312.0</ele><time>2026-04-19T08:53:07.462Z</time></trkpt><trkpt lat="43.2174331" lon="12.1950787"><ele>312.0</ele><time>2026-04-19T08:53:08.474Z</time></trkpt><trkpt lat="43.2174574" lon="12.1949823"><ele>312.0</ele><time>2026-04-19T08:53:09.456Z</time></trkpt><trkpt lat="43.2174902" lon="12.1947697"><ele>312.0</ele><time>2026-04-19T08:53:12.38Z</time></trkpt><trkpt lat="43.2174509" lon="12.1946024"><ele>312.0</ele><time>2026-04-19T08:53:14.366Z</time></trkpt><trkpt lat="43.2174093" lon="12.1945106"><ele>312.0</ele><time>2026-04-19T08:53:15.37Z</time></trkpt><trkpt lat="43.2173596" lon="12.1944204"><ele>312.0</ele><time>2026-04-19T08:53:16.375Z</time></trkpt><trkpt lat="43.2173133" lon="12.1943366"><ele>312.0</ele><time>2026-04-19T08:53:17.396Z</time></trkpt><trkpt lat="43.217268" lon="12.1942485"><ele>312.0</ele><time>2026-04-19T08:53:18.381Z</time></trkpt><trkpt lat="43.2172182" lon="12.1941385"><ele>312.0</ele><time>2026-04-19T08:53:19.379Z</time></trkpt><trkpt lat="43.2171691" lon="12.1940172"><ele>312.0</ele><time>2026-04-19T08:53:20.375Z</time></trkpt><trkpt lat="43.2171214" lon="12.1938981"><ele>312.4</ele><time>2026-04-19T08:53:21.382Z</time></trkpt><trkpt lat="43.21707" lon="12.1937746"><ele>312.79999999999995</ele><time>2026-04-19T08:53:22.402Z</time></trkpt><trkpt lat="43.2170241" lon="12.1936599"><ele>313.2</ele><time>2026-04-19T08:53:23.389Z</time></trkpt><trkpt lat="43.2169809" lon="12.1935457"><ele>313.59999999999997</ele><time>2026-04-19T08:53:24.407Z</time></trkpt><trkpt lat="43.216937" lon="12.1934296"><ele>314.0</ele><time>2026-04-19T08:53:25.402Z</time></trkpt><trkpt lat="43.2168907" lon="12.1933067"><ele>314.0</ele><time>2026-04-19T08:53:26.4Z</time></trkpt><trkpt lat="43.216843" lon="12.193191"><ele>314.0</ele><time>2026-04-19T08:53:27.395Z</time></trkpt><trkpt lat="43.2167955" lon="12.1930758"><ele>314.0</ele><time>2026-04-19T08:53:28.393Z</time></trkpt><trkpt lat="43.216746" lon="12.1929547"><ele>314.0</ele><time>2026-04-19T08:53:29.39Z</time></trkpt><trkpt lat="43.2166929" lon="12.1928386"><ele>314.0</ele><time>2026-04-19T08:53:30.394Z</time></trkpt><trkpt lat="43.2166357" lon="12.1927268"><ele>313.83333333333337</ele><time>2026-04-19T08:53:31.401Z</time></trkpt><trkpt lat="43.2165857" lon="12.1926207"><ele>313.6666666666667</ele><time>2026-04-19T08:53:32.396Z</time></trkpt><trkpt lat="43.2165442" lon="12.192514"><ele>313.5</ele><time>2026-04-19T08:53:33.406Z</time></trkpt><trkpt lat="43.2165097" lon="12.1923955"><ele>313.3333333333333</ele><time>2026-04-19T08:53:34.404Z</time></trkpt><trkpt lat="43.2164859" lon="12.1922776"><ele>313.16666666666663</ele><time>2026-04-19T08:53:35.405Z</time></trkpt><trkpt lat="43.2164687" lon="12.1921664"><ele>313.0</ele><time>2026-04-19T08:53:36.411Z</time></trkpt><trkpt lat="43.2164543" lon="12.1920552"><ele>313.0</ele><time>2026-04-19T08:53:37.4Z</time></trkpt><trkpt lat="43.2164512" lon="12.191926"><ele>313.0</ele><time>2026-04-19T08:53:39.424Z</time></trkpt><trkpt lat="43.2164965" lon="12.1918459"><ele>313.0</ele><time>2026-04-19T08:54:05.439Z</time></trkpt><trkpt lat="43.2166002" lon="12.1918314"><ele>313.0</ele><time>2026-04-19T08:54:07.461Z</time></trkpt><trkpt lat="43.2166664" lon="12.191835"><ele>313.0</ele><time>2026-04-19T08:54:08.46Z</time></trkpt><trkpt lat="43.2167388" lon="12.1918316"><ele>313.0</ele><time>2026-04-19T08:54:09.452Z</time></trkpt><trkpt lat="43.2168243" lon="12.1918192"><ele>313.0</ele><time>2026-04-19T08:54:10.456Z</time></trkpt><trkpt lat="43.2169011" lon="12.1918117"><ele>313.0</ele><time>2026-04-19T08:54:11.454Z</time></trkpt><trkpt lat="43.2169825" lon="12.1917987"><ele>313.0</ele><time>2026-04-19T08:54:12.508Z</time></trkpt><trkpt lat="43.2170756" lon="12.1917906"><ele>313.0</ele><time>2026-04-19T08:54:13.472Z</time></trkpt><trkpt lat="43.2171775" lon="12.1917813"><ele>313.0</ele><time>2026-04-19T08:54:14.474Z</time></trkpt><trkpt lat="43.2172868" lon="12.1917662"><ele>312.75</ele><time>2026-04-19T08:54:15.482Z</time></trkpt><trkpt lat="43.217399" lon="12.1917549"><ele>312.5</ele><time>2026-04-19T08:54:16.469Z</time></trkpt><trkpt lat="43.2175105" lon="12.1917485"><ele>312.25</ele><time>2026-04-19T08:54:17.467Z</time></trkpt><trkpt lat="43.2176281" lon="12.1917403"><ele>312.0</ele><time>2026-04-19T08:54:18.47Z</time></trkpt><trkpt lat="43.2178659" lon="12.1917191"><ele>312.0</ele><time>2026-04-19T08:54:20.471Z</time></trkpt><trkpt lat="43.217983" lon="12.1917073"><ele>312.0</ele><time>2026-04-19T08:54:21.482Z</time></trkpt><trkpt lat="43.2181028" lon="12.1916945"><ele>312.0</ele><time>2026-04-19T08:54:22.471Z</time></trkpt><trkpt lat="43.2183563" lon="12.1916615"><ele>312.0</ele><time>2026-04-19T08:54:24.464Z</time></trkpt><trkpt lat="43.2184882" lon="12.1916388"><ele>312.0</ele><time>2026-04-19T08:54:25.38Z</time></trkpt><trkpt lat="43.2186159" lon="12.1916088"><ele>312.0</ele><time>2026-04-19T08:54:26.376Z</time></trkpt><trkpt lat="43.2187354" lon="12.1915723"><ele>312.0</ele><time>2026-04-19T08:54:27.367Z</time></trkpt><trkpt lat="43.2188569" lon="12.1915237"><ele>311.75</ele><time>2026-04-19T08:54:28.379Z</time></trkpt><trkpt lat="43.2189788" lon="12.1914642"><ele>311.5</ele><time>2026-04-19T08:54:29.389Z</time></trkpt><trkpt lat="43.2190951" lon="12.1914014"><ele>311.25</ele><time>2026-04-19T08:54:30.382Z</time></trkpt><trkpt lat="43.2192076" lon="12.1913344"><ele>311.0</ele><time>2026-04-19T08:54:31.383Z</time></trkpt><trkpt lat="43.2193168" lon="12.1912671"><ele>312.25</ele><time>2026-04-19T08:54:32.388Z</time></trkpt><trkpt lat="43.2194305" lon="12.191197"><ele>313.5</ele><time>2026-04-19T08:54:33.392Z</time></trkpt><trkpt lat="43.2195401" lon="12.1911267"><ele>314.75</ele><time>2026-04-19T08:54:34.42Z</time></trkpt><trkpt lat="43.2196526" lon="12.1910549"><ele>316.0</ele><time>2026-04-19T08:54:35.391Z</time></trkpt><trkpt lat="43.2197638" lon="12.1909898"><ele>317.5</ele><time>2026-04-19T08:54:36.39Z</time></trkpt><trkpt lat="43.2198755" lon="12.1909273"><ele>319.0</ele><time>2026-04-19T08:54:37.391Z</time></trkpt><trkpt lat="43.2199908" lon="12.1908613"><ele>320.5</ele><time>2026-04-19T08:54:38.4Z</time></trkpt><trkpt lat="43.2201035" lon="12.1907932"><ele>322.0</ele><time>2026-04-19T08:54:39.401Z</time></trkpt><trkpt lat="43.2202191" lon="12.1907249"><ele>321.5</ele><time>2026-04-19T08:54:40.397Z</time></trkpt><trkpt lat="43.2203345" lon="12.1906572"><ele>321.0</ele><time>2026-04-19T08:54:41.397Z</time></trkpt><trkpt lat="43.2204503" lon="12.190588"><ele>320.5</ele><time>2026-04-19T08:54:42.399Z</time></trkpt><trkpt lat="43.2205647" lon="12.1905195"><ele>320.0</ele><time>2026-04-19T08:54:43.392Z</time></trkpt><trkpt lat="43.2206748" lon="12.1904516"><ele>322.33333333333337</ele><time>2026-04-19T08:54:44.397Z</time></trkpt><trkpt lat="43.2208993" lon="12.19033"><ele>324.6666666666667</ele><time>2026-04-19T08:54:46.414Z</time></trkpt><trkpt lat="43.2210093" lon="12.1902841"><ele>327.0</ele><time>2026-04-19T08:54:47.4Z</time></trkpt><trkpt lat="43.2211177" lon="12.1902536"><ele>327.0</ele><time>2026-04-19T08:54:48.395Z</time></trkpt><trkpt lat="43.2212276" lon="12.1902557"><ele>327.0</ele><time>2026-04-19T08:54:49.415Z</time></trkpt><trkpt lat="43.2213381" lon="12.190271"><ele>327.0</ele><time>2026-04-19T08:54:50.523Z</time></trkpt><trkpt lat="43.221566" lon="12.1903303"><ele>328.0</ele><time>2026-04-19T08:54:52.417Z</time></trkpt><trkpt lat="43.2216872" lon="12.1903708"><ele>329.0</ele><time>2026-04-19T08:54:53.409Z</time></trkpt><trkpt lat="43.2218138" lon="12.1904122"><ele>330.0</ele><time>2026-04-19T08:54:54.409Z</time></trkpt><trkpt lat="43.2220698" lon="12.190493"><ele>330.0</ele><time>2026-04-19T08:54:56.418Z</time></trkpt><trkpt lat="43.2221979" lon="12.1905354"><ele>330.0</ele><time>2026-04-19T08:54:57.404Z</time></trkpt><trkpt lat="43.2223252" lon="12.1905741"><ele>330.0</ele><time>2026-04-19T08:54:58.418Z</time></trkpt><trkpt lat="43.2224487" lon="12.1906132"><ele>330.0</ele><time>2026-04-19T08:54:59.417Z</time></trkpt><trkpt lat="43.2225754" lon="12.1906365"><ele>329.5</ele><time>2026-04-19T08:55:00.424Z</time></trkpt><trkpt lat="43.2227073" lon="12.1906413"><ele>329.0</ele><time>2026-04-19T08:55:01.424Z</time></trkpt><trkpt lat="43.2228427" lon="12.1906347"><ele>328.5</ele><time>2026-04-19T08:55:02.271Z</time></trkpt><trkpt lat="43.2229802" lon="12.1906219"><ele>328.0</ele><time>2026-04-19T08:55:03.294Z</time></trkpt><trkpt lat="43.2231124" lon="12.190599"><ele>327.5</ele><time>2026-04-19T08:55:04.25Z</time></trkpt><trkpt lat="43.2232459" lon="12.1905713"><ele>327.0</ele><time>2026-04-19T08:55:05.247Z</time></trkpt><trkpt lat="43.2233799" lon="12.1905466"><ele>326.5</ele><time>2026-04-19T08:55:06.261Z</time></trkpt><trkpt lat="43.2235119" lon="12.1905238"><ele>326.0</ele><time>2026-04-19T08:55:07.252Z</time></trkpt><trkpt lat="43.2236479" lon="12.1905033"><ele>326.0</ele><time>2026-04-19T08:55:08.253Z</time></trkpt><trkpt lat="43.2237828" lon="12.1904857"><ele>326.0</ele><time>2026-04-19T08:55:09.244Z</time></trkpt><trkpt lat="43.2240473" lon="12.1904509"><ele>326.0</ele><time>2026-04-19T08:55:11.258Z</time></trkpt><trkpt lat="43.224179" lon="12.1904278"><ele>327.0</ele><time>2026-04-19T08:55:12.261Z</time></trkpt><trkpt lat="43.2243101" lon="12.1903987"><ele>328.0</ele><time>2026-04-19T08:55:13.262Z</time></trkpt><trkpt lat="43.224436" lon="12.190353"><ele>329.0</ele><time>2026-04-19T08:55:14.252Z</time></trkpt><trkpt lat="43.2245618" lon="12.1902838"><ele>330.0</ele><time>2026-04-19T08:55:15.27Z</time></trkpt><trkpt lat="43.2246845" lon="12.1902008"><ele>330.0</ele><time>2026-04-19T08:55:16.257Z</time></trkpt><trkpt lat="43.2248026" lon="12.1901135"><ele>330.0</ele><time>2026-04-19T08:55:17.248Z</time></trkpt><trkpt lat="43.2249188" lon="12.1900403"><ele>330.0</ele><time>2026-04-19T08:55:18.259Z</time></trkpt><trkpt lat="43.2250418" lon="12.1899799"><ele>330.0</ele><time>2026-04-19T08:55:19.264Z</time></trkpt><trkpt lat="43.2251692" lon="12.1899468"><ele>331.2</ele><time>2026-04-19T08:55:20.278Z</time></trkpt><trkpt lat="43.2252887" lon="12.1899398"><ele>332.4</ele><time>2026-04-19T08:55:21.259Z</time></trkpt><trkpt lat="43.2253996" lon="12.1899501"><ele>333.6</ele><time>2026-04-19T08:55:22.292Z</time></trkpt><trkpt lat="43.2254995" lon="12.189968"><ele>334.8</ele><time>2026-04-19T08:55:23.254Z</time></trkpt><trkpt lat="43.2255973" lon="12.1899841"><ele>336.0</ele><time>2026-04-19T08:55:24.253Z</time></trkpt><trkpt lat="43.2256814" lon="12.1899954"><ele>336.0</ele><time>2026-04-19T08:55:25.271Z</time></trkpt><trkpt lat="43.2257665" lon="12.189983"><ele>336.0</ele><time>2026-04-19T08:55:26.27Z</time></trkpt><trkpt lat="43.2258526" lon="12.1899541"><ele>336.0</ele><time>2026-04-19T08:55:27.267Z</time></trkpt><trkpt lat="43.2259297" lon="12.1899169"><ele>336.0</ele><time>2026-04-19T08:55:28.249Z</time></trkpt><trkpt lat="43.2259947" lon="12.1898738"><ele>336.0</ele><time>2026-04-19T08:55:29.252Z</time></trkpt><trkpt lat="43.2260912" lon="12.1898197"><ele>336.0</ele><time>2026-04-19T08:55:31.264Z</time></trkpt><trkpt lat="43.2261699" lon="12.1897937"><ele>336.0</ele><time>2026-04-19T08:55:33.254Z</time></trkpt><trkpt lat="43.2262341" lon="12.1897582"><ele>336.0</ele><time>2026-04-19T08:55:37.266Z</time></trkpt><trkpt lat="43.2262793" lon="12.1896968"><ele>336.0</ele><time>2026-04-19T08:58:08.343Z</time></trkpt><trkpt lat="43.2261777" lon="12.1896945"><ele>336.0</ele><time>2026-04-19T08:59:44.264Z</time></trkpt><trkpt lat="43.2261211" lon="12.1897381"><ele>336.0</ele><time>2026-04-19T08:59:45.291Z</time></trkpt><trkpt lat="43.2260586" lon="12.1897843"><ele>336.0</ele><time>2026-04-19T08:59:46.256Z</time></trkpt><trkpt lat="43.2259952" lon="12.1898369"><ele>336.0</ele><time>2026-04-19T08:59:47.335Z</time></trkpt><trkpt lat="43.2259335" lon="12.1898757"><ele>336.0</ele><time>2026-04-19T08:59:48.263Z</time></trkpt><trkpt lat="43.2258646" lon="12.1899156"><ele>336.0</ele><time>2026-04-19T08:59:49.302Z</time></trkpt><trkpt lat="43.2257886" lon="12.1899465"><ele>336.0</ele><time>2026-04-19T08:59:50.251Z</time></trkpt><trkpt lat="43.2257034" lon="12.1899617"><ele>336.0</ele><time>2026-04-19T08:59:51.259Z</time></trkpt><trkpt lat="43.2256093" lon="12.1899625"><ele>336.0</ele><time>2026-04-19T08:59:52.264Z</time></trkpt><trkpt lat="43.2255045" lon="12.1899499"><ele>336.0</ele><time>2026-04-19T08:59:53.269Z</time></trkpt><trkpt lat="43.2253953" lon="12.1899318"><ele>336.25</ele><time>2026-04-19T08:59:54.268Z</time></trkpt><trkpt lat="43.2252894" lon="12.189922"><ele>336.5</ele><time>2026-04-19T08:59:55.274Z</time></trkpt><trkpt lat="43.2251818" lon="12.1899324"><ele>336.75</ele><time>2026-04-19T08:59:56.275Z</time></trkpt><trkpt lat="43.2249671" lon="12.1899998"><ele>337.0</ele><time>2026-04-19T08:59:58.275Z</time></trkpt><trkpt lat="43.2248607" lon="12.1900604"><ele>335.6</ele><time>2026-04-19T08:59:59.271Z</time></trkpt><trkpt lat="43.2247586" lon="12.190123"><ele>334.20000000000005</ele><time>2026-04-19T09:00:00.305Z</time></trkpt><trkpt lat="43.2246617" lon="12.1901892"><ele>332.8</ele><time>2026-04-19T09:00:01.292Z</time></trkpt><trkpt lat="43.2245715" lon="12.1902525"><ele>331.4</ele><time>2026-04-19T09:00:02.277Z</time></trkpt><trkpt lat="43.2244765" lon="12.1903084"><ele>330.0</ele><time>2026-04-19T09:00:03.286Z</time></trkpt><trkpt lat="43.2243748" lon="12.1903521"><ele>330.0</ele><time>2026-04-19T09:00:04.274Z</time></trkpt><trkpt lat="43.2242707" lon="12.1903894"><ele>330.0</ele><time>2026-04-19T09:00:05.276Z</time></trkpt><trkpt lat="43.2241649" lon="12.1904156"><ele>330.0</ele><time>2026-04-19T09:00:06.281Z</time></trkpt><trkpt lat="43.2239489" lon="12.1904505"><ele>330.0</ele><time>2026-04-19T09:00:08.295Z</time></trkpt><trkpt lat="43.2238401" lon="12.190462"><ele>329.0</ele><time>2026-04-19T09:00:09.293Z</time></trkpt><trkpt lat="43.2237315" lon="12.190475"><ele>328.0</ele><time>2026-04-19T09:00:10.296Z</time></trkpt><trkpt lat="43.2235092" lon="12.1905047"><ele>327.0</ele><time>2026-04-19T09:00:12.293Z</time></trkpt><trkpt lat="43.2233978" lon="12.1905235"><ele>326.0</ele><time>2026-04-19T09:00:13.321Z</time></trkpt><trkpt lat="43.2232907" lon="12.1905425"><ele>326.0</ele><time>2026-04-19T09:00:14.283Z</time></trkpt><trkpt lat="43.2231816" lon="12.1905601"><ele>326.0</ele><time>2026-04-19T09:00:15.326Z</time></trkpt><trkpt lat="43.2230758" lon="12.1905738"><ele>326.0</ele><time>2026-04-19T09:00:16.3Z</time></trkpt><trkpt lat="43.2229666" lon="12.1905894"><ele>326.0</ele><time>2026-04-19T09:00:17.319Z</time></trkpt><trkpt lat="43.2227589" lon="12.1906141"><ele>326.5</ele><time>2026-04-19T09:00:19.298Z</time></trkpt><trkpt lat="43.2226554" lon="12.1906152"><ele>327.0</ele><time>2026-04-19T09:00:20.325Z</time></trkpt><trkpt lat="43.2225552" lon="12.1906076"><ele>327.5</ele><time>2026-04-19T09:00:21.343Z</time></trkpt><trkpt lat="43.2223549" lon="12.1905598"><ele>328.0</ele><time>2026-04-19T09:00:23.301Z</time></trkpt><trkpt lat="43.2221498" lon="12.1904987"><ele>328.4</ele><time>2026-04-19T09:00:25.292Z</time></trkpt><trkpt lat="43.2220492" lon="12.1904662"><ele>328.79999999999995</ele><time>2026-04-19T09:00:26.3Z</time></trkpt><trkpt lat="43.2219504" lon="12.1904348"><ele>329.2</ele><time>2026-04-19T09:00:27.303Z</time></trkpt><trkpt lat="43.2218505" lon="12.1904038"><ele>329.6</ele><time>2026-04-19T09:00:28.314Z</time></trkpt><trkpt lat="43.2217487" lon="12.1903744"><ele>330.0</ele><time>2026-04-19T09:00:29.304Z</time></trkpt><trkpt lat="43.2216503" lon="12.1903417"><ele>330.0</ele><time>2026-04-19T09:00:30.317Z</time></trkpt><trkpt lat="43.2215534" lon="12.1903042"><ele>330.0</ele><time>2026-04-19T09:00:31.235Z</time></trkpt><trkpt lat="43.221456" lon="12.1902636"><ele>330.0</ele><time>2026-04-19T09:00:32.187Z</time></trkpt><trkpt lat="43.2213585" lon="12.1902392"><ele>330.0</ele><time>2026-04-19T09:00:33.239Z</time></trkpt><trkpt lat="43.2212575" lon="12.190219"><ele>330.0</ele><time>2026-04-19T09:00:34.218Z</time></trkpt><trkpt lat="43.2211528" lon="12.1902224"><ele>329.4</ele><time>2026-04-19T09:00:35.204Z</time></trkpt><trkpt lat="43.2210459" lon="12.1902513"><ele>328.8</ele><time>2026-04-19T09:00:36.238Z</time></trkpt><trkpt lat="43.220936" lon="12.1902924"><ele>328.20000000000005</ele><time>2026-04-19T09:00:37.237Z</time></trkpt><trkpt lat="43.220836" lon="12.1903391"><ele>327.6</ele><time>2026-04-19T09:00:38.194Z</time></trkpt><trkpt lat="43.2207399" lon="12.1903951"><ele>327.0</ele><time>2026-04-19T09:00:39.209Z</time></trkpt><trkpt lat="43.2206435" lon="12.1904483"><ele>326.0</ele><time>2026-04-19T09:00:40.217Z</time></trkpt><trkpt lat="43.2205459" lon="12.1905033"><ele>325.0</ele><time>2026-04-19T09:00:41.273Z</time></trkpt><trkpt lat="43.2204497" lon="12.1905618"><ele>324.0</ele><time>2026-04-19T09:00:42.231Z</time></trkpt><trkpt lat="43.2203526" lon="12.1906269"><ele>323.0</ele><time>2026-04-19T09:00:43.233Z</time></trkpt><trkpt lat="43.220252" lon="12.1906893"><ele>322.0</ele><time>2026-04-19T09:00:44.221Z</time></trkpt><trkpt lat="43.2201499" lon="12.1907451"><ele>322.0</ele><time>2026-04-19T09:00:45.222Z</time></trkpt><trkpt lat="43.2200478" lon="12.1908048"><ele>322.0</ele><time>2026-04-19T09:00:46.245Z</time></trkpt><trkpt lat="43.2199428" lon="12.1908696"><ele>322.0</ele><time>2026-04-19T09:00:47.235Z</time></trkpt><trkpt lat="43.2198363" lon="12.1909374"><ele>322.0</ele><time>2026-04-19T09:00:48.237Z</time></trkpt><trkpt lat="43.2197261" lon="12.1910063"><ele>320.8</ele><time>2026-04-19T09:00:49.236Z</time></trkpt><trkpt lat="43.2196231" lon="12.191069"><ele>319.6</ele><time>2026-04-19T09:00:50.229Z</time></trkpt><trkpt lat="43.2195189" lon="12.1911297"><ele>318.40000000000003</ele><time>2026-04-19T09:00:51.248Z</time></trkpt><trkpt lat="43.2194177" lon="12.1911887"><ele>317.20000000000005</ele><time>2026-04-19T09:00:52.248Z</time></trkpt><trkpt lat="43.2193155" lon="12.1912463"><ele>316.0</ele><time>2026-04-19T09:00:53.234Z</time></trkpt><trkpt lat="43.2191169" lon="12.1913648"><ele>316.0</ele><time>2026-04-19T09:00:55.221Z</time></trkpt><trkpt lat="43.21902" lon="12.1914238"><ele>316.0</ele><time>2026-04-19T09:00:56.225Z</time></trkpt><trkpt lat="43.218921" lon="12.1914829"><ele>316.0</ele><time>2026-04-19T09:00:57.244Z</time></trkpt><trkpt lat="43.2188178" lon="12.1915306"><ele>316.0</ele><time>2026-04-19T09:00:58.266Z</time></trkpt><trkpt lat="43.2185938" lon="12.1915962"><ele>315.0</ele><time>2026-04-19T09:01:00.297Z</time></trkpt><trkpt lat="43.2184743" lon="12.1916239"><ele>314.0</ele><time>2026-04-19T09:01:01.242Z</time></trkpt><trkpt lat="43.2183509" lon="12.1916465"><ele>313.0</ele><time>2026-04-19T09:01:02.255Z</time></trkpt><trkpt lat="43.2182232" lon="12.1916635"><ele>312.0</ele><time>2026-04-19T09:01:03.261Z</time></trkpt><trkpt lat="43.2179673" lon="12.1916914"><ele>312.0</ele><time>2026-04-19T09:01:05.288Z</time></trkpt><trkpt lat="43.2178413" lon="12.1917033"><ele>312.0</ele><time>2026-04-19T09:01:06.258Z</time></trkpt><trkpt lat="43.2177131" lon="12.191709"><ele>312.0</ele><time>2026-04-19T09:01:07.233Z</time></trkpt><trkpt lat="43.2175766" lon="12.1917119"><ele>312.0</ele><time>2026-04-19T09:01:08.244Z</time></trkpt><trkpt lat="43.2174391" lon="12.1917228"><ele>312.25</ele><time>2026-04-19T09:01:09.251Z</time></trkpt><trkpt lat="43.2173049" lon="12.1917372"><ele>312.5</ele><time>2026-04-19T09:01:10.237Z</time></trkpt><trkpt lat="43.2171805" lon="12.1917491"><ele>312.75</ele><time>2026-04-19T09:01:11.296Z</time></trkpt><trkpt lat="43.217056" lon="12.1917627"><ele>313.0</ele><time>2026-04-19T09:01:12.333Z</time></trkpt><trkpt lat="43.2169339" lon="12.1917696"><ele>313.0</ele><time>2026-04-19T09:01:13.253Z</time></trkpt><trkpt lat="43.2168112" lon="12.1917809"><ele>313.0</ele><time>2026-04-19T09:01:14.244Z</time></trkpt><trkpt lat="43.2166973" lon="12.19179"><ele>313.0</ele><time>2026-04-19T09:01:15.257Z</time></trkpt><trkpt lat="43.2166036" lon="12.1917931"><ele>313.0</ele><time>2026-04-19T09:01:16.279Z</time></trkpt><trkpt lat="43.2165363" lon="12.1917978"><ele>313.0</ele><time>2026-04-19T09:01:17.259Z</time></trkpt><trkpt lat="43.2164629" lon="12.1918082"><ele>313.3333333333333</ele><time>2026-04-19T09:01:19.293Z</time></trkpt><trkpt lat="43.2163882" lon="12.1918222"><ele>313.66666666666663</ele><time>2026-04-19T09:01:22.284Z</time></trkpt><trkpt lat="43.2162853" lon="12.1918279"><ele>314.0</ele><time>2026-04-19T09:01:24.268Z</time></trkpt><trkpt lat="43.2162131" lon="12.1918385"><ele>314.3333333333333</ele><time>2026-04-19T09:01:25.279Z</time></trkpt><trkpt lat="43.2161329" lon="12.1918488"><ele>314.6666666666667</ele><time>2026-04-19T09:01:26.277Z</time></trkpt><trkpt lat="43.216051" lon="12.1918546"><ele>315.0</ele><time>2026-04-19T09:01:27.281Z</time></trkpt><trkpt lat="43.215967" lon="12.1918608"><ele>315.0</ele><time>2026-04-19T09:01:28.267Z</time></trkpt><trkpt lat="43.215871" lon="12.1918684"><ele>315.0</ele><time>2026-04-19T09:01:29.274Z</time></trkpt><trkpt lat="43.2156648" lon="12.1918931"><ele>315.0</ele><time>2026-04-19T09:01:31.322Z</time></trkpt><trkpt lat="43.2154481" lon="12.1919165"><ele>314.25</ele><time>2026-04-19T09:01:33.281Z</time></trkpt><trkpt lat="43.2153358" lon="12.1919175"><ele>313.5</ele><time>2026-04-19T09:01:34.294Z</time></trkpt><trkpt lat="43.2152212" lon="12.1919227"><ele>312.75</ele><time>2026-04-19T09:01:35.295Z</time></trkpt><trkpt lat="43.2151061" lon="12.1919331"><ele>312.0</ele><time>2026-04-19T09:01:36.296Z</time></trkpt><trkpt lat="43.2148737" lon="12.1919558"><ele>312.0</ele><time>2026-04-19T09:01:38.3Z</time></trkpt><trkpt lat="43.2147586" lon="12.1919663"><ele>312.0</ele><time>2026-04-19T09:01:39.307Z</time></trkpt><trkpt lat="43.2146437" lon="12.1919719"><ele>312.0</ele><time>2026-04-19T09:01:40.293Z</time></trkpt><trkpt lat="43.2145294" lon="12.1919786"><ele>312.0</ele><time>2026-04-19T09:01:41.32Z</time></trkpt><trkpt lat="43.2144119" lon="12.1919879"><ele>312.0</ele><time>2026-04-19T09:01:42.294Z</time></trkpt><trkpt lat="43.2142955" lon="12.1919976"><ele>312.0</ele><time>2026-04-19T09:01:43.346Z</time></trkpt><trkpt lat="43.2141814" lon="12.1920048"><ele>312.0</ele><time>2026-04-19T09:01:44.304Z</time></trkpt><trkpt lat="43.2140723" lon="12.1920101"><ele>312.0</ele><time>2026-04-19T09:01:45.284Z</time></trkpt><trkpt lat="43.2139675" lon="12.1920216"><ele>312.0</ele><time>2026-04-19T09:01:46.295Z</time></trkpt><trkpt lat="43.21387" lon="12.1920454"><ele>312.3333333333333</ele><time>2026-04-19T09:01:47.316Z</time></trkpt><trkpt lat="43.2137135" lon="12.1921743"><ele>312.66666666666663</ele><time>2026-04-19T09:01:49.21Z</time></trkpt><trkpt lat="43.2136398" lon="12.1924184"><ele>313.0</ele><time>2026-04-19T09:01:51.207Z</time></trkpt><trkpt lat="43.2136266" lon="12.1925538"><ele>313.4</ele><time>2026-04-19T09:01:52.231Z</time></trkpt><trkpt lat="43.213615" lon="12.1926842"><ele>313.8</ele><time>2026-04-19T09:01:53.221Z</time></trkpt><trkpt lat="43.2135895" lon="12.192806"><ele>314.2</ele><time>2026-04-19T09:01:54.205Z</time></trkpt><trkpt lat="43.2135548" lon="12.1929038"><ele>314.6</ele><time>2026-04-19T09:01:55.251Z</time></trkpt><trkpt lat="43.2134671" lon="12.1930548"><ele>315.0</ele><time>2026-04-19T09:01:57.229Z</time></trkpt><trkpt lat="43.2133224" lon="12.1931408"><ele>315.0</ele><time>2026-04-19T09:01:59.227Z</time></trkpt><trkpt lat="43.2132341" lon="12.1931664"><ele>315.0</ele><time>2026-04-19T09:02:00.328Z</time></trkpt><trkpt lat="43.2130288" lon="12.1932168"><ele>315.0</ele><time>2026-04-19T09:02:02.206Z</time></trkpt><trkpt lat="43.2129245" lon="12.1932478"><ele>315.0</ele><time>2026-04-19T09:02:03.203Z</time></trkpt><trkpt lat="43.2128231" lon="12.1932736"><ele>315.0</ele><time>2026-04-19T09:02:04.24Z</time></trkpt><trkpt lat="43.2127303" lon="12.1932969"><ele>315.0</ele><time>2026-04-19T09:02:05.252Z</time></trkpt><trkpt lat="43.2126447" lon="12.1933223"><ele>315.0</ele><time>2026-04-19T09:02:06.264Z</time></trkpt><trkpt lat="43.2125713" lon="12.1933387"><ele>315.0</ele><time>2026-04-19T09:02:07.228Z</time></trkpt><trkpt lat="43.2125078" lon="12.1933558"><ele>315.0</ele><time>2026-04-19T09:02:08.243Z</time></trkpt><trkpt lat="43.2124394" lon="12.1933674"><ele>315.0</ele><time>2026-04-19T09:02:09.249Z</time></trkpt><trkpt lat="43.2123603" lon="12.1933809"><ele>315.4</ele><time>2026-04-19T09:02:10.24Z</time></trkpt><trkpt lat="43.212268" lon="12.1934066"><ele>315.8</ele><time>2026-04-19T09:02:11.208Z</time></trkpt><trkpt lat="43.2121703" lon="12.1934333"><ele>316.2</ele><time>2026-04-19T09:02:12.232Z</time></trkpt><trkpt lat="43.2120699" lon="12.1934617"><ele>316.6</ele><time>2026-04-19T09:02:13.286Z</time></trkpt><trkpt lat="43.2119671" lon="12.1934845"><ele>317.0</ele><time>2026-04-19T09:02:14.244Z</time></trkpt><trkpt lat="43.2118619" lon="12.1935144"><ele>317.0</ele><time>2026-04-19T09:02:15.254Z</time></trkpt><trkpt lat="43.211648" lon="12.1936047"><ele>317.0</ele><time>2026-04-19T09:02:17.333Z</time></trkpt><trkpt lat="43.211543" lon="12.1936598"><ele>317.0</ele><time>2026-04-19T09:02:18.258Z</time></trkpt><trkpt lat="43.2114425" lon="12.1937239"><ele>317.0</ele><time>2026-04-19T09:02:19.279Z</time></trkpt><trkpt lat="43.2113481" lon="12.1938015"><ele>317.5</ele><time>2026-04-19T09:02:20.26Z</time></trkpt><trkpt lat="43.2112544" lon="12.1938841"><ele>318.0</ele><time>2026-04-19T09:02:21.337Z</time></trkpt><trkpt lat="43.2111625" lon="12.1939679"><ele>318.5</ele><time>2026-04-19T09:02:22.267Z</time></trkpt><trkpt lat="43.2110833" lon="12.1940573"><ele>319.0</ele><time>2026-04-19T09:02:23.274Z</time></trkpt><trkpt lat="43.2109699" lon="12.1943018"><ele>321.5</ele><time>2026-04-19T09:02:25.322Z</time></trkpt><trkpt lat="43.2109494" lon="12.1947278"><ele>324.0</ele><time>2026-04-19T09:02:28.357Z</time></trkpt><trkpt lat="43.2109508" lon="12.195008"><ele>324.75</ele><time>2026-04-19T09:02:30.358Z</time></trkpt><trkpt lat="43.2109439" lon="12.1951538"><ele>325.5</ele><time>2026-04-19T09:02:31.366Z</time></trkpt><trkpt lat="43.2109251" lon="12.1952976"><ele>326.25</ele><time>2026-04-19T09:02:32.402Z</time></trkpt><trkpt lat="43.2108924" lon="12.1954415"><ele>327.0</ele><time>2026-04-19T09:02:33.357Z</time></trkpt><trkpt lat="43.2107724" lon="12.1956871"><ele>327.6</ele><time>2026-04-19T09:02:35.458Z</time></trkpt><trkpt lat="43.210691" lon="12.195786"><ele>328.20000000000005</ele><time>2026-04-19T09:02:36.375Z</time></trkpt><trkpt lat="43.2105995" lon="12.1958836"><ele>328.8</ele><time>2026-04-19T09:02:37.393Z</time></trkpt><trkpt lat="43.2105019" lon="12.1959601"><ele>329.4</ele><time>2026-04-19T09:02:38.418Z</time></trkpt><trkpt lat="43.2103968" lon="12.1960098"><ele>330.0</ele><time>2026-04-19T09:02:39.373Z</time></trkpt><trkpt lat="43.2101801" lon="12.1960554"><ele>331.5</ele><time>2026-04-19T09:02:41.371Z</time></trkpt><trkpt lat="43.2100639" lon="12.1960567"><ele>333.0</ele><time>2026-04-19T09:02:42.352Z</time></trkpt><trkpt lat="43.2099491" lon="12.1960409"><ele>334.5</ele><time>2026-04-19T09:02:43.381Z</time></trkpt><trkpt lat="43.2098329" lon="12.1960237"><ele>336.0</ele><time>2026-04-19T09:02:44.436Z</time></trkpt><trkpt lat="43.2097136" lon="12.1959984"><ele>336.75</ele><time>2026-04-19T09:02:45.395Z</time></trkpt><trkpt lat="43.2095969" lon="12.1959709"><ele>337.5</ele><time>2026-04-19T09:02:46.347Z</time></trkpt><trkpt lat="43.2094795" lon="12.195943"><ele>338.25</ele><time>2026-04-19T09:02:47.395Z</time></trkpt><trkpt lat="43.2093646" lon="12.1959177"><ele>339.0</ele><time>2026-04-19T09:02:48.426Z</time></trkpt><trkpt lat="43.2092501" lon="12.1958925"><ele>339.0</ele><time>2026-04-19T09:02:49.44Z</time></trkpt><trkpt lat="43.2091304" lon="12.1958663"><ele>339.0</ele><time>2026-04-19T09:02:50.405Z</time></trkpt><trkpt lat="43.209009" lon="12.1958381"><ele>339.0</ele><time>2026-04-19T09:02:51.468Z</time></trkpt><trkpt lat="43.2088855" lon="12.1958089"><ele>339.0</ele><time>2026-04-19T09:02:52.406Z</time></trkpt><trkpt lat="43.2087622" lon="12.1957818"><ele>339.79999999999995</ele><time>2026-04-19T09:02:53.432Z</time></trkpt><trkpt lat="43.2086497" lon="12.1957547"><ele>340.59999999999997</ele><time>2026-04-19T09:02:54.423Z</time></trkpt><trkpt lat="43.2085482" lon="12.195732"><ele>341.4</ele><time>2026-04-19T09:02:55.497Z</time></trkpt><trkpt lat="43.2084526" lon="12.195711"><ele>342.2</ele><time>2026-04-19T09:02:56.5Z</time></trkpt><trkpt lat="43.2083485" lon="12.1956926"><ele>343.0</ele><time>2026-04-19T09:02:57.716Z</time></trkpt><trkpt lat="43.2081216" lon="12.1956452"><ele>343.0</ele><time>2026-04-19T09:02:59.451Z</time></trkpt><trkpt lat="43.2080014" lon="12.1956218"><ele>343.0</ele><time>2026-04-19T09:03:00.44Z</time></trkpt><trkpt lat="43.2078869" lon="12.1955964"><ele>343.0</ele><time>2026-04-19T09:03:01.517Z</time></trkpt><trkpt lat="43.2076907" lon="12.1955529"><ele>343.0</ele><time>2026-04-19T09:03:03.374Z</time></trkpt><trkpt lat="43.207605" lon="12.1955353"><ele>343.0</ele><time>2026-04-19T09:03:04.41Z</time></trkpt><trkpt lat="43.2074069" lon="12.1955001"><ele>343.0</ele><time>2026-04-19T09:03:06.298Z</time></trkpt><trkpt lat="43.2073028" lon="12.1954846"><ele>343.0</ele><time>2026-04-19T09:03:07.375Z</time></trkpt><trkpt lat="43.2070825" lon="12.1954546"><ele>343.5</ele><time>2026-04-19T09:03:09.298Z</time></trkpt><trkpt lat="43.2069661" lon="12.1954622"><ele>344.0</ele><time>2026-04-19T09:03:10.308Z</time></trkpt><trkpt lat="43.2067427" lon="12.195515"><ele>344.5</ele><time>2026-04-19T09:03:12.321Z</time></trkpt><trkpt lat="43.2066506" lon="12.1955678"><ele>345.0</ele><time>2026-04-19T09:03:13.35Z</time></trkpt><trkpt lat="43.2065759" lon="12.1956375"><ele>347.2</ele><time>2026-04-19T09:03:14.349Z</time></trkpt><trkpt lat="43.2065149" lon="12.1957208"><ele>349.4</ele><time>2026-04-19T09:03:15.326Z</time></trkpt><trkpt lat="43.2064485" lon="12.1959358"><ele>351.6</ele><time>2026-04-19T09:03:17.298Z</time></trkpt><trkpt lat="43.2064516" lon="12.1960608"><ele>353.8</ele><time>2026-04-19T09:03:18.312Z</time></trkpt><trkpt lat="43.2064781" lon="12.1961784"><ele>356.0</ele><time>2026-04-19T09:03:19.303Z</time></trkpt><trkpt lat="43.2065259" lon="12.1962724"><ele>356.0</ele><time>2026-04-19T09:03:20.327Z</time></trkpt><trkpt lat="43.2066886" lon="12.1963749"><ele>356.0</ele><time>2026-04-19T09:03:22.359Z</time></trkpt><trkpt lat="43.206782" lon="12.1963958"><ele>356.0</ele><time>2026-04-19T09:03:23.349Z</time></trkpt><trkpt lat="43.2068799" lon="12.1964089"><ele>356.0</ele><time>2026-04-19T09:03:24.315Z</time></trkpt><trkpt lat="43.2069751" lon="12.196426"><ele>356.0</ele><time>2026-04-19T09:03:25.412Z</time></trkpt><trkpt lat="43.2070648" lon="12.1964552"><ele>356.0</ele><time>2026-04-19T09:03:26.338Z</time></trkpt><trkpt lat="43.2071547" lon="12.1965133"><ele>356.0</ele><time>2026-04-19T09:03:27.366Z</time></trkpt><trkpt lat="43.2073091" lon="12.1967169"><ele>356.0</ele><time>2026-04-19T09:03:29.331Z</time></trkpt><trkpt lat="43.2073835" lon="12.1968369"><ele>359.0</ele><time>2026-04-19T09:03:30.334Z</time></trkpt><trkpt lat="43.2074683" lon="12.1969818"><ele>362.0</ele><time>2026-04-19T09:03:31.351Z</time></trkpt><trkpt lat="43.2075676" lon="12.1971483"><ele>365.0</ele><time>2026-04-19T09:03:32.323Z</time></trkpt><trkpt lat="43.2076714" lon="12.1973152"><ele>370.0</ele><time>2026-04-19T09:03:33.336Z</time></trkpt><trkpt lat="43.2077783" lon="12.1974893"><ele>375.0</ele><time>2026-04-19T09:03:34.364Z</time></trkpt><trkpt lat="43.207978" lon="12.1978251"><ele>375.0</ele><time>2026-04-19T09:03:36.342Z</time></trkpt><trkpt lat="43.2080641" lon="12.197957"><ele>375.0</ele><time>2026-04-19T09:03:37.365Z</time></trkpt><trkpt lat="43.2081379" lon="12.1980927"><ele>375.0</ele><time>2026-04-19T09:03:38.324Z</time></trkpt><trkpt lat="43.2082373" lon="12.1984189"><ele>373.75</ele><time>2026-04-19T09:03:40.35Z</time></trkpt><trkpt lat="43.2082485" lon="12.198576"><ele>372.5</ele><time>2026-04-19T09:03:41.357Z</time></trkpt><trkpt lat="43.2082442" lon="12.1987255"><ele>371.25</ele><time>2026-04-19T09:03:42.341Z</time></trkpt><trkpt lat="43.2082141" lon="12.1988801"><ele>370.0</ele><time>2026-04-19T09:03:43.373Z</time></trkpt><trkpt lat="43.2081759" lon="12.1990302"><ele>376.0</ele><time>2026-04-19T09:03:44.324Z</time></trkpt><trkpt lat="43.2081094" lon="12.199329"><ele>382.0</ele><time>2026-04-19T09:03:46.319Z</time></trkpt><trkpt lat="43.2080964" lon="12.1996549"><ele>383.0</ele><time>2026-04-19T09:03:48.315Z</time></trkpt><trkpt lat="43.2081423" lon="12.1999685"><ele>384.0</ele><time>2026-04-19T09:03:50.329Z</time></trkpt><trkpt lat="43.2081728" lon="12.2001172"><ele>385.0</ele><time>2026-04-19T09:03:51.322Z</time></trkpt><trkpt lat="43.2082019" lon="12.2002645"><ele>385.0</ele><time>2026-04-19T09:03:52.322Z</time></trkpt><trkpt lat="43.2082213" lon="12.200406"><ele>385.0</ele><time>2026-04-19T09:03:53.34Z</time></trkpt><trkpt lat="43.2082195" lon="12.2005388"><ele>385.0</ele><time>2026-04-19T09:03:54.319Z</time></trkpt><trkpt lat="43.2081936" lon="12.2006678"><ele>385.0</ele><time>2026-04-19T09:03:55.332Z</time></trkpt><trkpt lat="43.208143" lon="12.2007967"><ele>385.0</ele><time>2026-04-19T09:03:56.329Z</time></trkpt><trkpt lat="43.2080793" lon="12.2009095"><ele>385.0</ele><time>2026-04-19T09:03:57.324Z</time></trkpt><trkpt lat="43.2079082" lon="12.2010944"><ele>385.0</ele><time>2026-04-19T09:03:59.352Z</time></trkpt><trkpt lat="43.2077148" lon="12.2011714"><ele>385.0</ele><time>2026-04-19T09:04:01.355Z</time></trkpt><trkpt lat="43.2076046" lon="12.2011402"><ele>385.0</ele><time>2026-04-19T09:04:02.339Z</time></trkpt><trkpt lat="43.2075079" lon="12.2010834"><ele>385.0</ele><time>2026-04-19T09:04:03.342Z</time></trkpt><trkpt lat="43.2074297" lon="12.2009935"><ele>385.0</ele><time>2026-04-19T09:04:04.364Z</time></trkpt><trkpt lat="43.2073599" lon="12.2008799"><ele>385.0</ele><time>2026-04-19T09:04:05.351Z</time></trkpt><trkpt lat="43.2072971" lon="12.2007477"><ele>385.0</ele><time>2026-04-19T09:04:06.336Z</time></trkpt><trkpt lat="43.2071499" lon="12.2004804"><ele>386.6666666666667</ele><time>2026-04-19T09:04:08.346Z</time></trkpt><trkpt lat="43.2070654" lon="12.2003541"><ele>388.33333333333337</ele><time>2026-04-19T09:04:09.347Z</time></trkpt><trkpt lat="43.2068928" lon="12.2001221"><ele>390.0</ele><time>2026-04-19T09:04:11.347Z</time></trkpt><trkpt lat="43.2067065" lon="12.1998895"><ele>390.0</ele><time>2026-04-19T09:04:13.351Z</time></trkpt><trkpt lat="43.2065273" lon="12.199659"><ele>390.0</ele><time>2026-04-19T09:04:15.349Z</time></trkpt><trkpt lat="43.2064363" lon="12.1995449"><ele>390.0</ele><time>2026-04-19T09:04:16.355Z</time></trkpt><trkpt lat="43.20634" lon="12.1994457"><ele>391.66666666666663</ele><time>2026-04-19T09:04:17.353Z</time></trkpt><trkpt lat="43.206243" lon="12.1993579"><ele>393.3333333333333</ele><time>2026-04-19T09:04:18.364Z</time></trkpt><trkpt lat="43.2060045" lon="12.1992712"><ele>395.0</ele><time>2026-04-19T09:04:20.368Z</time></trkpt><trkpt lat="43.2057456" lon="12.1992287"><ele>398.3333333333333</ele><time>2026-04-19T09:04:22.368Z</time></trkpt><trkpt lat="43.2056128" lon="12.1992049"><ele>401.66666666666663</ele><time>2026-04-19T09:04:23.375Z</time></trkpt><trkpt lat="43.2053547" lon="12.1991563"><ele>405.0</ele><time>2026-04-19T09:04:25.356Z</time></trkpt><trkpt lat="43.2050908" lon="12.199108"><ele>403.33333333333337</ele><time>2026-04-19T09:04:27.364Z</time></trkpt><trkpt lat="43.204824" lon="12.1990578"><ele>401.6666666666667</ele><time>2026-04-19T09:04:29.371Z</time></trkpt><trkpt lat="43.2046978" lon="12.1990264"><ele>400.0</ele><time>2026-04-19T09:04:30.371Z</time></trkpt><trkpt lat="43.2045859" lon="12.1989907"><ele>400.0</ele><time>2026-04-19T09:04:31.367Z</time></trkpt><trkpt lat="43.2044773" lon="12.1989449"><ele>400.0</ele><time>2026-04-19T09:04:32.362Z</time></trkpt><trkpt lat="43.2043669" lon="12.1988803"><ele>400.0</ele><time>2026-04-19T09:04:33.383Z</time></trkpt><trkpt lat="43.2041503" lon="12.198707"><ele>400.0</ele><time>2026-04-19T09:04:35.367Z</time></trkpt><trkpt lat="43.204045" lon="12.1986159"><ele>400.0</ele><time>2026-04-19T09:04:36.368Z</time></trkpt><trkpt lat="43.2038414" lon="12.1984627"><ele>400.0</ele><time>2026-04-19T09:04:38.286Z</time></trkpt><trkpt lat="43.2036164" lon="12.1983998"><ele>405.0</ele><time>2026-04-19T09:04:40.281Z</time></trkpt><trkpt lat="43.2033692" lon="12.1984389"><ele>410.0</ele><time>2026-04-19T09:04:42.282Z</time></trkpt><trkpt lat="43.203126" lon="12.1985239"><ele>411.5</ele><time>2026-04-19T09:04:44.284Z</time></trkpt><trkpt lat="43.2028828" lon="12.198614"><ele>413.0</ele><time>2026-04-19T09:04:46.302Z</time></trkpt><trkpt lat="43.2026341" lon="12.1987025"><ele>413.0</ele><time>2026-04-19T09:04:48.291Z</time></trkpt><trkpt lat="43.2023839" lon="12.1987908"><ele>413.0</ele><time>2026-04-19T09:04:50.291Z</time></trkpt><trkpt lat="43.2021296" lon="12.1988887"><ele>416.66666666666663</ele><time>2026-04-19T09:04:52.285Z</time></trkpt><trkpt lat="43.2018739" lon="12.1990072"><ele>420.33333333333337</ele><time>2026-04-19T09:04:54.291Z</time></trkpt><trkpt lat="43.2017464" lon="12.1990709"><ele>424.0</ele><time>2026-04-19T09:04:55.293Z</time></trkpt><trkpt lat="43.2016201" lon="12.1991352"><ele>424.6666666666667</ele><time>2026-04-19T09:04:56.297Z</time></trkpt><trkpt lat="43.2014923" lon="12.1991997"><ele>425.33333333333337</ele><time>2026-04-19T09:04:57.299Z</time></trkpt><trkpt lat="43.2012387" lon="12.1993193"><ele>426.0</ele><time>2026-04-19T09:04:59.289Z</time></trkpt><trkpt lat="43.2009798" lon="12.1994078"><ele>426.0</ele><time>2026-04-19T09:05:01.316Z</time></trkpt><trkpt lat="43.2008465" lon="12.1994391"><ele>426.0</ele><time>2026-04-19T09:05:02.319Z</time></trkpt><trkpt lat="43.2007134" lon="12.1994662"><ele>426.0</ele><time>2026-04-19T09:05:03.305Z</time></trkpt><trkpt lat="43.2005822" lon="12.1994931"><ele>426.0</ele><time>2026-04-19T09:05:04.306Z</time></trkpt><trkpt lat="43.2004485" lon="12.1995171"><ele>426.66666666666663</ele><time>2026-04-19T09:05:05.307Z</time></trkpt><trkpt lat="43.2003149" lon="12.199537"><ele>427.3333333333333</ele><time>2026-04-19T09:05:06.309Z</time></trkpt><trkpt lat="43.2001805" lon="12.1995608"><ele>428.0</ele><time>2026-04-19T09:05:07.309Z</time></trkpt><trkpt lat="43.1999158" lon="12.1996049"><ele>427.66666666666663</ele><time>2026-04-19T09:05:09.328Z</time></trkpt><trkpt lat="43.1997915" lon="12.1996222"><ele>427.33333333333337</ele><time>2026-04-19T09:05:10.316Z</time></trkpt><trkpt lat="43.1996687" lon="12.1996425"><ele>427.0</ele><time>2026-04-19T09:05:11.327Z</time></trkpt><trkpt lat="43.199434" lon="12.1996987"><ele>427.0</ele><time>2026-04-19T09:05:13.343Z</time></trkpt><trkpt lat="43.1992474" lon="12.1998225"><ele>427.0</ele><time>2026-04-19T09:05:15.333Z</time></trkpt><trkpt lat="43.199179" lon="12.1999226"><ele>427.0</ele><time>2026-04-19T09:05:16.33Z</time></trkpt><trkpt lat="43.1991267" lon="12.2000504"><ele>427.0</ele><time>2026-04-19T09:05:17.317Z</time></trkpt><trkpt lat="43.1991095" lon="12.2001954"><ele>429.0</ele><time>2026-04-19T09:05:18.315Z</time></trkpt><trkpt lat="43.1991183" lon="12.2003489"><ele>431.0</ele><time>2026-04-19T09:05:19.317Z</time></trkpt><trkpt lat="43.1991506" lon="12.2005035"><ele>433.0</ele><time>2026-04-19T09:05:20.321Z</time></trkpt><trkpt lat="43.1992958" lon="12.2007138"><ele>435.0</ele><time>2026-04-19T09:05:22.328Z</time></trkpt><trkpt lat="43.1994013" lon="12.2007666"><ele>437.33333333333337</ele><time>2026-04-19T09:05:23.312Z</time></trkpt><trkpt lat="43.1995096" lon="12.2007884"><ele>439.6666666666667</ele><time>2026-04-19T09:05:24.319Z</time></trkpt><trkpt lat="43.1997524" lon="12.2007525"><ele>442.0</ele><time>2026-04-19T09:05:26.316Z</time></trkpt><trkpt lat="43.1998766" lon="12.2007284"><ele>442.75</ele><time>2026-04-19T09:05:27.33Z</time></trkpt><trkpt lat="43.2000018" lon="12.2007032"><ele>443.5</ele><time>2026-04-19T09:05:28.334Z</time></trkpt><trkpt lat="43.2001234" lon="12.2006802"><ele>444.25</ele><time>2026-04-19T09:05:29.325Z</time></trkpt><trkpt lat="43.2002441" lon="12.2006539"><ele>445.0</ele><time>2026-04-19T09:05:30.321Z</time></trkpt><trkpt lat="43.2003632" lon="12.2006329"><ele>445.25</ele><time>2026-04-19T09:05:31.33Z</time></trkpt><trkpt lat="43.2004719" lon="12.2006121"><ele>445.5</ele><time>2026-04-19T09:05:32.338Z</time></trkpt><trkpt lat="43.2006523" lon="12.2005975"><ele>445.75</ele><time>2026-04-19T09:05:34.331Z</time></trkpt><trkpt lat="43.2007903" lon="12.2006837"><ele>446.0</ele><time>2026-04-19T09:05:36.34Z</time></trkpt><trkpt lat="43.2008381" lon="12.2007558"><ele>446.0</ele><time>2026-04-19T09:05:37.348Z</time></trkpt><trkpt lat="43.2008622" lon="12.2008393"><ele>446.0</ele><time>2026-04-19T09:05:38.334Z</time></trkpt><trkpt lat="43.200844" lon="12.2009403"><ele>446.0</ele><time>2026-04-19T09:05:39.333Z</time></trkpt><trkpt lat="43.200789" lon="12.2010329"><ele>446.0</ele><time>2026-04-19T09:05:40.344Z</time></trkpt><trkpt lat="43.2006351" lon="12.2011335"><ele>446.0</ele><time>2026-04-19T09:05:42.327Z</time></trkpt><trkpt lat="43.2005493" lon="12.2011412"><ele>445.8333333333333</ele><time>2026-04-19T09:05:43.325Z</time></trkpt><trkpt lat="43.2004603" lon="12.2011469"><ele>445.66666666666663</ele><time>2026-04-19T09:05:44.336Z</time></trkpt><trkpt lat="43.2003661" lon="12.2011635"><ele>445.5</ele><time>2026-04-19T09:05:45.331Z</time></trkpt><trkpt lat="43.2002868" lon="12.2012095"><ele>445.33333333333337</ele><time>2026-04-19T09:05:46.339Z</time></trkpt><trkpt lat="43.2002221" lon="12.2013033"><ele>445.1666666666667</ele><time>2026-04-19T09:05:47.349Z</time></trkpt><trkpt lat="43.2001901" lon="12.2014095"><ele>445.0</ele><time>2026-04-19T09:05:48.331Z</time></trkpt><trkpt lat="43.2001865" lon="12.2015201"><ele>447.5</ele><time>2026-04-19T09:05:49.327Z</time></trkpt><trkpt lat="43.2002684" lon="12.2017329"><ele>450.0</ele><time>2026-04-19T09:05:51.338Z</time></trkpt><trkpt lat="43.2003451" lon="12.2018263"><ele>452.5</ele><time>2026-04-19T09:05:52.348Z</time></trkpt><trkpt lat="43.2004377" lon="12.2019073"><ele>455.0</ele><time>2026-04-19T09:05:53.339Z</time></trkpt><trkpt lat="43.200533" lon="12.2019819"><ele>455.0</ele><time>2026-04-19T09:05:54.342Z</time></trkpt><trkpt lat="43.2006263" lon="12.2020571"><ele>455.0</ele><time>2026-04-19T09:05:55.351Z</time></trkpt><trkpt lat="43.2007181" lon="12.2021322"><ele>455.0</ele><time>2026-04-19T09:05:56.341Z</time></trkpt><trkpt lat="43.2007954" lon="12.2022176"><ele>455.0</ele><time>2026-04-19T09:05:57.336Z</time></trkpt><trkpt lat="43.2008561" lon="12.2023145"><ele>455.0</ele><time>2026-04-19T09:05:58.345Z</time></trkpt><trkpt lat="43.2008918" lon="12.2024212"><ele>455.8333333333333</ele><time>2026-04-19T09:05:59.401Z</time></trkpt><trkpt lat="43.2009041" lon="12.2025387"><ele>456.66666666666663</ele><time>2026-04-19T09:06:00.35Z</time></trkpt><trkpt lat="43.2008842" lon="12.2026432"><ele>457.5</ele><time>2026-04-19T09:06:01.339Z</time></trkpt><trkpt lat="43.2008345" lon="12.2027387"><ele>458.33333333333337</ele><time>2026-04-19T09:06:02.354Z</time></trkpt><trkpt lat="43.2007652" lon="12.2028219"><ele>459.1666666666667</ele><time>2026-04-19T09:06:03.341Z</time></trkpt><trkpt lat="43.2006875" lon="12.202864"><ele>460.0</ele><time>2026-04-19T09:06:04.343Z</time></trkpt><trkpt lat="43.2005975" lon="12.2028655"><ele>461.6</ele><time>2026-04-19T09:06:05.346Z</time></trkpt><trkpt lat="43.2005135" lon="12.2028334"><ele>463.2</ele><time>2026-04-19T09:06:06.345Z</time></trkpt><trkpt lat="43.2004314" lon="12.202786"><ele>464.79999999999995</ele><time>2026-04-19T09:06:07.355Z</time></trkpt><trkpt lat="43.2003426" lon="12.2027061"><ele>466.4</ele><time>2026-04-19T09:06:08.25Z</time></trkpt><trkpt lat="43.2002572" lon="12.2026071"><ele>468.0</ele><time>2026-04-19T09:06:09.269Z</time></trkpt><trkpt lat="43.2001706" lon="12.2025107"><ele>468.0</ele><time>2026-04-19T09:06:10.255Z</time></trkpt><trkpt lat="43.2000787" lon="12.2024291"><ele>467.99999999999994</ele><time>2026-04-19T09:06:11.266Z</time></trkpt><trkpt lat="43.1999813" lon="12.2023705"><ele>467.99999999999994</ele><time>2026-04-19T09:06:12.267Z</time></trkpt><trkpt lat="43.1998735" lon="12.2023378"><ele>468.0</ele><time>2026-04-19T09:06:13.26Z</time></trkpt><trkpt lat="43.1997757" lon="12.2023404"><ele>468.0</ele><time>2026-04-19T09:06:14.25Z</time></trkpt><trkpt lat="43.1996709" lon="12.2023754"><ele>468.0</ele><time>2026-04-19T09:06:15.274Z</time></trkpt><trkpt lat="43.1995738" lon="12.2024368"><ele>468.0</ele><time>2026-04-19T09:06:16.258Z</time></trkpt><trkpt lat="43.1994727" lon="12.202523"><ele>468.0</ele><time>2026-04-19T09:06:17.274Z</time></trkpt><trkpt lat="43.1993751" lon="12.202614"><ele>468.0</ele><time>2026-04-19T09:06:18.253Z</time></trkpt><trkpt lat="43.1992713" lon="12.2026983"><ele>468.0</ele><time>2026-04-19T09:06:19.256Z</time></trkpt><trkpt lat="43.1991532" lon="12.2027636"><ele>468.0</ele><time>2026-04-19T09:06:20.259Z</time></trkpt><trkpt lat="43.1990335" lon="12.2028014"><ele>468.0</ele><time>2026-04-19T09:06:21.26Z</time></trkpt><trkpt lat="43.1989058" lon="12.2028214"><ele>468.0</ele><time>2026-04-19T09:06:22.259Z</time></trkpt><trkpt lat="43.1986412" lon="12.2028303"><ele>468.5</ele><time>2026-04-19T09:06:24.269Z</time></trkpt><trkpt lat="43.1983914" lon="12.202854"><ele>469.0</ele><time>2026-04-19T09:06:26.258Z</time></trkpt><trkpt lat="43.1981566" lon="12.2029319"><ele>467.6666666666667</ele><time>2026-04-19T09:06:28.26Z</time></trkpt><trkpt lat="43.1980374" lon="12.2029792"><ele>466.33333333333337</ele><time>2026-04-19T09:06:29.262Z</time></trkpt><trkpt lat="43.1979139" lon="12.203024"><ele>465.0</ele><time>2026-04-19T09:06:30.26Z</time></trkpt><trkpt lat="43.1976684" lon="12.2031177"><ele>467.0</ele><time>2026-04-19T09:06:32.26Z</time></trkpt><trkpt lat="43.1975576" lon="12.2031676"><ele>469.0</ele><time>2026-04-19T09:06:33.268Z</time></trkpt><trkpt lat="43.197465" lon="12.2032149"><ele>471.0</ele><time>2026-04-19T09:06:34.282Z</time></trkpt><trkpt lat="43.1973853" lon="12.2032732"><ele>473.0</ele><time>2026-04-19T09:06:35.264Z</time></trkpt><trkpt lat="43.1972623" lon="12.2034907"><ele>473.0</ele><time>2026-04-19T09:06:37.261Z</time></trkpt><trkpt lat="43.1972168" lon="12.2036373"><ele>473.0</ele><time>2026-04-19T09:06:38.273Z</time></trkpt><trkpt lat="43.1971792" lon="12.2037908"><ele>473.0</ele><time>2026-04-19T09:06:39.271Z</time></trkpt><trkpt lat="43.1971156" lon="12.2040981"><ele>475.5</ele><time>2026-04-19T09:06:41.27Z</time></trkpt><trkpt lat="43.1970574" lon="12.2043686"><ele>478.0</ele><time>2026-04-19T09:06:43.29Z</time></trkpt><trkpt lat="43.1970051" lon="12.2044745"><ele>480.5</ele><time>2026-04-19T09:06:44.29Z</time></trkpt><trkpt lat="43.1969321" lon="12.204565"><ele>483.0</ele><time>2026-04-19T09:06:45.29Z</time></trkpt><trkpt lat="43.1968446" lon="12.2046329"><ele>483.0</ele><time>2026-04-19T09:06:46.284Z</time></trkpt><trkpt lat="43.1967424" lon="12.2046662"><ele>483.0</ele><time>2026-04-19T09:06:47.292Z</time></trkpt><trkpt lat="43.1965206" lon="12.2046881"><ele>483.0</ele><time>2026-04-19T09:06:49.292Z</time></trkpt><trkpt lat="43.1963058" lon="12.2045936"><ele>487.0</ele><time>2026-04-19T09:06:51.185Z</time></trkpt><trkpt lat="43.1962074" lon="12.2044836"><ele>491.0</ele><time>2026-04-19T09:06:52.197Z</time></trkpt><trkpt lat="43.1960586" lon="12.2042279"><ele>495.0</ele><time>2026-04-19T09:06:54.199Z</time></trkpt><trkpt lat="43.1959843" lon="12.2041073"><ele>494.5</ele><time>2026-04-19T09:06:55.193Z</time></trkpt><trkpt lat="43.1959035" lon="12.2039966"><ele>494.0</ele><time>2026-04-19T09:06:56.193Z</time></trkpt><trkpt lat="43.1957913" lon="12.2039136"><ele>493.5</ele><time>2026-04-19T09:06:57.207Z</time></trkpt><trkpt lat="43.1956656" lon="12.2038555"><ele>493.0</ele><time>2026-04-19T09:06:58.206Z</time></trkpt><trkpt lat="43.195536" lon="12.2038122"><ele>493.0</ele><time>2026-04-19T09:06:59.208Z</time></trkpt><trkpt lat="43.1952726" lon="12.2037404"><ele>493.0</ele><time>2026-04-19T09:07:01.208Z</time></trkpt><trkpt lat="43.1950007" lon="12.2036702"><ele>498.5</ele><time>2026-04-19T09:07:03.24Z</time></trkpt><trkpt lat="43.1947258" lon="12.2035911"><ele>504.0</ele><time>2026-04-19T09:07:05.228Z</time></trkpt><trkpt lat="43.1944614" lon="12.2035135"><ele>504.0</ele><time>2026-04-19T09:07:07.213Z</time></trkpt><trkpt lat="43.1943329" lon="12.2034771"><ele>504.0</ele><time>2026-04-19T09:07:08.203Z</time></trkpt><trkpt lat="43.1942054" lon="12.2034411"><ele>504.0</ele><time>2026-04-19T09:07:09.209Z</time></trkpt><trkpt lat="43.1940789" lon="12.2034008"><ele>504.0</ele><time>2026-04-19T09:07:10.208Z</time></trkpt><trkpt lat="43.1939558" lon="12.2033586"><ele>504.75</ele><time>2026-04-19T09:07:11.275Z</time></trkpt><trkpt lat="43.1938392" lon="12.203321"><ele>505.5</ele><time>2026-04-19T09:07:12.221Z</time></trkpt><trkpt lat="43.1937386" lon="12.2032911"><ele>506.25</ele><time>2026-04-19T09:07:13.197Z</time></trkpt><trkpt lat="43.1935674" lon="12.2032428"><ele>507.0</ele><time>2026-04-19T09:07:15.212Z</time></trkpt><trkpt lat="43.1934937" lon="12.2032252"><ele>507.0</ele><time>2026-04-19T09:07:16.23Z</time></trkpt><trkpt lat="43.1934232" lon="12.2032056"><ele>507.00000000000006</ele><time>2026-04-19T09:07:17.219Z</time></trkpt><trkpt lat="43.1932894" lon="12.203168"><ele>507.00000000000006</ele><time>2026-04-19T09:07:19.191Z</time></trkpt><trkpt lat="43.1932249" lon="12.2031518"><ele>507.0</ele><time>2026-04-19T09:07:20.209Z</time></trkpt><trkpt lat="43.1931176" lon="12.203139"><ele>507.0</ele><time>2026-04-19T09:07:22.201Z</time></trkpt><trkpt lat="43.1930562" lon="12.2032438"><ele>507.0</ele><time>2026-04-19T09:07:38.223Z</time></trkpt><trkpt lat="43.1930847" lon="12.2033886"><ele>507.0</ele><time>2026-04-19T09:07:40.208Z</time></trkpt><trkpt lat="43.1931354" lon="12.2035329"><ele>507.0</ele><time>2026-04-19T09:07:42.207Z</time></trkpt><trkpt lat="43.1931844" lon="12.2037383"><ele>507.0</ele><time>2026-04-19T09:07:44.223Z</time></trkpt><trkpt lat="43.1932081" lon="12.2039698"><ele>508.0</ele><time>2026-04-19T09:07:46.227Z</time></trkpt><trkpt lat="43.1932231" lon="12.2040832"><ele>509.00000000000006</ele><time>2026-04-19T09:07:47.23Z</time></trkpt><trkpt lat="43.1932414" lon="12.2042048"><ele>510.00000000000006</ele><time>2026-04-19T09:07:48.226Z</time></trkpt><trkpt lat="43.1932617" lon="12.2043307"><ele>511.0</ele><time>2026-04-19T09:07:49.209Z</time></trkpt><trkpt lat="43.1932895" lon="12.2044619"><ele>512.0</ele><time>2026-04-19T09:07:50.234Z</time></trkpt><trkpt lat="43.1933239" lon="12.2046003"><ele>512.5</ele><time>2026-04-19T09:07:51.233Z</time></trkpt><trkpt lat="43.1933978" lon="12.2048692"><ele>513.0</ele><time>2026-04-19T09:07:53.24Z</time></trkpt><trkpt lat="43.1934364" lon="12.2050045"><ele>513.5</ele><time>2026-04-19T09:07:54.233Z</time></trkpt><trkpt lat="43.1934794" lon="12.205134"><ele>514.0</ele><time>2026-04-19T09:07:55.242Z</time></trkpt><trkpt lat="43.1935768" lon="12.2053756"><ele>514.0</ele><time>2026-04-19T09:07:57.242Z</time></trkpt><trkpt lat="43.1936994" lon="12.2055927"><ele>514.0</ele><time>2026-04-19T09:07:59.237Z</time></trkpt><trkpt lat="43.1937834" lon="12.2056914"><ele>514.0</ele><time>2026-04-19T09:08:00.245Z</time></trkpt><trkpt lat="43.1938696" lon="12.2057831"><ele>514.0</ele><time>2026-04-19T09:08:01.239Z</time></trkpt><trkpt lat="43.1940403" lon="12.2059266"><ele>517.5</ele><time>2026-04-19T09:08:03.245Z</time></trkpt><trkpt lat="43.1941141" lon="12.2060047"><ele>521.0</ele><time>2026-04-19T09:08:04.24Z</time></trkpt><trkpt lat="43.1942337" lon="12.2061904"><ele>524.5</ele><time>2026-04-19T09:08:06.248Z</time></trkpt><trkpt lat="43.1942607" lon="12.2062772"><ele>528.0</ele><time>2026-04-19T09:08:07.245Z</time></trkpt><trkpt lat="43.194295" lon="12.2064766"><ele>530.0</ele><time>2026-04-19T09:08:09.243Z</time></trkpt><trkpt lat="43.1943119" lon="12.2066125"><ele>532.0</ele><time>2026-04-19T09:08:10.241Z</time></trkpt><trkpt lat="43.1943291" lon="12.2067787"><ele>534.0</ele><time>2026-04-19T09:08:11.24Z</time></trkpt><trkpt lat="43.194343" lon="12.2069653"><ele>536.0</ele><time>2026-04-19T09:08:12.241Z</time></trkpt><trkpt lat="43.1943346" lon="12.2071594"><ele>537.75</ele><time>2026-04-19T09:08:13.262Z</time></trkpt><trkpt lat="43.1943227" lon="12.2073596"><ele>539.5</ele><time>2026-04-19T09:08:14.249Z</time></trkpt><trkpt lat="43.1942926" lon="12.2075466"><ele>541.25</ele><time>2026-04-19T09:08:15.24Z</time></trkpt><trkpt lat="43.1942692" lon="12.2077092"><ele>543.0</ele><time>2026-04-19T09:08:16.249Z</time></trkpt><trkpt lat="43.1942551" lon="12.2078658"><ele>543.0</ele><time>2026-04-19T09:08:17.243Z</time></trkpt><trkpt lat="43.1942405" lon="12.208009"><ele>543.0</ele><time>2026-04-19T09:08:18.234Z</time></trkpt><trkpt lat="43.1942364" lon="12.2081607"><ele>543.0</ele><time>2026-04-19T09:08:19.242Z</time></trkpt><trkpt lat="43.1942428" lon="12.2083084"><ele>543.0</ele><time>2026-04-19T09:08:20.242Z</time></trkpt><trkpt lat="43.1942718" lon="12.2084479"><ele>543.0</ele><time>2026-04-19T09:08:21.251Z</time></trkpt><trkpt lat="43.1943178" lon="12.2085803"><ele>543.6666666666666</ele><time>2026-04-19T09:08:22.241Z</time></trkpt><trkpt lat="43.1944544" lon="12.2088488"><ele>544.3333333333333</ele><time>2026-04-19T09:08:24.242Z</time></trkpt><trkpt lat="43.1945222" lon="12.2089953"><ele>545.0</ele><time>2026-04-19T09:08:25.246Z</time></trkpt><trkpt lat="43.1945907" lon="12.209132"><ele>545.0</ele><time>2026-04-19T09:08:26.251Z</time></trkpt><trkpt lat="43.1946635" lon="12.2092787"><ele>545.0</ele><time>2026-04-19T09:08:27.245Z</time></trkpt><trkpt lat="43.1947393" lon="12.2094327"><ele>545.0</ele><time>2026-04-19T09:08:28.245Z</time></trkpt><trkpt lat="43.194812" lon="12.2095868"><ele>545.0</ele><time>2026-04-19T09:08:29.261Z</time></trkpt><trkpt lat="43.1948806" lon="12.2097365"><ele>548.5</ele><time>2026-04-19T09:08:30.25Z</time></trkpt><trkpt lat="43.1949536" lon="12.2098868"><ele>552.0</ele><time>2026-04-19T09:08:31.258Z</time></trkpt><trkpt lat="43.1950262" lon="12.2100318"><ele>555.5</ele><time>2026-04-19T09:08:32.252Z</time></trkpt><trkpt lat="43.1950968" lon="12.2101758"><ele>559.0</ele><time>2026-04-19T09:08:33.267Z</time></trkpt><trkpt lat="43.1951641" lon="12.2103201"><ele>559.0</ele><time>2026-04-19T09:08:34.256Z</time></trkpt><trkpt lat="43.1952355" lon="12.2104654"><ele>559.0</ele><time>2026-04-19T09:08:35.259Z</time></trkpt><trkpt lat="43.195304" lon="12.2106049"><ele>559.0</ele><time>2026-04-19T09:08:36.277Z</time></trkpt><trkpt lat="43.19537" lon="12.2107442"><ele>559.0</ele><time>2026-04-19T09:08:37.262Z</time></trkpt><trkpt lat="43.1954329" lon="12.2108854"><ele>559.3333333333334</ele><time>2026-04-19T09:08:38.296Z</time></trkpt><trkpt lat="43.1954958" lon="12.2110309"><ele>559.6666666666666</ele><time>2026-04-19T09:08:39.271Z</time></trkpt><trkpt lat="43.1956127" lon="12.2113372"><ele>560.0</ele><time>2026-04-19T09:08:41.281Z</time></trkpt><trkpt lat="43.1956604" lon="12.2114911"><ele>562.25</ele><time>2026-04-19T09:08:42.269Z</time></trkpt><trkpt lat="43.1957038" lon="12.211647"><ele>564.5</ele><time>2026-04-19T09:08:43.272Z</time></trkpt><trkpt lat="43.1957502" lon="12.2118078"><ele>566.75</ele><time>2026-04-19T09:08:44.288Z</time></trkpt><trkpt lat="43.195793" lon="12.2119667"><ele>569.0</ele><time>2026-04-19T09:08:45.285Z</time></trkpt><trkpt lat="43.19584" lon="12.2121311"><ele>569.0</ele><time>2026-04-19T09:08:46.293Z</time></trkpt><trkpt lat="43.1958855" lon="12.2122976"><ele>569.0</ele><time>2026-04-19T09:08:47.279Z</time></trkpt><trkpt lat="43.1959365" lon="12.2124644"><ele>569.0</ele><time>2026-04-19T09:08:48.278Z</time></trkpt><trkpt lat="43.1959823" lon="12.2126276"><ele>569.0</ele><time>2026-04-19T09:08:49.286Z</time></trkpt><trkpt lat="43.1960752" lon="12.2129681"><ele>570.0</ele><time>2026-04-19T09:08:51.275Z</time></trkpt><trkpt lat="43.196124" lon="12.2131403"><ele>571.0</ele><time>2026-04-19T09:08:52.297Z</time></trkpt><trkpt lat="43.1962045" lon="12.2134766"><ele>572.0</ele><time>2026-04-19T09:08:54.28Z</time></trkpt><trkpt lat="43.1962537" lon="12.2136301"><ele>573.0</ele><time>2026-04-19T09:08:55.29Z</time></trkpt><trkpt lat="43.1963081" lon="12.2137755"><ele>574.0</ele><time>2026-04-19T09:08:56.293Z</time></trkpt><trkpt lat="43.1963752" lon="12.213926"><ele>575.0</ele><time>2026-04-19T09:08:57.29Z</time></trkpt><trkpt lat="43.1964459" lon="12.2140759"><ele>576.0</ele><time>2026-04-19T09:08:58.285Z</time></trkpt><trkpt lat="43.1965179" lon="12.2142347"><ele>576.0</ele><time>2026-04-19T09:08:59.282Z</time></trkpt><trkpt lat="43.1965852" lon="12.2143944"><ele>576.0</ele><time>2026-04-19T09:09:00.191Z</time></trkpt><trkpt lat="43.1966742" lon="12.2147282"><ele>576.0</ele><time>2026-04-19T09:09:02.312Z</time></trkpt><trkpt lat="43.1967414" lon="12.2150704"><ele>577.6666666666666</ele><time>2026-04-19T09:09:04.192Z</time></trkpt><trkpt lat="43.1967773" lon="12.2152331"><ele>579.3333333333333</ele><time>2026-04-19T09:09:05.193Z</time></trkpt><trkpt lat="43.1968269" lon="12.2155687"><ele>581.0</ele><time>2026-04-19T09:09:07.198Z</time></trkpt><trkpt lat="43.1968316" lon="12.2157351"><ele>582.3333333333333</ele><time>2026-04-19T09:09:08.191Z</time></trkpt><trkpt lat="43.1968135" lon="12.2159066"><ele>583.6666666666666</ele><time>2026-04-19T09:09:09.202Z</time></trkpt><trkpt lat="43.1967942" lon="12.2160684"><ele>585.0</ele><time>2026-04-19T09:09:10.193Z</time></trkpt><trkpt lat="43.1968114" lon="12.2163988"><ele>583.75</ele><time>2026-04-19T09:09:12.2Z</time></trkpt><trkpt lat="43.1968604" lon="12.2165758"><ele>582.5</ele><time>2026-04-19T09:09:13.199Z</time></trkpt><trkpt lat="43.1969231" lon="12.2167415"><ele>581.25</ele><time>2026-04-19T09:09:14.209Z</time></trkpt><trkpt lat="43.1969941" lon="12.2168978"><ele>580.0</ele><time>2026-04-19T09:09:15.212Z</time></trkpt><trkpt lat="43.1970617" lon="12.2170519"><ele>580.0</ele><time>2026-04-19T09:09:16.2Z</time></trkpt><trkpt lat="43.1971245" lon="12.2172079"><ele>580.0</ele><time>2026-04-19T09:09:17.203Z</time></trkpt><trkpt lat="43.19724" lon="12.2175209"><ele>580.0</ele><time>2026-04-19T09:09:19.209Z</time></trkpt><trkpt lat="43.197294" lon="12.2177031"><ele>583.6666666666667</ele><time>2026-04-19T09:09:20.204Z</time></trkpt><trkpt lat="43.19735" lon="12.2178942"><ele>587.3333333333334</ele><time>2026-04-19T09:09:21.204Z</time></trkpt><trkpt lat="43.1974086" lon="12.2180854"><ele>591.0</ele><time>2026-04-19T09:09:22.208Z</time></trkpt><trkpt lat="43.1975182" lon="12.2184046"><ele>593.3333333333334</ele><time>2026-04-19T09:09:24.204Z</time></trkpt><trkpt lat="43.1975809" lon="12.218537"><ele>595.6666666666667</ele><time>2026-04-19T09:09:25.21Z</time></trkpt><trkpt lat="43.1976721" lon="12.2186617"><ele>598.0</ele><time>2026-04-19T09:09:26.218Z</time></trkpt><trkpt lat="43.197892" lon="12.2188792"><ele>598.0</ele><time>2026-04-19T09:09:28.214Z</time></trkpt><trkpt lat="43.1979866" lon="12.2189623"><ele>598.0</ele><time>2026-04-19T09:09:29.214Z</time></trkpt><trkpt lat="43.1981407" lon="12.2190106"><ele>598.0</ele><time>2026-04-19T09:09:31.217Z</time></trkpt><trkpt lat="43.1982121" lon="12.2189777"><ele>598.0</ele><time>2026-04-19T09:09:32.211Z</time></trkpt><trkpt lat="43.1983687" lon="12.2188248"><ele>601.3333333333334</ele><time>2026-04-19T09:09:34.217Z</time></trkpt><trkpt lat="43.1986341" lon="12.2186322"><ele>604.6666666666666</ele><time>2026-04-19T09:09:37.211Z</time></trkpt><trkpt lat="43.1987521" lon="12.2186822"><ele>608.0</ele><time>2026-04-19T09:09:39.209Z</time></trkpt><trkpt lat="43.198799" lon="12.2188363"><ele>608.0</ele><time>2026-04-19T09:09:41.221Z</time></trkpt><trkpt lat="43.1988015" lon="12.2189504"><ele>608.0</ele><time>2026-04-19T09:09:42.217Z</time></trkpt><trkpt lat="43.1987988" lon="12.2190729"><ele>608.0</ele><time>2026-04-19T09:09:43.22Z</time></trkpt><trkpt lat="43.1987946" lon="12.2192025"><ele>608.0</ele><time>2026-04-19T09:09:44.221Z</time></trkpt><trkpt lat="43.1987994" lon="12.2193114"><ele>608.0</ele><time>2026-04-19T09:09:45.215Z</time></trkpt><trkpt lat="43.1988277" lon="12.2194379"><ele>608.0</ele><time>2026-04-19T09:09:47.212Z</time></trkpt><trkpt lat="43.1989493" lon="12.219534"><ele>613.5</ele><time>2026-04-19T09:09:51.224Z</time></trkpt><trkpt lat="43.1990199" lon="12.2195877"><ele>619.0</ele><time>2026-04-19T09:09:52.222Z</time></trkpt><trkpt lat="43.1991003" lon="12.2196796"><ele>624.5</ele><time>2026-04-19T09:09:53.217Z</time></trkpt><trkpt lat="43.1992111" lon="12.2199038"><ele>630.0</ele><time>2026-04-19T09:09:55.218Z</time></trkpt><trkpt lat="43.1992016" lon="12.220164"><ele>630.0</ele><time>2026-04-19T09:09:57.233Z</time></trkpt><trkpt lat="43.1991235" lon="12.2204337"><ele>630.0</ele><time>2026-04-19T09:09:59.225Z</time></trkpt><trkpt lat="43.1990641" lon="12.2205576"><ele>630.0</ele><time>2026-04-19T09:10:00.269Z</time></trkpt><trkpt lat="43.1989905" lon="12.2206778"><ele>630.0</ele><time>2026-04-19T09:10:01.229Z</time></trkpt><trkpt lat="43.1988319" lon="12.2209017"><ele>630.0</ele><time>2026-04-19T09:10:03.227Z</time></trkpt><trkpt lat="43.1987461" lon="12.2209944"><ele>630.0</ele><time>2026-04-19T09:10:04.22Z</time></trkpt><trkpt lat="43.1985551" lon="12.2211498"><ele>630.0</ele><time>2026-04-19T09:10:06.224Z</time></trkpt><trkpt lat="43.1983879" lon="12.2213078"><ele>630.0</ele><time>2026-04-19T09:10:08.223Z</time></trkpt><trkpt lat="43.1982433" lon="12.2214666"><ele>630.0</ele><time>2026-04-19T09:10:10.237Z</time></trkpt><trkpt lat="43.1981571" lon="12.2216632"><ele>630.0</ele><time>2026-04-19T09:10:12.236Z</time></trkpt><trkpt lat="43.1981447" lon="12.2218043"><ele>630.6666666666666</ele><time>2026-04-19T09:10:13.248Z</time></trkpt><trkpt lat="43.1981438" lon="12.221973"><ele>631.3333333333333</ele><time>2026-04-19T09:10:14.25Z</time></trkpt><trkpt lat="43.1981367" lon="12.222348"><ele>632.0</ele><time>2026-04-19T09:10:16.25Z</time></trkpt><trkpt lat="43.1981298" lon="12.2226847"><ele>632.0</ele><time>2026-04-19T09:10:18.24Z</time></trkpt><trkpt lat="43.198115" lon="12.2229358"><ele>632.0</ele><time>2026-04-19T09:10:20.227Z</time></trkpt><trkpt lat="43.1981129" lon="12.2231317"><ele>632.0</ele><time>2026-04-19T09:10:22.238Z</time></trkpt><trkpt lat="43.1981331" lon="12.2233127"><ele>633.6</ele><time>2026-04-19T09:10:24.251Z</time></trkpt><trkpt lat="43.1981553" lon="12.2234507"><ele>635.2</ele><time>2026-04-19T09:10:26.25Z</time></trkpt><trkpt lat="43.1981932" lon="12.2235508"><ele>636.8</ele><time>2026-04-19T09:10:28.24Z</time></trkpt><trkpt lat="43.1982458" lon="12.2236503"><ele>638.4</ele><time>2026-04-19T09:10:30.235Z</time></trkpt><trkpt lat="43.1982988" lon="12.2237441"><ele>640.0</ele><time>2026-04-19T09:11:06.243Z</time></trkpt><trkpt lat="43.1983754" lon="12.2238694"><ele>641.2</ele><time>2026-04-19T09:11:08.251Z</time></trkpt><trkpt lat="43.1984239" lon="12.2239445"><ele>642.4</ele><time>2026-04-19T09:11:09.254Z</time></trkpt><trkpt lat="43.1985364" lon="12.2240973"><ele>643.5999999999999</ele><time>2026-04-19T09:11:11.255Z</time></trkpt><trkpt lat="43.1985932" lon="12.2241731"><ele>644.8</ele><time>2026-04-19T09:11:12.258Z</time></trkpt><trkpt lat="43.1986477" lon="12.2242474"><ele>646.0</ele><time>2026-04-19T09:11:13.244Z</time></trkpt><trkpt lat="43.1987046" lon="12.2243235"><ele>646.0</ele><time>2026-04-19T09:11:14.251Z</time></trkpt><trkpt lat="43.1987752" lon="12.2243858"><ele>646.0</ele><time>2026-04-19T09:11:15.248Z</time></trkpt><trkpt lat="43.1988545" lon="12.2244335"><ele>646.0</ele><time>2026-04-19T09:11:16.267Z</time></trkpt><trkpt lat="43.1989379" lon="12.2244676"><ele>646.0</ele><time>2026-04-19T09:11:17.242Z</time></trkpt><trkpt lat="43.1990232" lon="12.2244989"><ele>646.0</ele><time>2026-04-19T09:11:18.249Z</time></trkpt><trkpt lat="43.1991106" lon="12.2245281"><ele>646.0</ele><time>2026-04-19T09:11:19.251Z</time></trkpt><trkpt lat="43.1991851" lon="12.2245577"><ele>645.7142857142858</ele><time>2026-04-19T09:11:20.259Z</time></trkpt><trkpt lat="43.1992591" lon="12.2245857"><ele>645.4285714285714</ele><time>2026-04-19T09:11:21.252Z</time></trkpt><trkpt lat="43.1993289" lon="12.2246129"><ele>645.1428571428571</ele><time>2026-04-19T09:11:22.29Z</time></trkpt><trkpt lat="43.1993893" lon="12.2246446"><ele>644.8571428571429</ele><time>2026-04-19T09:11:23.272Z</time></trkpt><trkpt lat="43.1994528" lon="12.2246794"><ele>644.5714285714286</ele><time>2026-04-19T09:11:24.265Z</time></trkpt><trkpt lat="43.199523" lon="12.2247127"><ele>644.2857142857143</ele><time>2026-04-19T09:11:25.261Z</time></trkpt><trkpt lat="43.1995984" lon="12.2247615"><ele>644.0</ele><time>2026-04-19T09:11:26.264Z</time></trkpt><trkpt lat="43.1996829" lon="12.22483"><ele>644.0</ele><time>2026-04-19T09:11:27.271Z</time></trkpt><trkpt lat="43.1997725" lon="12.2248909"><ele>644.0</ele><time>2026-04-19T09:11:28.269Z</time></trkpt><trkpt lat="43.1998611" lon="12.2249422"><ele>644.0</ele><time>2026-04-19T09:11:29.259Z</time></trkpt><trkpt lat="43.1999553" lon="12.2249935"><ele>644.0</ele><time>2026-04-19T09:11:30.275Z</time></trkpt><trkpt lat="43.2000398" lon="12.2250563"><ele>644.0</ele><time>2026-04-19T09:11:31.288Z</time></trkpt><trkpt lat="43.2001109" lon="12.2251245"><ele>645.5</ele><time>2026-04-19T09:11:32.27Z</time></trkpt><trkpt lat="43.200168" lon="12.2251919"><ele>647.0</ele><time>2026-04-19T09:11:33.259Z</time></trkpt><trkpt lat="43.2002155" lon="12.2252645"><ele>648.5</ele><time>2026-04-19T09:11:34.265Z</time></trkpt><trkpt lat="43.2002506" lon="12.2253651"><ele>650.0</ele><time>2026-04-19T09:11:35.257Z</time></trkpt><trkpt lat="43.2002623" lon="12.2254747"><ele>651.5</ele><time>2026-04-19T09:11:36.264Z</time></trkpt><trkpt lat="43.2002739" lon="12.2256409"><ele>653.0</ele><time>2026-04-19T09:11:37.27Z</time></trkpt><trkpt lat="43.2002924" lon="12.225839"><ele>653.0</ele><time>2026-04-19T09:11:38.275Z</time></trkpt><trkpt lat="43.2003057" lon="12.2260561"><ele>653.0</ele><time>2026-04-19T09:11:39.282Z</time></trkpt><trkpt lat="43.2003202" lon="12.2262917"><ele>653.0</ele><time>2026-04-19T09:11:40.276Z</time></trkpt><trkpt lat="43.2003351" lon="12.2265257"><ele>653.6666666666666</ele><time>2026-04-19T09:11:41.292Z</time></trkpt><trkpt lat="43.2003507" lon="12.226761"><ele>654.3333333333334</ele><time>2026-04-19T09:11:42.268Z</time></trkpt><trkpt lat="43.2003714" lon="12.2270061"><ele>655.0</ele><time>2026-04-19T09:11:43.285Z</time></trkpt><trkpt lat="43.2003863" lon="12.2272293"><ele>655.8</ele><time>2026-04-19T09:11:44.269Z</time></trkpt><trkpt lat="43.2003941" lon="12.2274044"><ele>656.6</ele><time>2026-04-19T09:11:45.271Z</time></trkpt><trkpt lat="43.2004035" lon="12.2275545"><ele>657.4000000000001</ele><time>2026-04-19T09:11:46.267Z</time></trkpt><trkpt lat="43.2004198" lon="12.2276924"><ele>658.2</ele><time>2026-04-19T09:11:47.269Z</time></trkpt><trkpt lat="43.2004587" lon="12.2278312"><ele>659.0</ele><time>2026-04-19T09:11:48.267Z</time></trkpt><trkpt lat="43.2005076" lon="12.2279746"><ele>659.0</ele><time>2026-04-19T09:11:49.269Z</time></trkpt><trkpt lat="43.2005717" lon="12.228103"><ele>659.0</ele><time>2026-04-19T09:11:50.28Z</time></trkpt><trkpt lat="43.2006484" lon="12.2282269"><ele>659.0</ele><time>2026-04-19T09:11:51.274Z</time></trkpt><trkpt lat="43.2007916" lon="12.2284743"><ele>661.75</ele><time>2026-04-19T09:11:53.274Z</time></trkpt><trkpt lat="43.2008342" lon="12.2286192"><ele>664.5</ele><time>2026-04-19T09:11:54.271Z</time></trkpt><trkpt lat="43.2008617" lon="12.22877"><ele>667.25</ele><time>2026-04-19T09:11:55.277Z</time></trkpt><trkpt lat="43.2008608" lon="12.2289244"><ele>670.0</ele><time>2026-04-19T09:11:56.272Z</time></trkpt><trkpt lat="43.2008422" lon="12.229073"><ele>670.6</ele><time>2026-04-19T09:11:57.266Z</time></trkpt><trkpt lat="43.2007914" lon="12.2291986"><ele>671.2</ele><time>2026-04-19T09:11:58.276Z</time></trkpt><trkpt lat="43.2007255" lon="12.2293015"><ele>671.8</ele><time>2026-04-19T09:11:59.283Z</time></trkpt><trkpt lat="43.2006419" lon="12.2293866"><ele>672.4</ele><time>2026-04-19T09:12:00.28Z</time></trkpt><trkpt lat="43.200518" lon="12.229451"><ele>673.0</ele><time>2026-04-19T09:12:01.276Z</time></trkpt><trkpt lat="43.2003722" lon="12.2295003"><ele>667.3333333333334</ele><time>2026-04-19T09:12:02.28Z</time></trkpt><trkpt lat="43.2000851" lon="12.2295941"><ele>661.6666666666666</ele><time>2026-04-19T09:12:04.273Z</time></trkpt><trkpt lat="43.1999542" lon="12.2296519"><ele>656.0</ele><time>2026-04-19T09:12:05.288Z</time></trkpt><trkpt lat="43.199843" lon="12.2297272"><ele>655.8</ele><time>2026-04-19T09:12:06.285Z</time></trkpt><trkpt lat="43.1997572" lon="12.2298206"><ele>655.5999999999999</ele><time>2026-04-19T09:12:07.278Z</time></trkpt><trkpt lat="43.1997083" lon="12.2299311"><ele>655.4</ele><time>2026-04-19T09:12:08.281Z</time></trkpt><trkpt lat="43.199686" lon="12.2300514"><ele>655.2</ele><time>2026-04-19T09:12:09.283Z</time></trkpt><trkpt lat="43.1996977" lon="12.2301856"><ele>655.0</ele><time>2026-04-19T09:12:10.281Z</time></trkpt><trkpt lat="43.1997452" lon="12.230312"><ele>655.0</ele><time>2026-04-19T09:12:11.307Z</time></trkpt><trkpt lat="43.1998222" lon="12.230444"><ele>655.0</ele><time>2026-04-19T09:12:12.283Z</time></trkpt><trkpt lat="43.1999059" lon="12.2305805"><ele>655.0</ele><time>2026-04-19T09:12:13.287Z</time></trkpt><trkpt lat="43.1999964" lon="12.2307038"><ele>655.0</ele><time>2026-04-19T09:12:14.281Z</time></trkpt><trkpt lat="43.2001939" lon="12.2309434"><ele>655.5</ele><time>2026-04-19T09:12:16.297Z</time></trkpt><trkpt lat="43.2002971" lon="12.231041"><ele>656.0</ele><time>2026-04-19T09:12:17.289Z</time></trkpt><trkpt lat="43.2004209" lon="12.2311191"><ele>656.5</ele><time>2026-04-19T09:12:18.29Z</time></trkpt><trkpt lat="43.2005615" lon="12.2311842"><ele>657.0</ele><time>2026-04-19T09:12:19.28Z</time></trkpt><trkpt lat="43.20071" lon="12.2312248"><ele>658.25</ele><time>2026-04-19T09:12:20.285Z</time></trkpt><trkpt lat="43.2008444" lon="12.2312455"><ele>659.5</ele><time>2026-04-19T09:12:21.285Z</time></trkpt><trkpt lat="43.2009691" lon="12.2312567"><ele>660.75</ele><time>2026-04-19T09:12:22.293Z</time></trkpt><trkpt lat="43.2010778" lon="12.2312733"><ele>662.0</ele><time>2026-04-19T09:12:23.285Z</time></trkpt><trkpt lat="43.2011733" lon="12.2312854"><ele>662.0</ele><time>2026-04-19T09:12:24.29Z</time></trkpt><trkpt lat="43.2012624" lon="12.2313138"><ele>662.0</ele><time>2026-04-19T09:12:25.286Z</time></trkpt><trkpt lat="43.2013329" lon="12.2313673"><ele>662.0</ele><time>2026-04-19T09:12:26.285Z</time></trkpt><trkpt lat="43.2013852" lon="12.2314536"><ele>662.0</ele><time>2026-04-19T09:12:27.288Z</time></trkpt><trkpt lat="43.2014261" lon="12.231552"><ele>662.0</ele><time>2026-04-19T09:12:28.281Z</time></trkpt><trkpt lat="43.2014433" lon="12.2316597"><ele>662.0</ele><time>2026-04-19T09:12:29.285Z</time></trkpt><trkpt lat="43.2014362" lon="12.2317689"><ele>658.7142857142858</ele><time>2026-04-19T09:12:30.279Z</time></trkpt><trkpt lat="43.2014196" lon="12.2318531"><ele>655.4285714285714</ele><time>2026-04-19T09:12:31.291Z</time></trkpt><trkpt lat="43.2013986" lon="12.2319545"><ele>652.1428571428571</ele><time>2026-04-19T09:12:33.279Z</time></trkpt><trkpt lat="43.201387" lon="12.2320428"><ele>648.8571428571429</ele><time>2026-04-19T09:15:02.209Z</time></trkpt><trkpt lat="43.2013761" lon="12.2321482"><ele>645.5714285714286</ele><time>2026-04-19T09:15:04.213Z</time></trkpt><trkpt lat="43.2013663" lon="12.2322359"><ele>642.2857142857143</ele><time>2026-04-19T09:15:05.209Z</time></trkpt><trkpt lat="43.2013531" lon="12.2323384"><ele>639.0</ele><time>2026-04-19T09:15:06.206Z</time></trkpt><trkpt lat="43.2013271" lon="12.2325323"><ele>636.2</ele><time>2026-04-19T09:15:08.223Z</time></trkpt><trkpt lat="43.2013122" lon="12.2326987"><ele>633.4</ele><time>2026-04-19T09:15:10.221Z</time></trkpt><trkpt lat="43.2013127" lon="12.2328356"><ele>630.6</ele><time>2026-04-19T09:15:12.223Z</time></trkpt><trkpt lat="43.2013557" lon="12.2329053"><ele>627.8</ele><time>2026-04-19T09:15:14.214Z</time></trkpt><trkpt lat="43.2013574" lon="12.2327774"><ele>625.0</ele><time>2026-04-19T09:15:22.213Z</time></trkpt><trkpt lat="43.2013543" lon="12.2325872"><ele>625.0</ele><time>2026-04-19T09:15:24.225Z</time></trkpt><trkpt lat="43.2013605" lon="12.2324622"><ele>625.0</ele><time>2026-04-19T09:15:25.212Z</time></trkpt><trkpt lat="43.2013782" lon="12.2323337"><ele>625.0</ele><time>2026-04-19T09:15:26.238Z</time></trkpt><trkpt lat="43.2013962" lon="12.2322088"><ele>625.0</ele><time>2026-04-19T09:15:27.239Z</time></trkpt><trkpt lat="43.2014011" lon="12.2321016"><ele>625.0</ele><time>2026-04-19T09:15:28.247Z</time></trkpt><trkpt lat="43.2013952" lon="12.2320084"><ele>625.0</ele><time>2026-04-19T09:15:29.226Z</time></trkpt><trkpt lat="43.2013732" lon="12.2319146"><ele>627.3333333333334</ele><time>2026-04-19T09:15:30.23Z</time></trkpt><trkpt lat="43.2013507" lon="12.2318136"><ele>629.6666666666667</ele><time>2026-04-19T09:15:31.239Z</time></trkpt><trkpt lat="43.2013279" lon="12.2317255"><ele>632.0</ele><time>2026-04-19T09:15:32.228Z</time></trkpt><trkpt lat="43.2012798" lon="12.2315784"><ele>634.3333333333334</ele><time>2026-04-19T09:15:34.231Z</time></trkpt><trkpt lat="43.2011956" lon="12.2314689"><ele>636.6666666666666</ele><time>2026-04-19T09:15:36.219Z</time></trkpt><trkpt lat="43.2011356" lon="12.2314316"><ele>639.0</ele><time>2026-04-19T09:15:37.226Z</time></trkpt><trkpt lat="43.201057" lon="12.2314147"><ele>642.0</ele><time>2026-04-19T09:15:38.23Z</time></trkpt><trkpt lat="43.2009777" lon="12.2314101"><ele>645.0</ele><time>2026-04-19T09:15:39.238Z</time></trkpt><trkpt lat="43.2009021" lon="12.2314138"><ele>648.0</ele><time>2026-04-19T09:15:40.245Z</time></trkpt><trkpt lat="43.2008244" lon="12.231418"><ele>651.0</ele><time>2026-04-19T09:15:41.235Z</time></trkpt><trkpt lat="43.2007322" lon="12.2314147"><ele>654.0</ele><time>2026-04-19T09:15:42.24Z</time></trkpt><trkpt lat="43.2006391" lon="12.2314107"><ele>657.0</ele><time>2026-04-19T09:15:43.23Z</time></trkpt><trkpt lat="43.2005508" lon="12.2314048"><ele>657.0</ele><time>2026-04-19T09:15:44.243Z</time></trkpt><trkpt lat="43.2004599" lon="12.23138"><ele>657.0</ele><time>2026-04-19T09:15:45.246Z</time></trkpt><trkpt lat="43.2003743" lon="12.2313427"><ele>657.0</ele><time>2026-04-19T09:15:46.234Z</time></trkpt><trkpt lat="43.2002955" lon="12.2312893"><ele>657.0</ele><time>2026-04-19T09:15:47.234Z</time></trkpt><trkpt lat="43.2002098" lon="12.2312279"><ele>657.0</ele><time>2026-04-19T09:15:48.244Z</time></trkpt><trkpt lat="43.2001285" lon="12.231165"><ele>657.0</ele><time>2026-04-19T09:15:49.229Z</time></trkpt><trkpt lat="43.2000573" lon="12.2310941"><ele>657.0</ele><time>2026-04-19T09:15:50.244Z</time></trkpt><trkpt lat="43.1999927" lon="12.2310185"><ele>657.0</ele><time>2026-04-19T09:15:51.246Z</time></trkpt><trkpt lat="43.199924" lon="12.2309282"><ele>657.0</ele><time>2026-04-19T09:15:52.235Z</time></trkpt><trkpt lat="43.1998521" lon="12.2308475"><ele>657.0</ele><time>2026-04-19T09:15:53.238Z</time></trkpt><trkpt lat="43.1997718" lon="12.2307724"><ele>656.6666666666666</ele><time>2026-04-19T09:15:54.237Z</time></trkpt><trkpt lat="43.1996984" lon="12.2307181"><ele>656.3333333333334</ele><time>2026-04-19T09:15:55.239Z</time></trkpt><trkpt lat="43.1996257" lon="12.2306764"><ele>656.0</ele><time>2026-04-19T09:15:56.246Z</time></trkpt><trkpt lat="43.1995533" lon="12.2306507"><ele>655.6666666666667</ele><time>2026-04-19T09:15:57.233Z</time></trkpt><trkpt lat="43.1994659" lon="12.230636"><ele>655.3333333333334</ele><time>2026-04-19T09:15:58.234Z</time></trkpt><trkpt lat="43.1993872" lon="12.2306323"><ele>655.0</ele><time>2026-04-19T09:15:59.261Z</time></trkpt><trkpt lat="43.1993119" lon="12.2306363"><ele>655.0</ele><time>2026-04-19T09:16:00.235Z</time></trkpt><trkpt lat="43.1992382" lon="12.2306439"><ele>655.0</ele><time>2026-04-19T09:16:01.235Z</time></trkpt><trkpt lat="43.1991266" lon="12.2306348"><ele>655.0</ele><time>2026-04-19T09:16:03.249Z</time></trkpt><trkpt lat="43.1990283" lon="12.2305802"><ele>655.0</ele><time>2026-04-19T09:16:05.237Z</time></trkpt><trkpt lat="43.1989311" lon="12.2304997"><ele>655.0</ele><time>2026-04-19T09:16:07.243Z</time></trkpt><trkpt lat="43.1988678" lon="12.230413"><ele>652.3333333333334</ele><time>2026-04-19T09:16:09.237Z</time></trkpt><trkpt lat="43.1988389" lon="12.2302987"><ele>649.6666666666667</ele><time>2026-04-19T09:16:11.232Z</time></trkpt><trkpt lat="43.1988418" lon="12.2301463"><ele>647.0</ele><time>2026-04-19T09:16:13.247Z</time></trkpt><trkpt lat="43.1988553" lon="12.230043"><ele>644.3333333333334</ele><time>2026-04-19T09:16:14.239Z</time></trkpt><trkpt lat="43.1988684" lon="12.2299436"><ele>641.6666666666666</ele><time>2026-04-19T09:16:15.247Z</time></trkpt><trkpt lat="43.1988825" lon="12.2298559"><ele>639.0</ele><time>2026-04-19T09:16:16.241Z</time></trkpt><trkpt lat="43.1989182" lon="12.2297343"><ele>639.6666666666666</ele><time>2026-04-19T09:16:18.24Z</time></trkpt><trkpt lat="43.1989889" lon="12.2296061"><ele>640.3333333333334</ele><time>2026-04-19T09:16:20.249Z</time></trkpt><trkpt lat="43.1990355" lon="12.2295389"><ele>641.0</ele><time>2026-04-19T09:16:21.237Z</time></trkpt><trkpt lat="43.199085" lon="12.2294804"><ele>641.6666666666667</ele><time>2026-04-19T09:16:22.236Z</time></trkpt><trkpt lat="43.1991437" lon="12.2294224"><ele>642.3333333333334</ele><time>2026-04-19T09:16:23.243Z</time></trkpt><trkpt lat="43.1991996" lon="12.2293768"><ele>643.0</ele><time>2026-04-19T09:16:24.252Z</time></trkpt><trkpt lat="43.1992638" lon="12.2293453"><ele>643.0</ele><time>2026-04-19T09:16:25.249Z</time></trkpt><trkpt lat="43.1993375" lon="12.229322"><ele>643.0</ele><time>2026-04-19T09:16:26.251Z</time></trkpt><trkpt lat="43.1994332" lon="12.2293029"><ele>643.0</ele><time>2026-04-19T09:16:27.247Z</time></trkpt><trkpt lat="43.1995408" lon="12.2292864"><ele>643.0</ele><time>2026-04-19T09:16:28.243Z</time></trkpt><trkpt lat="43.199657" lon="12.2292671"><ele>643.0</ele><time>2026-04-19T09:16:29.26Z</time></trkpt><trkpt lat="43.1997724" lon="12.229256"><ele>646.25</ele><time>2026-04-19T09:16:30.266Z</time></trkpt><trkpt lat="43.1998813" lon="12.2292505"><ele>649.5</ele><time>2026-04-19T09:16:31.363Z</time></trkpt><trkpt lat="43.2001032" lon="12.229227"><ele>652.75</ele><time>2026-04-19T09:16:33.255Z</time></trkpt><trkpt lat="43.2002034" lon="12.2292181"><ele>656.0</ele><time>2026-04-19T09:16:34.266Z</time></trkpt><trkpt lat="43.2002972" lon="12.2292103"><ele>656.0</ele><time>2026-04-19T09:16:35.256Z</time></trkpt><trkpt lat="43.2003833" lon="12.2292033"><ele>656.0</ele><time>2026-04-19T09:16:36.266Z</time></trkpt><trkpt lat="43.2004529" lon="12.229196"><ele>656.0</ele><time>2026-04-19T09:16:37.26Z</time></trkpt><trkpt lat="43.2005613" lon="12.2291719"><ele>656.0</ele><time>2026-04-19T09:16:39.256Z</time></trkpt><trkpt lat="43.2006482" lon="12.229086"><ele>656.0</ele><time>2026-04-19T09:16:41.255Z</time></trkpt><trkpt lat="43.2006883" lon="12.2290075"><ele>656.0</ele><time>2026-04-19T09:16:42.268Z</time></trkpt><trkpt lat="43.2007345" lon="12.228915"><ele>658.3333333333333</ele><time>2026-04-19T09:16:43.247Z</time></trkpt><trkpt lat="43.2007756" lon="12.2288169"><ele>660.6666666666666</ele><time>2026-04-19T09:16:44.251Z</time></trkpt><trkpt lat="43.2007902" lon="12.2287258"><ele>663.0</ele><time>2026-04-19T09:16:45.248Z</time></trkpt><trkpt lat="43.2007698" lon="12.2285898"><ele>665.3333333333334</ele><time>2026-04-19T09:16:47.256Z</time></trkpt><trkpt lat="43.2007563" lon="12.2284734"><ele>667.6666666666667</ele><time>2026-04-19T09:16:49.256Z</time></trkpt><trkpt lat="43.2007462" lon="12.2283803"><ele>670.0</ele><time>2026-04-19T09:16:54.24Z</time></trkpt><trkpt lat="43.2006948" lon="12.2282259"><ele>668.1666666666667</ele><time>2026-04-19T09:16:56.236Z</time></trkpt><trkpt lat="43.2006575" lon="12.2281354"><ele>666.3333333333334</ele><time>2026-04-19T09:16:57.244Z</time></trkpt><trkpt lat="43.2006111" lon="12.2280368"><ele>664.5</ele><time>2026-04-19T09:16:58.247Z</time></trkpt><trkpt lat="43.2005641" lon="12.2279288"><ele>662.6666666666666</ele><time>2026-04-19T09:16:59.233Z</time></trkpt><trkpt lat="43.2005189" lon="12.2278189"><ele>660.8333333333333</ele><time>2026-04-19T09:17:00.249Z</time></trkpt><trkpt lat="43.2004841" lon="12.2277203"><ele>659.0</ele><time>2026-04-19T09:17:01.242Z</time></trkpt><trkpt lat="43.2004501" lon="12.2276295"><ele>659.0</ele><time>2026-04-19T09:17:02.249Z</time></trkpt><trkpt lat="43.2004247" lon="12.2275318"><ele>659.0</ele><time>2026-04-19T09:17:03.252Z</time></trkpt><trkpt lat="43.2004128" lon="12.2274133"><ele>659.0</ele><time>2026-04-19T09:17:04.247Z</time></trkpt><trkpt lat="43.2004077" lon="12.2272883"><ele>659.0</ele><time>2026-04-19T09:17:05.25Z</time></trkpt><trkpt lat="43.2004038" lon="12.2271574"><ele>659.0</ele><time>2026-04-19T09:17:06.245Z</time></trkpt><trkpt lat="43.2003897" lon="12.227037"><ele>659.0</ele><time>2026-04-19T09:17:07.255Z</time></trkpt><trkpt lat="43.2003827" lon="12.226916"><ele>658.2</ele><time>2026-04-19T09:17:08.261Z</time></trkpt><trkpt lat="43.2003793" lon="12.2267838"><ele>657.4000000000001</ele><time>2026-04-19T09:17:09.24Z</time></trkpt><trkpt lat="43.2003667" lon="12.2266384"><ele>656.6</ele><time>2026-04-19T09:17:10.261Z</time></trkpt><trkpt lat="43.2003548" lon="12.226499"><ele>655.8</ele><time>2026-04-19T09:17:11.254Z</time></trkpt><trkpt lat="43.2003448" lon="12.2263652"><ele>655.0</ele><time>2026-04-19T09:17:12.268Z</time></trkpt><trkpt lat="43.2003351" lon="12.2262385"><ele>655.0</ele><time>2026-04-19T09:17:13.257Z</time></trkpt><trkpt lat="43.2003245" lon="12.2261092"><ele>655.0</ele><time>2026-04-19T09:17:14.245Z</time></trkpt><trkpt lat="43.200312" lon="12.225972"><ele>655.0</ele><time>2026-04-19T09:17:15.257Z</time></trkpt><trkpt lat="43.2002954" lon="12.2258329"><ele>655.0</ele><time>2026-04-19T09:17:16.246Z</time></trkpt><trkpt lat="43.2002865" lon="12.2256938"><ele>655.0</ele><time>2026-04-19T09:17:17.258Z</time></trkpt><trkpt lat="43.2002723" lon="12.2255688"><ele>655.0</ele><time>2026-04-19T09:17:18.254Z</time></trkpt><trkpt lat="43.2002508" lon="12.2254525"><ele>655.0</ele><time>2026-04-19T09:17:19.252Z</time></trkpt><trkpt lat="43.200231" lon="12.225343"><ele>655.0</ele><time>2026-04-19T09:17:20.248Z</time></trkpt><trkpt lat="43.2002049" lon="12.2252428"><ele>655.0</ele><time>2026-04-19T09:17:21.272Z</time></trkpt><trkpt lat="43.2001651" lon="12.2251601"><ele>655.0</ele><time>2026-04-19T09:17:22.26Z</time></trkpt><trkpt lat="43.2001053" lon="12.2250955"><ele>655.0</ele><time>2026-04-19T09:17:23.252Z</time></trkpt><trkpt lat="43.2000225" lon="12.2250372"><ele>655.0</ele><time>2026-04-19T09:17:24.258Z</time></trkpt><trkpt lat="43.1999344" lon="12.2249854"><ele>655.0</ele><time>2026-04-19T09:17:25.255Z</time></trkpt><trkpt lat="43.199858" lon="12.2249168"><ele>655.0</ele><time>2026-04-19T09:17:26.255Z</time></trkpt><trkpt lat="43.1997748" lon="12.2248733"><ele>655.0</ele><time>2026-04-19T09:17:27.254Z</time></trkpt><trkpt lat="43.1996946" lon="12.2248433"><ele>655.0</ele><time>2026-04-19T09:17:28.26Z</time></trkpt><trkpt lat="43.1996143" lon="12.2247967"><ele>655.0</ele><time>2026-04-19T09:17:29.27Z</time></trkpt><trkpt lat="43.1995363" lon="12.2247389"><ele>656.2</ele><time>2026-04-19T09:17:30.256Z</time></trkpt><trkpt lat="43.1994421" lon="12.2246838"><ele>657.4</ele><time>2026-04-19T09:17:31.258Z</time></trkpt><trkpt lat="43.1993477" lon="12.2246324"><ele>658.5999999999999</ele><time>2026-04-19T09:17:32.262Z</time></trkpt><trkpt lat="43.1992445" lon="12.2245866"><ele>659.8</ele><time>2026-04-19T09:17:33.26Z</time></trkpt><trkpt lat="43.1991503" lon="12.224551"><ele>661.0</ele><time>2026-04-19T09:17:34.273Z</time></trkpt><trkpt lat="43.1990671" lon="12.2245169"><ele>658.5</ele><time>2026-04-19T09:17:35.258Z</time></trkpt><trkpt lat="43.198987" lon="12.2244939"><ele>656.0</ele><time>2026-04-19T09:17:36.257Z</time></trkpt><trkpt lat="43.1989047" lon="12.2244638"><ele>653.5</ele><time>2026-04-19T09:17:37.266Z</time></trkpt><trkpt lat="43.1988295" lon="12.2244247"><ele>651.0</ele><time>2026-04-19T09:17:38.257Z</time></trkpt><trkpt lat="43.1987614" lon="12.2243719"><ele>648.5</ele><time>2026-04-19T09:17:39.257Z</time></trkpt><trkpt lat="43.1986942" lon="12.2242984"><ele>646.0</ele><time>2026-04-19T09:17:40.253Z</time></trkpt><trkpt lat="43.1986182" lon="12.2242061"><ele>646.0</ele><time>2026-04-19T09:17:41.274Z</time></trkpt><trkpt lat="43.1985348" lon="12.2240966"><ele>646.0</ele><time>2026-04-19T09:17:42.269Z</time></trkpt><trkpt lat="43.1984526" lon="12.2239844"><ele>646.0</ele><time>2026-04-19T09:17:43.256Z</time></trkpt><trkpt lat="43.1983808" lon="12.2238915"><ele>646.0</ele><time>2026-04-19T09:17:44.253Z</time></trkpt><trkpt lat="43.1983273" lon="12.2238004"><ele>646.0</ele><time>2026-04-19T09:17:45.254Z</time></trkpt><trkpt lat="43.1982851" lon="12.2237081"><ele>647.1999999999999</ele><time>2026-04-19T09:17:46.266Z</time></trkpt><trkpt lat="43.1982339" lon="12.2235845"><ele>648.4</ele><time>2026-04-19T09:17:48.256Z</time></trkpt><trkpt lat="43.1981535" lon="12.2235376"><ele>649.6</ele><time>2026-04-19T09:17:50.266Z</time></trkpt><trkpt lat="43.1980812" lon="12.2235028"><ele>650.8</ele><time>2026-04-19T09:17:51.264Z</time></trkpt><trkpt lat="43.197997" lon="12.2234744"><ele>652.0</ele><time>2026-04-19T09:17:52.262Z</time></trkpt><trkpt lat="43.1979007" lon="12.2234559"><ele>649.0</ele><time>2026-04-19T09:17:53.263Z</time></trkpt><trkpt lat="43.1977964" lon="12.2234296"><ele>646.0</ele><time>2026-04-19T09:17:54.269Z</time></trkpt><trkpt lat="43.1976851" lon="12.2234001"><ele>643.0</ele><time>2026-04-19T09:17:55.28Z</time></trkpt><trkpt lat="43.1975648" lon="12.2233721"><ele>640.0</ele><time>2026-04-19T09:17:56.26Z</time></trkpt><trkpt lat="43.1974397" lon="12.2233524"><ele>637.3333333333334</ele><time>2026-04-19T09:17:57.261Z</time></trkpt><trkpt lat="43.1973053" lon="12.2233306"><ele>634.6666666666666</ele><time>2026-04-19T09:17:58.278Z</time></trkpt><trkpt lat="43.1971742" lon="12.2233032"><ele>632.0</ele><time>2026-04-19T09:17:59.262Z</time></trkpt><trkpt lat="43.1969093" lon="12.2232432"><ele>632.0</ele><time>2026-04-19T09:18:01.265Z</time></trkpt><trkpt lat="43.1967831" lon="12.2232198"><ele>632.0</ele><time>2026-04-19T09:18:02.274Z</time></trkpt><trkpt lat="43.1966645" lon="12.2231982"><ele>632.0</ele><time>2026-04-19T09:18:03.281Z</time></trkpt><trkpt lat="43.196552" lon="12.2231779"><ele>632.0</ele><time>2026-04-19T09:18:04.272Z</time></trkpt><trkpt lat="43.1964477" lon="12.2231576"><ele>630.1666666666666</ele><time>2026-04-19T09:18:05.274Z</time></trkpt><trkpt lat="43.1963542" lon="12.2231293"><ele>628.3333333333333</ele><time>2026-04-19T09:18:06.27Z</time></trkpt><trkpt lat="43.1962725" lon="12.2231173"><ele>626.5</ele><time>2026-04-19T09:18:07.28Z</time></trkpt><trkpt lat="43.1961968" lon="12.2231283"><ele>624.6666666666666</ele><time>2026-04-19T09:18:08.264Z</time></trkpt><trkpt lat="43.1961181" lon="12.223145"><ele>622.8333333333334</ele><time>2026-04-19T09:18:09.306Z</time></trkpt><trkpt lat="43.1960488" lon="12.223191"><ele>621.0</ele><time>2026-04-19T09:18:10.28Z</time></trkpt><trkpt lat="43.1959926" lon="12.2232772"><ele>621.0</ele><time>2026-04-19T09:18:11.276Z</time></trkpt><trkpt lat="43.1959605" lon="12.2233906"><ele>621.0</ele><time>2026-04-19T09:18:12.269Z</time></trkpt><trkpt lat="43.1959586" lon="12.2234868"><ele>621.0</ele><time>2026-04-19T09:18:13.283Z</time></trkpt><trkpt lat="43.1959844" lon="12.2235837"><ele>621.0</ele><time>2026-04-19T09:18:14.296Z</time></trkpt><trkpt lat="43.1960268" lon="12.2236552"><ele>621.0</ele><time>2026-04-19T09:18:15.282Z</time></trkpt><trkpt lat="43.1960957" lon="12.223725"><ele>621.0</ele><time>2026-04-19T09:18:16.312Z</time></trkpt><trkpt lat="43.1961753" lon="12.2237856"><ele>621.0</ele><time>2026-04-19T09:18:17.285Z</time></trkpt><trkpt lat="43.1962437" lon="12.2238513"><ele>621.0</ele><time>2026-04-19T09:18:18.299Z</time></trkpt><trkpt lat="43.1962931" lon="12.223916"><ele>621.0</ele><time>2026-04-19T09:18:19.3Z</time></trkpt><trkpt lat="43.196327" lon="12.2239927"><ele>621.0</ele><time>2026-04-19T09:18:20.279Z</time></trkpt><trkpt lat="43.196309" lon="12.2241153"><ele>621.0</ele><time>2026-04-19T09:18:22.42Z</time></trkpt><trkpt lat="43.1961906" lon="12.2241366"><ele>621.0</ele><time>2026-04-19T09:18:24.44Z</time></trkpt><trkpt lat="43.1961185" lon="12.2241132"><ele>621.0</ele><time>2026-04-19T09:18:25.42Z</time></trkpt><trkpt lat="43.196034" lon="12.2240553"><ele>621.0</ele><time>2026-04-19T09:18:26.411Z</time></trkpt><trkpt lat="43.1959462" lon="12.2239826"><ele>621.0</ele><time>2026-04-19T09:18:27.409Z</time></trkpt><trkpt lat="43.1958599" lon="12.2238904"><ele>621.0</ele><time>2026-04-19T09:18:28.407Z</time></trkpt><trkpt lat="43.1957676" lon="12.2237938"><ele>621.0</ele><time>2026-04-19T09:18:29.416Z</time></trkpt><trkpt lat="43.1956813" lon="12.2236994"><ele>619.1666666666666</ele><time>2026-04-19T09:18:30.419Z</time></trkpt><trkpt lat="43.1956083" lon="12.2236055"><ele>617.3333333333334</ele><time>2026-04-19T09:18:31.433Z</time></trkpt><trkpt lat="43.1955543" lon="12.2235098"><ele>615.5</ele><time>2026-04-19T09:18:32.416Z</time></trkpt><trkpt lat="43.1955186" lon="12.2234093"><ele>613.6666666666667</ele><time>2026-04-19T09:18:33.418Z</time></trkpt><trkpt lat="43.1955052" lon="12.2233129"><ele>611.8333333333334</ele><time>2026-04-19T09:18:34.438Z</time></trkpt><trkpt lat="43.1955171" lon="12.2232112"><ele>610.0</ele><time>2026-04-19T09:18:35.429Z</time></trkpt><trkpt lat="43.1955735" lon="12.2230013"><ele>608.8571428571429</ele><time>2026-04-19T09:18:37.305Z</time></trkpt><trkpt lat="43.1955905" lon="12.2229107"><ele>607.7142857142857</ele><time>2026-04-19T09:18:38.334Z</time></trkpt><trkpt lat="43.1955664" lon="12.2228237"><ele>606.5714285714286</ele><time>2026-04-19T09:18:39.316Z</time></trkpt><trkpt lat="43.1955109" lon="12.2227682"><ele>605.4285714285714</ele><time>2026-04-19T09:18:40.335Z</time></trkpt><trkpt lat="43.1954374" lon="12.2227365"><ele>604.2857142857142</ele><time>2026-04-19T09:18:41.329Z</time></trkpt><trkpt lat="43.1953702" lon="12.2227499"><ele>603.1428571428571</ele><time>2026-04-19T09:18:42.321Z</time></trkpt><trkpt lat="43.1953041" lon="12.2228064"><ele>602.0</ele><time>2026-04-19T09:18:43.329Z</time></trkpt><trkpt lat="43.1952433" lon="12.2228985"><ele>602.0</ele><time>2026-04-19T09:18:44.315Z</time></trkpt><trkpt lat="43.1951828" lon="12.2230171"><ele>602.0</ele><time>2026-04-19T09:18:45.332Z</time></trkpt><trkpt lat="43.1951195" lon="12.2231449"><ele>602.0</ele><time>2026-04-19T09:18:46.32Z</time></trkpt><trkpt lat="43.1950543" lon="12.223264"><ele>602.0</ele><time>2026-04-19T09:18:47.328Z</time></trkpt><trkpt lat="43.1949854" lon="12.2233831"><ele>602.0</ele><time>2026-04-19T09:18:48.331Z</time></trkpt><trkpt lat="43.194917" lon="12.2235113"><ele>601.25</ele><time>2026-04-19T09:18:49.326Z</time></trkpt><trkpt lat="43.1948542" lon="12.2236522"><ele>600.5</ele><time>2026-04-19T09:18:50.337Z</time></trkpt><trkpt lat="43.1948062" lon="12.223801"><ele>599.75</ele><time>2026-04-19T09:18:51.328Z</time></trkpt><trkpt lat="43.1947539" lon="12.2239491"><ele>599.0</ele><time>2026-04-19T09:18:52.335Z</time></trkpt><trkpt lat="43.1947063" lon="12.224085"><ele>599.0</ele><time>2026-04-19T09:18:53.339Z</time></trkpt><trkpt lat="43.1946654" lon="12.2242048"><ele>599.0</ele><time>2026-04-19T09:18:54.333Z</time></trkpt><trkpt lat="43.194623" lon="12.2243121"><ele>599.0</ele><time>2026-04-19T09:18:55.337Z</time></trkpt><trkpt lat="43.1945879" lon="12.2243996"><ele>599.0</ele><time>2026-04-19T09:18:56.336Z</time></trkpt><trkpt lat="43.1945501" lon="12.2244703"><ele>599.0</ele><time>2026-04-19T09:18:57.326Z</time></trkpt><trkpt lat="43.1944373" lon="12.2245335"><ele>599.0</ele><time>2026-04-19T09:18:59.338Z</time></trkpt><trkpt lat="43.1943273" lon="12.2244382"><ele>599.0</ele><time>2026-04-19T09:19:01.33Z</time></trkpt><trkpt lat="43.1942915" lon="12.2243326"><ele>599.0</ele><time>2026-04-19T09:19:02.326Z</time></trkpt><trkpt lat="43.1942787" lon="12.2242227"><ele>599.0</ele><time>2026-04-19T09:19:03.329Z</time></trkpt><trkpt lat="43.1942841" lon="12.2240929"><ele>599.0</ele><time>2026-04-19T09:19:04.334Z</time></trkpt><trkpt lat="43.1942918" lon="12.2239554"><ele>599.0</ele><time>2026-04-19T09:19:05.331Z</time></trkpt><trkpt lat="43.1942957" lon="12.2238154"><ele>599.0</ele><time>2026-04-19T09:19:06.327Z</time></trkpt><trkpt lat="43.194299" lon="12.2236791"><ele>599.0</ele><time>2026-04-19T09:19:07.328Z</time></trkpt><trkpt lat="43.1943" lon="12.2235457"><ele>599.0</ele><time>2026-04-19T09:19:08.329Z</time></trkpt><trkpt lat="43.1943031" lon="12.223419"><ele>599.0</ele><time>2026-04-19T09:19:09.318Z</time></trkpt><trkpt lat="43.1942874" lon="12.2233179"><ele>599.0</ele><time>2026-04-19T09:19:10.337Z</time></trkpt><trkpt lat="43.1942526" lon="12.2232274"><ele>599.0</ele><time>2026-04-19T09:19:11.336Z</time></trkpt><trkpt lat="43.1941888" lon="12.2231684"><ele>599.0</ele><time>2026-04-19T09:19:12.325Z</time></trkpt><trkpt lat="43.1941078" lon="12.2231741"><ele>599.0</ele><time>2026-04-19T09:19:13.322Z</time></trkpt><trkpt lat="43.1940299" lon="12.2232034"><ele>599.0</ele><time>2026-04-19T09:19:14.333Z</time></trkpt><trkpt lat="43.1939714" lon="12.2232687"><ele>599.0</ele><time>2026-04-19T09:19:15.34Z</time></trkpt><trkpt lat="43.1939303" lon="12.2233695"><ele>599.0</ele><time>2026-04-19T09:19:16.346Z</time></trkpt><trkpt lat="43.1939097" lon="12.2235043"><ele>599.0</ele><time>2026-04-19T09:19:17.329Z</time></trkpt><trkpt lat="43.1939014" lon="12.2236596"><ele>595.75</ele><time>2026-04-19T09:19:18.324Z</time></trkpt><trkpt lat="43.1938963" lon="12.2238259"><ele>592.5</ele><time>2026-04-19T09:19:19.345Z</time></trkpt><trkpt lat="43.1938901" lon="12.2239942"><ele>589.25</ele><time>2026-04-19T09:19:20.327Z</time></trkpt><trkpt lat="43.1938884" lon="12.2241478"><ele>586.0</ele><time>2026-04-19T09:19:21.321Z</time></trkpt><trkpt lat="43.1938845" lon="12.2242791"><ele>586.0</ele><time>2026-04-19T09:19:22.342Z</time></trkpt><trkpt lat="43.1938791" lon="12.2243791"><ele>586.0</ele><time>2026-04-19T09:19:23.331Z</time></trkpt><trkpt lat="43.193861" lon="12.2244659"><ele>586.0</ele><time>2026-04-19T09:19:24.346Z</time></trkpt><trkpt lat="43.1938239" lon="12.2245431"><ele>586.0</ele><time>2026-04-19T09:19:25.328Z</time></trkpt><trkpt lat="43.193773" lon="12.2246111"><ele>586.0</ele><time>2026-04-19T09:19:26.33Z</time></trkpt><trkpt lat="43.193701" lon="12.2246293"><ele>586.0</ele><time>2026-04-19T09:19:27.335Z</time></trkpt><trkpt lat="43.1935928" lon="12.2245549"><ele>586.0</ele><time>2026-04-19T09:19:29.326Z</time></trkpt><trkpt lat="43.1935692" lon="12.2244619"><ele>586.0</ele><time>2026-04-19T09:19:30.329Z</time></trkpt><trkpt lat="43.1935575" lon="12.2243401"><ele>586.0</ele><time>2026-04-19T09:19:31.352Z</time></trkpt><trkpt lat="43.1935602" lon="12.2242103"><ele>586.0</ele><time>2026-04-19T09:19:32.327Z</time></trkpt><trkpt lat="43.1935592" lon="12.2240596"><ele>586.0</ele><time>2026-04-19T09:19:33.336Z</time></trkpt><trkpt lat="43.193565" lon="12.2238832"><ele>585.0</ele><time>2026-04-19T09:19:34.344Z</time></trkpt><trkpt lat="43.1935744" lon="12.2237029"><ele>584.0</ele><time>2026-04-19T09:19:35.34Z</time></trkpt><trkpt lat="43.1935838" lon="12.2235099"><ele>583.0</ele><time>2026-04-19T09:19:36.33Z</time></trkpt><trkpt lat="43.1936017" lon="12.2233203"><ele>582.0</ele><time>2026-04-19T09:19:37.329Z</time></trkpt><trkpt lat="43.1936159" lon="12.2231449"><ele>580.6</ele><time>2026-04-19T09:19:38.344Z</time></trkpt><trkpt lat="43.1936242" lon="12.2229741"><ele>579.2</ele><time>2026-04-19T09:19:39.344Z</time></trkpt><trkpt lat="43.1936275" lon="12.2228107"><ele>577.8</ele><time>2026-04-19T09:19:40.341Z</time></trkpt><trkpt lat="43.193634" lon="12.2226572"><ele>576.4</ele><time>2026-04-19T09:19:41.349Z</time></trkpt><trkpt lat="43.1936399" lon="12.2225326"><ele>575.0</ele><time>2026-04-19T09:19:42.342Z</time></trkpt><trkpt lat="43.1936408" lon="12.2224227"><ele>575.0</ele><time>2026-04-19T09:19:43.335Z</time></trkpt><trkpt lat="43.1936286" lon="12.2223174"><ele>575.0</ele><time>2026-04-19T09:19:44.355Z</time></trkpt><trkpt lat="43.193597" lon="12.2222281"><ele>575.0</ele><time>2026-04-19T09:19:45.343Z</time></trkpt><trkpt lat="43.1935317" lon="12.2221741"><ele>575.0</ele><time>2026-04-19T09:19:46.355Z</time></trkpt><trkpt lat="43.1934551" lon="12.2221605"><ele>575.0</ele><time>2026-04-19T09:19:47.355Z</time></trkpt><trkpt lat="43.1933948" lon="12.2221901"><ele>575.0</ele><time>2026-04-19T09:19:48.357Z</time></trkpt><trkpt lat="43.1933423" lon="12.2222689"><ele>575.0</ele><time>2026-04-19T09:19:49.338Z</time></trkpt><trkpt lat="43.1933057" lon="12.2223704"><ele>575.0</ele><time>2026-04-19T09:19:50.344Z</time></trkpt><trkpt lat="43.1933103" lon="12.2224842"><ele>575.0</ele><time>2026-04-19T09:19:51.352Z</time></trkpt><trkpt lat="43.1933349" lon="12.2226049"><ele>575.0</ele><time>2026-04-19T09:19:52.368Z</time></trkpt><trkpt lat="43.1933725" lon="12.2227193"><ele>575.0</ele><time>2026-04-19T09:19:53.357Z</time></trkpt><trkpt lat="43.1933969" lon="12.222822"><ele>575.0</ele><time>2026-04-19T09:19:54.346Z</time></trkpt><trkpt lat="43.1934141" lon="12.222915"><ele>575.0</ele><time>2026-04-19T09:19:55.35Z</time></trkpt><trkpt lat="43.1933829" lon="12.223077"><ele>575.0</ele><time>2026-04-19T09:19:57.345Z</time></trkpt><trkpt lat="43.1933332" lon="12.223131"><ele>575.0</ele><time>2026-04-19T09:19:58.349Z</time></trkpt><trkpt lat="43.1932655" lon="12.2231537"><ele>575.0</ele><time>2026-04-19T09:19:59.348Z</time></trkpt><trkpt lat="43.1932026" lon="12.2231355"><ele>575.0</ele><time>2026-04-19T09:20:00.358Z</time></trkpt><trkpt lat="43.1931034" lon="12.2230104"><ele>575.0</ele><time>2026-04-19T09:20:02.36Z</time></trkpt><trkpt lat="43.1930711" lon="12.2229049"><ele>575.0</ele><time>2026-04-19T09:20:03.354Z</time></trkpt><trkpt lat="43.1930555" lon="12.2227753"><ele>571.4</ele><time>2026-04-19T09:20:04.354Z</time></trkpt><trkpt lat="43.1930488" lon="12.2226337"><ele>567.8</ele><time>2026-04-19T09:20:05.346Z</time></trkpt><trkpt lat="43.1930392" lon="12.2225033"><ele>564.2</ele><time>2026-04-19T09:20:06.349Z</time></trkpt><trkpt lat="43.1930153" lon="12.2223813"><ele>560.6</ele><time>2026-04-19T09:20:07.357Z</time></trkpt><trkpt lat="43.1929838" lon="12.2222636"><ele>557.0</ele><time>2026-04-19T09:20:08.362Z</time></trkpt><trkpt lat="43.1929607" lon="12.2221545"><ele>556.6666666666666</ele><time>2026-04-19T09:20:09.354Z</time></trkpt><trkpt lat="43.1929512" lon="12.2220529"><ele>556.3333333333333</ele><time>2026-04-19T09:20:10.357Z</time></trkpt><trkpt lat="43.1929692" lon="12.2219535"><ele>556.0</ele><time>2026-04-19T09:20:11.365Z</time></trkpt><trkpt lat="43.1930184" lon="12.2218674"><ele>555.6666666666666</ele><time>2026-04-19T09:20:12.364Z</time></trkpt><trkpt lat="43.1930791" lon="12.2218041"><ele>555.3333333333334</ele><time>2026-04-19T09:20:13.36Z</time></trkpt><trkpt lat="43.1931669" lon="12.2217491"><ele>555.0</ele><time>2026-04-19T09:20:14.359Z</time></trkpt><trkpt lat="43.1932542" lon="12.2217119"><ele>554.5</ele><time>2026-04-19T09:20:15.363Z</time></trkpt><trkpt lat="43.1933431" lon="12.221693"><ele>554.0</ele><time>2026-04-19T09:20:16.354Z</time></trkpt><trkpt lat="43.1934286" lon="12.2216596"><ele>553.5</ele><time>2026-04-19T09:20:17.362Z</time></trkpt><trkpt lat="43.1934939" lon="12.2216003"><ele>553.0</ele><time>2026-04-19T09:20:18.375Z</time></trkpt><trkpt lat="43.1935306" lon="12.2215166"><ele>552.5</ele><time>2026-04-19T09:20:19.364Z</time></trkpt><trkpt lat="43.1935364" lon="12.2214238"><ele>552.0</ele><time>2026-04-19T09:20:20.364Z</time></trkpt><trkpt lat="43.1934982" lon="12.2213498"><ele>552.0</ele><time>2026-04-19T09:20:21.375Z</time></trkpt><trkpt lat="43.1934385" lon="12.2213099"><ele>552.0</ele><time>2026-04-19T09:20:22.369Z</time></trkpt><trkpt lat="43.1933579" lon="12.2213002"><ele>552.0</ele><time>2026-04-19T09:20:23.362Z</time></trkpt><trkpt lat="43.1932582" lon="12.2213023"><ele>552.0</ele><time>2026-04-19T09:20:24.361Z</time></trkpt><trkpt lat="43.1931445" lon="12.2213207"><ele>552.0</ele><time>2026-04-19T09:20:25.364Z</time></trkpt><trkpt lat="43.1930276" lon="12.2213502"><ele>552.6</ele><time>2026-04-19T09:20:26.371Z</time></trkpt><trkpt lat="43.1929248" lon="12.2213819"><ele>553.2</ele><time>2026-04-19T09:20:27.37Z</time></trkpt><trkpt lat="43.1928289" lon="12.2214395"><ele>553.8</ele><time>2026-04-19T09:20:28.375Z</time></trkpt><trkpt lat="43.1927381" lon="12.2215319"><ele>554.4</ele><time>2026-04-19T09:20:29.368Z</time></trkpt><trkpt lat="43.1926599" lon="12.2216485"><ele>555.0</ele><time>2026-04-19T09:20:30.377Z</time></trkpt><trkpt lat="43.1925939" lon="12.2217553"><ele>555.0</ele><time>2026-04-19T09:20:31.363Z</time></trkpt><trkpt lat="43.1925424" lon="12.2218694"><ele>555.0</ele><time>2026-04-19T09:20:32.374Z</time></trkpt><trkpt lat="43.1925146" lon="12.2220035"><ele>555.0</ele><time>2026-04-19T09:20:33.379Z</time></trkpt><trkpt lat="43.1925077" lon="12.2221601"><ele>555.0</ele><time>2026-04-19T09:20:34.367Z</time></trkpt><trkpt lat="43.1925089" lon="12.2223045"><ele>555.0</ele><time>2026-04-19T09:20:35.368Z</time></trkpt><trkpt lat="43.1925089" lon="12.2224366"><ele>555.5</ele><time>2026-04-19T09:20:36.37Z</time></trkpt><trkpt lat="43.1924704" lon="12.2225728"><ele>556.0</ele><time>2026-04-19T09:20:37.375Z</time></trkpt><trkpt lat="43.1924007" lon="12.2227007"><ele>556.5</ele><time>2026-04-19T09:20:38.37Z</time></trkpt><trkpt lat="43.1923111" lon="12.2228329"><ele>557.0</ele><time>2026-04-19T09:20:39.376Z</time></trkpt><trkpt lat="43.1922089" lon="12.2229798"><ele>553.0</ele><time>2026-04-19T09:20:40.374Z</time></trkpt><trkpt lat="43.1921043" lon="12.2231083"><ele>549.0</ele><time>2026-04-19T09:20:41.37Z</time></trkpt><trkpt lat="43.1920066" lon="12.2232372"><ele>545.0</ele><time>2026-04-19T09:20:42.382Z</time></trkpt><trkpt lat="43.191911" lon="12.2233613"><ele>541.0</ele><time>2026-04-19T09:20:43.368Z</time></trkpt><trkpt lat="43.1918229" lon="12.2234773"><ele>541.0</ele><time>2026-04-19T09:20:44.389Z</time></trkpt><trkpt lat="43.1917345" lon="12.2235999"><ele>541.0</ele><time>2026-04-19T09:20:45.381Z</time></trkpt><trkpt lat="43.1916439" lon="12.2237174"><ele>541.0</ele><time>2026-04-19T09:20:46.38Z</time></trkpt><trkpt lat="43.1915506" lon="12.2238351"><ele>541.0</ele><time>2026-04-19T09:20:47.371Z</time></trkpt><trkpt lat="43.1914628" lon="12.2239448"><ele>538.6</ele><time>2026-04-19T09:20:48.377Z</time></trkpt><trkpt lat="43.1913857" lon="12.2240553"><ele>536.2</ele><time>2026-04-19T09:20:49.378Z</time></trkpt><trkpt lat="43.1913128" lon="12.2241724"><ele>533.8</ele><time>2026-04-19T09:20:50.385Z</time></trkpt><trkpt lat="43.1912565" lon="12.2242986"><ele>531.4</ele><time>2026-04-19T09:20:51.373Z</time></trkpt><trkpt lat="43.1912166" lon="12.2244457"><ele>529.0</ele><time>2026-04-19T09:20:52.385Z</time></trkpt><trkpt lat="43.1911959" lon="12.224611"><ele>529.0</ele><time>2026-04-19T09:20:53.386Z</time></trkpt><trkpt lat="43.1911936" lon="12.2247842"><ele>529.0</ele><time>2026-04-19T09:20:54.383Z</time></trkpt><trkpt lat="43.1911986" lon="12.2249579"><ele>529.0</ele><time>2026-04-19T09:20:55.402Z</time></trkpt><trkpt lat="43.1912086" lon="12.2251152"><ele>529.0</ele><time>2026-04-19T09:20:56.39Z</time></trkpt><trkpt lat="43.1912155" lon="12.2252482"><ele>529.0</ele><time>2026-04-19T09:20:57.396Z</time></trkpt><trkpt lat="43.1912144" lon="12.2253637"><ele>529.0</ele><time>2026-04-19T09:20:58.39Z</time></trkpt><trkpt lat="43.1912011" lon="12.2254652"><ele>529.0</ele><time>2026-04-19T09:20:59.383Z</time></trkpt><trkpt lat="43.1911835" lon="12.2255529"><ele>529.0</ele><time>2026-04-19T09:21:00.375Z</time></trkpt><trkpt lat="43.1911523" lon="12.2256379"><ele>529.0</ele><time>2026-04-19T09:21:01.369Z</time></trkpt><trkpt lat="43.1911101" lon="12.2257211"><ele>529.0</ele><time>2026-04-19T09:21:02.407Z</time></trkpt><trkpt lat="43.1910479" lon="12.2257979"><ele>529.0</ele><time>2026-04-19T09:21:03.378Z</time></trkpt><trkpt lat="43.1909682" lon="12.2258689"><ele>529.0</ele><time>2026-04-19T09:21:04.375Z</time></trkpt><trkpt lat="43.1908745" lon="12.2259109"><ele>529.0</ele><time>2026-04-19T09:21:05.381Z</time></trkpt><trkpt lat="43.1907623" lon="12.2259295"><ele>529.0</ele><time>2026-04-19T09:21:06.391Z</time></trkpt><trkpt lat="43.1906352" lon="12.2259311"><ele>529.0</ele><time>2026-04-19T09:21:07.402Z</time></trkpt><trkpt lat="43.1905004" lon="12.2259179"><ele>526.75</ele><time>2026-04-19T09:21:08.4Z</time></trkpt><trkpt lat="43.190362" lon="12.2259042"><ele>524.5</ele><time>2026-04-19T09:21:09.395Z</time></trkpt><trkpt lat="43.1902239" lon="12.2258971"><ele>522.25</ele><time>2026-04-19T09:21:10.393Z</time></trkpt><trkpt lat="43.1900846" lon="12.2258914"><ele>520.0</ele><time>2026-04-19T09:21:11.404Z</time></trkpt><trkpt lat="43.1899445" lon="12.2258858"><ele>516.75</ele><time>2026-04-19T09:21:12.389Z</time></trkpt><trkpt lat="43.1898019" lon="12.2258783"><ele>513.5</ele><time>2026-04-19T09:21:13.4Z</time></trkpt><trkpt lat="43.1896615" lon="12.2258719"><ele>510.25</ele><time>2026-04-19T09:21:14.392Z</time></trkpt><trkpt lat="43.189524" lon="12.2258656"><ele>507.0</ele><time>2026-04-19T09:21:15.404Z</time></trkpt><trkpt lat="43.1893824" lon="12.2258581"><ele>507.0</ele><time>2026-04-19T09:21:16.405Z</time></trkpt><trkpt lat="43.1892306" lon="12.2258557"><ele>507.0</ele><time>2026-04-19T09:21:17.402Z</time></trkpt><trkpt lat="43.1890742" lon="12.2258539"><ele>507.0</ele><time>2026-04-19T09:21:18.394Z</time></trkpt><trkpt lat="43.1889176" lon="12.2258633"><ele>504.33333333333337</ele><time>2026-04-19T09:21:19.413Z</time></trkpt><trkpt lat="43.1887606" lon="12.2258891"><ele>501.6666666666667</ele><time>2026-04-19T09:21:20.402Z</time></trkpt><trkpt lat="43.1886075" lon="12.2259309"><ele>499.0</ele><time>2026-04-19T09:21:21.398Z</time></trkpt><trkpt lat="43.1884599" lon="12.2259823"><ele>499.0</ele><time>2026-04-19T09:21:22.404Z</time></trkpt><trkpt lat="43.1883121" lon="12.2260447"><ele>499.0</ele><time>2026-04-19T09:21:23.397Z</time></trkpt><trkpt lat="43.1881627" lon="12.2261069"><ele>499.0</ele><time>2026-04-19T09:21:24.398Z</time></trkpt><trkpt lat="43.1880182" lon="12.2261685"><ele>497.0</ele><time>2026-04-19T09:21:25.406Z</time></trkpt><trkpt lat="43.1878842" lon="12.2262336"><ele>495.0</ele><time>2026-04-19T09:21:26.398Z</time></trkpt><trkpt lat="43.1877556" lon="12.2263007"><ele>493.0</ele><time>2026-04-19T09:21:27.4Z</time></trkpt><trkpt lat="43.1876308" lon="12.2263673"><ele>491.0</ele><time>2026-04-19T09:21:28.405Z</time></trkpt><trkpt lat="43.1875105" lon="12.2264247"><ele>491.0</ele><time>2026-04-19T09:21:29.392Z</time></trkpt><trkpt lat="43.1873872" lon="12.2264659"><ele>491.0</ele><time>2026-04-19T09:21:30.447Z</time></trkpt><trkpt lat="43.187256" lon="12.2264765"><ele>491.0</ele><time>2026-04-19T09:21:31.416Z</time></trkpt><trkpt lat="43.1871339" lon="12.2264661"><ele>491.0</ele><time>2026-04-19T09:21:32.399Z</time></trkpt><trkpt lat="43.1870166" lon="12.2264335"><ele>489.20000000000005</ele><time>2026-04-19T09:21:33.416Z</time></trkpt><trkpt lat="43.186902" lon="12.226394"><ele>487.40000000000003</ele><time>2026-04-19T09:21:34.401Z</time></trkpt><trkpt lat="43.1868075" lon="12.2263579"><ele>485.6</ele><time>2026-04-19T09:21:35.404Z</time></trkpt><trkpt lat="43.1867287" lon="12.2263213"><ele>483.8</ele><time>2026-04-19T09:21:36.41Z</time></trkpt><trkpt lat="43.1866616" lon="12.2262846"><ele>482.0</ele><time>2026-04-19T09:21:37.409Z</time></trkpt><trkpt lat="43.1865659" lon="12.2262274"><ele>480.0</ele><time>2026-04-19T09:21:39.41Z</time></trkpt><trkpt lat="43.1864941" lon="12.2262485"><ele>478.00000000000006</ele><time>2026-04-19T09:21:41.407Z</time></trkpt><trkpt lat="43.1864531" lon="12.2263419"><ele>476.00000000000006</ele><time>2026-04-19T09:21:43.428Z</time></trkpt><trkpt lat="43.1863904" lon="12.2264278"><ele>474.0</ele><time>2026-04-19T09:21:45.322Z</time></trkpt><trkpt lat="43.1862964" lon="12.2265014"><ele>472.0</ele><time>2026-04-19T09:21:47.319Z</time></trkpt><trkpt lat="43.1862106" lon="12.2266345"><ele>472.00000000000006</ele><time>2026-04-19T09:21:49.331Z</time></trkpt><trkpt lat="43.1861668" lon="12.2267281"><ele>472.0</ele><time>2026-04-19T09:21:50.331Z</time></trkpt><trkpt lat="43.1861262" lon="12.226819"><ele>472.0</ele><time>2026-04-19T09:21:51.315Z</time></trkpt><trkpt lat="43.1860791" lon="12.226907"><ele>472.0</ele><time>2026-04-19T09:21:52.328Z</time></trkpt><trkpt lat="43.1860233" lon="12.2269973"><ele>472.00000000000006</ele><time>2026-04-19T09:21:53.32Z</time></trkpt><trkpt lat="43.1859612" lon="12.2270795"><ele>472.0</ele><time>2026-04-19T09:21:54.33Z</time></trkpt><trkpt lat="43.1858928" lon="12.2271557"><ele>472.0</ele><time>2026-04-19T09:21:55.314Z</time></trkpt><trkpt lat="43.1858462" lon="12.2272203"><ele>472.0</ele><time>2026-04-19T09:21:56.321Z</time></trkpt><trkpt lat="43.1857968" lon="12.2273894"><ele>472.0</ele><time>2026-04-19T09:21:58.336Z</time></trkpt><trkpt lat="43.1857939" lon="12.2275719"><ele>472.0</ele><time>2026-04-19T09:22:00.324Z</time></trkpt><trkpt lat="43.1857902" lon="12.2277716"><ele>472.0</ele><time>2026-04-19T09:22:02.346Z</time></trkpt><trkpt lat="43.185794" lon="12.2278696"><ele>472.0</ele><time>2026-04-19T09:22:03.329Z</time></trkpt><trkpt lat="43.1857974" lon="12.2279617"><ele>472.0</ele><time>2026-04-19T09:22:04.321Z</time></trkpt><trkpt lat="43.1858011" lon="12.2280588"><ele>472.0</ele><time>2026-04-19T09:22:05.33Z</time></trkpt><trkpt lat="43.1857954" lon="12.2281586"><ele>472.0</ele><time>2026-04-19T09:22:06.321Z</time></trkpt><trkpt lat="43.1857883" lon="12.2282523"><ele>472.0</ele><time>2026-04-19T09:22:07.334Z</time></trkpt><trkpt lat="43.1857713" lon="12.2283484"><ele>472.0</ele><time>2026-04-19T09:22:08.323Z</time></trkpt><trkpt lat="43.1857418" lon="12.2284548"><ele>470.83333333333337</ele><time>2026-04-19T09:22:09.317Z</time></trkpt><trkpt lat="43.1856988" lon="12.2285748"><ele>469.6666666666667</ele><time>2026-04-19T09:22:10.314Z</time></trkpt><trkpt lat="43.1856586" lon="12.2286927"><ele>468.5</ele><time>2026-04-19T09:22:11.418Z</time></trkpt><trkpt lat="43.1856247" lon="12.2287961"><ele>467.33333333333337</ele><time>2026-04-19T09:22:12.422Z</time></trkpt><trkpt lat="43.1855943" lon="12.2288989"><ele>466.1666666666667</ele><time>2026-04-19T09:22:13.33Z</time></trkpt><trkpt lat="43.1855974" lon="12.2290056"><ele>465.0</ele><time>2026-04-19T09:22:14.323Z</time></trkpt><trkpt lat="43.1856237" lon="12.2291147"><ele>464.0</ele><time>2026-04-19T09:22:15.322Z</time></trkpt><trkpt lat="43.1856715" lon="12.2292295"><ele>463.0</ele><time>2026-04-19T09:22:16.333Z</time></trkpt><trkpt lat="43.18573" lon="12.229353"><ele>462.0</ele><time>2026-04-19T09:22:17.327Z</time></trkpt><trkpt lat="43.185794" lon="12.2294682"><ele>461.0</ele><time>2026-04-19T09:22:18.32Z</time></trkpt><trkpt lat="43.1858491" lon="12.229578"><ele>460.0</ele><time>2026-04-19T09:22:19.315Z</time></trkpt><trkpt lat="43.1859084" lon="12.2296877"><ele>460.00000000000006</ele><time>2026-04-19T09:22:20.327Z</time></trkpt><trkpt lat="43.1859538" lon="12.2298056"><ele>460.0</ele><time>2026-04-19T09:22:21.313Z</time></trkpt><trkpt lat="43.1859886" lon="12.229915"><ele>460.0</ele><time>2026-04-19T09:22:22.325Z</time></trkpt><trkpt lat="43.1860165" lon="12.2300204"><ele>460.0</ele><time>2026-04-19T09:22:23.33Z</time></trkpt><trkpt lat="43.186043" lon="12.2301112"><ele>460.00000000000006</ele><time>2026-04-19T09:22:24.325Z</time></trkpt><trkpt lat="43.1860677" lon="12.2301996"><ele>460.0</ele><time>2026-04-19T09:22:25.329Z</time></trkpt><trkpt lat="43.186088" lon="12.2302906"><ele>460.99999999999994</ele><time>2026-04-19T09:22:26.325Z</time></trkpt><trkpt lat="43.1860964" lon="12.2303837"><ele>462.0</ele><time>2026-04-19T09:22:27.326Z</time></trkpt><trkpt lat="43.1860811" lon="12.2304801"><ele>462.99999999999994</ele><time>2026-04-19T09:22:28.326Z</time></trkpt><trkpt lat="43.1860453" lon="12.2305658"><ele>463.99999999999994</ele><time>2026-04-19T09:22:29.329Z</time></trkpt><trkpt lat="43.1860006" lon="12.230638"><ele>465.0</ele><time>2026-04-19T09:22:30.335Z</time></trkpt><trkpt lat="43.1859355" lon="12.2306888"><ele>465.99999999999994</ele><time>2026-04-19T09:22:31.335Z</time></trkpt><trkpt lat="43.1858612" lon="12.2307309"><ele>466.99999999999994</ele><time>2026-04-19T09:22:32.349Z</time></trkpt><trkpt lat="43.1857767" lon="12.2307703"><ele>466.99999999999994</ele><time>2026-04-19T09:22:33.329Z</time></trkpt><trkpt lat="43.1856879" lon="12.2308024"><ele>467.0</ele><time>2026-04-19T09:22:34.335Z</time></trkpt><trkpt lat="43.1856032" lon="12.2308276"><ele>467.0</ele><time>2026-04-19T09:22:35.337Z</time></trkpt><trkpt lat="43.1855164" lon="12.2308397"><ele>467.0</ele><time>2026-04-19T09:22:36.338Z</time></trkpt><trkpt lat="43.1854244" lon="12.2308418"><ele>466.99999999999994</ele><time>2026-04-19T09:22:37.337Z</time></trkpt><trkpt lat="43.1853356" lon="12.2308414"><ele>467.0</ele><time>2026-04-19T09:22:38.339Z</time></trkpt><trkpt lat="43.1852539" lon="12.2308329"><ele>466.49999999999994</ele><time>2026-04-19T09:22:39.343Z</time></trkpt><trkpt lat="43.1851764" lon="12.230818"><ele>466.0</ele><time>2026-04-19T09:22:40.334Z</time></trkpt><trkpt lat="43.1850956" lon="12.2307848"><ele>465.5</ele><time>2026-04-19T09:22:41.34Z</time></trkpt><trkpt lat="43.185024" lon="12.2307461"><ele>465.0</ele><time>2026-04-19T09:22:42.345Z</time></trkpt><trkpt lat="43.1849549" lon="12.23071"><ele>464.49999999999994</ele><time>2026-04-19T09:22:43.335Z</time></trkpt><trkpt lat="43.1848888" lon="12.2306824"><ele>464.0</ele><time>2026-04-19T09:22:44.346Z</time></trkpt><trkpt lat="43.1848155" lon="12.2306623"><ele>462.8333333333333</ele><time>2026-04-19T09:22:45.34Z</time></trkpt><trkpt lat="43.1847479" lon="12.2306415"><ele>461.66666666666663</ele><time>2026-04-19T09:22:46.334Z</time></trkpt><trkpt lat="43.1846824" lon="12.2306172"><ele>460.5</ele><time>2026-04-19T09:22:47.346Z</time></trkpt><trkpt lat="43.1846199" lon="12.2305907"><ele>459.33333333333337</ele><time>2026-04-19T09:22:48.342Z</time></trkpt><trkpt lat="43.184517" lon="12.230546"><ele>458.1666666666667</ele><time>2026-04-19T09:22:50.342Z</time></trkpt><trkpt lat="43.1844396" lon="12.230567"><ele>457.0</ele><time>2026-04-19T09:22:52.333Z</time></trkpt><trkpt lat="43.1843889" lon="12.2306582"><ele>455.50000000000006</ele><time>2026-04-19T09:22:54.338Z</time></trkpt><trkpt lat="43.1844057" lon="12.2307879"><ele>454.0</ele><time>2026-04-19T09:22:56.341Z</time></trkpt><trkpt lat="43.1844337" lon="12.2309106"><ele>452.5</ele><time>2026-04-19T09:22:58.338Z</time></trkpt><trkpt lat="43.1844553" lon="12.2310206"><ele>451.0</ele><time>2026-04-19T09:23:00.346Z</time></trkpt><trkpt lat="43.1844416" lon="12.2311167"><ele>449.50000000000006</ele><time>2026-04-19T09:23:02.342Z</time></trkpt><trkpt lat="43.1843794" lon="12.2311623"><ele>448.0</ele><time>2026-04-19T09:23:04.348Z</time></trkpt><trkpt lat="43.184314" lon="12.231149"><ele>448.0</ele><time>2026-04-19T09:23:06.353Z</time></trkpt><trkpt lat="43.1842491" lon="12.2310967"><ele>447.99999999999994</ele><time>2026-04-19T09:23:08.342Z</time></trkpt><trkpt lat="43.184139" lon="12.2310144"><ele>447.99999999999994</ele><time>2026-04-19T09:23:10.346Z</time></trkpt><trkpt lat="43.1840804" lon="12.2309734"><ele>448.0</ele><time>2026-04-19T09:23:11.344Z</time></trkpt><trkpt lat="43.1839767" lon="12.2309037"><ele>448.0</ele><time>2026-04-19T09:23:13.344Z</time></trkpt><trkpt lat="43.1838812" lon="12.2308397"><ele>443.4</ele><time>2026-04-19T09:23:15.348Z</time></trkpt><trkpt lat="43.1837863" lon="12.2307631"><ele>438.79999999999995</ele><time>2026-04-19T09:23:17.352Z</time></trkpt><trkpt lat="43.1836959" lon="12.2307293"><ele>434.2</ele><time>2026-04-19T09:23:19.349Z</time></trkpt><trkpt lat="43.1836176" lon="12.2307708"><ele>429.6</ele><time>2026-04-19T09:23:21.348Z</time></trkpt><trkpt lat="43.1835813" lon="12.2308728"><ele>425.0</ele><time>2026-04-19T09:23:23.352Z</time></trkpt><trkpt lat="43.1835941" lon="12.2310524"><ele>424.99999999999994</ele><time>2026-04-19T09:23:25.343Z</time></trkpt><trkpt lat="43.1836158" lon="12.2311527"><ele>425.0</ele><time>2026-04-19T09:23:26.356Z</time></trkpt><trkpt lat="43.1836363" lon="12.2312575"><ele>425.0</ele><time>2026-04-19T09:23:27.351Z</time></trkpt><trkpt lat="43.1836581" lon="12.2313594"><ele>425.0</ele><time>2026-04-19T09:23:28.358Z</time></trkpt><trkpt lat="43.1836746" lon="12.2314651"><ele>424.99999999999994</ele><time>2026-04-19T09:23:29.353Z</time></trkpt><trkpt lat="43.1836915" lon="12.2315615"><ele>425.0</ele><time>2026-04-19T09:23:30.349Z</time></trkpt><trkpt lat="43.1837126" lon="12.231656"><ele>423.66666666666663</ele><time>2026-04-19T09:23:31.358Z</time></trkpt><trkpt lat="43.1837428" lon="12.231743"><ele>422.3333333333333</ele><time>2026-04-19T09:23:32.361Z</time></trkpt><trkpt lat="43.183776" lon="12.2318281"><ele>421.0</ele><time>2026-04-19T09:23:33.36Z</time></trkpt><trkpt lat="43.1838169" lon="12.2319172"><ele>419.66666666666663</ele><time>2026-04-19T09:23:34.358Z</time></trkpt><trkpt lat="43.1838614" lon="12.2320073"><ele>418.3333333333333</ele><time>2026-04-19T09:23:35.363Z</time></trkpt><trkpt lat="43.1839074" lon="12.2320934"><ele>417.0</ele><time>2026-04-19T09:23:36.36Z</time></trkpt><trkpt lat="43.1839553" lon="12.2321832"><ele>417.8333333333333</ele><time>2026-04-19T09:23:37.359Z</time></trkpt><trkpt lat="43.1840165" lon="12.2322692"><ele>418.66666666666663</ele><time>2026-04-19T09:23:38.365Z</time></trkpt><trkpt lat="43.184088" lon="12.2323424"><ele>419.5</ele><time>2026-04-19T09:23:39.353Z</time></trkpt><trkpt lat="43.1841517" lon="12.2323926"><ele>420.3333333333333</ele><time>2026-04-19T09:23:40.358Z</time></trkpt><trkpt lat="43.1842189" lon="12.2324381"><ele>421.16666666666663</ele><time>2026-04-19T09:23:41.358Z</time></trkpt><trkpt lat="43.1842808" lon="12.232486"><ele>422.0</ele><time>2026-04-19T09:23:42.359Z</time></trkpt><trkpt lat="43.1843423" lon="12.2325313"><ele>421.99999999999994</ele><time>2026-04-19T09:23:43.35Z</time></trkpt><trkpt lat="43.1844366" lon="12.2325895"><ele>422.0</ele><time>2026-04-19T09:23:45.369Z</time></trkpt><trkpt lat="43.184491" lon="12.2326664"><ele>422.0</ele><time>2026-04-19T09:23:48.37Z</time></trkpt><trkpt lat="43.1844433" lon="12.232735"><ele>422.0</ele><time>2026-04-19T09:23:50.365Z</time></trkpt><trkpt lat="43.1843836" lon="12.2327708"><ele>421.99999999999994</ele><time>2026-04-19T09:23:51.362Z</time></trkpt><trkpt lat="43.1843191" lon="12.2328212"><ele>422.0</ele><time>2026-04-19T09:23:52.366Z</time></trkpt><trkpt lat="43.1842328" lon="12.2328993"><ele>422.0</ele><time>2026-04-19T09:23:53.379Z</time></trkpt><trkpt lat="43.1841538" lon="12.2329692"><ele>422.0</ele><time>2026-04-19T09:23:54.361Z</time></trkpt><trkpt lat="43.1840633" lon="12.2330521"><ele>422.0</ele><time>2026-04-19T09:23:55.362Z</time></trkpt><trkpt lat="43.1839676" lon="12.23314"><ele>422.0</ele><time>2026-04-19T09:23:56.359Z</time></trkpt><trkpt lat="43.1838663" lon="12.2332287"><ele>422.0</ele><time>2026-04-19T09:23:57.364Z</time></trkpt><trkpt lat="43.1837709" lon="12.2333189"><ele>420.3333333333333</ele><time>2026-04-19T09:23:58.363Z</time></trkpt><trkpt lat="43.1836837" lon="12.2334048"><ele>418.66666666666663</ele><time>2026-04-19T09:23:59.365Z</time></trkpt><trkpt lat="43.1836049" lon="12.2334868"><ele>417.0</ele><time>2026-04-19T09:24:00.354Z</time></trkpt><trkpt lat="43.1835362" lon="12.2335449"><ele>415.33333333333337</ele><time>2026-04-19T09:24:01.356Z</time></trkpt><trkpt lat="43.18346" lon="12.2335762"><ele>413.6666666666667</ele><time>2026-04-19T09:24:02.37Z</time></trkpt><trkpt lat="43.1833802" lon="12.2335991"><ele>412.0</ele><time>2026-04-19T09:24:03.366Z</time></trkpt><trkpt lat="43.1833014" lon="12.2336047"><ele>412.00000000000006</ele><time>2026-04-19T09:24:04.355Z</time></trkpt><trkpt lat="43.1832264" lon="12.233607"><ele>412.0</ele><time>2026-04-19T09:24:05.365Z</time></trkpt><trkpt lat="43.1831535" lon="12.2336185"><ele>412.0</ele><time>2026-04-19T09:24:06.369Z</time></trkpt><trkpt lat="43.1830491" lon="12.2336225"><ele>412.0</ele><time>2026-04-19T09:24:08.356Z</time></trkpt><trkpt lat="43.1829829" lon="12.2335629"><ele>412.00000000000006</ele><time>2026-04-19T09:24:10.364Z</time></trkpt><trkpt lat="43.182936" lon="12.2334606"><ele>412.0</ele><time>2026-04-19T09:24:12.359Z</time></trkpt><trkpt lat="43.1828755" lon="12.2333754"><ele>410.6</ele><time>2026-04-19T09:24:14.364Z</time></trkpt><trkpt lat="43.1827877" lon="12.2333189"><ele>409.20000000000005</ele><time>2026-04-19T09:24:16.358Z</time></trkpt><trkpt lat="43.1826968" lon="12.233258"><ele>407.8</ele><time>2026-04-19T09:24:18.359Z</time></trkpt><trkpt lat="43.1826108" lon="12.2331596"><ele>406.4</ele><time>2026-04-19T09:24:20.366Z</time></trkpt><trkpt lat="43.1825478" lon="12.2330604"><ele>405.0</ele><time>2026-04-19T09:24:22.366Z</time></trkpt><trkpt lat="43.1824963" lon="12.232954"><ele>402.8</ele><time>2026-04-19T09:24:24.363Z</time></trkpt><trkpt lat="43.1824418" lon="12.2328497"><ele>400.6</ele><time>2026-04-19T09:24:26.384Z</time></trkpt><trkpt lat="43.1823818" lon="12.2327667"><ele>398.4</ele><time>2026-04-19T09:24:28.37Z</time></trkpt><trkpt lat="43.1823029" lon="12.2326843"><ele>396.2</ele><time>2026-04-19T09:24:30.368Z</time></trkpt><trkpt lat="43.1822146" lon="12.232617"><ele>394.0</ele><time>2026-04-19T09:24:32.371Z</time></trkpt><trkpt lat="43.1821081" lon="12.2325877"><ele>392.50000000000006</ele><time>2026-04-19T09:24:34.38Z</time></trkpt><trkpt lat="43.1820028" lon="12.2325536"><ele>391.0</ele><time>2026-04-19T09:24:36.376Z</time></trkpt><trkpt lat="43.1818927" lon="12.2325057"><ele>389.5</ele><time>2026-04-19T09:24:38.372Z</time></trkpt><trkpt lat="43.1818182" lon="12.2324616"><ele>388.0</ele><time>2026-04-19T09:24:39.38Z</time></trkpt><trkpt lat="43.1817465" lon="12.2324197"><ele>386.50000000000006</ele><time>2026-04-19T09:24:40.371Z</time></trkpt><trkpt lat="43.1816856" lon="12.2323922"><ele>385.0</ele><time>2026-04-19T09:24:41.377Z</time></trkpt><trkpt lat="43.1815741" lon="12.2323414"><ele>382.00000000000006</ele><time>2026-04-19T09:24:43.384Z</time></trkpt><trkpt lat="43.1814941" lon="12.2323319"><ele>379.0</ele><time>2026-04-19T09:24:45.378Z</time></trkpt><trkpt lat="43.1814071" lon="12.2323882"><ele>376.0</ele><time>2026-04-19T09:24:47.386Z</time></trkpt><trkpt lat="43.1813439" lon="12.2324485"><ele>373.0</ele><time>2026-04-19T09:24:49.398Z</time></trkpt><trkpt lat="43.1812735" lon="12.2325103"><ele>370.0</ele><time>2026-04-19T09:24:52.39Z</time></trkpt><trkpt lat="43.1812209" lon="12.2324316"><ele>367.0</ele><time>2026-04-19T09:24:55.385Z</time></trkpt><trkpt lat="43.1812067" lon="12.2323412"><ele>368.16666666666663</ele><time>2026-04-19T09:24:58.388Z</time></trkpt><trkpt lat="43.181238" lon="12.2322371"><ele>369.3333333333333</ele><time>2026-04-19T09:25:02.393Z</time></trkpt><trkpt lat="43.1812839" lon="12.2321757"><ele>370.5</ele><time>2026-04-19T09:25:04.398Z</time></trkpt><trkpt lat="43.1813353" lon="12.2321122"><ele>371.6666666666667</ele><time>2026-04-19T09:25:06.393Z</time></trkpt><trkpt lat="43.1814112" lon="12.2320342"><ele>372.83333333333337</ele><time>2026-04-19T09:25:09.405Z</time></trkpt><trkpt lat="43.1814702" lon="12.2319855"><ele>374.0</ele><time>2026-04-19T09:25:11.409Z</time></trkpt><trkpt lat="43.1815352" lon="12.2319025"><ele>374.0</ele><time>2026-04-19T09:25:14.396Z</time></trkpt><trkpt lat="43.1815881" lon="12.23181"><ele>374.0</ele><time>2026-04-19T09:25:17.401Z</time></trkpt><trkpt lat="43.1815216" lon="12.2317139"><ele>374.0</ele><time>2026-04-19T09:25:20.391Z</time></trkpt><trkpt lat="43.1814242" lon="12.2316871"><ele>374.0</ele><time>2026-04-19T09:25:22.404Z</time></trkpt><trkpt lat="43.1813166" lon="12.2316672"><ele>374.0</ele><time>2026-04-19T09:25:24.419Z</time></trkpt><trkpt lat="43.18122" lon="12.2316505"><ele>371.0</ele><time>2026-04-19T09:25:26.391Z</time></trkpt><trkpt lat="43.1811579" lon="12.2316312"><ele>368.0</ele><time>2026-04-19T09:25:28.397Z</time></trkpt><trkpt lat="43.1810716" lon="12.2316171"><ele>365.0</ele><time>2026-04-19T09:25:31.402Z</time></trkpt><trkpt lat="43.1809879" lon="12.2315893"><ele>362.0</ele><time>2026-04-19T09:25:33.413Z</time></trkpt><trkpt lat="43.1808837" lon="12.2315321"><ele>359.0</ele><time>2026-04-19T09:25:35.398Z</time></trkpt><trkpt lat="43.1807806" lon="12.2314672"><ele>358.1666666666667</ele><time>2026-04-19T09:25:37.396Z</time></trkpt><trkpt lat="43.180697" lon="12.2314069"><ele>357.33333333333337</ele><time>2026-04-19T09:25:39.399Z</time></trkpt><trkpt lat="43.1805875" lon="12.2313919"><ele>356.5</ele><time>2026-04-19T09:25:41.402Z</time></trkpt><trkpt lat="43.1805231" lon="12.2313898"><ele>355.6666666666667</ele><time>2026-04-19T09:25:42.401Z</time></trkpt><trkpt lat="43.180458" lon="12.2313993"><ele>354.8333333333333</ele><time>2026-04-19T09:25:43.428Z</time></trkpt><trkpt lat="43.1803887" lon="12.2314132"><ele>354.0</ele><time>2026-04-19T09:25:44.397Z</time></trkpt><trkpt lat="43.1803241" lon="12.2314318"><ele>352.8571428571429</ele><time>2026-04-19T09:25:45.4Z</time></trkpt><trkpt lat="43.1802583" lon="12.2314443"><ele>351.71428571428567</ele><time>2026-04-19T09:25:46.403Z</time></trkpt><trkpt lat="43.1801874" lon="12.2314515"><ele>350.57142857142856</ele><time>2026-04-19T09:25:47.401Z</time></trkpt><trkpt lat="43.1801136" lon="12.2314563"><ele>349.42857142857144</ele><time>2026-04-19T09:25:48.409Z</time></trkpt><trkpt lat="43.1800396" lon="12.2314626"><ele>348.28571428571433</ele><time>2026-04-19T09:25:49.404Z</time></trkpt><trkpt lat="43.1799724" lon="12.2314717"><ele>347.1428571428571</ele><time>2026-04-19T09:25:50.415Z</time></trkpt><trkpt lat="43.1799045" lon="12.2314743"><ele>346.0</ele><time>2026-04-19T09:25:51.414Z</time></trkpt><trkpt lat="43.179838" lon="12.231461"><ele>343.5</ele><time>2026-04-19T09:25:52.409Z</time></trkpt><trkpt lat="43.1797706" lon="12.2314462"><ele>341.0</ele><time>2026-04-19T09:25:53.415Z</time></trkpt><trkpt lat="43.1797028" lon="12.2314355"><ele>338.5</ele><time>2026-04-19T09:25:54.41Z</time></trkpt><trkpt lat="43.1796386" lon="12.2314207"><ele>336.0</ele><time>2026-04-19T09:25:55.415Z</time></trkpt><trkpt lat="43.1795752" lon="12.231401"><ele>333.5</ele><time>2026-04-19T09:25:56.401Z</time></trkpt><trkpt lat="43.1794593" lon="12.2313609"><ele>331.0</ele><time>2026-04-19T09:25:58.412Z</time></trkpt><trkpt lat="43.1793485" lon="12.231318"><ele>331.0</ele><time>2026-04-19T09:26:00.402Z</time></trkpt><trkpt lat="43.1792882" lon="12.2312888"><ele>331.0</ele><time>2026-04-19T09:26:01.411Z</time></trkpt><trkpt lat="43.1792208" lon="12.2312588"><ele>331.0</ele><time>2026-04-19T09:26:02.415Z</time></trkpt><trkpt lat="43.1791549" lon="12.2312329"><ele>331.0</ele><time>2026-04-19T09:26:03.411Z</time></trkpt><trkpt lat="43.1790884" lon="12.2312194"><ele>331.0</ele><time>2026-04-19T09:26:04.419Z</time></trkpt><trkpt lat="43.1790238" lon="12.2312144"><ele>331.0</ele><time>2026-04-19T09:26:05.416Z</time></trkpt><trkpt lat="43.17891" lon="12.2312355"><ele>329.0</ele><time>2026-04-19T09:26:07.407Z</time></trkpt><trkpt lat="43.1788196" lon="12.2312812"><ele>327.0</ele><time>2026-04-19T09:26:09.42Z</time></trkpt><trkpt lat="43.1787639" lon="12.2313258"><ele>325.0</ele><time>2026-04-19T09:26:11.318Z</time></trkpt><trkpt lat="43.1786811" lon="12.2313027"><ele>323.0</ele><time>2026-04-19T09:26:13.322Z</time></trkpt><trkpt lat="43.1785755" lon="12.2312599"><ele>321.0</ele><time>2026-04-19T09:26:15.315Z</time></trkpt><trkpt lat="43.1784632" lon="12.2312299"><ele>321.0</ele><time>2026-04-19T09:26:17.324Z</time></trkpt><trkpt lat="43.178358" lon="12.2311966"><ele>321.0</ele><time>2026-04-19T09:26:19.318Z</time></trkpt><trkpt lat="43.1782503" lon="12.2311511"><ele>321.0</ele><time>2026-04-19T09:26:21.344Z</time></trkpt><trkpt lat="43.178141" lon="12.2311259"><ele>321.0</ele><time>2026-04-19T09:26:23.325Z</time></trkpt><trkpt lat="43.1780436" lon="12.2311099"><ele>321.0</ele><time>2026-04-19T09:26:25.32Z</time></trkpt><trkpt lat="43.1779695" lon="12.231099"><ele>318.6</ele><time>2026-04-19T09:26:27.319Z</time></trkpt><trkpt lat="43.1778854" lon="12.2311446"><ele>316.20000000000005</ele><time>2026-04-19T09:26:30.337Z</time></trkpt><trkpt lat="43.1777843" lon="12.2312118"><ele>313.79999999999995</ele><time>2026-04-19T09:26:32.323Z</time></trkpt><trkpt lat="43.1777296" lon="12.2312597"><ele>311.4</ele><time>2026-04-19T09:26:33.324Z</time></trkpt><trkpt lat="43.1776381" lon="12.231349"><ele>309.0</ele><time>2026-04-19T09:26:35.324Z</time></trkpt><trkpt lat="43.1775733" lon="12.231395"><ele>309.0</ele><time>2026-04-19T09:26:37.335Z</time></trkpt><trkpt lat="43.1774932" lon="12.2314024"><ele>309.0</ele><time>2026-04-19T09:26:39.341Z</time></trkpt><trkpt lat="43.1773727" lon="12.231384"><ele>309.0</ele><time>2026-04-19T09:26:41.331Z</time></trkpt><trkpt lat="43.1773079" lon="12.2313769"><ele>309.0</ele><time>2026-04-19T09:26:42.335Z</time></trkpt><trkpt lat="43.17719" lon="12.2313502"><ele>309.0</ele><time>2026-04-19T09:26:44.336Z</time></trkpt><trkpt lat="43.1771244" lon="12.2313401"><ele>307.5</ele><time>2026-04-19T09:26:45.337Z</time></trkpt><trkpt lat="43.1770515" lon="12.2313323"><ele>306.0</ele><time>2026-04-19T09:26:46.353Z</time></trkpt><trkpt lat="43.1769747" lon="12.2313188"><ele>304.5</ele><time>2026-04-19T09:26:47.34Z</time></trkpt><trkpt lat="43.1768999" lon="12.2313067"><ele>303.0</ele><time>2026-04-19T09:26:48.341Z</time></trkpt><trkpt lat="43.1768274" lon="12.2312925"><ele>301.5</ele><time>2026-04-19T09:26:49.344Z</time></trkpt><trkpt lat="43.1767544" lon="12.2312826"><ele>300.0</ele><time>2026-04-19T09:26:50.342Z</time></trkpt><trkpt lat="43.176675" lon="12.2312754"><ele>300.0</ele><time>2026-04-19T09:26:51.348Z</time></trkpt><trkpt lat="43.1765887" lon="12.2312618"><ele>300.0</ele><time>2026-04-19T09:26:52.336Z</time></trkpt><trkpt lat="43.1764962" lon="12.2312478"><ele>300.0</ele><time>2026-04-19T09:26:53.35Z</time></trkpt><trkpt lat="43.1764154" lon="12.2312386"><ele>300.0</ele><time>2026-04-19T09:26:54.337Z</time></trkpt><trkpt lat="43.176333" lon="12.2312282"><ele>300.0</ele><time>2026-04-19T09:26:55.346Z</time></trkpt><trkpt lat="43.1762484" lon="12.2312257"><ele>300.0</ele><time>2026-04-19T09:26:56.342Z</time></trkpt><trkpt lat="43.176164" lon="12.2312194"><ele>299.1666666666667</ele><time>2026-04-19T09:26:57.342Z</time></trkpt><trkpt lat="43.1760726" lon="12.2312136"><ele>298.3333333333333</ele><time>2026-04-19T09:26:58.338Z</time></trkpt><trkpt lat="43.1759837" lon="12.231204"><ele>297.5</ele><time>2026-04-19T09:26:59.351Z</time></trkpt><trkpt lat="43.1758965" lon="12.2311946"><ele>296.66666666666663</ele><time>2026-04-19T09:27:00.34Z</time></trkpt><trkpt lat="43.1758117" lon="12.2311884"><ele>295.8333333333333</ele><time>2026-04-19T09:27:01.351Z</time></trkpt><trkpt lat="43.1757299" lon="12.2311814"><ele>295.0</ele><time>2026-04-19T09:27:02.34Z</time></trkpt><trkpt lat="43.1756535" lon="12.2311773"><ele>295.0</ele><time>2026-04-19T09:27:03.337Z</time></trkpt><trkpt lat="43.1755428" lon="12.2311634"><ele>295.0</ele><time>2026-04-19T09:27:05.363Z</time></trkpt><trkpt lat="43.1754916" lon="12.2310957"><ele>295.0</ele><time>2026-04-19T09:27:07.354Z</time></trkpt><trkpt lat="43.1755258" lon="12.230977"><ele>295.0</ele><time>2026-04-19T09:27:09.356Z</time></trkpt><trkpt lat="43.1755753" lon="12.2309081"><ele>295.0</ele><time>2026-04-19T09:27:10.339Z</time></trkpt><trkpt lat="43.1756354" lon="12.2308324"><ele>295.0</ele><time>2026-04-19T09:27:11.342Z</time></trkpt><trkpt lat="43.1756964" lon="12.2307474"><ele>295.0</ele><time>2026-04-19T09:27:12.349Z</time></trkpt><trkpt lat="43.1757628" lon="12.2306638"><ele>295.0</ele><time>2026-04-19T09:27:13.339Z</time></trkpt><trkpt lat="43.1758311" lon="12.2305792"><ele>295.0</ele><time>2026-04-19T09:27:14.344Z</time></trkpt><trkpt lat="43.1759008" lon="12.2304927"><ele>295.0</ele><time>2026-04-19T09:27:15.347Z</time></trkpt><trkpt lat="43.1759808" lon="12.2304014"><ele>295.0</ele><time>2026-04-19T09:27:16.341Z</time></trkpt><trkpt lat="43.1760529" lon="12.2303178"><ele>295.0</ele><time>2026-04-19T09:27:17.336Z</time></trkpt><trkpt lat="43.1761186" lon="12.230247"><ele>295.0</ele><time>2026-04-19T09:27:18.342Z</time></trkpt><trkpt lat="43.1761741" lon="12.2301894"><ele>295.0</ele><time>2026-04-19T09:27:19.342Z</time></trkpt><trkpt lat="43.1762126" lon="12.2300667"><ele>295.0</ele><time>2026-04-19T09:27:21.332Z</time></trkpt><trkpt lat="43.176202" lon="12.2299122"><ele>295.0</ele><time>2026-04-19T09:27:23.344Z</time></trkpt><trkpt lat="43.1761376" lon="12.2298161"><ele>296.66666666666663</ele><time>2026-04-19T09:27:25.339Z</time></trkpt><trkpt lat="43.1760204" lon="12.2297797"><ele>298.3333333333333</ele><time>2026-04-19T09:27:27.341Z</time></trkpt><trkpt lat="43.1759559" lon="12.2297735"><ele>300.0</ele><time>2026-04-19T09:27:28.349Z</time></trkpt><trkpt lat="43.17589" lon="12.2297643"><ele>301.6666666666667</ele><time>2026-04-19T09:27:29.339Z</time></trkpt><trkpt lat="43.1758126" lon="12.2297509"><ele>303.33333333333337</ele><time>2026-04-19T09:27:30.349Z</time></trkpt><trkpt lat="43.1757256" lon="12.2297365"><ele>305.0</ele><time>2026-04-19T09:27:31.369Z</time></trkpt><trkpt lat="43.1756412" lon="12.2297139"><ele>305.0</ele><time>2026-04-19T09:27:32.34Z</time></trkpt><trkpt lat="43.1755607" lon="12.2296929"><ele>305.0</ele><time>2026-04-19T09:27:33.355Z</time></trkpt><trkpt lat="43.175482" lon="12.2296762"><ele>305.0</ele><time>2026-04-19T09:27:34.351Z</time></trkpt><trkpt lat="43.1754077" lon="12.2296632"><ele>305.0</ele><time>2026-04-19T09:27:35.345Z</time></trkpt><trkpt lat="43.1753393" lon="12.2296489"><ele>305.0</ele><time>2026-04-19T09:27:36.366Z</time></trkpt><trkpt lat="43.1752275" lon="12.2296152"><ele>305.0</ele><time>2026-04-19T09:27:38.358Z</time></trkpt><trkpt lat="43.1751457" lon="12.2295657"><ele>305.0</ele><time>2026-04-19T09:27:40.348Z</time></trkpt><trkpt lat="43.1750384" lon="12.2294652"><ele>305.0</ele><time>2026-04-19T09:27:42.352Z</time></trkpt><trkpt lat="43.1749795" lon="12.2294067"><ele>305.0</ele><time>2026-04-19T09:27:43.353Z</time></trkpt><trkpt lat="43.1748809" lon="12.2293076"><ele>305.0</ele><time>2026-04-19T09:27:45.347Z</time></trkpt><trkpt lat="43.1747979" lon="12.2292225"><ele>305.0</ele><time>2026-04-19T09:27:47.344Z</time></trkpt><trkpt lat="43.1747366" lon="12.2291256"><ele>303.83333333333337</ele><time>2026-04-19T09:27:49.344Z</time></trkpt><trkpt lat="43.1746737" lon="12.2290043"><ele>302.6666666666667</ele><time>2026-04-19T09:27:51.344Z</time></trkpt><trkpt lat="43.1746326" lon="12.2289369"><ele>301.5</ele><time>2026-04-19T09:27:52.359Z</time></trkpt><trkpt lat="43.1745948" lon="12.2288667"><ele>300.3333333333333</ele><time>2026-04-19T09:27:53.346Z</time></trkpt><trkpt lat="43.1745565" lon="12.2287747"><ele>299.16666666666663</ele><time>2026-04-19T09:27:54.35Z</time></trkpt><trkpt lat="43.1745055" lon="12.2286664"><ele>298.0</ele><time>2026-04-19T09:27:55.346Z</time></trkpt><trkpt lat="43.1744494" lon="12.2285503"><ele>298.0</ele><time>2026-04-19T09:27:56.35Z</time></trkpt><trkpt lat="43.1743963" lon="12.2284545"><ele>298.0</ele><time>2026-04-19T09:27:57.353Z</time></trkpt><trkpt lat="43.1743379" lon="12.2283741"><ele>298.0</ele><time>2026-04-19T09:27:58.34Z</time></trkpt><trkpt lat="43.1742758" lon="12.2283131"><ele>298.0</ele><time>2026-04-19T09:27:59.348Z</time></trkpt><trkpt lat="43.1742033" lon="12.2282621"><ele>298.0</ele><time>2026-04-19T09:28:00.348Z</time></trkpt><trkpt lat="43.1741254" lon="12.2282156"><ele>298.0</ele><time>2026-04-19T09:28:01.347Z</time></trkpt><trkpt lat="43.1740397" lon="12.228176"><ele>297.4</ele><time>2026-04-19T09:28:02.349Z</time></trkpt><trkpt lat="43.1739536" lon="12.2281461"><ele>296.8</ele><time>2026-04-19T09:28:03.344Z</time></trkpt><trkpt lat="43.1738525" lon="12.2281207"><ele>296.2</ele><time>2026-04-19T09:28:04.351Z</time></trkpt><trkpt lat="43.1737454" lon="12.2281061"><ele>295.6</ele><time>2026-04-19T09:28:05.35Z</time></trkpt><trkpt lat="43.1736441" lon="12.2280977"><ele>295.0</ele><time>2026-04-19T09:28:06.35Z</time></trkpt><trkpt lat="43.1735488" lon="12.228096"><ele>294.0</ele><time>2026-04-19T09:28:07.354Z</time></trkpt><trkpt lat="43.1734587" lon="12.228092"><ele>293.0</ele><time>2026-04-19T09:28:08.372Z</time></trkpt><trkpt lat="43.1733735" lon="12.228089"><ele>292.0</ele><time>2026-04-19T09:28:09.345Z</time></trkpt><trkpt lat="43.1732803" lon="12.2280872"><ele>291.0</ele><time>2026-04-19T09:28:10.36Z</time></trkpt><trkpt lat="43.173184" lon="12.2280951"><ele>290.0</ele><time>2026-04-19T09:28:11.358Z</time></trkpt><trkpt lat="43.1730936" lon="12.2281103"><ele>289.8</ele><time>2026-04-19T09:28:12.36Z</time></trkpt><trkpt lat="43.1730101" lon="12.2281336"><ele>289.6</ele><time>2026-04-19T09:28:13.356Z</time></trkpt><trkpt lat="43.1729202" lon="12.2281556"><ele>289.4</ele><time>2026-04-19T09:28:14.362Z</time></trkpt><trkpt lat="43.1728184" lon="12.2281704"><ele>289.2</ele><time>2026-04-19T09:28:15.375Z</time></trkpt><trkpt lat="43.17272" lon="12.2281855"><ele>289.0</ele><time>2026-04-19T09:28:16.361Z</time></trkpt><trkpt lat="43.1726263" lon="12.228196"><ele>289.0</ele><time>2026-04-19T09:28:17.363Z</time></trkpt><trkpt lat="43.1725382" lon="12.2282048"><ele>289.0</ele><time>2026-04-19T09:28:18.367Z</time></trkpt><trkpt lat="43.1724554" lon="12.2282176"><ele>289.0</ele><time>2026-04-19T09:28:19.366Z</time></trkpt><trkpt lat="43.1723789" lon="12.2282331"><ele>289.0</ele><time>2026-04-19T09:28:20.362Z</time></trkpt><trkpt lat="43.1723011" lon="12.2282475"><ele>289.0</ele><time>2026-04-19T09:28:21.361Z</time></trkpt><trkpt lat="43.1722272" lon="12.2282561"><ele>289.0</ele><time>2026-04-19T09:28:22.363Z</time></trkpt><trkpt lat="43.1721573" lon="12.2282473"><ele>287.66666666666663</ele><time>2026-04-19T09:28:23.367Z</time></trkpt><trkpt lat="43.1720881" lon="12.2282358"><ele>286.3333333333333</ele><time>2026-04-19T09:28:24.36Z</time></trkpt><trkpt lat="43.172008" lon="12.2282147"><ele>285.0</ele><time>2026-04-19T09:28:25.359Z</time></trkpt><trkpt lat="43.1719258" lon="12.2281913"><ele>283.6666666666667</ele><time>2026-04-19T09:28:26.369Z</time></trkpt><trkpt lat="43.1718468" lon="12.2281652"><ele>282.33333333333337</ele><time>2026-04-19T09:28:27.365Z</time></trkpt><trkpt lat="43.1717631" lon="12.2281478"><ele>281.0</ele><time>2026-04-19T09:28:28.368Z</time></trkpt><trkpt lat="43.1716769" lon="12.2281343"><ele>280.8</ele><time>2026-04-19T09:28:29.377Z</time></trkpt><trkpt lat="43.1715871" lon="12.2281211"><ele>280.6</ele><time>2026-04-19T09:28:30.372Z</time></trkpt><trkpt lat="43.1714944" lon="12.2280993"><ele>280.4</ele><time>2026-04-19T09:28:31.386Z</time></trkpt><trkpt lat="43.1713913" lon="12.2280754"><ele>280.2</ele><time>2026-04-19T09:28:32.38Z</time></trkpt><trkpt lat="43.1712767" lon="12.2280416"><ele>280.0</ele><time>2026-04-19T09:28:33.371Z</time></trkpt><trkpt lat="43.1711575" lon="12.2280042"><ele>279.0</ele><time>2026-04-19T09:28:34.379Z</time></trkpt><trkpt lat="43.1710391" lon="12.2279689"><ele>278.0</ele><time>2026-04-19T09:28:35.37Z</time></trkpt><trkpt lat="43.1709249" lon="12.2279339"><ele>277.0</ele><time>2026-04-19T09:28:36.379Z</time></trkpt><trkpt lat="43.17081" lon="12.2279035"><ele>276.0</ele><time>2026-04-19T09:28:37.369Z</time></trkpt><trkpt lat="43.1706952" lon="12.2278692"><ele>275.3333333333333</ele><time>2026-04-19T09:28:38.37Z</time></trkpt><trkpt lat="43.1705931" lon="12.2278404"><ele>274.6666666666667</ele><time>2026-04-19T09:28:39.373Z</time></trkpt><trkpt lat="43.1705128" lon="12.2278175"><ele>274.0</ele><time>2026-04-19T09:28:40.378Z</time></trkpt><trkpt lat="43.170445" lon="12.2277985"><ele>273.33333333333337</ele><time>2026-04-19T09:28:41.365Z</time></trkpt><trkpt lat="43.1703509" lon="12.2277752"><ele>272.6666666666667</ele><time>2026-04-19T09:28:43.391Z</time></trkpt><trkpt lat="43.1703416" lon="12.2278993"><ele>272.0</ele><time>2026-04-19T09:28:48.385Z</time></trkpt><trkpt lat="43.1703721" lon="12.2280599"><ele>271.75</ele><time>2026-04-19T09:28:50.374Z</time></trkpt><trkpt lat="43.1703839" lon="12.2282563"><ele>271.5</ele><time>2026-04-19T09:28:52.382Z</time></trkpt><trkpt lat="43.1703748" lon="12.2283958"><ele>271.25</ele><time>2026-04-19T09:28:53.389Z</time></trkpt><trkpt lat="43.1703557" lon="12.2285622"><ele>271.0</ele><time>2026-04-19T09:28:54.387Z</time></trkpt><trkpt lat="43.1703461" lon="12.22873"><ele>271.0</ele><time>2026-04-19T09:28:55.387Z</time></trkpt><trkpt lat="43.170339" lon="12.2288895"><ele>271.0</ele><time>2026-04-19T09:28:56.374Z</time></trkpt><trkpt lat="43.1703349" lon="12.2290355"><ele>271.0</ele><time>2026-04-19T09:28:57.38Z</time></trkpt><trkpt lat="43.1703306" lon="12.2291734"><ele>271.0</ele><time>2026-04-19T09:28:58.383Z</time></trkpt><trkpt lat="43.1703344" lon="12.2292768"><ele>271.0</ele><time>2026-04-19T09:28:59.394Z</time></trkpt><trkpt lat="43.1703356" lon="12.2293634"><ele>270.66666666666663</ele><time>2026-04-19T09:29:01.375Z</time></trkpt><trkpt lat="43.1702486" lon="12.2293963"><ele>270.3333333333333</ele><time>2026-04-19T09:29:04.388Z</time></trkpt><trkpt lat="43.1701765" lon="12.2294098"><ele>270.0</ele><time>2026-04-19T09:29:05.379Z</time></trkpt><trkpt lat="43.1700984" lon="12.2294324"><ele>269.6666666666667</ele><time>2026-04-19T09:29:06.388Z</time></trkpt><trkpt lat="43.1700251" lon="12.2294565"><ele>269.33333333333337</ele><time>2026-04-19T09:29:07.383Z</time></trkpt><trkpt lat="43.1699456" lon="12.2294837"><ele>269.0</ele><time>2026-04-19T09:29:08.386Z</time></trkpt><trkpt lat="43.1698638" lon="12.2295179"><ele>268.6666666666667</ele><time>2026-04-19T09:29:09.391Z</time></trkpt><trkpt lat="43.1697931" lon="12.2295467"><ele>268.33333333333337</ele><time>2026-04-19T09:29:10.389Z</time></trkpt><trkpt lat="43.1697305" lon="12.2295696"><ele>268.0</ele><time>2026-04-19T09:29:11.389Z</time></trkpt><trkpt lat="43.1696176" lon="12.2296002"><ele>267.6666666666667</ele><time>2026-04-19T09:29:13.392Z</time></trkpt><trkpt lat="43.1695428" lon="12.2296105"><ele>267.3333333333333</ele><time>2026-04-19T09:29:15.4Z</time></trkpt><trkpt lat="43.1694918" lon="12.2296696"><ele>267.0</ele><time>2026-04-19T09:29:19.395Z</time></trkpt><trkpt lat="43.1695985" lon="12.2296365"><ele>267.0</ele><time>2026-04-19T09:29:23.396Z</time></trkpt><trkpt lat="43.1697183" lon="12.229581"><ele>267.0</ele><time>2026-04-19T09:29:25.402Z</time></trkpt><trkpt lat="43.1697976" lon="12.2295545"><ele>267.0</ele><time>2026-04-19T09:29:26.398Z</time></trkpt><trkpt lat="43.1698824" lon="12.2295241"><ele>267.0</ele><time>2026-04-19T09:29:27.406Z</time></trkpt><trkpt lat="43.1699657" lon="12.229487"><ele>267.0</ele><time>2026-04-19T09:29:28.402Z</time></trkpt><trkpt lat="43.1700512" lon="12.2294561"><ele>267.3333333333333</ele><time>2026-04-19T09:29:29.397Z</time></trkpt><trkpt lat="43.1701365" lon="12.2294265"><ele>267.6666666666667</ele><time>2026-04-19T09:29:30.402Z</time></trkpt><trkpt lat="43.1702071" lon="12.2294008"><ele>268.0</ele><time>2026-04-19T09:29:31.42Z</time></trkpt><trkpt lat="43.1703033" lon="12.2293757"><ele>268.33333333333337</ele><time>2026-04-19T09:29:33.406Z</time></trkpt><trkpt lat="43.1703658" lon="12.2294381"><ele>268.6666666666667</ele><time>2026-04-19T09:29:38.418Z</time></trkpt><trkpt lat="43.1703897" lon="12.2295473"><ele>269.0</ele><time>2026-04-19T09:29:41.433Z</time></trkpt><trkpt lat="43.1703346" lon="12.2296364"><ele>269.0</ele><time>2026-04-19T09:29:44.412Z</time></trkpt><trkpt lat="43.1702281" lon="12.2296288"><ele>269.0</ele><time>2026-04-19T09:29:46.413Z</time></trkpt><trkpt lat="43.1701626" lon="12.2296211"><ele>269.0</ele><time>2026-04-19T09:29:47.406Z</time></trkpt><trkpt lat="43.1700942" lon="12.2296178"><ele>269.0</ele><time>2026-04-19T09:29:48.413Z</time></trkpt><trkpt lat="43.1700309" lon="12.2296346"><ele>269.0</ele><time>2026-04-19T09:29:49.427Z</time></trkpt><trkpt lat="43.1699455" lon="12.2296684"><ele>269.0</ele><time>2026-04-19T09:29:50.415Z</time></trkpt><trkpt lat="43.169858" lon="12.2296978"><ele>268.8</ele><time>2026-04-19T09:29:51.42Z</time></trkpt><trkpt lat="43.1697776" lon="12.2297164"><ele>268.59999999999997</ele><time>2026-04-19T09:29:52.416Z</time></trkpt><trkpt lat="43.1697039" lon="12.2297412"><ele>268.4</ele><time>2026-04-19T09:29:53.419Z</time></trkpt><trkpt lat="43.1696406" lon="12.2297653"><ele>268.2</ele><time>2026-04-19T09:29:54.422Z</time></trkpt><trkpt lat="43.1694814" lon="12.2298392"><ele>268.0</ele><time>2026-04-19T09:29:57.322Z</time></trkpt><trkpt lat="43.1693755" lon="12.2299033"><ele>268.0</ele><time>2026-04-19T09:29:59.327Z</time></trkpt><trkpt lat="43.1692856" lon="12.2299585"><ele>268.0</ele><time>2026-04-19T09:30:01.34Z</time></trkpt><trkpt lat="43.1692579" lon="12.2300576"><ele>268.0</ele><time>2026-04-19T09:30:05.324Z</time></trkpt><trkpt lat="43.1692527" lon="12.2302191"><ele>268.0</ele><time>2026-04-19T09:30:07.325Z</time></trkpt><trkpt lat="43.1692667" lon="12.2303108"><ele>268.0</ele><time>2026-04-19T09:30:08.343Z</time></trkpt><trkpt lat="43.1692808" lon="12.2304102"><ele>268.0</ele><time>2026-04-19T09:30:09.322Z</time></trkpt><trkpt lat="43.1693004" lon="12.2305231"><ele>268.0</ele><time>2026-04-19T09:30:10.316Z</time></trkpt><trkpt lat="43.1693085" lon="12.2306319"><ele>268.0</ele><time>2026-04-19T09:30:11.328Z</time></trkpt><trkpt lat="43.169311" lon="12.2307557"><ele>268.0</ele><time>2026-04-19T09:30:12.328Z</time></trkpt><trkpt lat="43.1693209" lon="12.2308932"><ele>268.0</ele><time>2026-04-19T09:30:13.325Z</time></trkpt><trkpt lat="43.1693316" lon="12.2310246"><ele>268.0</ele><time>2026-04-19T09:30:14.328Z</time></trkpt><trkpt lat="43.1693419" lon="12.2311385"><ele>268.2</ele><time>2026-04-19T09:30:15.329Z</time></trkpt><trkpt lat="43.1693355" lon="12.2312334"><ele>268.4</ele><time>2026-04-19T09:30:16.327Z</time></trkpt><trkpt lat="43.169303" lon="12.2313724"><ele>268.59999999999997</ele><time>2026-04-19T09:30:18.332Z</time></trkpt><trkpt lat="43.1692648" lon="12.2315123"><ele>268.8</ele><time>2026-04-19T09:30:20.328Z</time></trkpt><trkpt lat="43.1692198" lon="12.2316575"><ele>269.0</ele><time>2026-04-19T09:30:22.328Z</time></trkpt><trkpt lat="43.1691898" lon="12.2318229"><ele>269.2</ele><time>2026-04-19T09:30:24.345Z</time></trkpt><trkpt lat="43.1691844" lon="12.2319366"><ele>269.4</ele><time>2026-04-19T09:30:25.358Z</time></trkpt><trkpt lat="43.1691818" lon="12.2320767"><ele>269.6</ele><time>2026-04-19T09:30:26.328Z</time></trkpt><trkpt lat="43.1691817" lon="12.2322052"><ele>269.8</ele><time>2026-04-19T09:30:27.333Z</time></trkpt><trkpt lat="43.1691738" lon="12.2323335"><ele>270.0</ele><time>2026-04-19T09:30:28.336Z</time></trkpt><trkpt lat="43.169161" lon="12.2324544"><ele>270.0</ele><time>2026-04-19T09:30:29.381Z</time></trkpt><trkpt lat="43.1691458" lon="12.2325867"><ele>270.0</ele><time>2026-04-19T09:30:30.336Z</time></trkpt><trkpt lat="43.1691281" lon="12.232717"><ele>270.0</ele><time>2026-04-19T09:30:31.337Z</time></trkpt><trkpt lat="43.1691142" lon="12.2328248"><ele>270.0</ele><time>2026-04-19T09:30:32.332Z</time></trkpt><trkpt lat="43.1691022" lon="12.2329221"><ele>270.0</ele><time>2026-04-19T09:30:33.332Z</time></trkpt><trkpt lat="43.1690669" lon="12.2330644"><ele>270.1666666666667</ele><time>2026-04-19T09:30:35.326Z</time></trkpt><trkpt lat="43.1690142" lon="12.2331158"><ele>270.3333333333333</ele><time>2026-04-19T09:30:39.336Z</time></trkpt><trkpt lat="43.1689472" lon="12.2330638"><ele>270.5</ele><time>2026-04-19T09:30:41.357Z</time></trkpt><trkpt lat="43.1688389" lon="12.23299"><ele>270.66666666666663</ele><time>2026-04-19T09:30:43.332Z</time></trkpt><trkpt lat="43.1687696" lon="12.2329521"><ele>270.8333333333333</ele><time>2026-04-19T09:30:44.345Z</time></trkpt><trkpt lat="43.1686939" lon="12.2329048"><ele>271.0</ele><time>2026-04-19T09:30:45.353Z</time></trkpt><trkpt lat="43.1686154" lon="12.2328607"><ele>271.0</ele><time>2026-04-19T09:30:46.336Z</time></trkpt><trkpt lat="43.1685337" lon="12.2328295"><ele>271.0</ele><time>2026-04-19T09:30:47.34Z</time></trkpt><trkpt lat="43.1684526" lon="12.2328029"><ele>271.0</ele><time>2026-04-19T09:30:48.338Z</time></trkpt><trkpt lat="43.1683827" lon="12.2327851"><ele>271.0</ele><time>2026-04-19T09:30:49.328Z</time></trkpt><trkpt lat="43.1683157" lon="12.2327766"><ele>271.0</ele><time>2026-04-19T09:30:50.338Z</time></trkpt><trkpt lat="43.1682444" lon="12.2327785"><ele>271.0</ele><time>2026-04-19T09:30:51.332Z</time></trkpt><trkpt lat="43.1681661" lon="12.2327838"><ele>272.8</ele><time>2026-04-19T09:30:52.341Z</time></trkpt><trkpt lat="43.1680895" lon="12.2327842"><ele>274.6</ele><time>2026-04-19T09:30:53.351Z</time></trkpt><trkpt lat="43.1680219" lon="12.2327565"><ele>276.4</ele><time>2026-04-19T09:30:54.34Z</time></trkpt><trkpt lat="43.1679257" lon="12.23266"><ele>278.2</ele><time>2026-04-19T09:30:56.346Z</time></trkpt><trkpt lat="43.1678618" lon="12.2325211"><ele>280.0</ele><time>2026-04-19T09:30:58.346Z</time></trkpt><trkpt lat="43.1678036" lon="12.2323723"><ele>280.4</ele><time>2026-04-19T09:31:00.356Z</time></trkpt><trkpt lat="43.1677277" lon="12.2322528"><ele>280.8</ele><time>2026-04-19T09:31:02.349Z</time></trkpt><trkpt lat="43.167665" lon="12.232204"><ele>281.2</ele><time>2026-04-19T09:31:03.367Z</time></trkpt><trkpt lat="43.1675723" lon="12.2321523"><ele>281.6</ele><time>2026-04-19T09:31:04.348Z</time></trkpt><trkpt lat="43.1674683" lon="12.2321017"><ele>282.0</ele><time>2026-04-19T09:31:05.343Z</time></trkpt><trkpt lat="43.1672741" lon="12.2319877"><ele>282.0</ele><time>2026-04-19T09:31:07.374Z</time></trkpt><trkpt lat="43.1671724" lon="12.2319339"><ele>282.0</ele><time>2026-04-19T09:31:08.352Z</time></trkpt><trkpt lat="43.1670625" lon="12.2318834"><ele>282.0</ele><time>2026-04-19T09:31:09.354Z</time></trkpt><trkpt lat="43.1669511" lon="12.2318344"><ele>282.0</ele><time>2026-04-19T09:31:10.339Z</time></trkpt><trkpt lat="43.1668433" lon="12.2317843"><ele>282.0</ele><time>2026-04-19T09:31:11.355Z</time></trkpt><trkpt lat="43.1667479" lon="12.2317367"><ele>282.0</ele><time>2026-04-19T09:31:12.354Z</time></trkpt><trkpt lat="43.1666587" lon="12.2316973"><ele>282.0</ele><time>2026-04-19T09:31:13.349Z</time></trkpt><trkpt lat="43.1665711" lon="12.2316602"><ele>282.0</ele><time>2026-04-19T09:31:14.349Z</time></trkpt><trkpt lat="43.1664827" lon="12.2316295"><ele>282.0</ele><time>2026-04-19T09:31:15.356Z</time></trkpt><trkpt lat="43.1663997" lon="12.2316025"><ele>282.1666666666667</ele><time>2026-04-19T09:31:16.358Z</time></trkpt><trkpt lat="43.1663299" lon="12.2315867"><ele>282.3333333333333</ele><time>2026-04-19T09:31:17.374Z</time></trkpt><trkpt lat="43.1662474" lon="12.2315665"><ele>282.5</ele><time>2026-04-19T09:31:19.35Z</time></trkpt><trkpt lat="43.1661883" lon="12.2315986"><ele>282.66666666666663</ele><time>2026-04-19T09:31:21.378Z</time></trkpt><trkpt lat="43.166174" lon="12.2316888"><ele>282.8333333333333</ele><time>2026-04-19T09:31:23.355Z</time></trkpt><trkpt lat="43.1662375" lon="12.231805"><ele>283.0</ele><time>2026-04-19T09:31:25.361Z</time></trkpt><trkpt lat="43.166289" lon="12.2319486"><ele>283.0</ele><time>2026-04-19T09:31:27.365Z</time></trkpt><trkpt lat="43.1663005" lon="12.2321149"><ele>283.0</ele><time>2026-04-19T09:31:29.362Z</time></trkpt><trkpt lat="43.1662907" lon="12.2322163"><ele>283.0</ele><time>2026-04-19T09:31:30.358Z</time></trkpt><trkpt lat="43.1662818" lon="12.2323231"><ele>283.0</ele><time>2026-04-19T09:31:31.365Z</time></trkpt><trkpt lat="43.1662762" lon="12.2324331"><ele>283.0</ele><time>2026-04-19T09:31:32.365Z</time></trkpt><trkpt lat="43.1662722" lon="12.2325393"><ele>283.0</ele><time>2026-04-19T09:31:33.363Z</time></trkpt><trkpt lat="43.1662619" lon="12.2326341"><ele>283.8333333333333</ele><time>2026-04-19T09:31:34.357Z</time></trkpt><trkpt lat="43.1662661" lon="12.2327212"><ele>284.66666666666663</ele><time>2026-04-19T09:31:35.355Z</time></trkpt><trkpt lat="43.1662839" lon="12.2328111"><ele>285.5</ele><time>2026-04-19T09:31:36.371Z</time></trkpt><trkpt lat="43.1663178" lon="12.2329252"><ele>286.3333333333333</ele><time>2026-04-19T09:31:37.355Z</time></trkpt><trkpt lat="43.1663469" lon="12.2330441"><ele>287.1666666666667</ele><time>2026-04-19T09:31:38.36Z</time></trkpt><trkpt lat="43.1663753" lon="12.2331539"><ele>288.0</ele><time>2026-04-19T09:31:39.362Z</time></trkpt><trkpt lat="43.1663941" lon="12.2332505"><ele>289.1666666666667</ele><time>2026-04-19T09:31:40.365Z</time></trkpt><trkpt lat="43.1664095" lon="12.2333373"><ele>290.3333333333333</ele><time>2026-04-19T09:31:41.358Z</time></trkpt><trkpt lat="43.1664346" lon="12.233423"><ele>291.5</ele><time>2026-04-19T09:31:42.368Z</time></trkpt><trkpt lat="43.1664604" lon="12.2335237"><ele>292.66666666666663</ele><time>2026-04-19T09:31:43.361Z</time></trkpt><trkpt lat="43.1664854" lon="12.2336275"><ele>293.8333333333333</ele><time>2026-04-19T09:31:44.361Z</time></trkpt><trkpt lat="43.1665152" lon="12.2337481"><ele>295.0</ele><time>2026-04-19T09:31:45.367Z</time></trkpt><trkpt lat="43.1665484" lon="12.233862"><ele>297.16666666666663</ele><time>2026-04-19T09:31:46.365Z</time></trkpt><trkpt lat="43.1665812" lon="12.2339735"><ele>299.3333333333333</ele><time>2026-04-19T09:31:47.362Z</time></trkpt><trkpt lat="43.1666125" lon="12.2340864"><ele>301.5</ele><time>2026-04-19T09:31:48.374Z</time></trkpt><trkpt lat="43.1666514" lon="12.2341916"><ele>303.6666666666667</ele><time>2026-04-19T09:31:49.367Z</time></trkpt><trkpt lat="43.1666854" lon="12.2342768"><ele>305.83333333333337</ele><time>2026-04-19T09:31:50.373Z</time></trkpt><trkpt lat="43.1667321" lon="12.234389"><ele>308.0</ele><time>2026-04-19T09:31:52.365Z</time></trkpt><trkpt lat="43.1667249" lon="12.2344803"><ele>308.0</ele><time>2026-04-19T09:31:54.371Z</time></trkpt><trkpt lat="43.1667573" lon="12.2345965"><ele>308.0</ele><time>2026-04-19T09:31:56.371Z</time></trkpt><trkpt lat="43.1668338" lon="12.234675"><ele>308.0</ele><time>2026-04-19T09:31:58.377Z</time></trkpt><trkpt lat="43.1669061" lon="12.234749"><ele>308.0</ele><time>2026-04-19T09:32:00.366Z</time></trkpt><trkpt lat="43.1669661" lon="12.234832"><ele>308.0</ele><time>2026-04-19T09:32:02.372Z</time></trkpt><trkpt lat="43.1670066" lon="12.2349318"><ele>308.0</ele><time>2026-04-19T09:32:04.373Z</time></trkpt><trkpt lat="43.1670056" lon="12.2350732"><ele>310.4</ele><time>2026-04-19T09:32:06.375Z</time></trkpt><trkpt lat="43.1669659" lon="12.2351952"><ele>312.8</ele><time>2026-04-19T09:32:08.378Z</time></trkpt><trkpt lat="43.1669126" lon="12.2352832"><ele>315.2</ele><time>2026-04-19T09:32:10.374Z</time></trkpt><trkpt lat="43.1668452" lon="12.2353648"><ele>317.6</ele><time>2026-04-19T09:32:12.379Z</time></trkpt><trkpt lat="43.166758" lon="12.2354268"><ele>320.0</ele><time>2026-04-19T09:32:14.378Z</time></trkpt><trkpt lat="43.1666726" lon="12.235507"><ele>320.0</ele><time>2026-04-19T09:32:16.383Z</time></trkpt><trkpt lat="43.1666418" lon="12.235602"><ele>320.0</ele><time>2026-04-19T09:32:18.377Z</time></trkpt><trkpt lat="43.1666004" lon="12.2357607"><ele>320.0</ele><time>2026-04-19T09:32:20.371Z</time></trkpt><trkpt lat="43.1665666" lon="12.2358381"><ele>320.0</ele><time>2026-04-19T09:32:21.386Z</time></trkpt><trkpt lat="43.1664965" lon="12.2359839"><ele>320.0</ele><time>2026-04-19T09:32:23.379Z</time></trkpt><trkpt lat="43.1664564" lon="12.236054"><ele>322.75</ele><time>2026-04-19T09:32:24.375Z</time></trkpt><trkpt lat="43.1663726" lon="12.2361762"><ele>325.5</ele><time>2026-04-19T09:32:26.407Z</time></trkpt><trkpt lat="43.1662613" lon="12.2362749"><ele>328.25</ele><time>2026-04-19T09:32:28.398Z</time></trkpt><trkpt lat="43.1661986" lon="12.2363147"><ele>331.0</ele><time>2026-04-19T09:32:29.384Z</time></trkpt><trkpt lat="43.1660778" lon="12.236371"><ele>331.0</ele><time>2026-04-19T09:32:31.398Z</time></trkpt><trkpt lat="43.1660131" lon="12.236399"><ele>331.0</ele><time>2026-04-19T09:32:32.389Z</time></trkpt><trkpt lat="43.1659127" lon="12.2364648"><ele>331.0</ele><time>2026-04-19T09:32:34.383Z</time></trkpt><trkpt lat="43.1658269" lon="12.2365371"><ele>331.0</ele><time>2026-04-19T09:32:36.394Z</time></trkpt><trkpt lat="43.1657716" lon="12.2366031"><ele>331.0</ele><time>2026-04-19T09:32:38.39Z</time></trkpt><trkpt lat="43.1657138" lon="12.2366823"><ele>331.0</ele><time>2026-04-19T09:32:40.385Z</time></trkpt><trkpt lat="43.1656585" lon="12.2367583"><ele>333.3333333333333</ele><time>2026-04-19T09:32:42.393Z</time></trkpt><trkpt lat="43.165617" lon="12.2368359"><ele>335.66666666666663</ele><time>2026-04-19T09:32:44.382Z</time></trkpt><trkpt lat="43.1655554" lon="12.2368968"><ele>338.0</ele><time>2026-04-19T09:32:46.397Z</time></trkpt><trkpt lat="43.1654979" lon="12.2369782"><ele>340.3333333333333</ele><time>2026-04-19T09:32:48.388Z</time></trkpt><trkpt lat="43.1654908" lon="12.2370673"><ele>342.6666666666667</ele><time>2026-04-19T09:32:50.387Z</time></trkpt><trkpt lat="43.1654629" lon="12.237166"><ele>345.0</ele><time>2026-04-19T09:32:53.39Z</time></trkpt><trkpt lat="43.1654229" lon="12.2372619"><ele>347.2</ele><time>2026-04-19T09:32:55.391Z</time></trkpt><trkpt lat="43.1653689" lon="12.2373649"><ele>349.4</ele><time>2026-04-19T09:32:57.381Z</time></trkpt><trkpt lat="43.1652961" lon="12.2374557"><ele>351.6</ele><time>2026-04-19T09:32:59.392Z</time></trkpt><trkpt lat="43.1652167" lon="12.237528"><ele>353.8</ele><time>2026-04-19T09:33:01.379Z</time></trkpt><trkpt lat="43.1651279" lon="12.2375466"><ele>356.0</ele><time>2026-04-19T09:33:03.391Z</time></trkpt><trkpt lat="43.1650453" lon="12.2375154"><ele>356.0</ele><time>2026-04-19T09:33:05.392Z</time></trkpt><trkpt lat="43.1649556" lon="12.2374742"><ele>356.0</ele><time>2026-04-19T09:33:07.387Z</time></trkpt><trkpt lat="43.164861" lon="12.2374703"><ele>356.0</ele><time>2026-04-19T09:33:09.387Z</time></trkpt><trkpt lat="43.1647528" lon="12.2374868"><ele>356.0</ele><time>2026-04-19T09:33:11.383Z</time></trkpt><trkpt lat="43.1646571" lon="12.2374882"><ele>356.0</ele><time>2026-04-19T09:33:13.399Z</time></trkpt><trkpt lat="43.1645552" lon="12.2374982"><ele>357.5</ele><time>2026-04-19T09:33:15.387Z</time></trkpt><trkpt lat="43.1644738" lon="12.2375012"><ele>359.0</ele><time>2026-04-19T09:33:17.391Z</time></trkpt><trkpt lat="43.1644092" lon="12.2375148"><ele>360.5</ele><time>2026-04-19T09:33:19.402Z</time></trkpt><trkpt lat="43.1643229" lon="12.2375082"><ele>362.0</ele><time>2026-04-19T09:33:30.391Z</time></trkpt><trkpt lat="43.164237" lon="12.2375022"><ele>363.5</ele><time>2026-04-19T09:33:32.394Z</time></trkpt><trkpt lat="43.1641416" lon="12.2375121"><ele>365.0</ele><time>2026-04-19T09:33:34.397Z</time></trkpt><trkpt lat="43.1640432" lon="12.2375354"><ele>366.6666666666667</ele><time>2026-04-19T09:33:36.394Z</time></trkpt><trkpt lat="43.1639504" lon="12.2375593"><ele>368.33333333333337</ele><time>2026-04-19T09:33:38.405Z</time></trkpt><trkpt lat="43.1638963" lon="12.2376209"><ele>370.0</ele><time>2026-04-19T09:33:40.401Z</time></trkpt><trkpt lat="43.1638613" lon="12.237705"><ele>371.6666666666667</ele><time>2026-04-19T09:33:42.415Z</time></trkpt><trkpt lat="43.1638993" lon="12.2377949"><ele>373.3333333333333</ele><time>2026-04-19T09:33:45.402Z</time></trkpt><trkpt lat="43.1639583" lon="12.2378399"><ele>375.0</ele><time>2026-04-19T09:33:47.405Z</time></trkpt><trkpt lat="43.1640298" lon="12.2379125"><ele>375.8333333333333</ele><time>2026-04-19T09:33:49.41Z</time></trkpt><trkpt lat="43.1640691" lon="12.2379841"><ele>376.6666666666667</ele><time>2026-04-19T09:33:51.411Z</time></trkpt><trkpt lat="43.164108" lon="12.238076"><ele>377.5</ele><time>2026-04-19T09:33:53.41Z</time></trkpt><trkpt lat="43.164152" lon="12.2381775"><ele>378.33333333333337</ele><time>2026-04-19T09:33:55.355Z</time></trkpt><trkpt lat="43.1642149" lon="12.2382541"><ele>379.1666666666667</ele><time>2026-04-19T09:33:57.405Z</time></trkpt><trkpt lat="43.1642502" lon="12.2383425"><ele>380.0</ele><time>2026-04-19T09:33:59.399Z</time></trkpt><trkpt lat="43.1642373" lon="12.2384575"><ele>380.0</ele><time>2026-04-19T09:34:01.401Z</time></trkpt><trkpt lat="43.1642051" lon="12.2385492"><ele>380.0</ele><time>2026-04-19T09:34:02.399Z</time></trkpt><trkpt lat="43.1641774" lon="12.2386508"><ele>380.0</ele><time>2026-04-19T09:34:03.421Z</time></trkpt><trkpt lat="43.1641373" lon="12.2387484"><ele>380.0</ele><time>2026-04-19T09:34:05.396Z</time></trkpt><trkpt lat="43.1640352" lon="12.2387659"><ele>380.0</ele><time>2026-04-19T09:34:18.412Z</time></trkpt><trkpt lat="43.1639462" lon="12.2387555"><ele>380.0</ele><time>2026-04-19T09:34:20.408Z</time></trkpt><trkpt lat="43.163816" lon="12.2387373"><ele>382.0</ele><time>2026-04-19T09:34:23.308Z</time></trkpt><trkpt lat="43.1637042" lon="12.23875"><ele>384.0</ele><time>2026-04-19T09:34:25.41Z</time></trkpt><trkpt lat="43.1635362" lon="12.2388038"><ele>386.0</ele><time>2026-04-19T09:34:28.333Z</time></trkpt><trkpt lat="43.1634732" lon="12.2388407"><ele>388.0</ele><time>2026-04-19T09:34:29.316Z</time></trkpt><trkpt lat="43.1634069" lon="12.2388684"><ele>390.0</ele><time>2026-04-19T09:34:30.327Z</time></trkpt><trkpt lat="43.1632971" lon="12.2389123"><ele>393.2</ele><time>2026-04-19T09:34:32.321Z</time></trkpt><trkpt lat="43.1631977" lon="12.2389984"><ele>396.4</ele><time>2026-04-19T09:34:34.329Z</time></trkpt><trkpt lat="43.1630988" lon="12.2391142"><ele>399.6</ele><time>2026-04-19T09:34:36.332Z</time></trkpt><trkpt lat="43.1630519" lon="12.2391743"><ele>402.8</ele><time>2026-04-19T09:34:37.32Z</time></trkpt><trkpt lat="43.1629563" lon="12.2392736"><ele>406.0</ele><time>2026-04-19T09:34:39.319Z</time></trkpt><trkpt lat="43.162855" lon="12.2393752"><ele>406.8</ele><time>2026-04-19T09:34:41.324Z</time></trkpt><trkpt lat="43.162756" lon="12.2394803"><ele>407.6</ele><time>2026-04-19T09:34:43.321Z</time></trkpt><trkpt lat="43.1626585" lon="12.2395884"><ele>408.4</ele><time>2026-04-19T09:34:45.315Z</time></trkpt><trkpt lat="43.1625717" lon="12.2396805"><ele>409.2</ele><time>2026-04-19T09:34:47.317Z</time></trkpt><trkpt lat="43.1625082" lon="12.2397619"><ele>410.0</ele><time>2026-04-19T09:34:49.32Z</time></trkpt><trkpt lat="43.1625047" lon="12.2398618"><ele>411.8333333333333</ele><time>2026-04-19T09:34:52.321Z</time></trkpt><trkpt lat="43.1625558" lon="12.2399397"><ele>413.66666666666663</ele><time>2026-04-19T09:34:54.33Z</time></trkpt><trkpt lat="43.1625579" lon="12.2400617"><ele>415.5</ele><time>2026-04-19T09:34:57.324Z</time></trkpt><trkpt lat="43.1624799" lon="12.2401396"><ele>417.33333333333337</ele><time>2026-04-19T09:34:59.348Z</time></trkpt><trkpt lat="43.1624261" lon="12.2401904"><ele>419.1666666666667</ele><time>2026-04-19T09:35:00.335Z</time></trkpt><trkpt lat="43.1623376" lon="12.2402818"><ele>421.0</ele><time>2026-04-19T09:35:02.326Z</time></trkpt><trkpt lat="43.1622578" lon="12.2403775"><ele>421.4</ele><time>2026-04-19T09:35:04.343Z</time></trkpt><trkpt lat="43.1622044" lon="12.2404464"><ele>421.8</ele><time>2026-04-19T09:35:05.332Z</time></trkpt><trkpt lat="43.1621533" lon="12.2405144"><ele>422.2</ele><time>2026-04-19T09:35:06.333Z</time></trkpt><trkpt lat="43.1620721" lon="12.2405939"><ele>422.59999999999997</ele><time>2026-04-19T09:35:08.334Z</time></trkpt><trkpt lat="43.1619808" lon="12.2406387"><ele>423.0</ele><time>2026-04-19T09:35:12.347Z</time></trkpt><trkpt lat="43.1618533" lon="12.2406466"><ele>423.0</ele><time>2026-04-19T09:35:14.339Z</time></trkpt><trkpt lat="43.1617834" lon="12.2406521"><ele>423.0</ele><time>2026-04-19T09:35:15.34Z</time></trkpt><trkpt lat="43.1617065" lon="12.2406468"><ele>423.0</ele><time>2026-04-19T09:35:16.343Z</time></trkpt><trkpt lat="43.1616422" lon="12.2406266"><ele>423.0</ele><time>2026-04-19T09:35:17.339Z</time></trkpt><trkpt lat="43.1614411" lon="12.2405311"><ele>423.0</ele><time>2026-04-19T09:35:20.343Z</time></trkpt><trkpt lat="43.161359" lon="12.2404858"><ele>425.0</ele><time>2026-04-19T09:35:21.339Z</time></trkpt><trkpt lat="43.1612915" lon="12.240436"><ele>427.0</ele><time>2026-04-19T09:35:22.332Z</time></trkpt><trkpt lat="43.1612301" lon="12.2403959"><ele>429.0</ele><time>2026-04-19T09:35:23.336Z</time></trkpt><trkpt lat="43.1611712" lon="12.2403615"><ele>431.0</ele><time>2026-04-19T09:35:24.331Z</time></trkpt><trkpt lat="43.1611071" lon="12.2403375"><ele>433.0</ele><time>2026-04-19T09:35:25.35Z</time></trkpt><trkpt lat="43.1610002" lon="12.2403216"><ele>435.0</ele><time>2026-04-19T09:35:27.349Z</time></trkpt><trkpt lat="43.1609174" lon="12.2403117"><ele>435.0</ele><time>2026-04-19T09:35:29.337Z</time></trkpt><trkpt lat="43.1608022" lon="12.2402472"><ele>435.0</ele><time>2026-04-19T09:35:31.341Z</time></trkpt><trkpt lat="43.1607426" lon="12.2402188"><ele>435.0</ele><time>2026-04-19T09:35:32.359Z</time></trkpt><trkpt lat="43.1606771" lon="12.2402017"><ele>435.0</ele><time>2026-04-19T09:35:33.337Z</time></trkpt><trkpt lat="43.1606075" lon="12.2401985"><ele>435.0</ele><time>2026-04-19T09:35:34.347Z</time></trkpt><trkpt lat="43.1605366" lon="12.240203"><ele>435.0</ele><time>2026-04-19T09:35:35.337Z</time></trkpt><trkpt lat="43.1604541" lon="12.2402114"><ele>437.8333333333333</ele><time>2026-04-19T09:35:36.359Z</time></trkpt><trkpt lat="43.1603667" lon="12.2402143"><ele>440.66666666666663</ele><time>2026-04-19T09:35:37.348Z</time></trkpt><trkpt lat="43.1602907" lon="12.240224"><ele>443.5</ele><time>2026-04-19T09:35:38.347Z</time></trkpt><trkpt lat="43.160213" lon="12.2402377"><ele>446.3333333333333</ele><time>2026-04-19T09:35:39.35Z</time></trkpt><trkpt lat="43.1601355" lon="12.2402295"><ele>449.16666666666663</ele><time>2026-04-19T09:35:40.354Z</time></trkpt><trkpt lat="43.1600677" lon="12.2402106"><ele>452.0</ele><time>2026-04-19T09:35:41.337Z</time></trkpt><trkpt lat="43.1599397" lon="12.2402107"><ele>452.0</ele><time>2026-04-19T09:35:43.343Z</time></trkpt><trkpt lat="43.1598713" lon="12.2402274"><ele>452.0</ele><time>2026-04-19T09:35:44.348Z</time></trkpt><trkpt lat="43.1598042" lon="12.2402488"><ele>452.0</ele><time>2026-04-19T09:35:45.352Z</time></trkpt><trkpt lat="43.1597385" lon="12.240266"><ele>452.0</ele><time>2026-04-19T09:35:46.352Z</time></trkpt><trkpt lat="43.1596695" lon="12.2402886"><ele>452.0</ele><time>2026-04-19T09:35:47.349Z</time></trkpt><trkpt lat="43.1596092" lon="12.2403299"><ele>452.0</ele><time>2026-04-19T09:35:48.349Z</time></trkpt><trkpt lat="43.1595616" lon="12.2403977"><ele>452.0</ele><time>2026-04-19T09:35:49.351Z</time></trkpt><trkpt lat="43.1595148" lon="12.2404837"><ele>456.0</ele><time>2026-04-19T09:35:50.345Z</time></trkpt><trkpt lat="43.1594679" lon="12.2405561"><ele>456.0</ele><time>2026-04-19T09:35:51.353Z</time></trkpt><trkpt lat="43.1593789" lon="12.240648"><ele>463.0</ele><time>2026-04-19T09:35:53.352Z</time></trkpt><trkpt lat="43.1593192" lon="12.2406834"><ele>463.0</ele><time>2026-04-19T09:35:55.351Z</time></trkpt></trkseg></trk></gpx>